Wetterdaten: Dienstag, 11.04.2017
Datum Zeit Temp. A. Temp. A. max Feuchte A. Luftdruck Regen Wind Richtung Richtung Sonnenschein ET UV Solar Taupunkt Windchill Windböen
11.04.2017 00:00 12,2 °C 12,3 °C 70 % 1017,0 hPa 0,0 mm 1,3 km/h (1 Bft) W 281 ° 0 min 0,000 mm 0,0 UV-I 0 W/m² 6,9 °C 12,2 °C 4,8 km/h (1 Bft)
11.04.2017 00:01 12,2 °C 12,2 °C 70 % 1017,0 hPa 0,0 mm 1,3 km/h (1 Bft) W 277 ° 0 min 0,000 mm 0,0 UV-I 0 W/m² 6,9 °C 12,2 °C 4,8 km/h (1 Bft)
11.04.2017 00:02 12,1 °C 12,2 °C 70 % 1016,8 hPa 0,0 mm 0,2 km/h (0 Bft) W 277 ° 0 min 0,000 mm 0,0 UV-I 0 W/m² 6,8 °C 12,1 °C 1,6 km/h (1 Bft)
11.04.2017 00:03 12,2 °C 12,2 °C 70 % 1016,8 hPa 0,0 mm 1,4 km/h (1 Bft) SW 217 ° 0 min 0,000 mm 0,0 UV-I 0 W/m² 6,9 °C 12,2 °C 3,2 km/h (1 Bft)
11.04.2017 00:04 12,1 °C 12,2 °C 70 % 1016,7 hPa 0,0 mm 0,3 km/h (0 Bft) SW 217 ° 0 min 0,000 mm 0,0 UV-I 0 W/m² 6,8 °C 12,1 °C 1,6 km/h (1 Bft)
11.04.2017 00:05 12,1 °C 12,1 °C 71 % 1016,7 hPa 0,0 mm 0,0 km/h (0 Bft) SW 217 ° 0 min 0,000 mm 0,0 UV-I 0 W/m² 7,0 °C 12,1 °C 0,0 km/h (0 Bft)
11.04.2017 00:06 12,1 °C 12,1 °C 70 % 1016,7 hPa 0,0 mm 1,5 km/h (1 Bft) SW 217 ° 0 min 0,000 mm 0,0 UV-I 0 W/m² 6,8 °C 12,1 °C 3,2 km/h (1 Bft)
11.04.2017 00:07 12,1 °C 12,1 °C 71 % 1016,7 hPa 0,0 mm 1,0 km/h (0 Bft) SW 217 ° 0 min 0,000 mm 0,0 UV-I 0 W/m² 7,0 °C 12,1 °C 1,6 km/h (1 Bft)
11.04.2017 00:08 12,1 °C 12,1 °C 71 % 1016,6 hPa 0,0 mm 0,2 km/h (0 Bft) SW 217 ° 0 min 0,000 mm 0,0 UV-I 0 W/m² 7,0 °C 12,1 °C 1,6 km/h (1 Bft)
11.04.2017 00:09 12,0 °C 12,1 °C 71 % 1016,5 hPa 0,0 mm 0,0 km/h (0 Bft) SW 217 ° 0 min 0,000 mm 0,0 UV-I 0 W/m² 6,9 °C 12,0 °C 0,0 km/h (0 Bft)
11.04.2017 00:10 12,0 °C 12,1 °C 71 % 1016,4 hPa 0,0 mm 0,0 km/h (0 Bft) SW 217 ° 0 min 0,000 mm 0,0 UV-I 0 W/m² 6,9 °C 12,0 °C 0,0 km/h (0 Bft)
11.04.2017 00:11 11,9 °C 12,1 °C 73 % 1016,4 hPa 0,0 mm 0,0 km/h (0 Bft) SW 217 ° 0 min 0,000 mm 0,0 UV-I 0 W/m² 7,2 °C 11,9 °C 0,0 km/h (0 Bft)
11.04.2017 00:12 11,8 °C 11,9 °C 73 % 1016,4 hPa 0,0 mm 0,0 km/h (0 Bft) SW 217 ° 0 min 0,000 mm 0,0 UV-I 0 W/m² 7,1 °C 11,8 °C 0,0 km/h (0 Bft)
11.04.2017 00:13 11,7 °C 11,8 °C 73 % 1016,4 hPa 0,0 mm 0,0 km/h (0 Bft) SW 217 ° 0 min 0,000 mm 0,0 UV-I 0 W/m² 7,0 °C 11,7 °C 0,0 km/h (0 Bft)
11.04.2017 00:14 11,7 °C 11,7 °C 73 % 1016,4 hPa 0,0 mm 0,0 km/h (0 Bft) SW 217 ° 0 min 0,000 mm 0,0 UV-I 0 W/m² 7,0 °C 11,7 °C 0,0 km/h (0 Bft)
11.04.2017 00:15 11,6 °C 11,7 °C 73 % 1016,5 hPa 0,0 mm 0,0 km/h (0 Bft) SW 217 ° 0 min 0,000 mm 0,0 UV-I 0 W/m² 6,9 °C 11,6 °C 0,0 km/h (0 Bft)
11.04.2017 00:16 11,6 °C 11,6 °C 73 % 1016,5 hPa 0,0 mm 0,0 km/h (0 Bft) SW 217 ° 0 min 0,000 mm 0,0 UV-I 0 W/m² 6,9 °C 11,6 °C 0,0 km/h (0 Bft)
11.04.2017 00:17 11,6 °C 11,6 °C 73 % 1016,5 hPa 0,0 mm 0,0 km/h (0 Bft) SW 217 ° 0 min 0,000 mm 0,0 UV-I 0 W/m² 6,9 °C 11,6 °C 0,0 km/h (0 Bft)
11.04.2017 00:18 11,5 °C 11,6 °C 73 % 1016,6 hPa 0,0 mm 0,0 km/h (0 Bft) SW 217 ° 0 min 0,000 mm 0,0 UV-I 0 W/m² 6,8 °C 11,5 °C 0,0 km/h (0 Bft)
11.04.2017 00:19 11,6 °C 11,6 °C 73 % 1016,6 hPa 0,0 mm 0,0 km/h (0 Bft) SW 217 ° 0 min 0,000 mm 0,0 UV-I 0 W/m² 6,9 °C 11,6 °C 0,0 km/h (0 Bft)
11.04.2017 00:20 11,5 °C 11,6 °C 73 % 1016,7 hPa 0,0 mm 0,0 km/h (0 Bft) SW 217 ° 0 min 0,000 mm 0,0 UV-I 0 W/m² 6,8 °C 11,5 °C 0,0 km/h (0 Bft)
11.04.2017 00:21 11,6 °C 11,6 °C 72 % 1016,7 hPa 0,0 mm 0,0 km/h (0 Bft) SW 217 ° 0 min 0,000 mm 0,0 UV-I 0 W/m² 6,7 °C 11,6 °C 0,0 km/h (0 Bft)
11.04.2017 00:22 11,6 °C 11,6 °C 72 % 1016,7 hPa 0,0 mm 0,0 km/h (0 Bft) SW 217 ° 0 min 0,000 mm 0,0 UV-I 0 W/m² 6,7 °C 11,6 °C 0,0 km/h (0 Bft)
11.04.2017 00:23 11,6 °C 11,6 °C 72 % 1016,7 hPa 0,0 mm 0,0 km/h (0 Bft) SW 217 ° 0 min 0,000 mm 0,0 UV-I 0 W/m² 6,7 °C 11,6 °C 0,0 km/h (0 Bft)
11.04.2017 00:24 11,6 °C 11,7 °C 72 % 1016,8 hPa 0,0 mm 0,0 km/h (0 Bft) SW 217 ° 0 min 0,000 mm 0,0 UV-I 0 W/m² 6,7 °C 11,6 °C 0,0 km/h (0 Bft)
11.04.2017 00:25 11,6 °C 11,7 °C 72 % 1016,8 hPa 0,0 mm 0,5 km/h (0 Bft) SW 217 ° 0 min 0,000 mm 0,0 UV-I 0 W/m² 6,7 °C 11,6 °C 1,6 km/h (1 Bft)
11.04.2017 00:26 11,6 °C 11,6 °C 72 % 1016,8 hPa 0,0 mm 0,0 km/h (0 Bft) SW 217 ° 0 min 0,000 mm 0,0 UV-I 0 W/m² 6,7 °C 11,6 °C 0,0 km/h (0 Bft)
11.04.2017 00:27 11,6 °C 11,6 °C 72 % 1016,8 hPa 0,0 mm 0,0 km/h (0 Bft) SW 217 ° 0 min 0,000 mm 0,0 UV-I 0 W/m² 6,7 °C 11,6 °C 0,0 km/h (0 Bft)
11.04.2017 00:28 11,4 °C 11,6 °C 72 % 1016,8 hPa 0,0 mm 0,0 km/h (0 Bft) SW 217 ° 0 min 0,000 mm 0,0 UV-I 0 W/m² 6,5 °C 11,4 °C 0,0 km/h (0 Bft)
11.04.2017 00:29 11,4 °C 11,5 °C 73 % 1016,9 hPa 0,0 mm 0,0 km/h (0 Bft) SW 217 ° 0 min 0,000 mm 0,0 UV-I 0 W/m² 6,7 °C 11,4 °C 0,0 km/h (0 Bft)
11.04.2017 00:30 11,3 °C 11,4 °C 73 % 1016,9 hPa 0,0 mm 0,0 km/h (0 Bft) SW 217 ° 0 min 0,000 mm 0,0 UV-I 0 W/m² 6,6 °C 11,3 °C 0,0 km/h (0 Bft)
11.04.2017 00:31 11,3 °C 11,3 °C 74 % 1016,9 hPa 0,0 mm 0,0 km/h (0 Bft) SW 217 ° 0 min 0,000 mm 0,0 UV-I 0 W/m² 6,8 °C 11,3 °C 0,0 km/h (0 Bft)
11.04.2017 00:32 11,2 °C 11,3 °C 74 % 1017,0 hPa 0,0 mm 0,0 km/h (0 Bft) SW 217 ° 0 min 0,000 mm 0,0 UV-I 0 W/m² 6,7 °C 11,2 °C 0,0 km/h (0 Bft)
11.04.2017 00:33 11,0 °C 11,2 °C 75 % 1017,1 hPa 0,0 mm 0,0 km/h (0 Bft) SW 217 ° 0 min 0,000 mm 0,0 UV-I 0 W/m² 6,7 °C 11,0 °C 0,0 km/h (0 Bft)
11.04.2017 00:34 10,9 °C 11,0 °C 75 % 1017,1 hPa 0,0 mm 0,0 km/h (0 Bft) SW 217 ° 0 min 0,000 mm 0,0 UV-I 0 W/m² 6,6 °C 10,9 °C 0,0 km/h (0 Bft)
11.04.2017 00:35 10,9 °C 10,9 °C 75 % 1017,1 hPa 0,0 mm 1,1 km/h (1 Bft) SW 217 ° 0 min 0,000 mm 0,0 UV-I 0 W/m² 6,6 °C 10,9 °C 3,2 km/h (1 Bft)
11.04.2017 00:36 10,9 °C 10,9 °C 75 % 1017,1 hPa 0,0 mm 1,4 km/h (1 Bft) SW 217 ° 0 min 0,000 mm 0,0 UV-I 0 W/m² 6,6 °C 10,9 °C 1,6 km/h (1 Bft)
11.04.2017 00:37 10,9 °C 10,9 °C 75 % 1017,1 hPa 0,0 mm 1,2 km/h (1 Bft) SW 217 ° 0 min 0,000 mm 0,0 UV-I 0 W/m² 6,6 °C 10,9 °C 3,2 km/h (1 Bft)
11.04.2017 00:38 10,9 °C 10,9 °C 75 % 1017,1 hPa 0,0 mm 1,2 km/h (1 Bft) SW 217 ° 0 min 0,000 mm 0,0 UV-I 0 W/m² 6,6 °C 10,9 °C 3,2 km/h (1 Bft)
11.04.2017 00:39 10,9 °C 10,9 °C 75 % 1017,2 hPa 0,0 mm 2,3 km/h (1 Bft) W 265 ° 0 min 0,000 mm 0,0 UV-I 0 W/m² 6,6 °C 10,9 °C 4,8 km/h (1 Bft)
11.04.2017 00:40 10,9 °C 10,9 °C 75 % 1017,2 hPa 0,0 mm 0,2 km/h (0 Bft) W 265 ° 0 min 0,000 mm 0,0 UV-I 0 W/m² 6,6 °C 10,9 °C 1,6 km/h (1 Bft)
11.04.2017 00:41 10,9 °C 10,9 °C 75 % 1017,2 hPa 0,0 mm 3,0 km/h (1 Bft) W 265 ° 0 min 0,000 mm 0,0 UV-I 0 W/m² 6,6 °C 10,9 °C 4,8 km/h (1 Bft)
11.04.2017 00:42 11,0 °C 11,0 °C 75 % 1017,3 hPa 0,0 mm 3,8 km/h (1 Bft) W-NW 284 ° 0 min 0,000 mm 0,0 UV-I 0 W/m² 6,7 °C 11,0 °C 6,4 km/h (2 Bft)
11.04.2017 00:43 11,0 °C 11,0 °C 75 % 1017,3 hPa 0,0 mm 7,0 km/h (2 Bft) N-NW 337 ° 0 min 0,000 mm 0,0 UV-I 0 W/m² 6,7 °C 11,0 °C 14,5 km/h (3 Bft)
11.04.2017 00:44 11,1 °C 11,1 °C 75 % 1017,4 hPa 0,0 mm 2,6 km/h (1 Bft) W-NW 298 ° 0 min 0,000 mm 0,0 UV-I 0 W/m² 6,8 °C 11,1 °C 8,0 km/h (2 Bft)
11.04.2017 00:45 11,1 °C 11,1 °C 74 % 1017,4 hPa 0,0 mm 3,7 km/h (1 Bft) W-NW 290 ° 0 min 0,000 mm 0,0 UV-I 0 W/m² 6,6 °C 11,1 °C 6,4 km/h (2 Bft)
11.04.2017 00:46 11,0 °C 11,1 °C 75 % 1017,4 hPa 0,0 mm 3,7 km/h (1 Bft) NW 319 ° 0 min 0,000 mm 0,0 UV-I 0 W/m² 6,7 °C 11,0 °C 8,0 km/h (2 Bft)
11.04.2017 00:47 11,0 °C 11,0 °C 75 % 1017,4 hPa 0,0 mm 3,3 km/h (1 Bft) W-NW 292 ° 0 min 0,000 mm 0,0 UV-I 0 W/m² 6,7 °C 11,0 °C 4,8 km/h (1 Bft)
11.04.2017 00:48 10,9 °C 11,0 °C 76 % 1017,4 hPa 0,0 mm 3,2 km/h (1 Bft) W-NW 293 ° 0 min 0,000 mm 0,0 UV-I 0 W/m² 6,8 °C 10,9 °C 6,4 km/h (2 Bft)
11.04.2017 00:49 10,9 °C 10,9 °C 76 % 1017,5 hPa 0,0 mm 3,2 km/h (1 Bft) W-NW 297 ° 0 min 0,000 mm 0,0 UV-I 0 W/m² 6,8 °C 10,9 °C 4,8 km/h (1 Bft)
11.04.2017 00:50 10,8 °C 10,9 °C 76 % 1017,5 hPa 0,0 mm 8,0 km/h (2 Bft) W 269 ° 0 min 0,000 mm 0,0 UV-I 0 W/m² 6,7 °C 10,8 °C 12,9 km/h (3 Bft)
11.04.2017 00:51 10,8 °C 10,8 °C 76 % 1017,5 hPa 0,0 mm 12,2 km/h (2 Bft) W-SW 249 ° 0 min 0,000 mm 0,0 UV-I 0 W/m² 6,7 °C 10,8 °C 16,1 km/h (3 Bft)
11.04.2017 00:52 10,8 °C 10,8 °C 76 % 1017,5 hPa 0,0 mm 7,1 km/h (2 Bft) W-NW 290 ° 0 min 0,000 mm 0,0 UV-I 0 W/m² 6,7 °C 10,8 °C 11,3 km/h (2 Bft)
11.04.2017 00:53 10,8 °C 10,8 °C 76 % 1017,5 hPa 0,0 mm 4,9 km/h (1 Bft) W 261 ° 0 min 0,000 mm 0,0 UV-I 0 W/m² 6,7 °C 10,8 °C 9,7 km/h (2 Bft)
11.04.2017 00:54 10,7 °C 10,8 °C 76 % 1017,5 hPa 0,0 mm 6,0 km/h (2 Bft) W 259 ° 0 min 0,000 mm 0,0 UV-I 0 W/m² 6,6 °C 10,7 °C 11,3 km/h (2 Bft)
11.04.2017 00:55 10,7 °C 10,7 °C 76 % 1017,5 hPa 0,0 mm 7,0 km/h (2 Bft) NW 304 ° 0 min 0,000 mm 0,0 UV-I 0 W/m² 6,6 °C 10,7 °C 11,3 km/h (2 Bft)
11.04.2017 00:56 10,7 °C 10,7 °C 76 % 1017,6 hPa 0,0 mm 5,8 km/h (2 Bft) W 277 ° 0 min 0,000 mm 0,0 UV-I 0 W/m² 6,6 °C 10,7 °C 11,3 km/h (2 Bft)
11.04.2017 00:57 10,7 °C 10,7 °C 76 % 1017,6 hPa 0,0 mm 7,8 km/h (2 Bft) NW 311 ° 0 min 0,000 mm 0,0 UV-I 0 W/m² 6,6 °C 10,7 °C 12,9 km/h (3 Bft)
11.04.2017 00:58 10,7 °C 10,7 °C 76 % 1017,6 hPa 0,0 mm 4,8 km/h (1 Bft) W-SW 256 ° 0 min 0,000 mm 0,0 UV-I 0 W/m² 6,6 °C 10,7 °C 8,0 km/h (2 Bft)
11.04.2017 00:59 10,7 °C 10,7 °C 76 % 1017,6 hPa 0,0 mm 7,2 km/h (2 Bft) W 274 ° 0 min 0,000 mm 0,0 UV-I 0 W/m² 6,6 °C 10,7 °C 9,7 km/h (2 Bft)
11.04.2017 01:00 10,7 °C 10,7 °C 76 % 1017,6 hPa 0,0 mm 5,6 km/h (1 Bft) W 273 ° 0 min 0,025 mm 0,0 UV-I 0 W/m² 6,6 °C 10,7 °C 9,7 km/h (2 Bft)
11.04.2017 01:01 10,7 °C 10,7 °C 76 % 1017,6 hPa 0,0 mm 7,0 km/h (2 Bft) W-NW 282 ° 0 min 0,000 mm 0,0 UV-I 0 W/m² 6,6 °C 10,7 °C 11,3 km/h (2 Bft)
11.04.2017 01:02 10,7 °C 10,7 °C 76 % 1017,6 hPa 0,0 mm 5,2 km/h (1 Bft) W-SW 243 ° 0 min 0,000 mm 0,0 UV-I 0 W/m² 6,6 °C 10,7 °C 9,7 km/h (2 Bft)
11.04.2017 01:03 10,7 °C 10,7 °C 76 % 1017,6 hPa 0,0 mm 6,7 km/h (2 Bft) W 263 ° 0 min 0,000 mm 0,0 UV-I 0 W/m² 6,6 °C 10,7 °C 9,7 km/h (2 Bft)
11.04.2017 01:04 10,7 °C 10,7 °C 76 % 1017,6 hPa 0,0 mm 4,0 km/h (1 Bft) W-SW 257 ° 0 min 0,000 mm 0,0 UV-I 0 W/m² 6,6 °C 10,7 °C 8,0 km/h (2 Bft)
11.04.2017 01:05 10,7 °C 10,7 °C 76 % 1017,6 hPa 0,0 mm 6,6 km/h (2 Bft) W-SW 253 ° 0 min 0,000 mm 0,0 UV-I 0 W/m² 6,6 °C 10,7 °C 11,3 km/h (2 Bft)
11.04.2017 01:06 10,7 °C 10,7 °C 76 % 1017,5 hPa 0,0 mm 5,4 km/h (1 Bft) W 264 ° 0 min 0,000 mm 0,0 UV-I 0 W/m² 6,6 °C 10,7 °C 9,7 km/h (2 Bft)
11.04.2017 01:07 10,7 °C 10,7 °C 76 % 1017,6 hPa 0,0 mm 1,3 km/h (1 Bft) W 265 ° 0 min 0,000 mm 0,0 UV-I 0 W/m² 6,6 °C 10,7 °C 3,2 km/h (1 Bft)
11.04.2017 01:08 10,7 °C 10,7 °C 76 % 1017,6 hPa 0,0 mm 3,8 km/h (1 Bft) W 273 ° 0 min 0,000 mm 0,0 UV-I 0 W/m² 6,6 °C 10,7 °C 4,8 km/h (1 Bft)
11.04.2017 01:09 10,7 °C 10,7 °C 76 % 1017,6 hPa 0,0 mm 3,7 km/h (1 Bft) W-NW 288 ° 0 min 0,000 mm 0,0 UV-I 0 W/m² 6,6 °C 10,7 °C 6,4 km/h (2 Bft)
11.04.2017 01:10 10,7 °C 10,7 °C 76 % 1017,6 hPa 0,0 mm 4,8 km/h (1 Bft) W-SW 252 ° 0 min 0,000 mm 0,0 UV-I 0 W/m² 6,6 °C 10,7 °C 9,7 km/h (2 Bft)
11.04.2017 01:11 10,6 °C 10,7 °C 76 % 1017,6 hPa 0,0 mm 4,0 km/h (1 Bft) W-NW 290 ° 0 min 0,000 mm 0,0 UV-I 0 W/m² 6,5 °C 10,6 °C 6,4 km/h (2 Bft)
11.04.2017 01:12 10,6 °C 10,6 °C 76 % 1017,6 hPa 0,0 mm 3,5 km/h (1 Bft) N-NW 327 ° 0 min 0,000 mm 0,0 UV-I 0 W/m² 6,5 °C 10,6 °C 6,4 km/h (2 Bft)
11.04.2017 01:13 10,6 °C 10,6 °C 77 % 1017,6 hPa 0,0 mm 1,1 km/h (1 Bft) N-NW 327 ° 0 min 0,000 mm 0,0 UV-I 0 W/m² 6,7 °C 10,6 °C 3,2 km/h (1 Bft)
11.04.2017 01:14 10,4 °C 10,6 °C 77 % 1017,6 hPa 0,0 mm 2,8 km/h (1 Bft) W-SW 248 ° 0 min 0,000 mm 0,0 UV-I 0 W/m² 6,5 °C 10,4 °C 9,7 km/h (2 Bft)
11.04.2017 01:15 10,4 °C 10,4 °C 77 % 1017,6 hPa 0,0 mm 5,4 km/h (1 Bft) W-NW 286 ° 0 min 0,000 mm 0,0 UV-I 0 W/m² 6,5 °C 10,4 °C 9,7 km/h (2 Bft)
11.04.2017 01:16 10,4 °C 10,4 °C 77 % 1017,5 hPa 0,0 mm 5,6 km/h (1 Bft) W-NW 284 ° 0 min 0,000 mm 0,0 UV-I 0 W/m² 6,5 °C 10,4 °C 9,7 km/h (2 Bft)
11.04.2017 01:17 10,4 °C 10,4 °C 78 % 1017,6 hPa 0,0 mm 3,9 km/h (1 Bft) W-SW 253 ° 0 min 0,000 mm 0,0 UV-I 0 W/m² 6,7 °C 10,4 °C 6,4 km/h (2 Bft)
11.04.2017 01:18 10,5 °C 10,5 °C 78 % 1017,5 hPa 0,0 mm 0,6 km/h (0 Bft) W-SW 253 ° 0 min 0,000 mm 0,0 UV-I 0 W/m² 6,8 °C 10,5 °C 3,2 km/h (1 Bft)
11.04.2017 01:19 10,4 °C 10,5 °C 78 % 1017,6 hPa 0,0 mm 0,6 km/h (0 Bft) W-SW 253 ° 0 min 0,000 mm 0,0 UV-I 0 W/m² 6,7 °C 10,4 °C 1,6 km/h (1 Bft)
11.04.2017 01:20 10,4 °C 10,4 °C 78 % 1017,6 hPa 0,0 mm 0,7 km/h (0 Bft) W-NW 301 ° 0 min 0,000 mm 0,0 UV-I 0 W/m² 6,7 °C 10,4 °C 3,2 km/h (1 Bft)
11.04.2017 01:21 10,4 °C 10,4 °C 78 % 1017,6 hPa 0,0 mm 2,8 km/h (1 Bft) W-NW 301 ° 0 min 0,000 mm 0,0 UV-I 0 W/m² 6,7 °C 10,4 °C 4,8 km/h (1 Bft)
11.04.2017 01:22 10,3 °C 10,4 °C 78 % 1017,7 hPa 0,0 mm 3,2 km/h (1 Bft) W-NW 300 ° 0 min 0,000 mm 0,0 UV-I 0 W/m² 6,6 °C 10,3 °C 4,8 km/h (1 Bft)
11.04.2017 01:23 10,3 °C 10,4 °C 78 % 1017,6 hPa 0,0 mm 2,3 km/h (1 Bft) W 263 ° 0 min 0,000 mm 0,0 UV-I 0 W/m² 6,6 °C 10,3 °C 6,4 km/h (2 Bft)
11.04.2017 01:24 10,3 °C 10,3 °C 78 % 1017,6 hPa 0,0 mm 4,3 km/h (1 Bft) W 263 ° 0 min 0,000 mm 0,0 UV-I 0 W/m² 6,6 °C 10,3 °C 9,7 km/h (2 Bft)
11.04.2017 01:25 10,3 °C 10,3 °C 79 % 1017,6 hPa 0,0 mm 2,9 km/h (1 Bft) NW 312 ° 0 min 0,000 mm 0,0 UV-I 0 W/m² 6,8 °C 10,3 °C 4,8 km/h (1 Bft)
11.04.2017 01:26 10,3 °C 10,3 °C 79 % 1017,6 hPa 0,0 mm 4,3 km/h (1 Bft) W-SW 255 ° 0 min 0,000 mm 0,0 UV-I 0 W/m² 6,8 °C 10,3 °C 6,4 km/h (2 Bft)
11.04.2017 01:27 10,3 °C 10,3 °C 79 % 1017,6 hPa 0,0 mm 4,7 km/h (1 Bft) W 271 ° 0 min 0,000 mm 0,0 UV-I 0 W/m² 6,8 °C 10,3 °C 6,4 km/h (2 Bft)
11.04.2017 01:28 10,3 °C 10,3 °C 79 % 1017,6 hPa 0,0 mm 3,6 km/h (1 Bft) W 271 ° 0 min 0,000 mm 0,0 UV-I 0 W/m² 6,8 °C 10,3 °C 4,8 km/h (1 Bft)
11.04.2017 01:29 10,2 °C 10,3 °C 79 % 1017,7 hPa 0,0 mm 3,4 km/h (1 Bft) W 279 ° 0 min 0,000 mm 0,0 UV-I 0 W/m² 6,7 °C 10,2 °C 6,4 km/h (2 Bft)
11.04.2017 01:30 10,2 °C 10,3 °C 80 % 1017,8 hPa 0,0 mm 4,6 km/h (1 Bft) W 275 ° 0 min 0,000 mm 0,0 UV-I 0 W/m² 6,9 °C 10,2 °C 6,4 km/h (2 Bft)
11.04.2017 01:31 10,2 °C 10,3 °C 80 % 1017,8 hPa 0,0 mm 2,4 km/h (1 Bft) W-NW 292 ° 0 min 0,000 mm 0,0 UV-I 0 W/m² 6,9 °C 10,2 °C 4,8 km/h (1 Bft)
11.04.2017 01:32 10,3 °C 10,3 °C 80 % 1017,9 hPa 0,0 mm 3,0 km/h (1 Bft) W-NW 288 ° 0 min 0,000 mm 0,0 UV-I 0 W/m² 7,0 °C 10,3 °C 8,0 km/h (2 Bft)
11.04.2017 01:33 10,2 °C 10,3 °C 80 % 1017,8 hPa 0,0 mm 7,2 km/h (2 Bft) W-NW 285 ° 0 min 0,000 mm 0,0 UV-I 0 W/m² 6,9 °C 10,2 °C 11,3 km/h (2 Bft)
11.04.2017 01:34 10,2 °C 10,2 °C 80 % 1017,7 hPa 0,0 mm 4,5 km/h (1 Bft) W-SW 247 ° 0 min 0,000 mm 0,0 UV-I 0 W/m² 6,9 °C 10,2 °C 9,7 km/h (2 Bft)
11.04.2017 01:35 10,3 °C 10,3 °C 80 % 1017,7 hPa 0,0 mm 2,1 km/h (1 Bft) S-SW 211 ° 0 min 0,000 mm 0,0 UV-I 0 W/m² 7,0 °C 10,3 °C 3,2 km/h (1 Bft)
11.04.2017 01:36 10,2 °C 10,3 °C 81 % 1017,7 hPa 0,0 mm 3,2 km/h (1 Bft) W 263 ° 0 min 0,000 mm 0,0 UV-I 0 W/m² 7,1 °C 10,2 °C 6,4 km/h (2 Bft)
11.04.2017 01:37 10,3 °C 10,3 °C 81 % 1017,7 hPa 0,0 mm 4,6 km/h (1 Bft) W-SW 257 ° 0 min 0,000 mm 0,0 UV-I 0 W/m² 7,2 °C 10,3 °C 6,4 km/h (2 Bft)
11.04.2017 01:38 10,2 °C 10,3 °C 81 % 1017,7 hPa 0,0 mm 4,8 km/h (1 Bft) W 269 ° 0 min 0,000 mm 0,0 UV-I 0 W/m² 7,1 °C 10,2 °C 9,7 km/h (2 Bft)
11.04.2017 01:39 10,2 °C 10,3 °C 81 % 1017,7 hPa 0,0 mm 3,4 km/h (1 Bft) W 279 ° 0 min 0,000 mm 0,0 UV-I 0 W/m² 7,1 °C 10,2 °C 4,8 km/h (1 Bft)
11.04.2017 01:40 10,2 °C 10,2 °C 81 % 1017,7 hPa 0,0 mm 2,9 km/h (1 Bft) W-NW 282 ° 0 min 0,000 mm 0,0 UV-I 0 W/m² 7,1 °C 10,2 °C 4,8 km/h (1 Bft)
11.04.2017 01:41 10,2 °C 10,2 °C 82 % 1017,7 hPa 0,0 mm 4,1 km/h (1 Bft) W-SW 258 ° 0 min 0,000 mm 0,0 UV-I 0 W/m² 7,3 °C 10,2 °C 6,4 km/h (2 Bft)
11.04.2017 01:42 10,2 °C 10,2 °C 82 % 1017,8 hPa 0,0 mm 5,1 km/h (1 Bft) W-NW 286 ° 0 min 0,000 mm 0,0 UV-I 0 W/m² 7,3 °C 10,2 °C 6,4 km/h (2 Bft)
11.04.2017 01:43 10,2 °C 10,2 °C 82 % 1017,7 hPa 0,0 mm 6,0 km/h (2 Bft) W 278 ° 0 min 0,000 mm 0,0 UV-I 0 W/m² 7,3 °C 10,2 °C 9,7 km/h (2 Bft)
11.04.2017 01:44 10,2 °C 10,2 °C 82 % 1017,7 hPa 0,0 mm 4,3 km/h (1 Bft) W-NW 295 ° 0 min 0,000 mm 0,0 UV-I 0 W/m² 7,3 °C 10,2 °C 6,4 km/h (2 Bft)
11.04.2017 01:45 10,1 °C 10,2 °C 82 % 1017,7 hPa 0,0 mm 4,9 km/h (1 Bft) W-NW 288 ° 0 min 0,000 mm 0,0 UV-I 0 W/m² 7,2 °C 10,1 °C 11,3 km/h (2 Bft)
11.04.2017 01:46 10,1 °C 10,2 °C 82 % 1017,7 hPa 0,0 mm 3,2 km/h (1 Bft) W-NW 288 ° 0 min 0,000 mm 0,0 UV-I 0 W/m² 7,2 °C 10,1 °C 4,8 km/h (1 Bft)
11.04.2017 01:47 10,1 °C 10,2 °C 82 % 1017,7 hPa 0,0 mm 3,0 km/h (1 Bft) W-NW 288 ° 0 min 0,000 mm 0,0 UV-I 0 W/m² 7,2 °C 10,1 °C 4,8 km/h (1 Bft)
11.04.2017 01:48 10,1 °C 10,1 °C 82 % 1017,7 hPa 0,0 mm 1,5 km/h (1 Bft) W-NW 287 ° 0 min 0,000 mm 0,0 UV-I 0 W/m² 7,2 °C 10,1 °C 4,8 km/h (1 Bft)
11.04.2017 01:49 10,1 °C 10,1 °C 82 % 1017,7 hPa 0,0 mm 2,3 km/h (1 Bft) W-NW 285 ° 0 min 0,000 mm 0,0 UV-I 0 W/m² 7,2 °C 10,1 °C 4,8 km/h (1 Bft)
11.04.2017 01:50 10,1 °C 10,1 °C 83 % 1017,8 hPa 0,0 mm 3,1 km/h (1 Bft) W-NW 286 ° 0 min 0,000 mm 0,0 UV-I 0 W/m² 7,3 °C 10,1 °C 4,8 km/h (1 Bft)
11.04.2017 01:51 10,1 °C 10,1 °C 83 % 1017,8 hPa 0,0 mm 4,4 km/h (1 Bft) NW 315 ° 0 min 0,000 mm 0,0 UV-I 0 W/m² 7,3 °C 10,1 °C 6,4 km/h (2 Bft)
11.04.2017 01:52 10,0 °C 10,1 °C 82 % 1017,8 hPa 0,0 mm 2,7 km/h (1 Bft) W-NW 297 ° 0 min 0,000 mm 0,0 UV-I 0 W/m² 7,1 °C 10,0 °C 4,8 km/h (1 Bft)
11.04.2017 01:53 10,0 °C 10,1 °C 82 % 1017,8 hPa 0,0 mm 8,0 km/h (2 Bft) W 279 ° 0 min 0,000 mm 0,0 UV-I 0 W/m² 7,1 °C 9,0 °C 12,9 km/h (3 Bft)
11.04.2017 01:54 10,0 °C 10,0 °C 82 % 1017,7 hPa 0,0 mm 6,2 km/h (2 Bft) W 275 ° 0 min 0,000 mm 0,0 UV-I 0 W/m² 7,1 °C 9,4 °C 12,9 km/h (3 Bft)
11.04.2017 01:55 10,0 °C 10,0 °C 82 % 1017,7 hPa 0,0 mm 3,8 km/h (1 Bft) W 277 ° 0 min 0,000 mm 0,0 UV-I 0 W/m² 7,1 °C 10,0 °C 6,4 km/h (2 Bft)
11.04.2017 01:56 10,0 °C 10,0 °C 82 % 1017,7 hPa 0,0 mm 5,0 km/h (1 Bft) W 275 ° 0 min 0,000 mm 0,0 UV-I 0 W/m² 7,1 °C 9,8 °C 6,4 km/h (2 Bft)
11.04.2017 01:57 9,9 °C 10,0 °C 83 % 1017,7 hPa 0,0 mm 0,6 km/h (0 Bft) W 279 ° 0 min 0,000 mm 0,0 UV-I 0 W/m² 7,2 °C 9,9 °C 1,6 km/h (1 Bft)
11.04.2017 01:58 9,9 °C 10,0 °C 83 % 1017,7 hPa 0,0 mm 3,8 km/h (1 Bft) W-SW 251 ° 0 min 0,000 mm 0,0 UV-I 0 W/m² 7,2 °C 9,9 °C 6,4 km/h (2 Bft)
11.04.2017 01:59 9,9 °C 9,9 °C 83 % 1017,8 hPa 0,0 mm 5,9 km/h (2 Bft) W 261 ° 0 min 0,000 mm 0,0 UV-I 0 W/m² 7,2 °C 9,4 °C 12,9 km/h (3 Bft)
11.04.2017 02:00 9,9 °C 9,9 °C 82 % 1017,8 hPa 0,0 mm 5,8 km/h (2 Bft) W-NW 296 ° 0 min 0,026 mm 0,0 UV-I 0 W/m² 7,0 °C 9,4 °C 12,9 km/h (3 Bft)
11.04.2017 02:01 9,9 °C 9,9 °C 83 % 1017,7 hPa 0,0 mm 1,1 km/h (1 Bft) W-NW 296 ° 0 min 0,000 mm 0,0 UV-I 0 W/m² 7,2 °C 9,9 °C 3,2 km/h (1 Bft)
11.04.2017 02:02 9,9 °C 9,9 °C 83 % 1017,7 hPa 0,0 mm 3,6 km/h (1 Bft) N-NW 327 ° 0 min 0,000 mm 0,0 UV-I 0 W/m² 7,2 °C 9,9 °C 8,0 km/h (2 Bft)
11.04.2017 02:03 9,9 °C 9,9 °C 82 % 1017,8 hPa 0,0 mm 2,6 km/h (1 Bft) N-NW 335 ° 0 min 0,000 mm 0,0 UV-I 0 W/m² 7,0 °C 9,9 °C 4,8 km/h (1 Bft)
11.04.2017 02:04 9,8 °C 9,9 °C 83 % 1017,8 hPa 0,0 mm 5,0 km/h (1 Bft) W 267 ° 0 min 0,000 mm 0,0 UV-I 0 W/m² 7,1 °C 9,5 °C 6,4 km/h (2 Bft)
11.04.2017 02:05 9,8 °C 9,8 °C 82 % 1017,7 hPa 0,0 mm 2,7 km/h (1 Bft) W-SW 251 ° 0 min 0,000 mm 0,0 UV-I 0 W/m² 6,9 °C 9,8 °C 4,8 km/h (1 Bft)
11.04.2017 02:06 9,8 °C 9,8 °C 83 % 1017,8 hPa 0,0 mm 5,7 km/h (1 Bft) NW 304 ° 0 min 0,000 mm 0,0 UV-I 0 W/m² 7,1 °C 9,3 °C 11,3 km/h (2 Bft)
11.04.2017 02:07 9,8 °C 9,8 °C 82 % 1017,7 hPa 0,0 mm 3,4 km/h (1 Bft) W 273 ° 0 min 0,000 mm 0,0 UV-I 0 W/m² 6,9 °C 9,8 °C 6,4 km/h (2 Bft)
11.04.2017 02:08 9,8 °C 9,8 °C 82 % 1017,8 hPa 0,0 mm 2,1 km/h (1 Bft) W-NW 290 ° 0 min 0,000 mm 0,0 UV-I 0 W/m² 6,9 °C 9,8 °C 4,8 km/h (1 Bft)
11.04.2017 02:09 9,8 °C 9,8 °C 82 % 1017,8 hPa 0,0 mm 4,2 km/h (1 Bft) NW 310 ° 0 min 0,000 mm 0,0 UV-I 0 W/m² 6,9 °C 9,8 °C 6,4 km/h (2 Bft)
11.04.2017 02:10 9,7 °C 9,8 °C 82 % 1017,8 hPa 0,0 mm 1,3 km/h (1 Bft) NW 310 ° 0 min 0,000 mm 0,0 UV-I 0 W/m² 6,8 °C 9,7 °C 3,2 km/h (1 Bft)
11.04.2017 02:11 9,7 °C 9,7 °C 83 % 1017,8 hPa 0,0 mm 3,5 km/h (1 Bft) W 266 ° 0 min 0,000 mm 0,0 UV-I 0 W/m² 7,0 °C 9,7 °C 9,7 km/h (2 Bft)
11.04.2017 02:12 9,7 °C 9,7 °C 83 % 1017,8 hPa 0,0 mm 4,9 km/h (1 Bft) W 272 ° 0 min 0,000 mm 0,0 UV-I 0 W/m² 7,0 °C 9,4 °C 6,4 km/h (2 Bft)
11.04.2017 02:13 9,7 °C 9,7 °C 83 % 1017,9 hPa 0,0 mm 7,9 km/h (2 Bft) W 259 ° 0 min 0,000 mm 0,0 UV-I 0 W/m² 7,0 °C 8,7 °C 11,3 km/h (2 Bft)
11.04.2017 02:14 9,7 °C 9,7 °C 83 % 1017,9 hPa 0,0 mm 5,0 km/h (1 Bft) W-SW 255 ° 0 min 0,000 mm 0,0 UV-I 0 W/m² 7,0 °C 9,4 °C 8,0 km/h (2 Bft)
11.04.2017 02:15 9,6 °C 9,7 °C 83 % 1018,0 hPa 0,0 mm 5,6 km/h (1 Bft) W 263 ° 0 min 0,000 mm 0,0 UV-I 0 W/m² 6,9 °C 9,1 °C 11,3 km/h (2 Bft)
11.04.2017 02:16 9,6 °C 9,7 °C 83 % 1018,0 hPa 0,0 mm 1,8 km/h (1 Bft) W 263 ° 0 min 0,000 mm 0,0 UV-I 0 W/m² 6,9 °C 9,6 °C 4,8 km/h (1 Bft)
11.04.2017 02:17 9,6 °C 9,6 °C 83 % 1018,0 hPa 0,0 mm 2,1 km/h (1 Bft) W-NW 285 ° 0 min 0,000 mm 0,0 UV-I 0 W/m² 6,9 °C 9,6 °C 6,4 km/h (2 Bft)
11.04.2017 02:18 9,6 °C 9,6 °C 83 % 1018,1 hPa 0,0 mm 3,4 km/h (1 Bft) W-SW 256 ° 0 min 0,000 mm 0,0 UV-I 0 W/m² 6,9 °C 9,6 °C 6,4 km/h (2 Bft)
11.04.2017 02:19 9,4 °C 9,6 °C 83 % 1018,1 hPa 0,0 mm 6,0 km/h (2 Bft) W 277 ° 0 min 0,000 mm 0,0 UV-I 0 W/m² 6,7 °C 8,8 °C 9,7 km/h (2 Bft)
11.04.2017 02:20 9,4 °C 9,5 °C 82 % 1018,0 hPa 0,0 mm 5,2 km/h (1 Bft) W 280 ° 0 min 0,000 mm 0,0 UV-I 0 W/m² 6,5 °C 9,0 °C 6,4 km/h (2 Bft)
11.04.2017 02:21 9,4 °C 9,4 °C 82 % 1018,0 hPa 0,0 mm 6,2 km/h (2 Bft) W-NW 286 ° 0 min 0,000 mm 0,0 UV-I 0 W/m² 6,5 °C 8,7 °C 9,7 km/h (2 Bft)
11.04.2017 02:22 9,4 °C 9,4 °C 82 % 1018,0 hPa 0,0 mm 3,6 km/h (1 Bft) W 264 ° 0 min 0,000 mm 0,0 UV-I 0 W/m² 6,5 °C 9,4 °C 4,8 km/h (1 Bft)
11.04.2017 02:23 9,4 °C 9,4 °C 82 % 1018,0 hPa 0,0 mm 1,5 km/h (1 Bft) W 264 ° 0 min 0,000 mm 0,0 UV-I 0 W/m² 6,5 °C 9,4 °C 3,2 km/h (1 Bft)
11.04.2017 02:24 9,4 °C 9,4 °C 82 % 1018,0 hPa 0,0 mm 4,1 km/h (1 Bft) W 277 ° 0 min 0,000 mm 0,0 UV-I 0 W/m² 6,5 °C 9,4 °C 6,4 km/h (2 Bft)
11.04.2017 02:25 9,4 °C 9,4 °C 82 % 1018,0 hPa 0,0 mm 3,4 km/h (1 Bft) W-NW 284 ° 0 min 0,000 mm 0,0 UV-I 0 W/m² 6,5 °C 9,4 °C 4,8 km/h (1 Bft)
11.04.2017 02:26 9,4 °C 9,4 °C 82 % 1018,0 hPa 0,0 mm 1,4 km/h (1 Bft) N 360 ° 0 min 0,000 mm 0,0 UV-I 0 W/m² 6,5 °C 9,4 °C 4,8 km/h (1 Bft)
11.04.2017 02:27 9,4 °C 9,4 °C 82 % 1018,0 hPa 0,0 mm 2,1 km/h (1 Bft) W-NW 298 ° 0 min 0,000 mm 0,0 UV-I 0 W/m² 6,5 °C 9,4 °C 4,8 km/h (1 Bft)
11.04.2017 02:28 9,3 °C 9,4 °C 82 % 1018,0 hPa 0,0 mm 3,0 km/h (1 Bft) W-NW 299 ° 0 min 0,000 mm 0,0 UV-I 0 W/m² 6,4 °C 9,3 °C 6,4 km/h (2 Bft)
11.04.2017 02:29 9,3 °C 9,3 °C 82 % 1018,0 hPa 0,0 mm 2,0 km/h (1 Bft) W-NW 299 ° 0 min 0,000 mm 0,0 UV-I 0 W/m² 6,4 °C 9,3 °C 4,8 km/h (1 Bft)
11.04.2017 02:30 9,3 °C 9,3 °C 83 % 1018,0 hPa 0,0 mm 0,7 km/h (0 Bft) W-NW 299 ° 0 min 0,000 mm 0,0 UV-I 0 W/m² 6,6 °C 9,3 °C 1,6 km/h (1 Bft)
11.04.2017 02:31 9,3 °C 9,3 °C 83 % 1018,0 hPa 0,0 mm 0,6 km/h (0 Bft) W-NW 299 ° 0 min 0,000 mm 0,0 UV-I 0 W/m² 6,6 °C 9,3 °C 3,2 km/h (1 Bft)
11.04.2017 02:32 9,3 °C 9,3 °C 83 % 1018,0 hPa 0,0 mm 2,3 km/h (1 Bft) W-NW 301 ° 0 min 0,000 mm 0,0 UV-I 0 W/m² 6,6 °C 9,3 °C 4,8 km/h (1 Bft)
11.04.2017 02:33 9,3 °C 9,3 °C 82 % 1018,0 hPa 0,0 mm 3,0 km/h (1 Bft) NW 315 ° 0 min 0,000 mm 0,0 UV-I 0 W/m² 6,4 °C 9,3 °C 4,8 km/h (1 Bft)
11.04.2017 02:34 9,3 °C 9,3 °C 83 % 1018,0 hPa 0,0 mm 0,9 km/h (0 Bft) NW 315 ° 0 min 0,000 mm 0,0 UV-I 0 W/m² 6,6 °C 9,3 °C 3,2 km/h (1 Bft)
11.04.2017 02:35 9,3 °C 9,3 °C 83 % 1018,0 hPa 0,0 mm 1,1 km/h (1 Bft) NW 315 ° 0 min 0,000 mm 0,0 UV-I 0 W/m² 6,6 °C 9,3 °C 3,2 km/h (1 Bft)
11.04.2017 02:36 9,3 °C 9,3 °C 84 % 1017,9 hPa 0,0 mm 0,4 km/h (0 Bft) N-NW 338 ° 0 min 0,000 mm 0,0 UV-I 0 W/m² 6,7 °C 9,3 °C 1,6 km/h (1 Bft)
11.04.2017 02:37 9,2 °C 9,3 °C 83 % 1017,9 hPa 0,0 mm 4,0 km/h (1 Bft) NW 311 ° 0 min 0,000 mm 0,0 UV-I 0 W/m² 6,5 °C 9,2 °C 6,4 km/h (2 Bft)
11.04.2017 02:38 9,2 °C 9,3 °C 83 % 1017,9 hPa 0,0 mm 1,2 km/h (1 Bft) NW 311 ° 0 min 0,000 mm 0,0 UV-I 0 W/m² 6,5 °C 9,2 °C 3,2 km/h (1 Bft)
11.04.2017 02:39 9,2 °C 9,3 °C 83 % 1017,8 hPa 0,0 mm 0,1 km/h (0 Bft) NW 311 ° 0 min 0,000 mm 0,0 UV-I 0 W/m² 6,5 °C 9,2 °C 1,6 km/h (1 Bft)
11.04.2017 02:40 9,3 °C 9,3 °C 84 % 1017,9 hPa 0,0 mm 0,0 km/h (0 Bft) NW 311 ° 0 min 0,000 mm 0,0 UV-I 0 W/m² 6,7 °C 9,3 °C 0,0 km/h (0 Bft)
11.04.2017 02:41 9,3 °C 9,3 °C 84 % 1017,8 hPa 0,0 mm 0,0 km/h (0 Bft) NW 311 ° 0 min 0,000 mm 0,0 UV-I 0 W/m² 6,7 °C 9,3 °C 0,0 km/h (0 Bft)
11.04.2017 02:42 9,2 °C 9,3 °C 83 % 1017,9 hPa 0,0 mm 0,0 km/h (0 Bft) NW 311 ° 0 min 0,000 mm 0,0 UV-I 0 W/m² 6,5 °C 9,2 °C 0,0 km/h (0 Bft)
11.04.2017 02:43 9,2 °C 9,3 °C 83 % 1017,9 hPa 0,0 mm 0,0 km/h (0 Bft) NW 311 ° 0 min 0,000 mm 0,0 UV-I 0 W/m² 6,5 °C 9,2 °C 0,0 km/h (0 Bft)
11.04.2017 02:44 9,3 °C 9,3 °C 84 % 1017,9 hPa 0,0 mm 0,0 km/h (0 Bft) NW 311 ° 0 min 0,000 mm 0,0 UV-I 0 W/m² 6,7 °C 9,3 °C 0,0 km/h (0 Bft)
11.04.2017 02:45 9,3 °C 9,3 °C 84 % 1018,0 hPa 0,0 mm 0,0 km/h (0 Bft) NW 311 ° 0 min 0,000 mm 0,0 UV-I 0 W/m² 6,7 °C 9,3 °C 0,0 km/h (0 Bft)
11.04.2017 02:46 9,3 °C 9,3 °C 84 % 1018,0 hPa 0,0 mm 0,1 km/h (0 Bft) NW 311 ° 0 min 0,000 mm 0,0 UV-I 0 W/m² 6,7 °C 9,3 °C 1,6 km/h (1 Bft)
11.04.2017 02:47 9,3 °C 9,3 °C 84 % 1018,0 hPa 0,0 mm 2,0 km/h (1 Bft) NW 311 ° 0 min 0,000 mm 0,0 UV-I 0 W/m² 6,7 °C 9,3 °C 3,2 km/h (1 Bft)
11.04.2017 02:48 9,2 °C 9,3 °C 84 % 1018,0 hPa 0,0 mm 1,3 km/h (1 Bft) NW 311 ° 0 min 0,000 mm 0,0 UV-I 0 W/m² 6,6 °C 9,2 °C 1,6 km/h (1 Bft)
11.04.2017 02:49 9,2 °C 9,2 °C 84 % 1018,0 hPa 0,0 mm 1,3 km/h (1 Bft) NW 311 ° 0 min 0,000 mm 0,0 UV-I 0 W/m² 6,6 °C 9,2 °C 3,2 km/h (1 Bft)
11.04.2017 02:50 9,2 °C 9,2 °C 85 % 1018,0 hPa 0,0 mm 0,3 km/h (0 Bft) NW 311 ° 0 min 0,000 mm 0,0 UV-I 0 W/m² 6,8 °C 9,2 °C 1,6 km/h (1 Bft)
11.04.2017 02:51 9,2 °C 9,2 °C 84 % 1018,0 hPa 0,0 mm 0,5 km/h (0 Bft) NW 311 ° 0 min 0,000 mm 0,0 UV-I 0 W/m² 6,6 °C 9,2 °C 1,6 km/h (1 Bft)
11.04.2017 02:52 9,2 °C 9,2 °C 84 % 1017,9 hPa 0,0 mm 0,3 km/h (0 Bft) NW 311 ° 0 min 0,000 mm 0,0 UV-I 0 W/m² 6,6 °C 9,2 °C 1,6 km/h (1 Bft)
11.04.2017 02:53 9,2 °C 9,2 °C 84 % 1017,9 hPa 0,0 mm 0,0 km/h (0 Bft) NW 311 ° 0 min 0,000 mm 0,0 UV-I 0 W/m² 6,6 °C 9,2 °C 0,0 km/h (0 Bft)
11.04.2017 02:54 9,1 °C 9,2 °C 84 % 1017,9 hPa 0,0 mm 0,0 km/h (0 Bft) NW 311 ° 0 min 0,000 mm 0,0 UV-I 0 W/m² 6,5 °C 9,1 °C 0,0 km/h (0 Bft)
11.04.2017 02:55 9,1 °C 9,2 °C 84 % 1017,9 hPa 0,0 mm 0,0 km/h (0 Bft) NW 311 ° 0 min 0,000 mm 0,0 UV-I 0 W/m² 6,5 °C 9,1 °C 0,0 km/h (0 Bft)
11.04.2017 02:56 9,1 °C 9,1 °C 84 % 1017,9 hPa 0,0 mm 0,0 km/h (0 Bft) NW 311 ° 0 min 0,000 mm 0,0 UV-I 0 W/m² 6,5 °C 9,1 °C 0,0 km/h (0 Bft)
11.04.2017 02:57 9,1 °C 9,1 °C 84 % 1018,0 hPa 0,0 mm 0,0 km/h (0 Bft) NW 311 ° 0 min 0,000 mm 0,0 UV-I 0 W/m² 6,5 °C 9,1 °C 0,0 km/h (0 Bft)
11.04.2017 02:58 9,1 °C 9,2 °C 84 % 1017,9 hPa 0,0 mm 0,0 km/h (0 Bft) NW 311 ° 0 min 0,000 mm 0,0 UV-I 0 W/m² 6,5 °C 9,1 °C 0,0 km/h (0 Bft)
11.04.2017 02:59 9,1 °C 9,1 °C 84 % 1017,9 hPa 0,0 mm 0,7 km/h (0 Bft) NW 311 ° 0 min 0,000 mm 0,0 UV-I 0 W/m² 6,5 °C 9,1 °C 3,2 km/h (1 Bft)
11.04.2017 03:00 9,2 °C 9,2 °C 84 % 1017,9 hPa 0,0 mm 1,6 km/h (1 Bft) NW 311 ° 0 min 0,025 mm 0,0 UV-I 0 W/m² 6,6 °C 9,2 °C 3,2 km/h (1 Bft)
11.04.2017 03:01 9,2 °C 9,2 °C 84 % 1017,9 hPa 0,0 mm 0,8 km/h (0 Bft) NW 311 ° 0 min 0,000 mm 0,0 UV-I 0 W/m² 6,6 °C 9,2 °C 1,6 km/h (1 Bft)
11.04.2017 03:02 9,2 °C 9,2 °C 84 % 1017,9 hPa 0,0 mm 0,6 km/h (0 Bft) NW 311 ° 0 min 0,000 mm 0,0 UV-I 0 W/m² 6,6 °C 9,2 °C 1,6 km/h (1 Bft)
11.04.2017 03:03 9,1 °C 9,2 °C 84 % 1017,9 hPa 0,0 mm 0,7 km/h (0 Bft) NW 310 ° 0 min 0,000 mm 0,0 UV-I 0 W/m² 6,5 °C 9,1 °C 3,2 km/h (1 Bft)
11.04.2017 03:04 9,1 °C 9,2 °C 83 % 1017,8 hPa 0,0 mm 0,8 km/h (0 Bft) NW 310 ° 0 min 0,000 mm 0,0 UV-I 0 W/m² 6,4 °C 9,1 °C 4,8 km/h (1 Bft)
11.04.2017 03:05 9,2 °C 9,2 °C 84 % 1017,8 hPa 0,0 mm 0,2 km/h (0 Bft) NW 310 ° 0 min 0,000 mm 0,0 UV-I 0 W/m² 6,6 °C 9,2 °C 1,6 km/h (1 Bft)
11.04.2017 03:06 9,2 °C 9,2 °C 84 % 1017,9 hPa 0,0 mm 0,0 km/h (0 Bft) NW 310 ° 0 min 0,000 mm 0,0 UV-I 0 W/m² 6,6 °C 9,2 °C 0,0 km/h (0 Bft)
11.04.2017 03:07 9,2 °C 9,2 °C 84 % 1017,8 hPa 0,0 mm 0,4 km/h (0 Bft) NW 310 ° 0 min 0,000 mm 0,0 UV-I 0 W/m² 6,6 °C 9,2 °C 1,6 km/h (1 Bft)
11.04.2017 03:08 9,2 °C 9,2 °C 84 % 1017,8 hPa 0,0 mm 0,0 km/h (0 Bft) NW 310 ° 0 min 0,000 mm 0,0 UV-I 0 W/m² 6,6 °C 9,2 °C 0,0 km/h (0 Bft)
11.04.2017 03:09 9,2 °C 9,2 °C 84 % 1017,9 hPa 0,0 mm 0,0 km/h (0 Bft) NW 310 ° 0 min 0,000 mm 0,0 UV-I 0 W/m² 6,6 °C 9,2 °C 0,0 km/h (0 Bft)
11.04.2017 03:10 9,2 °C 9,2 °C 84 % 1018,0 hPa 0,0 mm 0,0 km/h (0 Bft) NW 310 ° 0 min 0,000 mm 0,0 UV-I 0 W/m² 6,6 °C 9,2 °C 0,0 km/h (0 Bft)
11.04.2017 03:11 9,2 °C 9,2 °C 84 % 1018,0 hPa 0,0 mm 0,6 km/h (0 Bft) NW 310 ° 0 min 0,000 mm 0,0 UV-I 0 W/m² 6,6 °C 9,2 °C 1,6 km/h (1 Bft)
11.04.2017 03:12 9,2 °C 9,2 °C 84 % 1018,0 hPa 0,0 mm 1,2 km/h (1 Bft) NW 310 ° 0 min 0,000 mm 0,0 UV-I 0 W/m² 6,6 °C 9,2 °C 3,2 km/h (1 Bft)
11.04.2017 03:13 9,2 °C 9,2 °C 84 % 1018,0 hPa 0,0 mm 0,0 km/h (0 Bft) NW 310 ° 0 min 0,000 mm 0,0 UV-I 0 W/m² 6,6 °C 9,2 °C 0,0 km/h (0 Bft)
11.04.2017 03:14 9,2 °C 9,2 °C 84 % 1018,0 hPa 0,0 mm 0,1 km/h (0 Bft) NW 310 ° 0 min 0,000 mm 0,0 UV-I 0 W/m² 6,6 °C 9,2 °C 1,6 km/h (1 Bft)
11.04.2017 03:15 9,2 °C 9,2 °C 84 % 1018,0 hPa 0,0 mm 0,7 km/h (0 Bft) NW 310 ° 0 min 0,000 mm 0,0 UV-I 0 W/m² 6,6 °C 9,2 °C 1,6 km/h (1 Bft)
11.04.2017 03:16 9,2 °C 9,2 °C 84 % 1018,0 hPa 0,0 mm 1,1 km/h (1 Bft) NW 310 ° 0 min 0,000 mm 0,0 UV-I 0 W/m² 6,6 °C 9,2 °C 3,2 km/h (1 Bft)
11.04.2017 03:17 9,2 °C 9,2 °C 84 % 1018,0 hPa 0,0 mm 1,3 km/h (1 Bft) NW 310 ° 0 min 0,000 mm 0,0 UV-I 0 W/m² 6,6 °C 9,2 °C 1,6 km/h (1 Bft)
11.04.2017 03:18 9,2 °C 9,2 °C 84 % 1018,0 hPa 0,0 mm 0,5 km/h (0 Bft) NW 310 ° 0 min 0,000 mm 0,0 UV-I 0 W/m² 6,6 °C 9,2 °C 1,6 km/h (1 Bft)
11.04.2017 03:19 9,2 °C 9,2 °C 84 % 1018,0 hPa 0,0 mm 0,0 km/h (0 Bft) NW 310 ° 0 min 0,000 mm 0,0 UV-I 0 W/m² 6,6 °C 9,2 °C 0,0 km/h (0 Bft)
11.04.2017 03:20 9,1 °C 9,2 °C 85 % 1018,0 hPa 0,0 mm 1,4 km/h (1 Bft) NW 310 ° 0 min 0,000 mm 0,0 UV-I 0 W/m² 6,7 °C 9,1 °C 3,2 km/h (1 Bft)
11.04.2017 03:21 9,1 °C 9,1 °C 85 % 1018,0 hPa 0,0 mm 1,2 km/h (1 Bft) NW 309 ° 0 min 0,000 mm 0,0 UV-I 0 W/m² 6,7 °C 9,1 °C 3,2 km/h (1 Bft)
11.04.2017 03:22 9,1 °C 9,1 °C 85 % 1018,0 hPa 0,0 mm 5,5 km/h (1 Bft) W 271 ° 0 min 0,000 mm 0,0 UV-I 0 W/m² 6,7 °C 8,6 °C 9,7 km/h (2 Bft)
11.04.2017 03:23 9,1 °C 9,1 °C 85 % 1018,0 hPa 0,0 mm 3,6 km/h (1 Bft) W 270 ° 0 min 0,000 mm 0,0 UV-I 0 W/m² 6,7 °C 9,1 °C 6,4 km/h (2 Bft)
11.04.2017 03:24 9,1 °C 9,1 °C 85 % 1018,1 hPa 0,0 mm 4,0 km/h (1 Bft) W 265 ° 0 min 0,000 mm 0,0 UV-I 0 W/m² 6,7 °C 9,1 °C 9,7 km/h (2 Bft)
11.04.2017 03:25 9,1 °C 9,1 °C 84 % 1018,1 hPa 0,0 mm 4,8 km/h (1 Bft) W 265 ° 0 min 0,000 mm 0,0 UV-I 0 W/m² 6,5 °C 8,8 °C 6,4 km/h (2 Bft)
11.04.2017 03:26 9,0 °C 9,1 °C 84 % 1018,0 hPa 0,0 mm 3,7 km/h (1 Bft) W 261 ° 0 min 0,000 mm 0,0 UV-I 0 W/m² 6,4 °C 9,0 °C 4,8 km/h (1 Bft)
11.04.2017 03:27 9,0 °C 9,1 °C 85 % 1018,1 hPa 0,0 mm 8,4 km/h (2 Bft) W-NW 290 ° 0 min 0,000 mm 0,0 UV-I 0 W/m² 6,6 °C 7,7 °C 11,3 km/h (2 Bft)
11.04.2017 03:28 9,0 °C 9,1 °C 84 % 1018,1 hPa 0,0 mm 8,8 km/h (2 Bft) W 267 ° 0 min 0,000 mm 0,0 UV-I 0 W/m² 6,4 °C 7,7 °C 14,5 km/h (3 Bft)
11.04.2017 03:29 9,1 °C 9,1 °C 84 % 1018,1 hPa 0,0 mm 5,8 km/h (2 Bft) W 277 ° 0 min 0,000 mm 0,0 UV-I 0 W/m² 6,5 °C 8,5 °C 9,7 km/h (2 Bft)
11.04.2017 03:30 9,0 °C 9,1 °C 84 % 1018,1 hPa 0,0 mm 6,8 km/h (2 Bft) W-SW 248 ° 0 min 0,000 mm 0,0 UV-I 0 W/m² 6,4 °C 8,1 °C 14,5 km/h (3 Bft)
11.04.2017 03:31 9,0 °C 9,1 °C 84 % 1018,4 hPa 0,0 mm 6,4 km/h (2 Bft) W 267 ° 0 min 0,000 mm 0,0 UV-I 0 W/m² 6,4 °C 8,2 °C 9,7 km/h (2 Bft)
11.04.2017 03:32 9,0 °C 9,1 °C 84 % 1018,4 hPa 0,0 mm 4,8 km/h (1 Bft) W-SW 258 ° 0 min 0,000 mm 0,0 UV-I 0 W/m² 6,4 °C 8,7 °C 11,3 km/h (2 Bft)
11.04.2017 03:33 9,0 °C 9,0 °C 84 % 1018,4 hPa 0,0 mm 7,0 km/h (2 Bft) W 271 ° 0 min 0,000 mm 0,0 UV-I 0 W/m² 6,4 °C 8,1 °C 11,3 km/h (2 Bft)
11.04.2017 03:34 9,0 °C 9,0 °C 84 % 1018,4 hPa 0,0 mm 4,1 km/h (1 Bft) W 271 ° 0 min 0,000 mm 0,0 UV-I 0 W/m² 6,4 °C 9,0 °C 6,4 km/h (2 Bft)
11.04.2017 03:35 9,0 °C 9,0 °C 85 % 1018,3 hPa 0,0 mm 2,7 km/h (1 Bft) W 279 ° 0 min 0,000 mm 0,0 UV-I 0 W/m² 6,6 °C 9,0 °C 3,2 km/h (1 Bft)
11.04.2017 03:36 8,9 °C 9,0 °C 85 % 1018,3 hPa 0,0 mm 4,1 km/h (1 Bft) W-NW 286 ° 0 min 0,000 mm 0,0 UV-I 0 W/m² 6,5 °C 8,9 °C 6,4 km/h (2 Bft)
11.04.2017 03:37 8,9 °C 8,9 °C 85 % 1018,1 hPa 0,0 mm 0,1 km/h (0 Bft) W-NW 286 ° 0 min 0,000 mm 0,0 UV-I 0 W/m² 6,5 °C 8,9 °C 1,6 km/h (1 Bft)
11.04.2017 03:38 8,9 °C 8,9 °C 85 % 1018,1 hPa 0,0 mm 2,9 km/h (1 Bft) W-NW 298 ° 0 min 0,000 mm 0,0 UV-I 0 W/m² 6,5 °C 8,9 °C 6,4 km/h (2 Bft)
11.04.2017 03:39 8,9 °C 8,9 °C 85 % 1018,1 hPa 0,0 mm 0,2 km/h (0 Bft) W-NW 298 ° 0 min 0,000 mm 0,0 UV-I 0 W/m² 6,5 °C 8,9 °C 1,6 km/h (1 Bft)
11.04.2017 03:40 8,8 °C 8,9 °C 85 % 1018,1 hPa 0,0 mm 1,5 km/h (1 Bft) W-NW 289 ° 0 min 0,000 mm 0,0 UV-I 0 W/m² 6,4 °C 8,8 °C 4,8 km/h (1 Bft)
11.04.2017 03:41 8,8 °C 8,8 °C 85 % 1018,1 hPa 0,0 mm 4,0 km/h (1 Bft) W-NW 300 ° 0 min 0,000 mm 0,0 UV-I 0 W/m² 6,4 °C 8,8 °C 6,4 km/h (2 Bft)
11.04.2017 03:42 8,8 °C 8,8 °C 85 % 1018,1 hPa 0,0 mm 2,3 km/h (1 Bft) W-NW 300 ° 0 min 0,000 mm 0,0 UV-I 0 W/m² 6,4 °C 8,8 °C 3,2 km/h (1 Bft)
11.04.2017 03:43 8,7 °C 8,8 °C 85 % 1018,2 hPa 0,0 mm 3,2 km/h (1 Bft) W 269 ° 0 min 0,000 mm 0,0 UV-I 0 W/m² 6,3 °C 8,7 °C 4,8 km/h (1 Bft)
11.04.2017 03:44 8,7 °C 8,7 °C 85 % 1018,2 hPa 0,0 mm 2,3 km/h (1 Bft) W 269 ° 0 min 0,000 mm 0,0 UV-I 0 W/m² 6,3 °C 8,7 °C 4,8 km/h (1 Bft)
11.04.2017 03:45 8,7 °C 8,7 °C 85 % 1018,3 hPa 0,0 mm 3,0 km/h (1 Bft) W 275 ° 0 min 0,000 mm 0,0 UV-I 0 W/m² 6,3 °C 8,7 °C 6,4 km/h (2 Bft)
11.04.2017 03:46 8,7 °C 8,7 °C 85 % 1018,2 hPa 0,0 mm 2,5 km/h (1 Bft) W 265 ° 0 min 0,000 mm 0,0 UV-I 0 W/m² 6,3 °C 8,7 °C 3,2 km/h (1 Bft)
11.04.2017 03:47 8,6 °C 8,7 °C 86 % 1018,2 hPa 0,0 mm 1,3 km/h (1 Bft) W 265 ° 0 min 0,000 mm 0,0 UV-I 0 W/m² 6,4 °C 8,6 °C 3,2 km/h (1 Bft)
11.04.2017 03:48 8,6 °C 8,6 °C 85 % 1018,2 hPa 0,0 mm 2,4 km/h (1 Bft) W 265 ° 0 min 0,000 mm 0,0 UV-I 0 W/m² 6,2 °C 8,6 °C 4,8 km/h (1 Bft)
11.04.2017 03:49 8,6 °C 8,6 °C 85 % 1018,3 hPa 0,0 mm 1,7 km/h (1 Bft) W 261 ° 0 min 0,000 mm 0,0 UV-I 0 W/m² 6,2 °C 8,6 °C 3,2 km/h (1 Bft)
11.04.2017 03:50 8,6 °C 8,6 °C 86 % 1018,3 hPa 0,0 mm 2,4 km/h (1 Bft) SW 233 ° 0 min 0,000 mm 0,0 UV-I 0 W/m² 6,4 °C 8,6 °C 4,8 km/h (1 Bft)
11.04.2017 03:51 8,5 °C 8,6 °C 86 % 1018,3 hPa 0,0 mm 1,9 km/h (1 Bft) SW 233 ° 0 min 0,000 mm 0,0 UV-I 0 W/m² 6,3 °C 8,5 °C 4,8 km/h (1 Bft)
11.04.2017 03:52 8,5 °C 8,5 °C 86 % 1018,3 hPa 0,0 mm 2,7 km/h (1 Bft) SW 232 ° 0 min 0,000 mm 0,0 UV-I 0 W/m² 6,3 °C 8,5 °C 4,8 km/h (1 Bft)
11.04.2017 03:53 8,5 °C 8,5 °C 85 % 1018,3 hPa 0,0 mm 2,5 km/h (1 Bft) W 263 ° 0 min 0,000 mm 0,0 UV-I 0 W/m² 6,1 °C 8,5 °C 4,8 km/h (1 Bft)
11.04.2017 03:54 8,4 °C 8,5 °C 85 % 1018,2 hPa 0,0 mm 0,9 km/h (0 Bft) W 263 ° 0 min 0,000 mm 0,0 UV-I 0 W/m² 6,0 °C 8,4 °C 3,2 km/h (1 Bft)
11.04.2017 03:55 8,4 °C 8,4 °C 85 % 1018,2 hPa 0,0 mm 2,5 km/h (1 Bft) W 267 ° 0 min 0,000 mm 0,0 UV-I 0 W/m² 6,0 °C 8,4 °C 4,8 km/h (1 Bft)
11.04.2017 03:56 8,4 °C 8,4 °C 85 % 1018,1 hPa 0,0 mm 2,3 km/h (1 Bft) W 267 ° 0 min 0,000 mm 0,0 UV-I 0 W/m² 6,0 °C 8,4 °C 3,2 km/h (1 Bft)
11.04.2017 03:57 8,4 °C 8,4 °C 85 % 1018,1 hPa 0,0 mm 0,8 km/h (0 Bft) W 267 ° 0 min 0,000 mm 0,0 UV-I 0 W/m² 6,0 °C 8,4 °C 3,2 km/h (1 Bft)
11.04.2017 03:58 8,4 °C 8,4 °C 85 % 1018,2 hPa 0,0 mm 1,9 km/h (1 Bft) W 267 ° 0 min 0,000 mm 0,0 UV-I 0 W/m² 6,0 °C 8,4 °C 3,2 km/h (1 Bft)
11.04.2017 03:59 8,4 °C 8,4 °C 85 % 1018,2 hPa 0,0 mm 0,9 km/h (0 Bft) W 267 ° 0 min 0,000 mm 0,0 UV-I 0 W/m² 6,0 °C 8,4 °C 3,2 km/h (1 Bft)
11.04.2017 04:00 8,4 °C 8,4 °C 85 % 1018,3 hPa 0,0 mm 2,1 km/h (1 Bft) W 267 ° 0 min 0,000 mm 0,0 UV-I 0 W/m² 6,0 °C 8,4 °C 4,8 km/h (1 Bft)
11.04.2017 04:01 8,4 °C 8,4 °C 85 % 1018,3 hPa 0,0 mm 1,8 km/h (1 Bft) W 267 ° 0 min 0,026 mm 0,0 UV-I 0 W/m² 6,0 °C 8,4 °C 4,8 km/h (1 Bft)
11.04.2017 04:02 8,4 °C 8,4 °C 85 % 1018,3 hPa 0,0 mm 3,3 km/h (1 Bft) W 267 ° 0 min 0,000 mm 0,0 UV-I 0 W/m² 6,0 °C 8,4 °C 4,8 km/h (1 Bft)
11.04.2017 04:03 8,4 °C 8,4 °C 85 % 1018,4 hPa 0,0 mm 2,3 km/h (1 Bft) W 267 ° 0 min 0,000 mm 0,0 UV-I 0 W/m² 6,0 °C 8,4 °C 4,8 km/h (1 Bft)
11.04.2017 04:04 8,4 °C 8,4 °C 85 % 1018,4 hPa 0,0 mm 3,8 km/h (1 Bft) W 267 ° 0 min 0,000 mm 0,0 UV-I 0 W/m² 6,0 °C 8,4 °C 6,4 km/h (2 Bft)
11.04.2017 04:05 8,4 °C 8,4 °C 84 % 1018,2 hPa 0,0 mm 4,2 km/h (1 Bft) W 261 ° 0 min 0,000 mm 0,0 UV-I 0 W/m² 5,9 °C 8,4 °C 6,4 km/h (2 Bft)
11.04.2017 04:06 8,4 °C 8,4 °C 84 % 1018,2 hPa 0,0 mm 4,3 km/h (1 Bft) W 273 ° 0 min 0,000 mm 0,0 UV-I 0 W/m² 5,9 °C 8,4 °C 6,4 km/h (2 Bft)
11.04.2017 04:07 8,4 °C 8,4 °C 84 % 1018,2 hPa 0,0 mm 4,2 km/h (1 Bft) W 263 ° 0 min 0,000 mm 0,0 UV-I 0 W/m² 5,9 °C 8,4 °C 6,4 km/h (2 Bft)
11.04.2017 04:08 8,4 °C 8,4 °C 84 % 1018,1 hPa 0,0 mm 4,8 km/h (1 Bft) W 267 ° 0 min 0,000 mm 0,0 UV-I 0 W/m² 5,9 °C 8,0 °C 6,4 km/h (2 Bft)
11.04.2017 04:09 8,4 °C 8,4 °C 83 % 1018,2 hPa 0,0 mm 2,2 km/h (1 Bft) W 266 ° 0 min 0,000 mm 0,0 UV-I 0 W/m² 5,7 °C 8,4 °C 4,8 km/h (1 Bft)
11.04.2017 04:10 8,4 °C 8,4 °C 83 % 1018,2 hPa 0,0 mm 4,9 km/h (1 Bft) W 269 ° 0 min 0,000 mm 0,0 UV-I 0 W/m² 5,7 °C 8,0 °C 9,7 km/h (2 Bft)
11.04.2017 04:11 8,4 °C 8,4 °C 83 % 1018,2 hPa 0,0 mm 4,2 km/h (1 Bft) W 263 ° 0 min 0,000 mm 0,0 UV-I 0 W/m² 5,7 °C 8,4 °C 6,4 km/h (2 Bft)
11.04.2017 04:12 8,4 °C 8,4 °C 83 % 1018,2 hPa 0,0 mm 4,0 km/h (1 Bft) W 263 ° 0 min 0,000 mm 0,0 UV-I 0 W/m² 5,7 °C 8,4 °C 4,8 km/h (1 Bft)
11.04.2017 04:13 8,4 °C 8,4 °C 83 % 1018,3 hPa 0,0 mm 3,0 km/h (1 Bft) W 271 ° 0 min 0,000 mm 0,0 UV-I 0 W/m² 5,7 °C 8,4 °C 4,8 km/h (1 Bft)
11.04.2017 04:14 8,4 °C 8,4 °C 84 % 1018,3 hPa 0,0 mm 2,3 km/h (1 Bft) W 271 ° 0 min 0,000 mm 0,0 UV-I 0 W/m² 5,9 °C 8,4 °C 4,8 km/h (1 Bft)
11.04.2017 04:15 8,3 °C 8,4 °C 83 % 1018,3 hPa 0,0 mm 4,6 km/h (1 Bft) W-SW 257 ° 0 min 0,000 mm 0,0 UV-I 0 W/m² 5,6 °C 8,0 °C 11,3 km/h (2 Bft)
11.04.2017 04:16 8,4 °C 8,4 °C 83 % 1018,3 hPa 0,0 mm 4,8 km/h (1 Bft) W 279 ° 0 min 0,000 mm 0,0 UV-I 0 W/m² 5,7 °C 8,0 °C 11,3 km/h (2 Bft)
11.04.2017 04:17 8,4 °C 8,4 °C 83 % 1018,3 hPa 0,0 mm 3,6 km/h (1 Bft) W 279 ° 0 min 0,000 mm 0,0 UV-I 0 W/m² 5,7 °C 8,4 °C 4,8 km/h (1 Bft)
11.04.2017 04:18 8,4 °C 8,4 °C 83 % 1018,3 hPa 0,0 mm 2,7 km/h (1 Bft) W 279 ° 0 min 0,000 mm 0,0 UV-I 0 W/m² 5,7 °C 8,4 °C 4,8 km/h (1 Bft)
11.04.2017 04:19 8,4 °C 8,4 °C 83 % 1018,3 hPa 0,0 mm 3,8 km/h (1 Bft) W 278 ° 0 min 0,000 mm 0,0 UV-I 0 W/m² 5,7 °C 8,4 °C 6,4 km/h (2 Bft)
11.04.2017 04:20 8,3 °C 8,4 °C 83 % 1018,3 hPa 0,0 mm 2,4 km/h (1 Bft) W 278 ° 0 min 0,000 mm 0,0 UV-I 0 W/m² 5,6 °C 8,3 °C 3,2 km/h (1 Bft)
11.04.2017 04:21 8,3 °C 8,4 °C 83 % 1018,4 hPa 0,0 mm 1,0 km/h (0 Bft) W 278 ° 0 min 0,000 mm 0,0 UV-I 0 W/m² 5,6 °C 8,3 °C 1,6 km/h (1 Bft)
11.04.2017 04:22 8,3 °C 8,4 °C 83 % 1018,4 hPa 0,0 mm 1,8 km/h (1 Bft) W-NW 293 ° 0 min 0,000 mm 0,0 UV-I 0 W/m² 5,6 °C 8,3 °C 4,8 km/h (1 Bft)
11.04.2017 04:23 8,3 °C 8,3 °C 83 % 1018,4 hPa 0,0 mm 3,4 km/h (1 Bft) W 268 ° 0 min 0,000 mm 0,0 UV-I 0 W/m² 5,6 °C 8,3 °C 4,8 km/h (1 Bft)
11.04.2017 04:24 8,3 °C 8,4 °C 83 % 1018,5 hPa 0,0 mm 0,6 km/h (0 Bft) W 268 ° 0 min 0,000 mm 0,0 UV-I 0 W/m² 5,6 °C 8,3 °C 1,6 km/h (1 Bft)
11.04.2017 04:25 8,3 °C 8,3 °C 84 % 1018,5 hPa 0,0 mm 0,8 km/h (0 Bft) W 268 ° 0 min 0,000 mm 0,0 UV-I 0 W/m² 5,8 °C 8,3 °C 3,2 km/h (1 Bft)
11.04.2017 04:26 8,3 °C 8,3 °C 84 % 1018,5 hPa 0,0 mm 2,7 km/h (1 Bft) W-NW 292 ° 0 min 0,000 mm 0,0 UV-I 0 W/m² 5,8 °C 8,3 °C 3,2 km/h (1 Bft)
11.04.2017 04:27 8,3 °C 8,3 °C 84 % 1018,5 hPa 0,0 mm 1,7 km/h (1 Bft) W 278 ° 0 min 0,000 mm 0,0 UV-I 0 W/m² 5,8 °C 8,3 °C 4,8 km/h (1 Bft)
11.04.2017 04:28 8,3 °C 8,3 °C 83 % 1018,5 hPa 0,0 mm 5,0 km/h (1 Bft) W 263 ° 0 min 0,000 mm 0,0 UV-I 0 W/m² 5,6 °C 7,8 °C 8,0 km/h (2 Bft)
11.04.2017 04:29 8,3 °C 8,3 °C 83 % 1018,5 hPa 0,0 mm 2,5 km/h (1 Bft) W 263 ° 0 min 0,000 mm 0,0 UV-I 0 W/m² 5,6 °C 8,3 °C 4,8 km/h (1 Bft)
11.04.2017 04:30 8,2 °C 8,3 °C 83 % 1018,5 hPa 0,0 mm 3,8 km/h (1 Bft) NW 319 ° 0 min 0,000 mm 0,0 UV-I 0 W/m² 5,5 °C 8,2 °C 8,0 km/h (2 Bft)
11.04.2017 04:31 8,2 °C 8,3 °C 83 % 1018,5 hPa 0,0 mm 3,1 km/h (1 Bft) W 263 ° 0 min 0,000 mm 0,0 UV-I 0 W/m² 5,5 °C 8,2 °C 4,8 km/h (1 Bft)
11.04.2017 04:32 8,2 °C 8,2 °C 82 % 1018,5 hPa 0,0 mm 3,2 km/h (1 Bft) W-NW 290 ° 0 min 0,000 mm 0,0 UV-I 0 W/m² 5,3 °C 8,2 °C 6,4 km/h (2 Bft)
11.04.2017 04:33 8,2 °C 8,2 °C 83 % 1018,5 hPa 0,0 mm 4,0 km/h (1 Bft) W 269 ° 0 min 0,000 mm 0,0 UV-I 0 W/m² 5,5 °C 8,2 °C 9,7 km/h (2 Bft)
11.04.2017 04:34 8,2 °C 8,2 °C 83 % 1018,5 hPa 0,0 mm 2,8 km/h (1 Bft) W 269 ° 0 min 0,000 mm 0,0 UV-I 0 W/m² 5,5 °C 8,2 °C 4,8 km/h (1 Bft)
11.04.2017 04:35 8,2 °C 8,2 °C 83 % 1018,5 hPa 0,0 mm 3,6 km/h (1 Bft) W 270 ° 0 min 0,000 mm 0,0 UV-I 0 W/m² 5,5 °C 8,2 °C 8,0 km/h (2 Bft)
11.04.2017 04:36 8,1 °C 8,2 °C 83 % 1018,5 hPa 0,0 mm 5,0 km/h (1 Bft) W-NW 295 ° 0 min 0,000 mm 0,0 UV-I 0 W/m² 5,4 °C 7,6 °C 11,3 km/h (2 Bft)
11.04.2017 04:37 8,1 °C 8,2 °C 82 % 1018,5 hPa 0,0 mm 5,7 km/h (1 Bft) W 276 ° 0 min 0,000 mm 0,0 UV-I 0 W/m² 5,2 °C 7,4 °C 9,7 km/h (2 Bft)
11.04.2017 04:38 8,1 °C 8,1 °C 83 % 1018,5 hPa 0,0 mm 2,8 km/h (1 Bft) W 276 ° 0 min 0,000 mm 0,0 UV-I 0 W/m² 5,4 °C 8,1 °C 4,8 km/h (1 Bft)
11.04.2017 04:39 8,1 °C 8,1 °C 82 % 1018,5 hPa 0,0 mm 4,5 km/h (1 Bft) W-SW 256 ° 0 min 0,000 mm 0,0 UV-I 0 W/m² 5,2 °C 8,1 °C 8,0 km/h (2 Bft)
11.04.2017 04:40 8,1 °C 8,1 °C 82 % 1018,4 hPa 0,0 mm 4,1 km/h (1 Bft) W-NW 299 ° 0 min 0,000 mm 0,0 UV-I 0 W/m² 5,2 °C 8,1 °C 6,4 km/h (2 Bft)
11.04.2017 04:41 8,1 °C 8,1 °C 83 % 1018,5 hPa 0,0 mm 0,8 km/h (0 Bft) W-NW 299 ° 0 min 0,000 mm 0,0 UV-I 0 W/m² 5,4 °C 8,1 °C 1,6 km/h (1 Bft)
11.04.2017 04:42 8,1 °C 8,1 °C 83 % 1018,4 hPa 0,0 mm 1,9 km/h (1 Bft) W-NW 299 ° 0 min 0,000 mm 0,0 UV-I 0 W/m² 5,4 °C 8,1 °C 3,2 km/h (1 Bft)
11.04.2017 04:43 8,1 °C 8,1 °C 83 % 1018,4 hPa 0,0 mm 3,4 km/h (1 Bft) W-NW 296 ° 0 min 0,000 mm 0,0 UV-I 0 W/m² 5,4 °C 8,1 °C 4,8 km/h (1 Bft)
11.04.2017 04:44 8,0 °C 8,1 °C 83 % 1018,5 hPa 0,0 mm 3,0 km/h (1 Bft) W-NW 286 ° 0 min 0,000 mm 0,0 UV-I 0 W/m² 5,3 °C 8,0 °C 4,8 km/h (1 Bft)
11.04.2017 04:45 8,0 °C 8,0 °C 83 % 1018,5 hPa 0,0 mm 1,9 km/h (1 Bft) W-NW 286 ° 0 min 0,000 mm 0,0 UV-I 0 W/m² 5,3 °C 8,0 °C 3,2 km/h (1 Bft)
11.04.2017 04:46 8,0 °C 8,0 °C 83 % 1018,5 hPa 0,0 mm 2,0 km/h (1 Bft) W-NW 298 ° 0 min 0,000 mm 0,0 UV-I 0 W/m² 5,3 °C 8,0 °C 4,8 km/h (1 Bft)
11.04.2017 04:47 8,0 °C 8,0 °C 83 % 1018,5 hPa 0,0 mm 1,7 km/h (1 Bft) W-NW 294 ° 0 min 0,000 mm 0,0 UV-I 0 W/m² 5,3 °C 8,0 °C 4,8 km/h (1 Bft)
11.04.2017 04:48 8,0 °C 8,0 °C 83 % 1018,4 hPa 0,0 mm 2,1 km/h (1 Bft) N-NO 13 ° 0 min 0,000 mm 0,0 UV-I 0 W/m² 5,3 °C 8,0 °C 4,8 km/h (1 Bft)
11.04.2017 04:49 8,0 °C 8,0 °C 83 % 1018,4 hPa 0,0 mm 1,5 km/h (1 Bft) NW 306 ° 0 min 0,000 mm 0,0 UV-I 0 W/m² 5,3 °C 8,0 °C 4,8 km/h (1 Bft)
11.04.2017 04:50 8,0 °C 8,0 °C 83 % 1018,4 hPa 0,0 mm 3,7 km/h (1 Bft) N-NW 327 ° 0 min 0,000 mm 0,0 UV-I 0 W/m² 5,3 °C 8,0 °C 8,0 km/h (2 Bft)
11.04.2017 04:51 7,9 °C 8,0 °C 83 % 1018,4 hPa 0,0 mm 3,7 km/h (1 Bft) W-NW 290 ° 0 min 0,000 mm 0,0 UV-I 0 W/m² 5,2 °C 7,9 °C 8,0 km/h (2 Bft)
11.04.2017 04:52 7,9 °C 7,9 °C 83 % 1018,5 hPa 0,0 mm 3,4 km/h (1 Bft) W 279 ° 0 min 0,000 mm 0,0 UV-I 0 W/m² 5,2 °C 7,9 °C 6,4 km/h (2 Bft)
11.04.2017 04:53 7,9 °C 8,0 °C 84 % 1018,5 hPa 0,0 mm 1,7 km/h (1 Bft) W 279 ° 0 min 0,000 mm 0,0 UV-I 0 W/m² 5,4 °C 7,9 °C 3,2 km/h (1 Bft)
11.04.2017 04:54 7,9 °C 7,9 °C 84 % 1018,5 hPa 0,0 mm 2,4 km/h (1 Bft) W 277 ° 0 min 0,000 mm 0,0 UV-I 0 W/m² 5,4 °C 7,9 °C 6,4 km/h (2 Bft)
11.04.2017 04:55 7,9 °C 7,9 °C 84 % 1018,5 hPa 0,0 mm 2,5 km/h (1 Bft) W-NW 298 ° 0 min 0,000 mm 0,0 UV-I 0 W/m² 5,4 °C 7,9 °C 4,8 km/h (1 Bft)
11.04.2017 04:56 7,9 °C 7,9 °C 84 % 1018,5 hPa 0,0 mm 2,9 km/h (1 Bft) W-NW 294 ° 0 min 0,000 mm 0,0 UV-I 0 W/m² 5,4 °C 7,9 °C 4,8 km/h (1 Bft)
11.04.2017 04:57 7,9 °C 7,9 °C 84 % 1018,5 hPa 0,0 mm 5,0 km/h (1 Bft) W 272 ° 0 min 0,000 mm 0,0 UV-I 0 W/m² 5,4 °C 7,4 °C 6,4 km/h (2 Bft)
11.04.2017 04:58 7,9 °C 7,9 °C 84 % 1018,6 hPa 0,0 mm 3,5 km/h (1 Bft) W-NW 285 ° 0 min 0,000 mm 0,0 UV-I 0 W/m² 5,4 °C 7,9 °C 4,8 km/h (1 Bft)
11.04.2017 04:59 7,9 °C 7,9 °C 84 % 1018,7 hPa 0,0 mm 4,2 km/h (1 Bft) W-SW 258 ° 0 min 0,000 mm 0,0 UV-I 0 W/m² 5,4 °C 7,9 °C 4,8 km/h (1 Bft)
11.04.2017 05:00 7,9 °C 7,9 °C 84 % 1018,7 hPa 0,0 mm 4,8 km/h (1 Bft) W 268 ° 0 min 0,025 mm 0,0 UV-I 0 W/m² 5,4 °C 7,4 °C 6,4 km/h (2 Bft)
11.04.2017 05:01 7,9 °C 7,9 °C 84 % 1018,7 hPa 0,0 mm 6,8 km/h (2 Bft) NW 306 ° 0 min 0,000 mm 0,0 UV-I 0 W/m² 5,4 °C 6,8 °C 11,3 km/h (2 Bft)
11.04.2017 05:02 7,9 °C 7,9 °C 84 % 1018,7 hPa 0,0 mm 4,4 km/h (1 Bft) W 279 ° 0 min 0,000 mm 0,0 UV-I 0 W/m² 5,4 °C 7,9 °C 4,8 km/h (1 Bft)
11.04.2017 05:03 7,9 °C 7,9 °C 84 % 1018,7 hPa 0,0 mm 5,8 km/h (2 Bft) W-NW 290 ° 0 min 0,000 mm 0,0 UV-I 0 W/m² 5,4 °C 7,1 °C 8,0 km/h (2 Bft)
11.04.2017 05:04 7,8 °C 7,9 °C 85 % 1018,7 hPa 0,0 mm 3,6 km/h (1 Bft) W 281 ° 0 min 0,000 mm 0,0 UV-I 0 W/m² 5,4 °C 7,8 °C 4,8 km/h (1 Bft)
11.04.2017 05:05 7,8 °C 7,8 °C 85 % 1018,6 hPa 0,0 mm 2,4 km/h (1 Bft) NW 322 ° 0 min 0,000 mm 0,0 UV-I 0 W/m² 5,4 °C 7,8 °C 6,4 km/h (2 Bft)
11.04.2017 05:06 7,8 °C 7,8 °C 85 % 1018,6 hPa 0,0 mm 1,9 km/h (1 Bft) W-NW 294 ° 0 min 0,000 mm 0,0 UV-I 0 W/m² 5,4 °C 7,8 °C 3,2 km/h (1 Bft)
11.04.2017 05:07 7,8 °C 7,8 °C 85 % 1018,6 hPa 0,2 mm 2,4 km/h (1 Bft) NW 317 ° 0 min 0,000 mm 0,0 UV-I 0 W/m² 5,4 °C 7,8 °C 4,8 km/h (1 Bft)
11.04.2017 05:08 7,7 °C 7,8 °C 86 % 1018,5 hPa 0,0 mm 2,0 km/h (1 Bft) NW 307 ° 0 min 0,000 mm 0,0 UV-I 0 W/m² 5,5 °C 7,7 °C 3,2 km/h (1 Bft)
11.04.2017 05:09 7,7 °C 7,7 °C 86 % 1018,4 hPa 0,0 mm 1,7 km/h (1 Bft) NW 307 ° 0 min 0,000 mm 0,0 UV-I 0 W/m² 5,5 °C 7,7 °C 3,2 km/h (1 Bft)
11.04.2017 05:10 7,7 °C 7,7 °C 86 % 1018,4 hPa 0,0 mm 1,4 km/h (1 Bft) NW 307 ° 0 min 0,000 mm 0,0 UV-I 0 W/m² 5,5 °C 7,7 °C 1,6 km/h (1 Bft)
11.04.2017 05:11 7,6 °C 7,7 °C 86 % 1018,4 hPa 0,0 mm 3,1 km/h (1 Bft) W-NW 284 ° 0 min 0,000 mm 0,0 UV-I 0 W/m² 5,4 °C 7,6 °C 4,8 km/h (1 Bft)
11.04.2017 05:12 7,6 °C 7,7 °C 87 % 1018,4 hPa 0,0 mm 5,2 km/h (1 Bft) W-SW 257 ° 0 min 0,000 mm 0,0 UV-I 0 W/m² 5,6 °C 7,0 °C 6,4 km/h (2 Bft)
11.04.2017 05:13 7,6 °C 7,6 °C 86 % 1018,4 hPa 0,0 mm 3,8 km/h (1 Bft) W-SW 257 ° 0 min 0,000 mm 0,0 UV-I 0 W/m² 5,4 °C 7,6 °C 4,8 km/h (1 Bft)
11.04.2017 05:14 7,6 °C 7,6 °C 87 % 1018,4 hPa 0,0 mm 5,3 km/h (1 Bft) W-SW 257 ° 0 min 0,000 mm 0,0 UV-I 0 W/m² 5,6 °C 6,9 °C 8,0 km/h (2 Bft)
11.04.2017 05:15 7,5 °C 7,6 °C 87 % 1018,5 hPa 0,0 mm 5,0 km/h (1 Bft) W-NW 299 ° 0 min 0,000 mm 0,0 UV-I 0 W/m² 5,5 °C 6,9 °C 6,4 km/h (2 Bft)
11.04.2017 05:16 7,5 °C 7,5 °C 87 % 1018,4 hPa 0,0 mm 4,4 km/h (1 Bft) W-SW 257 ° 0 min 0,000 mm 0,0 UV-I 0 W/m² 5,5 °C 7,5 °C 6,4 km/h (2 Bft)
11.04.2017 05:17 7,4 °C 7,5 °C 87 % 1018,4 hPa 0,0 mm 7,7 km/h (2 Bft) W-SW 252 ° 0 min 0,000 mm 0,0 UV-I 0 W/m² 5,4 °C 6,0 °C 11,3 km/h (2 Bft)
11.04.2017 05:18 7,4 °C 7,4 °C 87 % 1018,4 hPa 0,0 mm 6,5 km/h (2 Bft) W 275 ° 0 min 0,000 mm 0,0 UV-I 0 W/m² 5,4 °C 6,3 °C 11,3 km/h (2 Bft)
11.04.2017 05:19 7,3 °C 7,4 °C 87 % 1018,4 hPa 0,0 mm 4,4 km/h (1 Bft) W 267 ° 0 min 0,000 mm 0,0 UV-I 0 W/m² 5,3 °C 7,3 °C 6,4 km/h (2 Bft)
11.04.2017 05:20 7,3 °C 7,3 °C 87 % 1018,4 hPa 0,0 mm 5,7 km/h (1 Bft) W 273 ° 0 min 0,000 mm 0,0 UV-I 0 W/m² 5,3 °C 6,5 °C 11,3 km/h (2 Bft)
11.04.2017 05:21 7,3 °C 7,3 °C 87 % 1018,3 hPa 0,0 mm 4,1 km/h (1 Bft) W 279 ° 0 min 0,000 mm 0,0 UV-I 0 W/m² 5,3 °C 7,3 °C 8,0 km/h (2 Bft)
11.04.2017 05:22 7,3 °C 7,3 °C 87 % 1018,3 hPa 0,0 mm 4,9 km/h (1 Bft) W-SW 252 ° 0 min 0,000 mm 0,0 UV-I 0 W/m² 5,3 °C 6,7 °C 9,7 km/h (2 Bft)
11.04.2017 05:23 7,2 °C 7,3 °C 87 % 1018,3 hPa 0,0 mm 5,0 km/h (1 Bft) W 261 ° 0 min 0,000 mm 0,0 UV-I 0 W/m² 5,2 °C 6,6 °C 6,4 km/h (2 Bft)
11.04.2017 05:24 7,2 °C 7,2 °C 87 % 1018,4 hPa 0,0 mm 2,3 km/h (1 Bft) W 261 ° 0 min 0,000 mm 0,0 UV-I 0 W/m² 5,2 °C 7,2 °C 4,8 km/h (1 Bft)
11.04.2017 05:25 7,2 °C 7,2 °C 87 % 1018,4 hPa 0,0 mm 2,7 km/h (1 Bft) W 261 ° 0 min 0,000 mm 0,0 UV-I 0 W/m² 5,2 °C 7,2 °C 4,8 km/h (1 Bft)
11.04.2017 05:26 7,2 °C 7,2 °C 87 % 1018,4 hPa 0,0 mm 5,5 km/h (1 Bft) W 267 ° 0 min 0,000 mm 0,0 UV-I 0 W/m² 5,2 °C 6,4 °C 9,7 km/h (2 Bft)
11.04.2017 05:27 7,1 °C 7,2 °C 87 % 1018,4 hPa 0,0 mm 3,3 km/h (1 Bft) W 268 ° 0 min 0,000 mm 0,0 UV-I 0 W/m² 5,1 °C 7,1 °C 6,4 km/h (2 Bft)
11.04.2017 05:28 7,1 °C 7,2 °C 88 % 1018,4 hPa 0,0 mm 3,1 km/h (1 Bft) W 268 ° 0 min 0,000 mm 0,0 UV-I 0 W/m² 5,2 °C 7,1 °C 4,8 km/h (1 Bft)
11.04.2017 05:29 7,1 °C 7,1 °C 87 % 1018,5 hPa 0,0 mm 2,5 km/h (1 Bft) W 268 ° 0 min 0,000 mm 0,0 UV-I 0 W/m² 5,1 °C 7,1 °C 3,2 km/h (1 Bft)
11.04.2017 05:30 7,1 °C 7,2 °C 88 % 1018,5 hPa 0,0 mm 2,3 km/h (1 Bft) W 268 ° 0 min 0,000 mm 0,0 UV-I 0 W/m² 5,2 °C 7,1 °C 3,2 km/h (1 Bft)
11.04.2017 05:31 7,1 °C 7,1 °C 88 % 1018,5 hPa 0,0 mm 3,4 km/h (1 Bft) W 268 ° 0 min 0,000 mm 0,0 UV-I 0 W/m² 5,2 °C 7,1 °C 6,4 km/h (2 Bft)
11.04.2017 05:32 7,1 °C 7,1 °C 88 % 1018,5 hPa 0,0 mm 5,8 km/h (2 Bft) W 263 ° 0 min 0,000 mm 0,0 UV-I 0 W/m² 5,2 °C 6,2 °C 11,3 km/h (2 Bft)
11.04.2017 05:33 7,1 °C 7,1 °C 88 % 1018,5 hPa 0,0 mm 6,4 km/h (2 Bft) W 266 ° 0 min 0,000 mm 0,0 UV-I 0 W/m² 5,2 °C 6,0 °C 9,7 km/h (2 Bft)
11.04.2017 05:34 7,1 °C 7,1 °C 88 % 1018,6 hPa 0,0 mm 4,4 km/h (1 Bft) W 269 ° 0 min 0,000 mm 0,0 UV-I 0 W/m² 5,2 °C 7,1 °C 6,4 km/h (2 Bft)
11.04.2017 05:35 7,1 °C 7,1 °C 88 % 1018,6 hPa 0,0 mm 4,1 km/h (1 Bft) W 267 ° 0 min 0,000 mm 0,0 UV-I 0 W/m² 5,2 °C 7,1 °C 6,4 km/h (2 Bft)
11.04.2017 05:36 7,1 °C 7,1 °C 88 % 1018,6 hPa 0,0 mm 2,4 km/h (1 Bft) W 267 ° 0 min 0,000 mm 0,0 UV-I 0 W/m² 5,2 °C 7,1 °C 4,8 km/h (1 Bft)
11.04.2017 05:37 7,1 °C 7,1 °C 88 % 1018,5 hPa 0,0 mm 3,0 km/h (1 Bft) W 267 ° 0 min 0,000 mm 0,0 UV-I 0 W/m² 5,2 °C 7,1 °C 4,8 km/h (1 Bft)
11.04.2017 05:38 7,1 °C 7,1 °C 88 % 1018,5 hPa 0,0 mm 0,8 km/h (0 Bft) W 267 ° 0 min 0,000 mm 0,0 UV-I 0 W/m² 5,2 °C 7,1 °C 1,6 km/h (1 Bft)
11.04.2017 05:39 7,1 °C 7,1 °C 88 % 1018,4 hPa 0,0 mm 1,0 km/h (0 Bft) W-NW 282 ° 0 min 0,000 mm 0,0 UV-I 0 W/m² 5,2 °C 7,1 °C 3,2 km/h (1 Bft)
11.04.2017 05:40 7,1 °C 7,1 °C 88 % 1018,4 hPa 0,0 mm 0,7 km/h (0 Bft) W-NW 282 ° 0 min 0,000 mm 0,0 UV-I 0 W/m² 5,2 °C 7,1 °C 1,6 km/h (1 Bft)
11.04.2017 05:41 7,1 °C 7,1 °C 88 % 1018,4 hPa 0,0 mm 4,3 km/h (1 Bft) W 262 ° 0 min 0,000 mm 0,0 UV-I 0 W/m² 5,2 °C 7,1 °C 9,7 km/h (2 Bft)
11.04.2017 05:42 7,1 °C 7,1 °C 87 % 1018,4 hPa 0,0 mm 2,3 km/h (1 Bft) W 262 ° 0 min 0,000 mm 0,0 UV-I 0 W/m² 5,1 °C 7,1 °C 4,8 km/h (1 Bft)
11.04.2017 05:43 7,1 °C 7,1 °C 88 % 1018,5 hPa 0,0 mm 1,9 km/h (1 Bft) W 275 ° 0 min 0,000 mm 0,0 UV-I 0 W/m² 5,2 °C 7,1 °C 4,8 km/h (1 Bft)
11.04.2017 05:44 7,1 °C 7,1 °C 88 % 1018,5 hPa 0,0 mm 2,0 km/h (1 Bft) W 275 ° 0 min 0,000 mm 0,0 UV-I 0 W/m² 5,2 °C 7,1 °C 3,2 km/h (1 Bft)
11.04.2017 05:45 7,1 °C 7,1 °C 88 % 1018,5 hPa 0,0 mm 1,1 km/h (1 Bft) W 275 ° 0 min 0,000 mm 0,0 UV-I 0 W/m² 5,2 °C 7,1 °C 3,2 km/h (1 Bft)
11.04.2017 05:46 7,0 °C 7,1 °C 88 % 1018,5 hPa 0,0 mm 2,1 km/h (1 Bft) W 275 ° 0 min 0,000 mm 0,0 UV-I 0 W/m² 5,2 °C 7,0 °C 3,2 km/h (1 Bft)
11.04.2017 05:47 7,1 °C 7,1 °C 88 % 1018,6 hPa 0,0 mm 1,5 km/h (1 Bft) W 275 ° 0 min 0,000 mm 0,0 UV-I 0 W/m² 5,2 °C 7,1 °C 3,2 km/h (1 Bft)
11.04.2017 05:48 7,1 °C 7,1 °C 88 % 1018,6 hPa 0,0 mm 1,8 km/h (1 Bft) W 275 ° 0 min 0,000 mm 0,0 UV-I 0 W/m² 5,2 °C 7,1 °C 3,2 km/h (1 Bft)
11.04.2017 05:49 7,1 °C 7,1 °C 88 % 1018,6 hPa 0,0 mm 0,3 km/h (0 Bft) W 275 ° 0 min 0,000 mm 0,0 UV-I 0 W/m² 5,2 °C 7,1 °C 1,6 km/h (1 Bft)
11.04.2017 05:50 7,0 °C 7,1 °C 88 % 1018,6 hPa 0,0 mm 2,4 km/h (1 Bft) W 275 ° 0 min 0,000 mm 0,0 UV-I 0 W/m² 5,2 °C 7,0 °C 3,2 km/h (1 Bft)
11.04.2017 05:51 7,0 °C 7,1 °C 88 % 1018,6 hPa 0,0 mm 4,2 km/h (1 Bft) W 263 ° 0 min 0,000 mm 0,0 UV-I 0 W/m² 5,2 °C 7,0 °C 6,4 km/h (2 Bft)
11.04.2017 05:52 7,0 °C 7,1 °C 88 % 1018,6 hPa 0,0 mm 4,2 km/h (1 Bft) W 262 ° 0 min 0,000 mm 0,0 UV-I 0 W/m² 5,2 °C 7,0 °C 6,4 km/h (2 Bft)
11.04.2017 05:53 7,0 °C 7,0 °C 88 % 1018,7 hPa 0,0 mm 3,6 km/h (1 Bft) W-NW 301 ° 0 min 0,000 mm 0,0 UV-I 0 W/m² 5,2 °C 7,0 °C 6,4 km/h (2 Bft)
11.04.2017 05:54 7,0 °C 7,0 °C 88 % 1018,7 hPa 0,0 mm 3,1 km/h (1 Bft) W-NW 301 ° 0 min 0,000 mm 0,0 UV-I 0 W/m² 5,2 °C 7,0 °C 4,8 km/h (1 Bft)
11.04.2017 05:55 7,0 °C 7,0 °C 88 % 1018,7 hPa 0,0 mm 2,0 km/h (1 Bft) W-NW 301 ° 0 min 0,000 mm 0,0 UV-I 0 W/m² 5,2 °C 7,0 °C 3,2 km/h (1 Bft)
11.04.2017 05:56 7,0 °C 7,0 °C 88 % 1018,7 hPa 0,0 mm 1,7 km/h (1 Bft) W-NW 301 ° 0 min 0,000 mm 0,0 UV-I 0 W/m² 5,2 °C 7,0 °C 3,2 km/h (1 Bft)
11.04.2017 05:57 7,0 °C 7,0 °C 88 % 1018,7 hPa 0,0 mm 1,9 km/h (1 Bft) W-NW 301 ° 0 min 0,000 mm 0,0 UV-I 0 W/m² 5,2 °C 7,0 °C 3,2 km/h (1 Bft)
11.04.2017 05:58 7,0 °C 7,0 °C 88 % 1018,7 hPa 0,0 mm 2,3 km/h (1 Bft) W-NW 301 ° 0 min 0,000 mm 0,0 UV-I 0 W/m² 5,2 °C 7,0 °C 3,2 km/h (1 Bft)
11.04.2017 05:59 6,9 °C 7,0 °C 88 % 1018,7 hPa 0,0 mm 3,4 km/h (1 Bft) W-NW 300 ° 0 min 0,000 mm 0,0 UV-I 0 W/m² 5,1 °C 6,9 °C 4,8 km/h (1 Bft)
11.04.2017 06:00 7,0 °C 7,0 °C 88 % 1018,7 hPa 0,0 mm 3,0 km/h (1 Bft) W-NW 300 ° 0 min 0,000 mm 0,0 UV-I 0 W/m² 5,2 °C 7,0 °C 4,8 km/h (1 Bft)
11.04.2017 06:01 6,9 °C 7,0 °C 88 % 1018,7 hPa 0,0 mm 3,5 km/h (1 Bft) NW 311 ° 0 min 0,000 mm 0,0 UV-I 0 W/m² 5,1 °C 6,9 °C 6,4 km/h (2 Bft)
11.04.2017 06:02 6,9 °C 6,9 °C 88 % 1018,8 hPa 0,0 mm 1,2 km/h (1 Bft) NW 311 ° 0 min 0,000 mm 0,0 UV-I 0 W/m² 5,1 °C 6,9 °C 3,2 km/h (1 Bft)
11.04.2017 06:03 6,9 °C 7,0 °C 88 % 1018,8 hPa 0,0 mm 0,0 km/h (0 Bft) NW 311 ° 0 min 0,000 mm 0,0 UV-I 0 W/m² 5,1 °C 6,9 °C 0,0 km/h (0 Bft)
11.04.2017 06:04 6,9 °C 6,9 °C 88 % 1018,8 hPa 0,0 mm 0,4 km/h (0 Bft) NW 311 ° 0 min 0,000 mm 0,0 UV-I 0 W/m² 5,1 °C 6,9 °C 1,6 km/h (1 Bft)
11.04.2017 06:05 6,9 °C 6,9 °C 88 % 1018,8 hPa 0,0 mm 0,7 km/h (0 Bft) NW 311 ° 0 min 0,000 mm 0,0 UV-I 0 W/m² 5,1 °C 6,9 °C 1,6 km/h (1 Bft)
11.04.2017 06:06 6,9 °C 6,9 °C 88 % 1018,8 hPa 0,0 mm 2,5 km/h (1 Bft) NW 311 ° 0 min 0,000 mm 0,0 UV-I 0 W/m² 5,1 °C 6,9 °C 4,8 km/h (1 Bft)
11.04.2017 06:07 6,9 °C 6,9 °C 88 % 1018,8 hPa 0,0 mm 1,3 km/h (1 Bft) NW 311 ° 0 min 0,000 mm 0,0 UV-I 0 W/m² 5,1 °C 6,9 °C 3,2 km/h (1 Bft)
11.04.2017 06:08 6,9 °C 6,9 °C 88 % 1018,8 hPa 0,0 mm 1,3 km/h (1 Bft) NW 311 ° 0 min 0,000 mm 0,0 UV-I 0 W/m² 5,1 °C 6,9 °C 3,2 km/h (1 Bft)
11.04.2017 06:09 6,9 °C 6,9 °C 88 % 1018,8 hPa 0,0 mm 0,1 km/h (0 Bft) NW 311 ° 0 min 0,000 mm 0,0 UV-I 0 W/m² 5,1 °C 6,9 °C 1,6 km/h (1 Bft)
11.04.2017 06:10 6,9 °C 6,9 °C 88 % 1018,7 hPa 0,0 mm 0,0 km/h (0 Bft) NW 311 ° 0 min 0,000 mm 0,0 UV-I 0 W/m² 5,1 °C 6,9 °C 0,0 km/h (0 Bft)
11.04.2017 06:11 6,9 °C 6,9 °C 88 % 1018,8 hPa 0,0 mm 0,1 km/h (0 Bft) NW 311 ° 0 min 0,000 mm 0,0 UV-I 0 W/m² 5,1 °C 6,9 °C 1,6 km/h (1 Bft)
11.04.2017 06:12 6,9 °C 6,9 °C 88 % 1018,7 hPa 0,0 mm 0,5 km/h (0 Bft) NW 311 ° 0 min 0,000 mm 0,0 UV-I 0 W/m² 5,1 °C 6,9 °C 1,6 km/h (1 Bft)
11.04.2017 06:13 6,9 °C 6,9 °C 89 % 1018,9 hPa 0,0 mm 2,3 km/h (1 Bft) NW 311 ° 0 min 0,000 mm 0,0 UV-I 0 W/m² 5,2 °C 6,9 °C 3,2 km/h (1 Bft)
11.04.2017 06:14 6,9 °C 6,9 °C 89 % 1018,9 hPa 0,0 mm 2,1 km/h (1 Bft) NW 311 ° 0 min 0,000 mm 0,0 UV-I 0 W/m² 5,2 °C 6,9 °C 4,8 km/h (1 Bft)
11.04.2017 06:15 6,9 °C 6,9 °C 88 % 1018,9 hPa 0,0 mm 2,2 km/h (1 Bft) NW 311 ° 0 min 0,000 mm 0,0 UV-I 0 W/m² 5,1 °C 6,9 °C 3,2 km/h (1 Bft)
11.04.2017 06:16 6,9 °C 6,9 °C 88 % 1018,9 hPa 0,0 mm 2,2 km/h (1 Bft) NW 311 ° 0 min 0,000 mm 0,0 UV-I 0 W/m² 5,1 °C 6,9 °C 4,8 km/h (1 Bft)
11.04.2017 06:17 6,9 °C 6,9 °C 88 % 1018,8 hPa 0,0 mm 0,2 km/h (0 Bft) NW 311 ° 0 min 0,000 mm 0,0 UV-I 0 W/m² 5,1 °C 6,9 °C 1,6 km/h (1 Bft)
11.04.2017 06:18 6,9 °C 6,9 °C 88 % 1018,8 hPa 0,0 mm 1,3 km/h (1 Bft) NW 311 ° 0 min 0,000 mm 0,0 UV-I 0 W/m² 5,1 °C 6,9 °C 3,2 km/h (1 Bft)
11.04.2017 06:19 6,9 °C 6,9 °C 88 % 1018,8 hPa 0,0 mm 3,0 km/h (1 Bft) NW 311 ° 0 min 0,000 mm 0,0 UV-I 0 W/m² 5,1 °C 6,9 °C 4,8 km/h (1 Bft)
11.04.2017 06:20 6,9 °C 6,9 °C 88 % 1018,9 hPa 0,0 mm 2,8 km/h (1 Bft) NW 311 ° 0 min 0,000 mm 0,0 UV-I 0 W/m² 5,1 °C 6,9 °C 3,2 km/h (1 Bft)
11.04.2017 06:21 6,9 °C 6,9 °C 88 % 1018,9 hPa 0,0 mm 2,1 km/h (1 Bft) NW 311 ° 0 min 0,000 mm 0,0 UV-I 0 W/m² 5,1 °C 6,9 °C 3,2 km/h (1 Bft)
11.04.2017 06:22 6,9 °C 6,9 °C 89 % 1018,9 hPa 0,0 mm 0,1 km/h (0 Bft) NW 311 ° 0 min 0,000 mm 0,0 UV-I 0 W/m² 5,2 °C 6,9 °C 1,6 km/h (1 Bft)
11.04.2017 06:23 6,9 °C 6,9 °C 88 % 1019,0 hPa 0,0 mm 2,9 km/h (1 Bft) NW 310 ° 0 min 0,000 mm 0,0 UV-I 0 W/m² 5,1 °C 6,9 °C 4,8 km/h (1 Bft)
11.04.2017 06:24 6,9 °C 6,9 °C 88 % 1019,0 hPa 0,0 mm 1,8 km/h (1 Bft) NW 310 ° 0 min 0,000 mm 0,0 UV-I 0 W/m² 5,1 °C 6,9 °C 3,2 km/h (1 Bft)
11.04.2017 06:25 6,9 °C 6,9 °C 88 % 1019,0 hPa 0,0 mm 2,3 km/h (1 Bft) NW 310 ° 0 min 0,000 mm 0,0 UV-I 0 W/m² 5,1 °C 6,9 °C 3,2 km/h (1 Bft)
11.04.2017 06:26 6,8 °C 6,9 °C 88 % 1019,0 hPa 0,0 mm 1,7 km/h (1 Bft) NW 310 ° 0 min 0,000 mm 0,0 UV-I 0 W/m² 5,0 °C 6,8 °C 4,8 km/h (1 Bft)
11.04.2017 06:27 6,9 °C 6,9 °C 88 % 1019,0 hPa 0,0 mm 2,0 km/h (1 Bft) W 277 ° 0 min 0,000 mm 0,0 UV-I 0 W/m² 5,1 °C 6,9 °C 4,8 km/h (1 Bft)
11.04.2017 06:28 6,9 °C 6,9 °C 88 % 1019,0 hPa 0,0 mm 0,5 km/h (0 Bft) W 277 ° 0 min 0,000 mm 0,0 UV-I 0 W/m² 5,1 °C 6,9 °C 3,2 km/h (1 Bft)
11.04.2017 06:29 6,8 °C 6,9 °C 88 % 1019,0 hPa 0,0 mm 1,9 km/h (1 Bft) W 277 ° 0 min 0,000 mm 0,0 UV-I 0 W/m² 5,0 °C 6,8 °C 3,2 km/h (1 Bft)
11.04.2017 06:30 6,8 °C 6,8 °C 87 % 1019,0 hPa 0,0 mm 0,9 km/h (0 Bft) W 277 ° 0 min 0,000 mm 0,0 UV-I 0 W/m² 4,8 °C 6,8 °C 1,6 km/h (1 Bft)
11.04.2017 06:31 6,8 °C 6,8 °C 88 % 1019,0 hPa 0,0 mm 0,3 km/h (0 Bft) W 277 ° 0 min 0,000 mm 0,0 UV-I 0 W/m² 5,0 °C 6,8 °C 1,6 km/h (1 Bft)
11.04.2017 06:32 6,8 °C 6,8 °C 88 % 1019,0 hPa 0,0 mm 2,6 km/h (1 Bft) W-NW 297 ° 0 min 0,000 mm 0,0 UV-I 0 W/m² 5,0 °C 6,8 °C 4,8 km/h (1 Bft)
11.04.2017 06:33 6,8 °C 6,8 °C 88 % 1019,0 hPa 0,0 mm 2,3 km/h (1 Bft) W-NW 297 ° 0 min 0,000 mm 0,0 UV-I 0 W/m² 5,0 °C 6,8 °C 3,2 km/h (1 Bft)
11.04.2017 06:34 6,8 °C 6,8 °C 88 % 1019,0 hPa 0,0 mm 0,4 km/h (0 Bft) W-NW 297 ° 0 min 0,000 mm 0,0 UV-I 0 W/m² 5,0 °C 6,8 °C 1,6 km/h (1 Bft)
11.04.2017 06:35 6,8 °C 6,8 °C 88 % 1019,0 hPa 0,0 mm 0,3 km/h (0 Bft) W-NW 297 ° 0 min 0,000 mm 0,0 UV-I 0 W/m² 5,0 °C 6,8 °C 1,6 km/h (1 Bft)
11.04.2017 06:36 6,8 °C 6,8 °C 88 % 1019,0 hPa 0,0 mm 1,7 km/h (1 Bft) W-NW 297 ° 0 min 0,000 mm 0,0 UV-I 0 W/m² 5,0 °C 6,8 °C 3,2 km/h (1 Bft)
11.04.2017 06:37 6,8 °C 6,8 °C 88 % 1019,0 hPa 0,0 mm 1,1 km/h (1 Bft) W-NW 297 ° 0 min 0,000 mm 0,0 UV-I 0 W/m² 5,0 °C 6,8 °C 3,2 km/h (1 Bft)
11.04.2017 06:38 6,8 °C 6,8 °C 88 % 1019,0 hPa 0,0 mm 2,7 km/h (1 Bft) W-NW 300 ° 0 min 0,000 mm 0,0 UV-I 0 W/m² 5,0 °C 6,8 °C 6,4 km/h (2 Bft)
11.04.2017 06:39 6,8 °C 6,8 °C 88 % 1019,0 hPa 0,0 mm 0,5 km/h (0 Bft) W-NW 300 ° 0 min 0,000 mm 0,0 UV-I 0 W/m² 5,0 °C 6,8 °C 1,6 km/h (1 Bft)
11.04.2017 06:40 6,8 °C 6,8 °C 88 % 1019,0 hPa 0,0 mm 0,0 km/h (0 Bft) W-NW 300 ° 0 min 0,000 mm 0,0 UV-I 0 W/m² 5,0 °C 6,8 °C 0,0 km/h (0 Bft)
11.04.2017 06:41 6,8 °C 6,8 °C 88 % 1019,0 hPa 0,0 mm 4,0 km/h (1 Bft) NW 314 ° 0 min 0,000 mm 0,0 UV-I 0 W/m² 5,0 °C 6,8 °C 6,4 km/h (2 Bft)
11.04.2017 06:42 6,8 °C 6,8 °C 88 % 1019,0 hPa 0,0 mm 3,1 km/h (1 Bft) NW 314 ° 0 min 0,000 mm 0,0 UV-I 0 W/m² 5,0 °C 6,8 °C 4,8 km/h (1 Bft)
11.04.2017 06:43 6,8 °C 6,8 °C 88 % 1019,0 hPa 0,0 mm 1,8 km/h (1 Bft) NW 314 ° 0 min 0,000 mm 0,0 UV-I 0 W/m² 5,0 °C 6,8 °C 3,2 km/h (1 Bft)
11.04.2017 06:44 6,8 °C 6,8 °C 88 % 1019,0 hPa 0,0 mm 1,8 km/h (1 Bft) NW 314 ° 0 min 0,000 mm 0,0 UV-I 0 W/m² 5,0 °C 6,8 °C 3,2 km/h (1 Bft)
11.04.2017 06:45 6,8 °C 6,8 °C 87 % 1019,0 hPa 0,0 mm 2,7 km/h (1 Bft) NW 314 ° 0 min 0,000 mm 0,0 UV-I 0 W/m² 4,8 °C 6,8 °C 4,8 km/h (1 Bft)
11.04.2017 06:46 6,8 °C 6,8 °C 88 % 1019,0 hPa 0,0 mm 3,9 km/h (1 Bft) W 263 ° 0 min 0,000 mm 0,0 UV-I 0 W/m² 5,0 °C 6,8 °C 9,7 km/h (2 Bft)
11.04.2017 06:47 6,8 °C 6,8 °C 87 % 1019,0 hPa 0,0 mm 3,5 km/h (1 Bft) W-SW 256 ° 0 min 0,000 mm 0,0 UV-I 0 W/m² 4,8 °C 6,8 °C 6,4 km/h (2 Bft)
11.04.2017 06:48 6,8 °C 6,8 °C 87 % 1019,0 hPa 0,0 mm 2,8 km/h (1 Bft) NW 308 ° 0 min 0,000 mm 0,0 UV-I 0 W/m² 4,8 °C 6,8 °C 4,8 km/h (1 Bft)
11.04.2017 06:49 6,7 °C 6,8 °C 87 % 1019,0 hPa 0,0 mm 1,9 km/h (1 Bft) NW 308 ° 0 min 0,000 mm 0,0 UV-I 0 W/m² 4,7 °C 6,7 °C 3,2 km/h (1 Bft)
11.04.2017 06:50 6,7 °C 6,8 °C 87 % 1019,0 hPa 0,0 mm 3,0 km/h (1 Bft) NW 308 ° 0 min 0,000 mm 0,0 UV-I 0 W/m² 4,7 °C 6,7 °C 4,8 km/h (1 Bft)
11.04.2017 06:51 6,8 °C 6,8 °C 88 % 1019,0 hPa 0,0 mm 3,6 km/h (1 Bft) W 272 ° 0 min 0,000 mm 0,0 UV-I 0 W/m² 5,0 °C 6,8 °C 6,4 km/h (2 Bft)
11.04.2017 06:52 6,7 °C 6,8 °C 88 % 1019,0 hPa 0,0 mm 2,0 km/h (1 Bft) W 272 ° 0 min 0,000 mm 0,0 UV-I 0 W/m² 4,9 °C 6,7 °C 3,2 km/h (1 Bft)
11.04.2017 06:53 6,7 °C 6,8 °C 87 % 1019,0 hPa 0,0 mm 0,4 km/h (0 Bft) W 272 ° 0 min 0,000 mm 0,0 UV-I 0 W/m² 4,7 °C 6,7 °C 1,6 km/h (1 Bft)
11.04.2017 06:54 6,7 °C 6,7 °C 87 % 1019,0 hPa 0,0 mm 2,4 km/h (1 Bft) W 278 ° 0 min 0,000 mm 0,0 UV-I 0 W/m² 4,7 °C 6,7 °C 6,4 km/h (2 Bft)
11.04.2017 06:55 6,7 °C 6,7 °C 87 % 1019,0 hPa 0,0 mm 2,0 km/h (1 Bft) W 277 ° 0 min 0,000 mm 0,0 UV-I 5 W/m² 4,7 °C 6,7 °C 3,2 km/h (1 Bft)
11.04.2017 06:56 6,7 °C 6,7 °C 87 % 1019,1 hPa 0,0 mm 1,0 km/h (0 Bft) W 277 ° 0 min 0,000 mm 0,0 UV-I 5 W/m² 4,7 °C 6,7 °C 1,6 km/h (1 Bft)
11.04.2017 06:57 6,7 °C 6,7 °C 87 % 1019,0 hPa 0,0 mm 0,0 km/h (0 Bft) W 277 ° 0 min 0,000 mm 0,0 UV-I 5 W/m² 4,7 °C 6,7 °C 0,0 km/h (0 Bft)
11.04.2017 06:58 6,7 °C 6,7 °C 88 % 1019,0 hPa 0,0 mm 0,0 km/h (0 Bft) W 277 ° 0 min 0,000 mm 0,0 UV-I 5 W/m² 4,9 °C 6,7 °C 0,0 km/h (0 Bft)
11.04.2017 06:59 6,7 °C 6,7 °C 88 % 1019,1 hPa 0,0 mm 0,0 km/h (0 Bft) W 277 ° 0 min 0,000 mm 0,0 UV-I 5 W/m² 4,9 °C 6,7 °C 0,0 km/h (0 Bft)
11.04.2017 07:00 6,7 °C 6,7 °C 88 % 1019,0 hPa 0,0 mm 0,4 km/h (0 Bft) W 277 ° 0 min 0,000 mm 0,0 UV-I 5 W/m² 4,9 °C 6,7 °C 1,6 km/h (1 Bft)
11.04.2017 07:01 6,6 °C 6,7 °C 88 % 1019,1 hPa 0,0 mm 2,5 km/h (1 Bft) W 277 ° 0 min 0,000 mm 0,0 UV-I 7 W/m² 4,8 °C 6,6 °C 4,8 km/h (1 Bft)
11.04.2017 07:02 6,6 °C 6,6 °C 87 % 1019,1 hPa 0,0 mm 3,4 km/h (1 Bft) W 277 ° 0 min 0,000 mm 0,0 UV-I 7 W/m² 4,6 °C 6,6 °C 4,8 km/h (1 Bft)
11.04.2017 07:03 6,6 °C 6,6 °C 88 % 1019,0 hPa 0,0 mm 2,3 km/h (1 Bft) W 277 ° 0 min 0,000 mm 0,0 UV-I 7 W/m² 4,8 °C 6,6 °C 4,8 km/h (1 Bft)
11.04.2017 07:04 6,6 °C 6,6 °C 87 % 1019,1 hPa 0,0 mm 1,6 km/h (1 Bft) W 277 ° 0 min 0,000 mm 0,0 UV-I 7 W/m² 4,6 °C 6,6 °C 3,2 km/h (1 Bft)
11.04.2017 07:05 6,6 °C 6,6 °C 88 % 1019,0 hPa 0,0 mm 3,0 km/h (1 Bft) W 277 ° 0 min 0,000 mm 0,0 UV-I 7 W/m² 4,8 °C 6,6 °C 4,8 km/h (1 Bft)
11.04.2017 07:06 6,6 °C 6,6 °C 87 % 1019,0 hPa 0,0 mm 2,4 km/h (1 Bft) W 277 ° 0 min 0,000 mm 0,0 UV-I 5 W/m² 4,6 °C 6,6 °C 3,2 km/h (1 Bft)
11.04.2017 07:07 6,6 °C 6,7 °C 87 % 1019,1 hPa 0,0 mm 1,9 km/h (1 Bft) W 277 ° 0 min 0,000 mm 0,0 UV-I 5 W/m² 4,6 °C 6,6 °C 3,2 km/h (1 Bft)
11.04.2017 07:08 6,6 °C 6,7 °C 88 % 1019,1 hPa 0,0 mm 2,6 km/h (1 Bft) W 277 ° 0 min 0,000 mm 0,0 UV-I 0 W/m² 4,8 °C 6,6 °C 4,8 km/h (1 Bft)
11.04.2017 07:09 6,6 °C 6,6 °C 88 % 1019,2 hPa 0,0 mm 1,7 km/h (1 Bft) W 277 ° 0 min 0,000 mm 0,0 UV-I 0 W/m² 4,8 °C 6,6 °C 3,2 km/h (1 Bft)
11.04.2017 07:10 6,6 °C 6,6 °C 88 % 1019,2 hPa 0,0 mm 2,5 km/h (1 Bft) W 277 ° 0 min 0,000 mm 0,0 UV-I 5 W/m² 4,8 °C 6,6 °C 3,2 km/h (1 Bft)
11.04.2017 07:11 6,6 °C 6,7 °C 88 % 1019,2 hPa 0,0 mm 2,9 km/h (1 Bft) W 277 ° 0 min 0,000 mm 0,0 UV-I 5 W/m² 4,8 °C 6,6 °C 4,8 km/h (1 Bft)
11.04.2017 07:12 6,6 °C 6,6 °C 88 % 1019,2 hPa 0,0 mm 1,3 km/h (1 Bft) W 277 ° 0 min 0,000 mm 0,0 UV-I 5 W/m² 4,8 °C 6,6 °C 3,2 km/h (1 Bft)
11.04.2017 07:13 6,6 °C 6,7 °C 88 % 1019,2 hPa 0,0 mm 2,9 km/h (1 Bft) W 277 ° 0 min 0,000 mm 0,0 UV-I 0 W/m² 4,8 °C 6,6 °C 4,8 km/h (1 Bft)
11.04.2017 07:14 6,6 °C 6,7 °C 88 % 1019,2 hPa 0,0 mm 0,7 km/h (0 Bft) W 277 ° 0 min 0,000 mm 0,0 UV-I 5 W/m² 4,8 °C 6,6 °C 1,6 km/h (1 Bft)
11.04.2017 07:15 6,6 °C 6,6 °C 88 % 1019,2 hPa 0,0 mm 3,5 km/h (1 Bft) W 277 ° 0 min 0,000 mm 0,0 UV-I 5 W/m² 4,8 °C 6,6 °C 4,8 km/h (1 Bft)
11.04.2017 07:16 6,6 °C 6,6 °C 88 % 1019,2 hPa 0,0 mm 1,5 km/h (1 Bft) W 277 ° 0 min 0,000 mm 0,0 UV-I 5 W/m² 4,8 °C 6,6 °C 3,2 km/h (1 Bft)
11.04.2017 07:17 6,6 °C 6,6 °C 88 % 1019,2 hPa 0,0 mm 1,9 km/h (1 Bft) W 277 ° 0 min 0,000 mm 0,0 UV-I 5 W/m² 4,8 °C 6,6 °C 3,2 km/h (1 Bft)
11.04.2017 07:18 6,6 °C 6,6 °C 87 % 1019,2 hPa 0,0 mm 2,8 km/h (1 Bft) W 277 ° 0 min 0,000 mm 0,0 UV-I 5 W/m² 4,6 °C 6,6 °C 4,8 km/h (1 Bft)
11.04.2017 07:19 6,6 °C 6,6 °C 88 % 1019,2 hPa 0,0 mm 2,1 km/h (1 Bft) W 277 ° 0 min 0,000 mm 0,0 UV-I 5 W/m² 4,8 °C 6,6 °C 3,2 km/h (1 Bft)
11.04.2017 07:20 6,6 °C 6,6 °C 88 % 1019,3 hPa 0,0 mm 0,1 km/h (0 Bft) W 277 ° 0 min 0,000 mm 0,0 UV-I 0 W/m² 4,8 °C 6,6 °C 1,6 km/h (1 Bft)
11.04.2017 07:21 6,6 °C 6,6 °C 88 % 1019,3 hPa 0,0 mm 1,7 km/h (1 Bft) W 277 ° 0 min 0,000 mm 0,0 UV-I 0 W/m² 4,8 °C 6,6 °C 3,2 km/h (1 Bft)
11.04.2017 07:22 6,6 °C 6,6 °C 88 % 1019,3 hPa 0,0 mm 0,0 km/h (0 Bft) W 277 ° 0 min 0,000 mm 0,0 UV-I 0 W/m² 4,8 °C 6,6 °C 0,0 km/h (0 Bft)
11.04.2017 07:23 6,6 °C 6,6 °C 88 % 1019,3 hPa 0,0 mm 0,4 km/h (0 Bft) W 277 ° 0 min 0,000 mm 0,0 UV-I 0 W/m² 4,8 °C 6,6 °C 1,6 km/h (1 Bft)
11.04.2017 07:24 6,6 °C 6,6 °C 88 % 1019,3 hPa 0,0 mm 1,3 km/h (1 Bft) W 277 ° 0 min 0,000 mm 0,0 UV-I 0 W/m² 4,8 °C 6,6 °C 3,2 km/h (1 Bft)
11.04.2017 07:25 6,6 °C 6,6 °C 88 % 1019,4 hPa 0,0 mm 1,7 km/h (1 Bft) W 277 ° 0 min 0,000 mm 0,0 UV-I 0 W/m² 4,8 °C 6,6 °C 3,2 km/h (1 Bft)
11.04.2017 07:26 6,6 °C 6,6 °C 88 % 1019,4 hPa 0,0 mm 0,7 km/h (0 Bft) W 277 ° 0 min 0,000 mm 0,0 UV-I 0 W/m² 4,8 °C 6,6 °C 1,6 km/h (1 Bft)
11.04.2017 07:27 6,6 °C 6,6 °C 88 % 1019,4 hPa 0,0 mm 1,4 km/h (1 Bft) W 277 ° 0 min 0,000 mm 0,0 UV-I 5 W/m² 4,8 °C 6,6 °C 3,2 km/h (1 Bft)
11.04.2017 07:28 6,5 °C 6,6 °C 88 % 1019,4 hPa 0,0 mm 0,0 km/h (0 Bft) W 277 ° 0 min 0,000 mm 0,0 UV-I 0 W/m² 4,7 °C 6,5 °C 0,0 km/h (0 Bft)
11.04.2017 07:29 6,5 °C 6,6 °C 88 % 1019,5 hPa 0,0 mm 0,0 km/h (0 Bft) W 277 ° 0 min 0,000 mm 0,0 UV-I 0 W/m² 4,7 °C 6,5 °C 0,0 km/h (0 Bft)
11.04.2017 07:30 6,5 °C 6,5 °C 88 % 1019,5 hPa 0,0 mm 0,5 km/h (0 Bft) W 277 ° 0 min 0,000 mm 0,0 UV-I 5 W/m² 4,7 °C 6,5 °C 3,2 km/h (1 Bft)
11.04.2017 07:31 6,5 °C 6,5 °C 88 % 1019,5 hPa 0,0 mm 1,0 km/h (0 Bft) W 277 ° 0 min 0,000 mm 0,0 UV-I 5 W/m² 4,7 °C 6,5 °C 3,2 km/h (1 Bft)
11.04.2017 07:32 6,6 °C 6,6 °C 88 % 1019,5 hPa 0,0 mm 0,5 km/h (0 Bft) W 277 ° 0 min 0,000 mm 0,0 UV-I 5 W/m² 4,8 °C 6,6 °C 1,6 km/h (1 Bft)
11.04.2017 07:33 6,6 °C 6,6 °C 88 % 1019,4 hPa 0,0 mm 0,2 km/h (0 Bft) W 277 ° 0 min 0,000 mm 0,0 UV-I 5 W/m² 4,8 °C 6,6 °C 1,6 km/h (1 Bft)
11.04.2017 07:34 6,5 °C 6,6 °C 88 % 1019,4 hPa 0,0 mm 0,2 km/h (0 Bft) W 277 ° 0 min 0,000 mm 0,0 UV-I 5 W/m² 4,7 °C 6,5 °C 1,6 km/h (1 Bft)
11.04.2017 07:35 6,6 °C 6,6 °C 87 % 1019,4 hPa 0,0 mm 0,2 km/h (0 Bft) W 277 ° 0 min 0,000 mm 0,0 UV-I 7 W/m² 4,6 °C 6,6 °C 1,6 km/h (1 Bft)
11.04.2017 07:36 6,5 °C 6,6 °C 87 % 1019,4 hPa 0,0 mm 0,0 km/h (0 Bft) W 277 ° 0 min 0,000 mm 0,0 UV-I 7 W/m² 4,5 °C 6,5 °C 0,0 km/h (0 Bft)
11.04.2017 07:37 6,5 °C 6,5 °C 87 % 1019,4 hPa 0,0 mm 0,0 km/h (0 Bft) W 277 ° 0 min 0,000 mm 0,0 UV-I 7 W/m² 4,5 °C 6,5 °C 0,0 km/h (0 Bft)
11.04.2017 07:38 6,5 °C 6,5 °C 88 % 1019,5 hPa 0,0 mm 0,5 km/h (0 Bft) W 277 ° 0 min 0,000 mm 0,0 UV-I 5 W/m² 4,7 °C 6,5 °C 1,6 km/h (1 Bft)
11.04.2017 07:39 6,5 °C 6,5 °C 88 % 1019,5 hPa 0,0 mm 3,1 km/h (1 Bft) W 277 ° 0 min 0,000 mm 0,0 UV-I 5 W/m² 4,7 °C 6,5 °C 6,4 km/h (2 Bft)
11.04.2017 07:40 6,5 °C 6,5 °C 87 % 1019,5 hPa 0,0 mm 1,8 km/h (1 Bft) W 277 ° 0 min 0,000 mm 0,0 UV-I 0 W/m² 4,5 °C 6,5 °C 4,8 km/h (1 Bft)
11.04.2017 07:41 6,5 °C 6,5 °C 87 % 1019,5 hPa 0,0 mm 0,1 km/h (0 Bft) W 277 ° 0 min 0,000 mm 0,0 UV-I 0 W/m² 4,5 °C 6,5 °C 1,6 km/h (1 Bft)
11.04.2017 07:42 6,4 °C 6,5 °C 87 % 1019,6 hPa 0,0 mm 2,7 km/h (1 Bft) W 277 ° 0 min 0,000 mm 0,0 UV-I 0 W/m² 4,4 °C 6,4 °C 3,2 km/h (1 Bft)
11.04.2017 07:43 6,4 °C 6,4 °C 87 % 1019,5 hPa 0,0 mm 1,7 km/h (1 Bft) W 277 ° 0 min 0,000 mm 0,0 UV-I 0 W/m² 4,4 °C 6,4 °C 3,2 km/h (1 Bft)
11.04.2017 07:44 6,4 °C 6,4 °C 87 % 1019,5 hPa 0,0 mm 0,0 km/h (0 Bft) W 277 ° 0 min 0,000 mm 0,0 UV-I 5 W/m² 4,4 °C 6,4 °C 0,0 km/h (0 Bft)
11.04.2017 07:45 6,4 °C 6,4 °C 88 % 1019,5 hPa 0,0 mm 0,0 km/h (0 Bft) W 277 ° 0 min 0,000 mm 0,0 UV-I 5 W/m² 4,6 °C 6,4 °C 0,0 km/h (0 Bft)
11.04.2017 07:46 6,4 °C 6,4 °C 87 % 1019,5 hPa 0,0 mm 0,0 km/h (0 Bft) W 277 ° 0 min 0,000 mm 0,0 UV-I 5 W/m² 4,4 °C 6,4 °C 0,0 km/h (0 Bft)
11.04.2017 07:47 6,4 °C 6,4 °C 88 % 1019,5 hPa 0,0 mm 0,0 km/h (0 Bft) W 277 ° 0 min 0,000 mm 0,0 UV-I 5 W/m² 4,6 °C 6,4 °C 0,0 km/h (0 Bft)
11.04.2017 07:48 6,4 °C 6,4 °C 88 % 1019,5 hPa 0,0 mm 0,0 km/h (0 Bft) W 277 ° 0 min 0,000 mm 0,0 UV-I 7 W/m² 4,6 °C 6,4 °C 0,0 km/h (0 Bft)
11.04.2017 07:49 6,4 °C 6,4 °C 88 % 1019,5 hPa 0,0 mm 0,0 km/h (0 Bft) W 277 ° 0 min 0,000 mm 0,0 UV-I 7 W/m² 4,6 °C 6,4 °C 0,0 km/h (0 Bft)
11.04.2017 07:50 6,4 °C 6,4 °C 88 % 1019,6 hPa 0,0 mm 0,0 km/h (0 Bft) W 277 ° 0 min 0,000 mm 0,0 UV-I 7 W/m² 4,6 °C 6,4 °C 0,0 km/h (0 Bft)
11.04.2017 07:51 6,4 °C 6,4 °C 88 % 1019,6 hPa 0,0 mm 0,0 km/h (0 Bft) W 277 ° 0 min 0,000 mm 0,0 UV-I 7 W/m² 4,6 °C 6,4 °C 0,0 km/h (0 Bft)
11.04.2017 07:52 6,4 °C 6,4 °C 88 % 1019,6 hPa 0,0 mm 0,0 km/h (0 Bft) W 277 ° 0 min 0,000 mm 0,0 UV-I 9 W/m² 4,6 °C 6,4 °C 0,0 km/h (0 Bft)
11.04.2017 07:53 6,4 °C 6,4 °C 87 % 1019,6 hPa 0,0 mm 2,0 km/h (1 Bft) W 277 ° 0 min 0,000 mm 0,0 UV-I 9 W/m² 4,4 °C 6,4 °C 3,2 km/h (1 Bft)
11.04.2017 07:54 6,4 °C 6,4 °C 87 % 1019,6 hPa 0,0 mm 1,6 km/h (1 Bft) W 277 ° 0 min 0,000 mm 0,0 UV-I 9 W/m² 4,4 °C 6,4 °C 3,2 km/h (1 Bft)
11.04.2017 07:55 6,4 °C 6,4 °C 88 % 1019,6 hPa 0,0 mm 1,7 km/h (1 Bft) W 277 ° 0 min 0,000 mm 0,0 UV-I 12 W/m² 4,6 °C 6,4 °C 3,2 km/h (1 Bft)
11.04.2017 07:56 6,4 °C 6,4 °C 88 % 1019,7 hPa 0,0 mm 0,2 km/h (0 Bft) W 277 ° 0 min 0,000 mm 0,0 UV-I 12 W/m² 4,6 °C 6,4 °C 1,6 km/h (1 Bft)
11.04.2017 07:57 6,4 °C 6,4 °C 87 % 1019,7 hPa 0,0 mm 2,5 km/h (1 Bft) W 277 ° 0 min 0,000 mm 0,0 UV-I 12 W/m² 4,4 °C 6,4 °C 3,2 km/h (1 Bft)
11.04.2017 07:58 6,4 °C 6,4 °C 87 % 1019,7 hPa 0,0 mm 1,9 km/h (1 Bft) W 277 ° 0 min 0,000 mm 0,0 UV-I 11 W/m² 4,4 °C 6,4 °C 3,2 km/h (1 Bft)
11.04.2017 07:59 6,4 °C 6,4 °C 87 % 1019,7 hPa 0,0 mm 1,7 km/h (1 Bft) W 277 ° 0 min 0,000 mm 0,0 UV-I 11 W/m² 4,4 °C 6,4 °C 3,2 km/h (1 Bft)
11.04.2017 08:00 6,4 °C 6,4 °C 87 % 1019,7 hPa 0,0 mm 1,9 km/h (1 Bft) W 277 ° 0 min 0,000 mm 0,0 UV-I 11 W/m² 4,4 °C 6,4 °C 3,2 km/h (1 Bft)
11.04.2017 08:01 6,4 °C 6,5 °C 88 % 1019,7 hPa 0,0 mm 2,0 km/h (1 Bft) W 277 ° 0 min 0,000 mm 0,0 UV-I 9 W/m² 4,6 °C 6,4 °C 3,2 km/h (1 Bft)
11.04.2017 08:02 6,4 °C 6,5 °C 88 % 1019,8 hPa 0,0 mm 0,1 km/h (0 Bft) W 277 ° 0 min 0,000 mm 0,0 UV-I 9 W/m² 4,6 °C 6,4 °C 1,6 km/h (1 Bft)
11.04.2017 08:03 6,4 °C 6,4 °C 88 % 1019,7 hPa 0,0 mm 0,0 km/h (0 Bft) W 277 ° 0 min 0,000 mm 0,0 UV-I 9 W/m² 4,6 °C 6,4 °C 0,0 km/h (0 Bft)
11.04.2017 08:04 6,4 °C 6,4 °C 88 % 1019,7 hPa 0,0 mm 0,0 km/h (0 Bft) W 277 ° 0 min 0,000 mm 0,0 UV-I 11 W/m² 4,6 °C 6,4 °C 0,0 km/h (0 Bft)
11.04.2017 08:05 6,4 °C 6,4 °C 88 % 1019,7 hPa 0,0 mm 0,0 km/h (0 Bft) W 277 ° 0 min 0,000 mm 0,0 UV-I 12 W/m² 4,6 °C 6,4 °C 0,0 km/h (0 Bft)
11.04.2017 08:06 6,4 °C 6,4 °C 87 % 1019,7 hPa 0,0 mm 0,0 km/h (0 Bft) W 277 ° 0 min 0,000 mm 0,0 UV-I 14 W/m² 4,4 °C 6,4 °C 0,0 km/h (0 Bft)
11.04.2017 08:07 6,4 °C 6,4 °C 87 % 1019,7 hPa 0,0 mm 0,0 km/h (0 Bft) W 277 ° 0 min 0,000 mm 0,0 UV-I 18 W/m² 4,4 °C 6,4 °C 0,0 km/h (0 Bft)
11.04.2017 08:08 6,4 °C 6,4 °C 88 % 1019,6 hPa 0,0 mm 0,0 km/h (0 Bft) W 277 ° 0 min 0,000 mm 0,0 UV-I 21 W/m² 4,6 °C 6,4 °C 0,0 km/h (0 Bft)
11.04.2017 08:09 6,4 °C 6,4 °C 88 % 1019,6 hPa 0,0 mm 0,0 km/h (0 Bft) W 277 ° 0 min 0,000 mm 0,0 UV-I 25 W/m² 4,6 °C 6,4 °C 0,0 km/h (0 Bft)
11.04.2017 08:10 6,4 °C 6,4 °C 87 % 1019,6 hPa 0,0 mm 0,0 km/h (0 Bft) W 277 ° 0 min 0,000 mm 0,0 UV-I 30 W/m² 4,4 °C 6,4 °C 0,0 km/h (0 Bft)
11.04.2017 08:11 6,4 °C 6,4 °C 87 % 1019,6 hPa 0,0 mm 0,0 km/h (0 Bft) W 277 ° 0 min 0,000 mm 0,0 UV-I 32 W/m² 4,4 °C 6,4 °C 0,0 km/h (0 Bft)
11.04.2017 08:12 6,4 °C 6,4 °C 87 % 1019,6 hPa 0,0 mm 0,0 km/h (0 Bft) W 277 ° 0 min 0,000 mm 0,0 UV-I 26 W/m² 4,4 °C 6,4 °C 0,0 km/h (0 Bft)
11.04.2017 08:13 6,4 °C 6,4 °C 87 % 1019,7 hPa 0,0 mm 0,0 km/h (0 Bft) W 277 ° 0 min 0,000 mm 0,0 UV-I 21 W/m² 4,4 °C 6,4 °C 0,0 km/h (0 Bft)
11.04.2017 08:14 6,4 °C 6,4 °C 87 % 1019,7 hPa 0,0 mm 0,0 km/h (0 Bft) W 277 ° 0 min 0,000 mm 0,0 UV-I 18 W/m² 4,4 °C 6,4 °C 0,0 km/h (0 Bft)
11.04.2017 08:15 6,4 °C 6,4 °C 87 % 1019,7 hPa 0,0 mm 1,0 km/h (0 Bft) W 277 ° 0 min 0,000 mm 0,0 UV-I 18 W/m² 4,4 °C 6,4 °C 1,6 km/h (1 Bft)
11.04.2017 08:16 6,5 °C 6,5 °C 87 % 1019,7 hPa 0,0 mm 0,7 km/h (0 Bft) W 277 ° 0 min 0,000 mm 0,0 UV-I 16 W/m² 4,5 °C 6,5 °C 1,6 km/h (1 Bft)
11.04.2017 08:17 6,5 °C 6,5 °C 87 % 1019,7 hPa 0,0 mm 0,0 km/h (0 Bft) W 277 ° 0 min 0,000 mm 0,0 UV-I 18 W/m² 4,5 °C 6,5 °C 0,0 km/h (0 Bft)
11.04.2017 08:18 6,5 °C 6,5 °C 87 % 1019,7 hPa 0,0 mm 0,0 km/h (0 Bft) W 277 ° 0 min 0,000 mm 0,0 UV-I 19 W/m² 4,5 °C 6,5 °C 0,0 km/h (0 Bft)
11.04.2017 08:19 6,5 °C 6,6 °C 87 % 1019,7 hPa 0,0 mm 0,0 km/h (0 Bft) W 277 ° 0 min 0,000 mm 0,0 UV-I 19 W/m² 4,5 °C 6,5 °C 0,0 km/h (0 Bft)
11.04.2017 08:20 6,5 °C 6,5 °C 87 % 1019,7 hPa 0,0 mm 0,5 km/h (0 Bft) W 277 ° 0 min 0,000 mm 0,0 UV-I 19 W/m² 4,5 °C 6,5 °C 1,6 km/h (1 Bft)
11.04.2017 08:21 6,5 °C 6,5 °C 87 % 1019,7 hPa 0,0 mm 0,8 km/h (0 Bft) W 277 ° 0 min 0,000 mm 0,0 UV-I 19 W/m² 4,5 °C 6,5 °C 1,6 km/h (1 Bft)
11.04.2017 08:22 6,6 °C 6,6 °C 88 % 1019,7 hPa 0,0 mm 0,3 km/h (0 Bft) W 277 ° 0 min 0,000 mm 0,0 UV-I 19 W/m² 4,8 °C 6,6 °C 1,6 km/h (1 Bft)
11.04.2017 08:23 6,6 °C 6,6 °C 87 % 1019,7 hPa 0,0 mm 2,1 km/h (1 Bft) W 277 ° 0 min 0,000 mm 0,0 UV-I 19 W/m² 4,6 °C 6,6 °C 3,2 km/h (1 Bft)
11.04.2017 08:24 6,6 °C 6,6 °C 87 % 1019,7 hPa 0,0 mm 2,3 km/h (1 Bft) W 277 ° 0 min 0,000 mm 0,0 UV-I 19 W/m² 4,6 °C 6,6 °C 4,8 km/h (1 Bft)
11.04.2017 08:25 6,5 °C 6,6 °C 86 % 1019,7 hPa 0,0 mm 1,3 km/h (1 Bft) W 277 ° 0 min 0,000 mm 0,0 UV-I 19 W/m² 4,3 °C 6,5 °C 1,6 km/h (1 Bft)
11.04.2017 08:26 6,6 °C 6,6 °C 87 % 1019,8 hPa 0,0 mm 0,5 km/h (0 Bft) W 277 ° 0 min 0,000 mm 0,0 UV-I 21 W/m² 4,6 °C 6,6 °C 1,6 km/h (1 Bft)
11.04.2017 08:27 6,6 °C 6,6 °C 87 % 1019,8 hPa 0,0 mm 0,3 km/h (0 Bft) W 277 ° 0 min 0,000 mm 0,0 UV-I 23 W/m² 4,6 °C 6,6 °C 1,6 km/h (1 Bft)
11.04.2017 08:28 6,6 °C 6,6 °C 87 % 1019,8 hPa 0,0 mm 0,5 km/h (0 Bft) W 277 ° 0 min 0,000 mm 0,0 UV-I 23 W/m² 4,6 °C 6,6 °C 1,6 km/h (1 Bft)
11.04.2017 08:29 6,6 °C 6,6 °C 87 % 1019,8 hPa 0,0 mm 0,1 km/h (0 Bft) W 277 ° 0 min 0,000 mm 0,0 UV-I 23 W/m² 4,6 °C 6,6 °C 1,6 km/h (1 Bft)
11.04.2017 08:30 6,6 °C 6,6 °C 87 % 1019,8 hPa 0,0 mm 0,1 km/h (0 Bft) W 277 ° 0 min 0,000 mm 0,0 UV-I 23 W/m² 4,6 °C 6,6 °C 1,6 km/h (1 Bft)
11.04.2017 08:31 6,6 °C 6,6 °C 87 % 1019,8 hPa 0,0 mm 0,0 km/h (0 Bft) W 277 ° 0 min 0,000 mm 0,0 UV-I 23 W/m² 4,6 °C 6,6 °C 0,0 km/h (0 Bft)
11.04.2017 08:32 6,6 °C 6,6 °C 88 % 1019,9 hPa 0,0 mm 1,7 km/h (1 Bft) W 277 ° 0 min 0,000 mm 0,0 UV-I 23 W/m² 4,8 °C 6,6 °C 3,2 km/h (1 Bft)
11.04.2017 08:33 6,6 °C 6,6 °C 87 % 1019,9 hPa 0,0 mm 1,9 km/h (1 Bft) W 277 ° 0 min 0,000 mm 0,0 UV-I 21 W/m² 4,6 °C 6,6 °C 3,2 km/h (1 Bft)
11.04.2017 08:34 6,6 °C 6,6 °C 87 % 1019,9 hPa 0,0 mm 1,9 km/h (1 Bft) W 277 ° 0 min 0,000 mm 0,0 UV-I 21 W/m² 4,6 °C 6,6 °C 3,2 km/h (1 Bft)
11.04.2017 08:35 6,6 °C 6,6 °C 87 % 1019,9 hPa 0,0 mm 1,4 km/h (1 Bft) W 277 ° 0 min 0,000 mm 0,0 UV-I 23 W/m² 4,6 °C 6,6 °C 3,2 km/h (1 Bft)
11.04.2017 08:36 6,5 °C 6,6 °C 87 % 1019,9 hPa 0,0 mm 0,2 km/h (0 Bft) W 277 ° 0 min 0,000 mm 0,0 UV-I 26 W/m² 4,5 °C 6,5 °C 1,6 km/h (1 Bft)
11.04.2017 08:37 6,5 °C 6,6 °C 87 % 1019,9 hPa 0,0 mm 0,0 km/h (0 Bft) W 277 ° 0 min 0,000 mm 0,0 UV-I 26 W/m² 4,5 °C 6,5 °C 0,0 km/h (0 Bft)
11.04.2017 08:38 6,6 °C 6,6 °C 87 % 1019,9 hPa 0,0 mm 2,2 km/h (1 Bft) W 277 ° 0 min 0,000 mm 0,0 UV-I 28 W/m² 4,6 °C 6,6 °C 3,2 km/h (1 Bft)
11.04.2017 08:39 6,6 °C 6,6 °C 87 % 1019,9 hPa 0,0 mm 2,1 km/h (1 Bft) W 277 ° 0 min 0,000 mm 0,0 UV-I 28 W/m² 4,6 °C 6,6 °C 3,2 km/h (1 Bft)
11.04.2017 08:40 6,5 °C 6,6 °C 87 % 1019,9 hPa 0,0 mm 2,3 km/h (1 Bft) W 277 ° 0 min 0,000 mm 0,0 UV-I 26 W/m² 4,5 °C 6,5 °C 3,2 km/h (1 Bft)
11.04.2017 08:41 6,5 °C 6,6 °C 87 % 1020,0 hPa 0,0 mm 0,5 km/h (0 Bft) W 277 ° 0 min 0,000 mm 0,0 UV-I 25 W/m² 4,5 °C 6,5 °C 3,2 km/h (1 Bft)
11.04.2017 08:42 6,6 °C 6,6 °C 87 % 1019,9 hPa 0,0 mm 1,4 km/h (1 Bft) W 277 ° 0 min 0,000 mm 0,0 UV-I 26 W/m² 4,6 °C 6,6 °C 3,2 km/h (1 Bft)
11.04.2017 08:43 6,5 °C 6,6 °C 86 % 1019,9 hPa 0,0 mm 0,1 km/h (0 Bft) W 277 ° 0 min 0,000 mm 0,0 UV-I 26 W/m² 4,3 °C 6,5 °C 1,6 km/h (1 Bft)
11.04.2017 08:44 6,6 °C 6,6 °C 87 % 1019,9 hPa 0,0 mm 0,0 km/h (0 Bft) W 277 ° 0 min 0,000 mm 0,0 UV-I 28 W/m² 4,6 °C 6,6 °C 0,0 km/h (0 Bft)
11.04.2017 08:45 6,5 °C 6,6 °C 87 % 1019,9 hPa 0,0 mm 0,0 km/h (0 Bft) W 277 ° 0 min 0,000 mm 0,0 UV-I 30 W/m² 4,5 °C 6,5 °C 0,0 km/h (0 Bft)
11.04.2017 08:46 6,6 °C 6,6 °C 87 % 1019,8 hPa 0,0 mm 0,0 km/h (0 Bft) W 277 ° 0 min 0,000 mm 0,0 UV-I 32 W/m² 4,6 °C 6,6 °C 0,0 km/h (0 Bft)
11.04.2017 08:47 6,6 °C 6,6 °C 87 % 1019,8 hPa 0,0 mm 1,0 km/h (0 Bft) W 277 ° 0 min 0,000 mm 0,0 UV-I 40 W/m² 4,6 °C 6,6 °C 3,2 km/h (1 Bft)
11.04.2017 08:48 6,6 °C 6,6 °C 87 % 1019,8 hPa 0,0 mm 0,2 km/h (0 Bft) W 277 ° 0 min 0,000 mm 0,0 UV-I 42 W/m² 4,6 °C 6,6 °C 1,6 km/h (1 Bft)
11.04.2017 08:49 6,6 °C 6,6 °C 86 % 1019,8 hPa 0,0 mm 1,3 km/h (1 Bft) W 277 ° 0 min 0,000 mm 0,0 UV-I 42 W/m² 4,4 °C 6,6 °C 3,2 km/h (1 Bft)
11.04.2017 08:50 6,6 °C 6,6 °C 86 % 1019,9 hPa 0,0 mm 2,3 km/h (1 Bft) W 277 ° 0 min 0,000 mm 0,0 UV-I 40 W/m² 4,4 °C 6,6 °C 3,2 km/h (1 Bft)
11.04.2017 08:51 6,6 °C 6,6 °C 86 % 1020,0 hPa 0,0 mm 1,7 km/h (1 Bft) W 277 ° 0 min 0,000 mm 0,0 UV-I 39 W/m² 4,4 °C 6,6 °C 3,2 km/h (1 Bft)
11.04.2017 08:52 6,6 °C 6,6 °C 86 % 1020,0 hPa 0,0 mm 1,5 km/h (1 Bft) W 277 ° 0 min 0,000 mm 0,0 UV-I 39 W/m² 4,4 °C 6,6 °C 3,2 km/h (1 Bft)
11.04.2017 08:53 6,5 °C 6,6 °C 86 % 1020,0 hPa 0,0 mm 1,7 km/h (1 Bft) W 277 ° 0 min 0,000 mm 0,0 UV-I 35 W/m² 4,3 °C 6,5 °C 3,2 km/h (1 Bft)
11.04.2017 08:54 6,6 °C 6,6 °C 86 % 1020,0 hPa 0,0 mm 0,0 km/h (0 Bft) W 277 ° 0 min 0,000 mm 0,0 UV-I 35 W/m² 4,4 °C 6,6 °C 0,0 km/h (0 Bft)
11.04.2017 08:55 6,6 °C 6,6 °C 87 % 1020,0 hPa 0,0 mm 0,7 km/h (0 Bft) W 277 ° 0 min 0,000 mm 0,0 UV-I 37 W/m² 4,6 °C 6,6 °C 1,6 km/h (1 Bft)
11.04.2017 08:56 6,6 °C 6,6 °C 86 % 1019,9 hPa 0,0 mm 0,1 km/h (0 Bft) W 277 ° 0 min 0,000 mm 0,0 UV-I 37 W/m² 4,4 °C 6,6 °C 1,6 km/h (1 Bft)
11.04.2017 08:57 6,6 °C 6,6 °C 86 % 1019,9 hPa 0,0 mm 0,0 km/h (0 Bft) W 277 ° 0 min 0,000 mm 0,0 UV-I 37 W/m² 4,4 °C 6,6 °C 0,0 km/h (0 Bft)
11.04.2017 08:58 6,6 °C 6,6 °C 87 % 1020,0 hPa 0,0 mm 0,0 km/h (0 Bft) W 277 ° 0 min 0,000 mm 0,0 UV-I 37 W/m² 4,6 °C 6,6 °C 0,0 km/h (0 Bft)
11.04.2017 08:59 6,6 °C 6,6 °C 87 % 1020,0 hPa 0,0 mm 0,0 km/h (0 Bft) W 277 ° 0 min 0,000 mm 0,0 UV-I 37 W/m² 4,6 °C 6,6 °C 0,0 km/h (0 Bft)
11.04.2017 09:00 6,6 °C 6,6 °C 87 % 1020,0 hPa 0,0 mm 0,0 km/h (0 Bft) W 277 ° 0 min 0,025 mm 0,0 UV-I 37 W/m² 4,6 °C 6,6 °C 0,0 km/h (0 Bft)
11.04.2017 09:01 6,6 °C 6,6 °C 86 % 1019,9 hPa 0,0 mm 0,0 km/h (0 Bft) W 277 ° 0 min 0,000 mm 0,0 UV-I 40 W/m² 4,4 °C 6,6 °C 0,0 km/h (0 Bft)
11.04.2017 09:02 6,6 °C 6,6 °C 86 % 1020,0 hPa 0,0 mm 0,0 km/h (0 Bft) W 277 ° 0 min 0,000 mm 0,0 UV-I 44 W/m² 4,4 °C 6,6 °C 0,0 km/h (0 Bft)
11.04.2017 09:03 6,6 °C 6,6 °C 86 % 1020,0 hPa 0,0 mm 0,0 km/h (0 Bft) W 277 ° 0 min 0,000 mm 0,0 UV-I 46 W/m² 4,4 °C 6,6 °C 0,0 km/h (0 Bft)
11.04.2017 09:04 6,6 °C 6,6 °C 87 % 1020,0 hPa 0,0 mm 0,3 km/h (0 Bft) W 277 ° 0 min 0,000 mm 0,0 UV-I 46 W/m² 4,6 °C 6,6 °C 1,6 km/h (1 Bft)
11.04.2017 09:05 6,6 °C 6,6 °C 86 % 1020,1 hPa 0,0 mm 2,1 km/h (1 Bft) W 277 ° 0 min 0,000 mm 0,0 UV-I 40 W/m² 4,4 °C 6,6 °C 3,2 km/h (1 Bft)
11.04.2017 09:06 6,6 °C 6,6 °C 86 % 1020,1 hPa 0,0 mm 1,1 km/h (1 Bft) W 277 ° 0 min 0,000 mm 0,0 UV-I 39 W/m² 4,4 °C 6,6 °C 3,2 km/h (1 Bft)
11.04.2017 09:07 6,6 °C 6,6 °C 87 % 1020,1 hPa 0,0 mm 2,1 km/h (1 Bft) W 277 ° 0 min 0,000 mm 0,0 UV-I 40 W/m² 4,6 °C 6,6 °C 3,2 km/h (1 Bft)
11.04.2017 09:08 6,7 °C 6,7 °C 87 % 1020,2 hPa 0,0 mm 1,9 km/h (1 Bft) W 277 ° 0 min 0,000 mm 0,0 UV-I 40 W/m² 4,7 °C 6,7 °C 3,2 km/h (1 Bft)
11.04.2017 09:09 6,7 °C 6,7 °C 86 % 1020,2 hPa 0,0 mm 2,5 km/h (1 Bft) W 277 ° 0 min 0,000 mm 0,0 UV-I 37 W/m² 4,5 °C 6,7 °C 4,8 km/h (1 Bft)
11.04.2017 09:10 6,6 °C 6,7 °C 86 % 1020,2 hPa 0,0 mm 1,7 km/h (1 Bft) W 277 ° 0 min 0,000 mm 0,0 UV-I 37 W/m² 4,4 °C 6,6 °C 4,8 km/h (1 Bft)
11.04.2017 09:11 6,6 °C 6,6 °C 86 % 1020,2 hPa 0,0 mm 0,1 km/h (0 Bft) W 277 ° 0 min 0,000 mm 0,0 UV-I 42 W/m² 4,4 °C 6,6 °C 1,6 km/h (1 Bft)
11.04.2017 09:12 6,6 °C 6,7 °C 87 % 1020,2 hPa 0,0 mm 0,1 km/h (0 Bft) W 277 ° 0 min 0,000 mm 0,0 UV-I 42 W/m² 4,6 °C 6,6 °C 1,6 km/h (1 Bft)
11.04.2017 09:13 6,6 °C 6,6 °C 86 % 1020,3 hPa 0,0 mm 1,8 km/h (1 Bft) W 277 ° 0 min 0,000 mm 0,0 UV-I 44 W/m² 4,4 °C 6,6 °C 3,2 km/h (1 Bft)
11.04.2017 09:14 6,6 °C 6,6 °C 86 % 1020,3 hPa 0,0 mm 3,5 km/h (1 Bft) W-NW 302 ° 0 min 0,000 mm 0,0 UV-I 47 W/m² 4,4 °C 6,6 °C 4,8 km/h (1 Bft)
11.04.2017 09:15 6,6 °C 6,6 °C 86 % 1020,3 hPa 0,0 mm 4,0 km/h (1 Bft) W-NW 303 ° 0 min 0,000 mm 0,0 UV-I 51 W/m² 4,4 °C 6,6 °C 4,8 km/h (1 Bft)
11.04.2017 09:16 6,6 °C 6,7 °C 87 % 1020,3 hPa 0,0 mm 1,9 km/h (1 Bft) NW 304 ° 0 min 0,000 mm 0,0 UV-I 54 W/m² 4,6 °C 6,6 °C 4,8 km/h (1 Bft)
11.04.2017 09:17 6,7 °C 6,7 °C 87 % 1020,3 hPa 0,0 mm 1,4 km/h (1 Bft) NW 304 ° 0 min 0,000 mm 0,0 UV-I 53 W/m² 4,7 °C 6,7 °C 3,2 km/h (1 Bft)
11.04.2017 09:18 6,7 °C 6,7 °C 87 % 1020,3 hPa 0,0 mm 0,3 km/h (0 Bft) NW 304 ° 0 min 0,000 mm 0,0 UV-I 47 W/m² 4,7 °C 6,7 °C 1,6 km/h (1 Bft)
11.04.2017 09:19 6,7 °C 6,7 °C 87 % 1020,3 hPa 0,0 mm 0,5 km/h (0 Bft) NW 304 ° 0 min 0,000 mm 0,0 UV-I 44 W/m² 4,7 °C 6,7 °C 3,2 km/h (1 Bft)
11.04.2017 09:20 6,7 °C 6,7 °C 86 % 1020,3 hPa 0,0 mm 3,1 km/h (1 Bft) W-NW 303 ° 0 min 0,000 mm 0,0 UV-I 44 W/m² 4,5 °C 6,7 °C 4,8 km/h (1 Bft)
11.04.2017 09:21 6,6 °C 6,7 °C 86 % 1020,3 hPa 0,0 mm 2,8 km/h (1 Bft) W-NW 303 ° 0 min 0,000 mm 0,0 UV-I 44 W/m² 4,4 °C 6,6 °C 3,2 km/h (1 Bft)
11.04.2017 09:22 6,7 °C 6,7 °C 86 % 1020,3 hPa 0,0 mm 0,9 km/h (0 Bft) W-NW 303 ° 0 min 0,000 mm 0,0 UV-I 46 W/m² 4,5 °C 6,7 °C 1,6 km/h (1 Bft)
11.04.2017 09:23 6,7 °C 6,7 °C 87 % 1020,3 hPa 0,0 mm 0,0 km/h (0 Bft) W-NW 303 ° 0 min 0,000 mm 0,0 UV-I 42 W/m² 4,7 °C 6,7 °C 0,0 km/h (0 Bft)
11.04.2017 09:24 6,7 °C 6,7 °C 87 % 1020,3 hPa 0,0 mm 1,4 km/h (1 Bft) W-NW 303 ° 0 min 0,000 mm 0,0 UV-I 39 W/m² 4,7 °C 6,7 °C 3,2 km/h (1 Bft)
11.04.2017 09:25 6,7 °C 6,7 °C 87 % 1020,3 hPa 0,0 mm 0,9 km/h (0 Bft) W-NW 303 ° 0 min 0,000 mm 0,0 UV-I 37 W/m² 4,7 °C 6,7 °C 3,2 km/h (1 Bft)
11.04.2017 09:26 6,7 °C 6,7 °C 87 % 1020,3 hPa 0,0 mm 0,9 km/h (0 Bft) W-NW 303 ° 0 min 0,000 mm 0,0 UV-I 37 W/m² 4,7 °C 6,7 °C 1,6 km/h (1 Bft)
11.04.2017 09:27 6,7 °C 6,7 °C 87 % 1020,4 hPa 0,0 mm 0,0 km/h (0 Bft) W-NW 303 ° 0 min 0,000 mm 0,0 UV-I 37 W/m² 4,7 °C 6,7 °C 0,0 km/h (0 Bft)
11.04.2017 09:28 6,7 °C 6,7 °C 87 % 1020,3 hPa 0,0 mm 0,2 km/h (0 Bft) W-NW 303 ° 0 min 0,000 mm 0,0 UV-I 40 W/m² 4,7 °C 6,7 °C 1,6 km/h (1 Bft)
11.04.2017 09:29 6,7 °C 6,7 °C 87 % 1020,4 hPa 0,0 mm 0,1 km/h (0 Bft) W-NW 303 ° 0 min 0,000 mm 0,0 UV-I 44 W/m² 4,7 °C 6,7 °C 1,6 km/h (1 Bft)
11.04.2017 09:30 6,7 °C 6,7 °C 87 % 1020,4 hPa 0,0 mm 1,3 km/h (1 Bft) N-NW 338 ° 0 min 0,000 mm 0,0 UV-I 46 W/m² 4,7 °C 6,7 °C 3,2 km/h (1 Bft)
11.04.2017 09:31 6,7 °C 6,7 °C 87 % 1020,3 hPa 0,0 mm 0,0 km/h (0 Bft) N-NW 338 ° 0 min 0,000 mm 0,0 UV-I 49 W/m² 4,7 °C 6,7 °C 0,0 km/h (0 Bft)
11.04.2017 09:32 6,7 °C 6,8 °C 86 % 1020,4 hPa 0,0 mm 0,0 km/h (0 Bft) N-NW 338 ° 0 min 0,000 mm 0,0 UV-I 53 W/m² 4,5 °C 6,7 °C 0,0 km/h (0 Bft)
11.04.2017 09:33 6,7 °C 6,7 °C 86 % 1020,4 hPa 0,0 mm 1,8 km/h (1 Bft) N-NW 338 ° 0 min 0,000 mm 0,0 UV-I 53 W/m² 4,5 °C 6,7 °C 3,2 km/h (1 Bft)
11.04.2017 09:34 6,7 °C 6,7 °C 86 % 1020,4 hPa 0,0 mm 2,3 km/h (1 Bft) N-NW 338 ° 0 min 0,000 mm 0,0 UV-I 54 W/m² 4,5 °C 6,7 °C 3,2 km/h (1 Bft)
11.04.2017 09:35 6,7 °C 6,7 °C 86 % 1020,4 hPa 0,0 mm 2,4 km/h (1 Bft) NW 322 ° 0 min 0,000 mm 0,0 UV-I 54 W/m² 4,5 °C 6,7 °C 4,8 km/h (1 Bft)
11.04.2017 09:36 6,7 °C 6,7 °C 86 % 1020,5 hPa 0,0 mm 0,9 km/h (0 Bft) NW 322 ° 0 min 0,000 mm 0,0 UV-I 53 W/m² 4,5 °C 6,7 °C 3,2 km/h (1 Bft)
11.04.2017 09:37 6,7 °C 6,7 °C 86 % 1020,5 hPa 0,0 mm 2,5 km/h (1 Bft) N-NW 347 ° 0 min 0,000 mm 0,0 UV-I 53 W/m² 4,5 °C 6,7 °C 4,8 km/h (1 Bft)
11.04.2017 09:38 6,7 °C 6,7 °C 85 % 1020,6 hPa 0,0 mm 2,3 km/h (1 Bft) N 350 ° 0 min 0,000 mm 0,0 UV-I 53 W/m² 4,4 °C 6,7 °C 4,8 km/h (1 Bft)
11.04.2017 09:39 6,7 °C 6,7 °C 86 % 1020,6 hPa 0,0 mm 0,3 km/h (0 Bft) N 350 ° 0 min 0,000 mm 0,0 UV-I 54 W/m² 4,5 °C 6,7 °C 1,6 km/h (1 Bft)
11.04.2017 09:40 6,7 °C 6,7 °C 86 % 1020,6 hPa 0,0 mm 1,2 km/h (1 Bft) NW 323 ° 0 min 0,000 mm 0,0 UV-I 49 W/m² 4,5 °C 6,7 °C 4,8 km/h (1 Bft)
11.04.2017 09:41 6,7 °C 6,7 °C 86 % 1020,6 hPa 0,0 mm 1,9 km/h (1 Bft) NW 323 ° 0 min 0,000 mm 0,0 UV-I 44 W/m² 4,5 °C 6,7 °C 3,2 km/h (1 Bft)
11.04.2017 09:42 6,7 °C 6,7 °C 86 % 1020,7 hPa 0,0 mm 0,3 km/h (0 Bft) NW 323 ° 0 min 0,000 mm 0,0 UV-I 40 W/m² 4,5 °C 6,7 °C 3,2 km/h (1 Bft)
11.04.2017 09:43 6,7 °C 6,7 °C 86 % 1020,7 hPa 0,0 mm 1,5 km/h (1 Bft) N-NW 331 ° 0 min 0,000 mm 0,0 UV-I 39 W/m² 4,5 °C 6,7 °C 3,2 km/h (1 Bft)
11.04.2017 09:44 6,7 °C 6,7 °C 86 % 1020,7 hPa 0,0 mm 1,5 km/h (1 Bft) N-NW 331 ° 0 min 0,000 mm 0,0 UV-I 35 W/m² 4,5 °C 6,7 °C 3,2 km/h (1 Bft)
11.04.2017 09:45 6,7 °C 6,7 °C 86 % 1020,8 hPa 0,0 mm 0,7 km/h (0 Bft) N-NW 331 ° 0 min 0,000 mm 0,0 UV-I 35 W/m² 4,5 °C 6,7 °C 1,6 km/h (1 Bft)
11.04.2017 09:46 6,7 °C 6,7 °C 86 % 1020,8 hPa 0,0 mm 0,7 km/h (0 Bft) N-NW 331 ° 0 min 0,000 mm 0,0 UV-I 39 W/m² 4,5 °C 6,7 °C 1,6 km/h (1 Bft)
11.04.2017 09:47 6,7 °C 6,7 °C 86 % 1020,8 hPa 0,0 mm 0,0 km/h (0 Bft) N-NW 331 ° 0 min 0,000 mm 0,0 UV-I 40 W/m² 4,5 °C 6,7 °C 0,0 km/h (0 Bft)
11.04.2017 09:48 6,7 °C 6,7 °C 86 % 1020,8 hPa 0,0 mm 2,2 km/h (1 Bft) N-NW 331 ° 0 min 0,000 mm 0,0 UV-I 42 W/m² 4,5 °C 6,7 °C 3,2 km/h (1 Bft)
11.04.2017 09:49 6,7 °C 6,7 °C 85 % 1020,8 hPa 0,0 mm 0,7 km/h (0 Bft) N-NW 331 ° 0 min 0,000 mm 0,0 UV-I 42 W/m² 4,4 °C 6,7 °C 1,6 km/h (1 Bft)
11.04.2017 09:50 6,7 °C 6,7 °C 86 % 1020,8 hPa 0,0 mm 0,0 km/h (0 Bft) N-NW 331 ° 0 min 0,000 mm 0,0 UV-I 42 W/m² 4,5 °C 6,7 °C 0,0 km/h (0 Bft)
11.04.2017 09:51 6,7 °C 6,7 °C 86 % 1020,8 hPa 0,0 mm 1,1 km/h (1 Bft) N-NW 331 ° 0 min 0,000 mm 0,0 UV-I 44 W/m² 4,5 °C 6,7 °C 1,6 km/h (1 Bft)
11.04.2017 09:52 6,7 °C 6,7 °C 86 % 1020,8 hPa 0,0 mm 1,6 km/h (1 Bft) N-NW 331 ° 0 min 0,000 mm 0,0 UV-I 47 W/m² 4,5 °C 6,7 °C 3,2 km/h (1 Bft)
11.04.2017 09:53 6,7 °C 6,7 °C 86 % 1020,8 hPa 0,0 mm 1,9 km/h (1 Bft) N 9 ° 0 min 0,000 mm 0,0 UV-I 53 W/m² 4,5 °C 6,7 °C 3,2 km/h (1 Bft)
11.04.2017 09:54 6,7 °C 6,7 °C 85 % 1020,9 hPa 0,0 mm 1,9 km/h (1 Bft) N 9 ° 0 min 0,000 mm 0,0 UV-I 56 W/m² 4,4 °C 6,7 °C 3,2 km/h (1 Bft)
11.04.2017 09:55 6,7 °C 6,7 °C 85 % 1020,8 hPa 0,0 mm 2,8 km/h (1 Bft) N 9 ° 0 min 0,000 mm 0,0 UV-I 58 W/m² 4,4 °C 6,7 °C 4,8 km/h (1 Bft)
11.04.2017 09:56 6,7 °C 6,7 °C 85 % 1020,8 hPa 0,0 mm 0,1 km/h (0 Bft) N 9 ° 0 min 0,000 mm 0,0 UV-I 56 W/m² 4,4 °C 6,7 °C 1,6 km/h (1 Bft)
11.04.2017 09:57 6,7 °C 6,7 °C 85 % 1020,9 hPa 0,0 mm 1,3 km/h (1 Bft) N 9 ° 0 min 0,000 mm 0,0 UV-I 56 W/m² 4,4 °C 6,7 °C 1,6 km/h (1 Bft)
11.04.2017 09:58 6,7 °C 6,7 °C 86 % 1020,9 hPa 0,0 mm 0,9 km/h (0 Bft) N 9 ° 0 min 0,000 mm 0,0 UV-I 54 W/m² 4,5 °C 6,7 °C 3,2 km/h (1 Bft)
11.04.2017 09:59 6,7 °C 6,7 °C 85 % 1021,0 hPa 0,0 mm 1,3 km/h (1 Bft) N 9 ° 0 min 0,000 mm 0,0 UV-I 53 W/m² 4,4 °C 6,7 °C 3,2 km/h (1 Bft)
11.04.2017 10:00 6,7 °C 6,7 °C 85 % 1020,9 hPa 0,0 mm 0,9 km/h (0 Bft) N 9 ° 0 min 0,026 mm 0,0 UV-I 47 W/m² 4,4 °C 6,7 °C 3,2 km/h (1 Bft)
11.04.2017 10:01 6,7 °C 6,7 °C 85 % 1020,9 hPa 0,0 mm 0,1 km/h (0 Bft) N 9 ° 0 min 0,000 mm 0,0 UV-I 44 W/m² 4,4 °C 6,7 °C 1,6 km/h (1 Bft)
11.04.2017 10:02 6,7 °C 6,7 °C 85 % 1020,9 hPa 0,0 mm 0,0 km/h (0 Bft) N 9 ° 0 min 0,000 mm 0,0 UV-I 42 W/m² 4,4 °C 6,7 °C 0,0 km/h (0 Bft)
11.04.2017 10:03 6,7 °C 6,7 °C 85 % 1020,9 hPa 0,0 mm 0,0 km/h (0 Bft) N 9 ° 0 min 0,000 mm 0,0 UV-I 42 W/m² 4,4 °C 6,7 °C 0,0 km/h (0 Bft)
11.04.2017 10:04 6,7 °C 6,7 °C 85 % 1020,9 hPa 0,0 mm 0,0 km/h (0 Bft) N 9 ° 0 min 0,000 mm 0,0 UV-I 46 W/m² 4,4 °C 6,7 °C 0,0 km/h (0 Bft)
11.04.2017 10:05 6,7 °C 6,7 °C 85 % 1021,0 hPa 0,0 mm 0,6 km/h (0 Bft) N 9 ° 0 min 0,000 mm 0,0 UV-I 49 W/m² 4,4 °C 6,7 °C 3,2 km/h (1 Bft)
11.04.2017 10:06 6,7 °C 6,7 °C 85 % 1021,0 hPa 0,0 mm 1,7 km/h (1 Bft) N 9 ° 0 min 0,000 mm 0,0 UV-I 51 W/m² 4,4 °C 6,7 °C 3,2 km/h (1 Bft)
11.04.2017 10:07 6,7 °C 6,7 °C 85 % 1021,0 hPa 0,0 mm 0,2 km/h (0 Bft) N 9 ° 0 min 0,000 mm 0,0 UV-I 53 W/m² 4,4 °C 6,7 °C 1,6 km/h (1 Bft)
11.04.2017 10:08 6,7 °C 6,7 °C 86 % 1021,0 hPa 0,0 mm 0,0 km/h (0 Bft) N 9 ° 0 min 0,000 mm 0,0 UV-I 54 W/m² 4,5 °C 6,7 °C 0,0 km/h (0 Bft)
11.04.2017 10:09 6,8 °C 6,8 °C 86 % 1021,1 hPa 0,0 mm 0,0 km/h (0 Bft) N 9 ° 0 min 0,000 mm 0,5 UV-I 60 W/m² 4,6 °C 6,8 °C 0,0 km/h (0 Bft)
11.04.2017 10:10 6,8 °C 6,8 °C 86 % 1021,0 hPa 0,0 mm 0,0 km/h (0 Bft) N 9 ° 0 min 0,000 mm 0,5 UV-I 63 W/m² 4,6 °C 6,8 °C 0,0 km/h (0 Bft)
11.04.2017 10:11 6,8 °C 6,8 °C 86 % 1021,0 hPa 0,0 mm 0,0 km/h (0 Bft) N 9 ° 0 min 0,000 mm 0,5 UV-I 67 W/m² 4,6 °C 6,8 °C 0,0 km/h (0 Bft)
11.04.2017 10:12 6,8 °C 6,8 °C 86 % 1021,0 hPa 0,0 mm 0,0 km/h (0 Bft) N 9 ° 0 min 0,000 mm 0,6 UV-I 70 W/m² 4,6 °C 6,8 °C 0,0 km/h (0 Bft)
11.04.2017 10:13 6,8 °C 6,8 °C 85 % 1021,0 hPa 0,0 mm 0,0 km/h (0 Bft) N 9 ° 0 min 0,000 mm 0,6 UV-I 72 W/m² 4,5 °C 6,8 °C 0,0 km/h (0 Bft)
11.04.2017 10:14 6,8 °C 6,8 °C 86 % 1021,1 hPa 0,0 mm 1,2 km/h (1 Bft) N 5 ° 0 min 0,000 mm 0,6 UV-I 74 W/m² 4,6 °C 6,8 °C 1,6 km/h (1 Bft)
11.04.2017 10:15 6,8 °C 6,8 °C 86 % 1021,1 hPa 0,0 mm 2,4 km/h (1 Bft) NW 321 ° 0 min 0,000 mm 0,6 UV-I 74 W/m² 4,6 °C 6,8 °C 4,8 km/h (1 Bft)
11.04.2017 10:16 6,8 °C 6,8 °C 86 % 1021,1 hPa 0,0 mm 1,0 km/h (0 Bft) NW 321 ° 0 min 0,000 mm 0,6 UV-I 76 W/m² 4,6 °C 6,8 °C 1,6 km/h (1 Bft)
11.04.2017 10:17 6,8 °C 6,9 °C 85 % 1021,1 hPa 0,0 mm 0,4 km/h (0 Bft) NW 321 ° 0 min 0,000 mm 0,6 UV-I 77 W/m² 4,5 °C 6,8 °C 1,6 km/h (1 Bft)
11.04.2017 10:18 6,8 °C 6,9 °C 86 % 1021,1 hPa 0,0 mm 1,3 km/h (1 Bft) NW 321 ° 0 min 0,000 mm 0,6 UV-I 83 W/m² 4,6 °C 6,8 °C 3,2 km/h (1 Bft)
11.04.2017 10:19 6,8 °C 6,8 °C 85 % 1021,1 hPa 0,0 mm 3,2 km/h (1 Bft) N-NO 32 ° 0 min 0,000 mm 0,7 UV-I 91 W/m² 4,5 °C 6,8 °C 4,8 km/h (1 Bft)
11.04.2017 10:20 6,8 °C 6,8 °C 86 % 1021,1 hPa 0,0 mm 2,4 km/h (1 Bft) NO 34 ° 0 min 0,000 mm 0,7 UV-I 95 W/m² 4,6 °C 6,8 °C 3,2 km/h (1 Bft)
11.04.2017 10:21 6,8 °C 6,8 °C 85 % 1021,1 hPa 0,0 mm 0,7 km/h (0 Bft) N-NO 33 ° 0 min 0,000 mm 0,6 UV-I 79 W/m² 4,5 °C 6,8 °C 1,6 km/h (1 Bft)
11.04.2017 10:22 6,8 °C 6,8 °C 86 % 1021,1 hPa 0,0 mm 0,7 km/h (0 Bft) N-NO 33 ° 0 min 0,000 mm 0,6 UV-I 72 W/m² 4,6 °C 6,8 °C 1,6 km/h (1 Bft)
11.04.2017 10:23 6,8 °C 6,9 °C 86 % 1021,1 hPa 0,0 mm 0,7 km/h (0 Bft) N-NO 33 ° 0 min 0,000 mm 0,6 UV-I 72 W/m² 4,6 °C 6,8 °C 1,6 km/h (1 Bft)
11.04.2017 10:24 6,8 °C 6,9 °C 86 % 1021,2 hPa 0,0 mm 0,5 km/h (0 Bft) N-NO 33 ° 0 min 0,000 mm 0,6 UV-I 74 W/m² 4,6 °C 6,8 °C 1,6 km/h (1 Bft)
11.04.2017 10:25 6,8 °C 6,9 °C 85 % 1021,2 hPa 0,0 mm 1,0 km/h (0 Bft) N-NO 24 ° 0 min 0,000 mm 0,6 UV-I 76 W/m² 4,5 °C 6,8 °C 3,2 km/h (1 Bft)
11.04.2017 10:26 6,8 °C 6,9 °C 85 % 1021,2 hPa 0,0 mm 2,7 km/h (1 Bft) N 355 ° 0 min 0,000 mm 0,6 UV-I 77 W/m² 4,5 °C 6,8 °C 4,8 km/h (1 Bft)
11.04.2017 10:27 6,8 °C 6,8 °C 85 % 1021,3 hPa 0,0 mm 4,1 km/h (1 Bft) N-NW 334 ° 0 min 0,000 mm 0,6 UV-I 77 W/m² 4,5 °C 6,8 °C 6,4 km/h (2 Bft)
11.04.2017 10:28 6,8 °C 6,8 °C 85 % 1021,3 hPa 0,0 mm 1,6 km/h (1 Bft) N-NW 338 ° 0 min 0,000 mm 0,6 UV-I 77 W/m² 4,5 °C 6,8 °C 4,8 km/h (1 Bft)
11.04.2017 10:29 6,8 °C 6,8 °C 85 % 1021,3 hPa 0,0 mm 2,4 km/h (1 Bft) N-NW 345 ° 0 min 0,000 mm 0,6 UV-I 79 W/m² 4,5 °C 6,8 °C 4,8 km/h (1 Bft)
11.04.2017 10:30 6,8 °C 6,8 °C 85 % 1021,3 hPa 0,0 mm 1,1 km/h (1 Bft) N-NW 346 ° 0 min 0,000 mm 0,6 UV-I 79 W/m² 4,5 °C 6,8 °C 3,2 km/h (1 Bft)
11.04.2017 10:31 6,8 °C 6,8 °C 85 % 1021,4 hPa 0,0 mm 1,2 km/h (1 Bft) N-NW 339 ° 0 min 0,000 mm 0,6 UV-I 77 W/m² 4,5 °C 6,8 °C 1,6 km/h (1 Bft)
11.04.2017 10:32 6,8 °C 6,8 °C 85 % 1021,3 hPa 0,0 mm 1,9 km/h (1 Bft) N-NW 339 ° 0 min 0,000 mm 0,6 UV-I 76 W/m² 4,5 °C 6,8 °C 3,2 km/h (1 Bft)
11.04.2017 10:33 6,8 °C 6,8 °C 85 % 1021,3 hPa 0,0 mm 1,3 km/h (1 Bft) NW 325 ° 0 min 0,000 mm 0,6 UV-I 79 W/m² 4,5 °C 6,8 °C 3,2 km/h (1 Bft)
11.04.2017 10:34 6,8 °C 6,8 °C 85 % 1021,4 hPa 0,0 mm 1,9 km/h (1 Bft) NW 325 ° 0 min 0,000 mm 0,6 UV-I 76 W/m² 4,5 °C 6,8 °C 3,2 km/h (1 Bft)
11.04.2017 10:35 6,8 °C 6,8 °C 85 % 1021,3 hPa 0,0 mm 2,6 km/h (1 Bft) N 360 ° 0 min 0,000 mm 0,6 UV-I 76 W/m² 4,5 °C 6,8 °C 4,8 km/h (1 Bft)
11.04.2017 10:36 6,8 °C 6,8 °C 86 % 1021,3 hPa 0,0 mm 0,7 km/h (0 Bft) N 360 ° 0 min 0,000 mm 0,7 UV-I 81 W/m² 4,6 °C 6,8 °C 3,2 km/h (1 Bft)
11.04.2017 10:37 6,8 °C 6,8 °C 85 % 1021,3 hPa 0,0 mm 0,1 km/h (0 Bft) N 360 ° 0 min 0,000 mm 0,7 UV-I 95 W/m² 4,5 °C 6,8 °C 1,6 km/h (1 Bft)
11.04.2017 10:38 6,8 °C 6,9 °C 86 % 1021,3 hPa 0,0 mm 0,1 km/h (0 Bft) N 360 ° 0 min 0,000 mm 0,8 UV-I 107 W/m² 4,6 °C 6,8 °C 1,6 km/h (1 Bft)
11.04.2017 10:39 6,9 °C 6,9 °C 85 % 1021,3 hPa 0,0 mm 0,5 km/h (0 Bft) N 360 ° 0 min 0,000 mm 0,8 UV-I 114 W/m² 4,6 °C 6,9 °C 1,6 km/h (1 Bft)
11.04.2017 10:40 6,9 °C 6,9 °C 85 % 1021,3 hPa 0,0 mm 2,1 km/h (1 Bft) N 360 ° 0 min 0,000 mm 0,8 UV-I 111 W/m² 4,6 °C 6,9 °C 4,8 km/h (1 Bft)
11.04.2017 10:41 6,9 °C 6,9 °C 85 % 1021,3 hPa 0,0 mm 0,9 km/h (0 Bft) N 360 ° 0 min 0,000 mm 0,8 UV-I 111 W/m² 4,6 °C 6,9 °C 3,2 km/h (1 Bft)
11.04.2017 10:42 6,9 °C 6,9 °C 86 % 1021,3 hPa 0,0 mm 0,3 km/h (0 Bft) N 360 ° 0 min 0,000 mm 0,9 UV-I 118 W/m² 4,7 °C 6,9 °C 1,6 km/h (1 Bft)
11.04.2017 10:43 7,0 °C 7,0 °C 86 % 1021,3 hPa 0,0 mm 1,5 km/h (1 Bft) N 360 ° 0 min 0,000 mm 0,9 UV-I 127 W/m² 4,8 °C 7,0 °C 3,2 km/h (1 Bft)
11.04.2017 10:44 6,9 °C 7,0 °C 85 % 1021,3 hPa 0,0 mm 1,7 km/h (1 Bft) N-NO 15 ° 0 min 0,000 mm 1,0 UV-I 134 W/m² 4,6 °C 6,9 °C 3,2 km/h (1 Bft)
11.04.2017 10:45 6,9 °C 7,0 °C 85 % 1021,3 hPa 0,0 mm 0,7 km/h (0 Bft) N-NO 15 ° 0 min 0,000 mm 0,9 UV-I 128 W/m² 4,6 °C 6,9 °C 3,2 km/h (1 Bft)
11.04.2017 10:46 6,9 °C 6,9 °C 85 % 1021,3 hPa 0,0 mm 0,0 km/h (0 Bft) N-NO 15 ° 0 min 0,000 mm 0,9 UV-I 128 W/m² 4,6 °C 6,9 °C 0,0 km/h (0 Bft)
11.04.2017 10:47 6,9 °C 6,9 °C 86 % 1021,3 hPa 0,0 mm 1,1 km/h (1 Bft) N-NO 15 ° 0 min 0,000 mm 1,0 UV-I 132 W/m² 4,7 °C 6,9 °C 1,6 km/h (1 Bft)
11.04.2017 10:48 6,8 °C 6,9 °C 86 % 1021,3 hPa 0,0 mm 1,4 km/h (1 Bft) N-NO 15 ° 0 min 0,000 mm 1,0 UV-I 139 W/m² 4,6 °C 6,8 °C 3,2 km/h (1 Bft)
11.04.2017 10:49 6,9 °C 6,9 °C 86 % 1021,3 hPa 0,0 mm 2,3 km/h (1 Bft) N-NO 15 ° 0 min 0,000 mm 1,1 UV-I 146 W/m² 4,7 °C 6,9 °C 3,2 km/h (1 Bft)
11.04.2017 10:50 6,9 °C 6,9 °C 87 % 1021,3 hPa 0,0 mm 1,0 km/h (0 Bft) N-NO 15 ° 0 min 0,000 mm 1,1 UV-I 151 W/m² 4,9 °C 6,9 °C 3,2 km/h (1 Bft)
11.04.2017 10:51 6,9 °C 6,9 °C 86 % 1021,4 hPa 0,0 mm 3,1 km/h (1 Bft) NO 36 ° 0 min 0,000 mm 1,1 UV-I 142 W/m² 4,7 °C 6,9 °C 4,8 km/h (1 Bft)
11.04.2017 10:52 6,9 °C 6,9 °C 86 % 1021,4 hPa 0,0 mm 2,6 km/h (1 Bft) NO 36 ° 0 min 0,000 mm 0,8 UV-I 120 W/m² 4,7 °C 6,9 °C 4,8 km/h (1 Bft)
11.04.2017 10:53 6,9 °C 6,9 °C 85 % 1021,4 hPa 0,0 mm 1,9 km/h (1 Bft) NO 36 ° 0 min 0,000 mm 0,7 UV-I 95 W/m² 4,6 °C 6,9 °C 3,2 km/h (1 Bft)
11.04.2017 10:54 6,8 °C 6,9 °C 85 % 1021,5 hPa 0,0 mm 1,8 km/h (1 Bft) NO 36 ° 0 min 0,000 mm 0,6 UV-I 76 W/m² 4,5 °C 6,8 °C 3,2 km/h (1 Bft)
11.04.2017 10:55 6,8 °C 6,8 °C 85 % 1021,5 hPa 0,0 mm 1,6 km/h (1 Bft) NO 36 ° 0 min 0,000 mm 0,5 UV-I 65 W/m² 4,5 °C 6,8 °C 3,2 km/h (1 Bft)
11.04.2017 10:56 6,8 °C 6,8 °C 85 % 1021,5 hPa 0,0 mm 1,0 km/h (0 Bft) NO 36 ° 0 min 0,000 mm 0,5 UV-I 65 W/m² 4,5 °C 6,8 °C 1,6 km/h (1 Bft)
11.04.2017 10:57 6,7 °C 6,8 °C 86 % 1021,6 hPa 0,0 mm 1,0 km/h (0 Bft) NO 36 ° 0 min 0,000 mm 0,5 UV-I 65 W/m² 4,5 °C 6,7 °C 1,6 km/h (1 Bft)
11.04.2017 10:58 6,8 °C 6,8 °C 86 % 1021,5 hPa 0,0 mm 0,8 km/h (0 Bft) NO 36 ° 0 min 0,000 mm 0,5 UV-I 65 W/m² 4,6 °C 6,8 °C 3,2 km/h (1 Bft)
11.04.2017 10:59 6,8 °C 6,8 °C 86 % 1021,5 hPa 0,0 mm 2,0 km/h (1 Bft) NO 36 ° 0 min 0,000 mm 0,5 UV-I 65 W/m² 4,6 °C 6,8 °C 4,8 km/h (1 Bft)
11.04.2017 11:00 6,8 °C 6,8 °C 87 % 1021,5 hPa 0,0 mm 1,7 km/h (1 Bft) NO 36 ° 0 min 0,000 mm 0,5 UV-I 67 W/m² 4,8 °C 6,8 °C 3,2 km/h (1 Bft)
11.04.2017 11:01 6,8 °C 6,8 °C 86 % 1021,6 hPa 0,0 mm 2,3 km/h (1 Bft) NO 36 ° 0 min 0,051 mm 0,6 UV-I 70 W/m² 4,6 °C 6,8 °C 4,8 km/h (1 Bft)
11.04.2017 11:02 6,8 °C 6,8 °C 86 % 1021,6 hPa 0,0 mm 2,7 km/h (1 Bft) NO 36 ° 0 min 0,000 mm 0,6 UV-I 72 W/m² 4,6 °C 6,8 °C 6,4 km/h (2 Bft)
11.04.2017 11:03 6,7 °C 6,8 °C 85 % 1021,6 hPa 0,0 mm 4,3 km/h (1 Bft) NO 36 ° 0 min 0,000 mm 0,6 UV-I 74 W/m² 4,4 °C 6,7 °C 6,4 km/h (2 Bft)
11.04.2017 11:04 6,7 °C 6,7 °C 85 % 1021,6 hPa 0,0 mm 1,5 km/h (1 Bft) NO 36 ° 0 min 0,000 mm 0,6 UV-I 74 W/m² 4,4 °C 6,7 °C 3,2 km/h (1 Bft)
11.04.2017 11:05 6,7 °C 6,7 °C 85 % 1021,6 hPa 0,0 mm 1,9 km/h (1 Bft) NO 36 ° 0 min 0,000 mm 0,6 UV-I 72 W/m² 4,4 °C 6,7 °C 3,2 km/h (1 Bft)
11.04.2017 11:06 6,7 °C 6,7 °C 85 % 1021,6 hPa 0,0 mm 1,1 km/h (1 Bft) NO 36 ° 0 min 0,000 mm 0,5 UV-I 69 W/m² 4,4 °C 6,7 °C 1,6 km/h (1 Bft)
11.04.2017 11:07 6,7 °C 6,7 °C 85 % 1021,7 hPa 0,0 mm 0,9 km/h (0 Bft) NO 36 ° 0 min 0,000 mm 0,5 UV-I 67 W/m² 4,4 °C 6,7 °C 1,6 km/h (1 Bft)
11.04.2017 11:08 6,7 °C 6,7 °C 86 % 1021,6 hPa 0,0 mm 0,3 km/h (0 Bft) NO 36 ° 0 min 0,000 mm 0,5 UV-I 72 W/m² 4,5 °C 6,7 °C 1,6 km/h (1 Bft)
11.04.2017 11:09 6,8 °C 6,8 °C 86 % 1021,7 hPa 0,0 mm 1,6 km/h (1 Bft) NO 36 ° 0 min 0,000 mm 0,6 UV-I 76 W/m² 4,6 °C 6,8 °C 3,2 km/h (1 Bft)
11.04.2017 11:10 6,8 °C 6,8 °C 86 % 1021,7 hPa 0,0 mm 2,5 km/h (1 Bft) N-NO 16 ° 0 min 0,000 mm 0,6 UV-I 74 W/m² 4,6 °C 6,8 °C 4,8 km/h (1 Bft)
11.04.2017 11:11 6,8 °C 6,8 °C 85 % 1021,7 hPa 0,0 mm 4,0 km/h (1 Bft) N 5 ° 0 min 0,000 mm 0,5 UV-I 70 W/m² 4,5 °C 6,8 °C 6,4 km/h (2 Bft)
11.04.2017 11:12 6,8 °C 6,8 °C 85 % 1021,7 hPa 0,0 mm 2,0 km/h (1 Bft) N 5 ° 0 min 0,000 mm 0,5 UV-I 67 W/m² 4,5 °C 6,8 °C 3,2 km/h (1 Bft)
11.04.2017 11:13 6,8 °C 6,8 °C 85 % 1021,7 hPa 0,0 mm 4,1 km/h (1 Bft) N 5 ° 0 min 0,000 mm 0,5 UV-I 65 W/m² 4,5 °C 6,8 °C 6,4 km/h (2 Bft)
11.04.2017 11:14 6,8 °C 6,8 °C 85 % 1021,8 hPa 0,0 mm 0,8 km/h (0 Bft) N 5 ° 0 min 0,000 mm 0,5 UV-I 56 W/m² 4,5 °C 6,8 °C 3,2 km/h (1 Bft)
11.04.2017 11:15 6,8 °C 6,8 °C 86 % 1021,8 hPa 0,0 mm 0,1 km/h (0 Bft) N 5 ° 0 min 0,000 mm 0,0 UV-I 56 W/m² 4,6 °C 6,8 °C 1,6 km/h (1 Bft)
11.04.2017 11:16 6,9 °C 6,9 °C 86 % 1021,8 hPa 0,0 mm 0,6 km/h (0 Bft) N 5 ° 0 min 0,000 mm 0,0 UV-I 56 W/m² 4,7 °C 6,9 °C 1,6 km/h (1 Bft)
11.04.2017 11:17 6,9 °C 6,9 °C 85 % 1021,8 hPa 0,0 mm 0,5 km/h (0 Bft) N 355 ° 0 min 0,000 mm 0,0 UV-I 54 W/m² 4,6 °C 6,9 °C 1,6 km/h (1 Bft)
11.04.2017 11:18 6,9 °C 6,9 °C 85 % 1021,8 hPa 0,0 mm 4,2 km/h (1 Bft) W-NW 298 ° 0 min 0,000 mm 0,0 UV-I 51 W/m² 4,6 °C 6,9 °C 8,0 km/h (2 Bft)
11.04.2017 11:19 6,8 °C 6,9 °C 85 % 1021,8 hPa 0,0 mm 2,9 km/h (1 Bft) NW 315 ° 0 min 0,000 mm 0,0 UV-I 51 W/m² 4,5 °C 6,8 °C 4,8 km/h (1 Bft)
11.04.2017 11:20 6,8 °C 6,8 °C 85 % 1021,8 hPa 0,0 mm 2,1 km/h (1 Bft) NW 324 ° 0 min 0,000 mm 0,0 UV-I 49 W/m² 4,5 °C 6,8 °C 3,2 km/h (1 Bft)
11.04.2017 11:21 6,8 °C 6,8 °C 85 % 1021,8 hPa 0,0 mm 1,6 km/h (1 Bft) NW 321 ° 0 min 0,000 mm 0,0 UV-I 44 W/m² 4,5 °C 6,8 °C 4,8 km/h (1 Bft)
11.04.2017 11:22 6,8 °C 6,8 °C 85 % 1021,8 hPa 0,0 mm 4,4 km/h (1 Bft) NW 306 ° 0 min 0,000 mm 0,0 UV-I 42 W/m² 4,5 °C 6,8 °C 6,4 km/h (2 Bft)
11.04.2017 11:23 6,8 °C 6,8 °C 85 % 1021,8 hPa 0,0 mm 1,6 km/h (1 Bft) NW 318 ° 0 min 0,000 mm 0,0 UV-I 40 W/m² 4,5 °C 6,8 °C 3,2 km/h (1 Bft)
11.04.2017 11:24 6,7 °C 6,8 °C 85 % 1021,8 hPa 0,0 mm 1,9 km/h (1 Bft) N-NO 12 ° 0 min 0,000 mm 0,0 UV-I 40 W/m² 4,4 °C 6,7 °C 4,8 km/h (1 Bft)
11.04.2017 11:25 6,7 °C 6,8 °C 85 % 1021,8 hPa 0,0 mm 3,2 km/h (1 Bft) N 360 ° 0 min 0,000 mm 0,0 UV-I 42 W/m² 4,4 °C 6,7 °C 6,4 km/h (2 Bft)
11.04.2017 11:26 6,7 °C 6,7 °C 85 % 1021,8 hPa 0,0 mm 2,7 km/h (1 Bft) N 360 ° 0 min 0,000 mm 0,0 UV-I 47 W/m² 4,4 °C 6,7 °C 4,8 km/h (1 Bft)
11.04.2017 11:27 6,7 °C 6,7 °C 85 % 1021,8 hPa 0,0 mm 3,8 km/h (1 Bft) N-NO 19 ° 0 min 0,000 mm 0,0 UV-I 51 W/m² 4,4 °C 6,7 °C 6,4 km/h (2 Bft)
11.04.2017 11:28 6,7 °C 6,7 °C 85 % 1021,9 hPa 0,0 mm 3,4 km/h (1 Bft) N 5 ° 0 min 0,000 mm 0,0 UV-I 53 W/m² 4,4 °C 6,7 °C 6,4 km/h (2 Bft)
11.04.2017 11:29 6,7 °C 6,7 °C 85 % 1021,9 hPa 0,0 mm 2,2 km/h (1 Bft) N 11 ° 0 min 0,000 mm 0,0 UV-I 54 W/m² 4,4 °C 6,7 °C 6,4 km/h (2 Bft)
11.04.2017 11:30 6,7 °C 6,7 °C 85 % 1021,9 hPa 0,0 mm 0,2 km/h (0 Bft) N 11 ° 0 min 0,000 mm 0,0 UV-I 54 W/m² 4,4 °C 6,7 °C 1,6 km/h (1 Bft)
11.04.2017 11:31 6,7 °C 6,7 °C 85 % 1021,9 hPa 0,0 mm 0,1 km/h (0 Bft) N 11 ° 0 min 0,000 mm 0,0 UV-I 54 W/m² 4,4 °C 6,7 °C 1,6 km/h (1 Bft)
11.04.2017 11:32 6,7 °C 6,7 °C 85 % 1022,0 hPa 0,0 mm 1,9 km/h (1 Bft) N-NW 342 ° 0 min 0,000 mm 0,0 UV-I 51 W/m² 4,4 °C 6,7 °C 3,2 km/h (1 Bft)
11.04.2017 11:33 6,7 °C 6,7 °C 85 % 1021,9 hPa 0,0 mm 1,6 km/h (1 Bft) NW 323 ° 0 min 0,000 mm 0,0 UV-I 49 W/m² 4,4 °C 6,7 °C 4,8 km/h (1 Bft)
11.04.2017 11:34 6,7 °C 6,7 °C 85 % 1022,0 hPa 0,0 mm 4,5 km/h (1 Bft) W-NW 293 ° 0 min 0,000 mm 0,0 UV-I 46 W/m² 4,4 °C 6,7 °C 12,9 km/h (3 Bft)
11.04.2017 11:35 6,7 °C 6,7 °C 85 % 1022,0 hPa 0,0 mm 6,4 km/h (2 Bft) W-NW 298 ° 0 min 0,000 mm 0,0 UV-I 44 W/m² 4,4 °C 5,6 °C 9,7 km/h (2 Bft)
11.04.2017 11:36 6,6 °C 6,7 °C 85 % 1022,0 hPa 0,0 mm 2,7 km/h (1 Bft) N-NW 338 ° 0 min 0,000 mm 0,0 UV-I 42 W/m² 4,3 °C 6,6 °C 6,4 km/h (2 Bft)
11.04.2017 11:37 6,6 °C 6,6 °C 85 % 1022,0 hPa 0,0 mm 1,3 km/h (1 Bft) N-NW 340 ° 0 min 0,000 mm 0,0 UV-I 40 W/m² 4,3 °C 6,6 °C 3,2 km/h (1 Bft)
11.04.2017 11:38 6,6 °C 6,6 °C 85 % 1022,1 hPa 0,0 mm 1,7 km/h (1 Bft) W-NW 296 ° 0 min 0,000 mm 0,0 UV-I 40 W/m² 4,3 °C 6,6 °C 6,4 km/h (2 Bft)
11.04.2017 11:39 6,6 °C 6,6 °C 85 % 1022,0 hPa 0,0 mm 2,6 km/h (1 Bft) NW 304 ° 0 min 0,000 mm 0,0 UV-I 42 W/m² 4,3 °C 6,6 °C 4,8 km/h (1 Bft)
11.04.2017 11:40 6,5 °C 6,6 °C 85 % 1022,0 hPa 0,0 mm 1,6 km/h (1 Bft) NW 304 ° 0 min 0,000 mm 0,0 UV-I 42 W/m² 4,2 °C 6,5 °C 3,2 km/h (1 Bft)
11.04.2017 11:41 6,4 °C 6,5 °C 85 % 1022,1 hPa 0,0 mm 2,4 km/h (1 Bft) N-NW 329 ° 0 min 0,000 mm 0,0 UV-I 42 W/m² 4,1 °C 6,4 °C 4,8 km/h (1 Bft)
11.04.2017 11:42 6,4 °C 6,4 °C 85 % 1022,1 hPa 0,0 mm 2,7 km/h (1 Bft) N 355 ° 0 min 0,000 mm 0,0 UV-I 42 W/m² 4,1 °C 6,4 °C 4,8 km/h (1 Bft)
11.04.2017 11:43 6,4 °C 6,4 °C 84 % 1022,1 hPa 0,0 mm 2,1 km/h (1 Bft) N 351 ° 0 min 0,000 mm 0,0 UV-I 40 W/m² 3,9 °C 6,4 °C 4,8 km/h (1 Bft)
11.04.2017 11:44 6,3 °C 6,4 °C 84 % 1022,1 hPa 0,0 mm 1,1 km/h (1 Bft) N 351 ° 0 min 0,000 mm 0,0 UV-I 40 W/m² 3,8 °C 6,3 °C 1,6 km/h (1 Bft)
11.04.2017 11:45 6,3 °C 6,3 °C 85 % 1022,1 hPa 0,0 mm 2,7 km/h (1 Bft) N-NO 32 ° 0 min 0,000 mm 0,0 UV-I 42 W/m² 4,0 °C 6,3 °C 6,4 km/h (2 Bft)
11.04.2017 11:46 6,3 °C 6,3 °C 85 % 1022,1 hPa 0,0 mm 3,4 km/h (1 Bft) N-NW 328 ° 0 min 0,000 mm 0,0 UV-I 44 W/m² 4,0 °C 6,3 °C 4,8 km/h (1 Bft)
11.04.2017 11:47 6,3 °C 6,3 °C 85 % 1022,1 hPa 0,0 mm 1,7 km/h (1 Bft) N-NW 337 ° 0 min 0,000 mm 0,0 UV-I 46 W/m² 4,0 °C 6,3 °C 3,2 km/h (1 Bft)
11.04.2017 11:48 6,2 °C 6,3 °C 85 % 1022,1 hPa 0,0 mm 0,3 km/h (0 Bft) N 355 ° 0 min 0,000 mm 0,0 UV-I 47 W/m² 3,9 °C 6,2 °C 1,6 km/h (1 Bft)
11.04.2017 11:49 6,2 °C 6,3 °C 85 % 1022,2 hPa 0,0 mm 0,9 km/h (0 Bft) N 355 ° 0 min 0,000 mm 0,0 UV-I 47 W/m² 3,9 °C 6,2 °C 1,6 km/h (1 Bft)
11.04.2017 11:50 6,3 °C 6,3 °C 85 % 1022,1 hPa 0,0 mm 1,9 km/h (1 Bft) N-NW 344 ° 0 min 0,000 mm 0,0 UV-I 47 W/m² 4,0 °C 6,3 °C 4,8 km/h (1 Bft)
11.04.2017 11:51 6,3 °C 6,3 °C 85 % 1022,2 hPa 0,0 mm 1,4 km/h (1 Bft) N-NW 344 ° 0 min 0,000 mm 0,0 UV-I 47 W/m² 4,0 °C 6,3 °C 3,2 km/h (1 Bft)
11.04.2017 11:52 6,2 °C 6,3 °C 85 % 1022,1 hPa 0,0 mm 1,1 km/h (1 Bft) N-NW 332 ° 0 min 0,000 mm 0,0 UV-I 47 W/m² 3,9 °C 6,2 °C 3,2 km/h (1 Bft)
11.04.2017 11:53 6,2 °C 6,3 °C 85 % 1022,1 hPa 0,0 mm 3,0 km/h (1 Bft) N 351 ° 0 min 0,000 mm 0,0 UV-I 47 W/m² 3,9 °C 6,2 °C 4,8 km/h (1 Bft)
11.04.2017 11:54 6,2 °C 6,2 °C 84 % 1022,1 hPa 0,0 mm 3,4 km/h (1 Bft) N 355 ° 0 min 0,000 mm 0,0 UV-I 49 W/m² 3,7 °C 6,2 °C 4,8 km/h (1 Bft)
11.04.2017 11:55 6,2 °C 6,2 °C 85 % 1022,1 hPa 0,0 mm 2,9 km/h (1 Bft) N-NO 12 ° 0 min 0,000 mm 0,0 UV-I 49 W/m² 3,9 °C 6,2 °C 4,8 km/h (1 Bft)
11.04.2017 11:56 6,2 °C 6,2 °C 85 % 1022,1 hPa 0,0 mm 3,5 km/h (1 Bft) N-NO 16 ° 0 min 0,000 mm 0,0 UV-I 47 W/m² 3,9 °C 6,2 °C 4,8 km/h (1 Bft)
11.04.2017 11:57 6,2 °C 6,2 °C 85 % 1022,1 hPa 0,0 mm 2,7 km/h (1 Bft) N-NO 16 ° 0 min 0,000 mm 0,0 UV-I 46 W/m² 3,9 °C 6,2 °C 3,2 km/h (1 Bft)
11.04.2017 11:58 6,2 °C 6,2 °C 85 % 1022,1 hPa 0,0 mm 2,6 km/h (1 Bft) N-NO 16 ° 0 min 0,000 mm 0,0 UV-I 44 W/m² 3,9 °C 6,2 °C 4,8 km/h (1 Bft)
11.04.2017 11:59 6,2 °C 6,2 °C 85 % 1022,1 hPa 0,0 mm 2,3 km/h (1 Bft) N-NO 16 ° 0 min 0,000 mm 0,0 UV-I 42 W/m² 3,9 °C 6,2 °C 3,2 km/h (1 Bft)
11.04.2017 12:00 6,2 °C 6,2 °C 85 % 1022,2 hPa 0,0 mm 2,5 km/h (1 Bft) N-NO 20 ° 0 min 0,000 mm 0,0 UV-I 40 W/m² 3,9 °C 6,2 °C 4,8 km/h (1 Bft)
11.04.2017 12:01 6,2 °C 6,2 °C 85 % 1022,1 hPa 0,0 mm 2,6 km/h (1 Bft) N-NO 32 ° 0 min 0,025 mm 0,0 UV-I 39 W/m² 3,9 °C 6,2 °C 4,8 km/h (1 Bft)
11.04.2017 12:02 6,2 °C 6,2 °C 85 % 1022,2 hPa 0,0 mm 2,3 km/h (1 Bft) N-NO 32 ° 0 min 0,000 mm 0,0 UV-I 35 W/m² 3,9 °C 6,2 °C 3,2 km/h (1 Bft)
11.04.2017 12:03 6,2 °C 6,2 °C 85 % 1022,3 hPa 0,0 mm 2,7 km/h (1 Bft) N-NO 32 ° 0 min 0,000 mm 0,0 UV-I 33 W/m² 3,9 °C 6,2 °C 4,8 km/h (1 Bft)
11.04.2017 12:04 6,2 °C 6,2 °C 85 % 1022,3 hPa 0,0 mm 0,7 km/h (0 Bft) N-NO 32 ° 0 min 0,000 mm 0,0 UV-I 33 W/m² 3,9 °C 6,2 °C 3,2 km/h (1 Bft)
11.04.2017 12:05 6,2 °C 6,2 °C 85 % 1022,3 hPa 0,0 mm 2,2 km/h (1 Bft) N-NO 32 ° 0 min 0,000 mm 0,0 UV-I 35 W/m² 3,9 °C 6,2 °C 4,8 km/h (1 Bft)
11.04.2017 12:06 6,2 °C 6,2 °C 85 % 1022,2 hPa 0,0 mm 3,2 km/h (1 Bft) N-NO 32 ° 0 min 0,000 mm 0,0 UV-I 37 W/m² 3,9 °C 6,2 °C 4,8 km/h (1 Bft)
11.04.2017 12:07 6,2 °C 6,2 °C 84 % 1022,3 hPa 0,0 mm 3,0 km/h (1 Bft) N-NO 32 ° 0 min 0,000 mm 0,0 UV-I 42 W/m² 3,7 °C 6,2 °C 4,8 km/h (1 Bft)
11.04.2017 12:08 6,2 °C 6,2 °C 85 % 1022,3 hPa 0,0 mm 3,7 km/h (1 Bft) N-NO 32 ° 0 min 0,000 mm 0,0 UV-I 46 W/m² 3,9 °C 6,2 °C 4,8 km/h (1 Bft)
11.04.2017 12:09 6,1 °C 6,2 °C 85 % 1022,2 hPa 0,0 mm 4,4 km/h (1 Bft) N-NO 32 ° 0 min 0,000 mm 0,0 UV-I 49 W/m² 3,8 °C 6,1 °C 6,4 km/h (2 Bft)
11.04.2017 12:10 6,1 °C 6,1 °C 84 % 1022,4 hPa 0,0 mm 1,8 km/h (1 Bft) N-NO 32 ° 0 min 0,000 mm 0,0 UV-I 51 W/m² 3,6 °C 6,1 °C 4,8 km/h (1 Bft)
11.04.2017 12:11 6,1 °C 6,1 °C 85 % 1022,3 hPa 0,0 mm 3,3 km/h (1 Bft) N-NO 32 ° 0 min 0,000 mm 0,0 UV-I 53 W/m² 3,8 °C 6,1 °C 4,8 km/h (1 Bft)
11.04.2017 12:12 6,1 °C 6,1 °C 85 % 1022,3 hPa 0,0 mm 3,6 km/h (1 Bft) N-NO 32 ° 0 min 0,000 mm 0,0 UV-I 53 W/m² 3,8 °C 6,1 °C 4,8 km/h (1 Bft)
11.04.2017 12:13 6,1 °C 6,1 °C 85 % 1022,3 hPa 0,0 mm 3,1 km/h (1 Bft) NO 39 ° 0 min 0,000 mm 0,0 UV-I 54 W/m² 3,8 °C 6,1 °C 4,8 km/h (1 Bft)
11.04.2017 12:14 6,1 °C 6,1 °C 85 % 1022,3 hPa 0,0 mm 3,0 km/h (1 Bft) NO 39 ° 0 min 0,000 mm 0,5 UV-I 56 W/m² 3,8 °C 6,1 °C 4,8 km/h (1 Bft)
11.04.2017 12:15 6,1 °C 6,1 °C 85 % 1022,3 hPa 0,0 mm 2,1 km/h (1 Bft) NO 39 ° 0 min 0,000 mm 0,5 UV-I 58 W/m² 3,8 °C 6,1 °C 3,2 km/h (1 Bft)
11.04.2017 12:16 6,1 °C 6,1 °C 85 % 1022,2 hPa 0,0 mm 1,9 km/h (1 Bft) NO 39 ° 0 min 0,000 mm 0,5 UV-I 60 W/m² 3,8 °C 6,1 °C 3,2 km/h (1 Bft)
11.04.2017 12:17 6,1 °C 6,1 °C 85 % 1022,3 hPa 0,0 mm 0,3 km/h (0 Bft) NO 39 ° 0 min 0,000 mm 0,5 UV-I 60 W/m² 3,8 °C 6,1 °C 1,6 km/h (1 Bft)
11.04.2017 12:18 6,1 °C 6,1 °C 86 % 1022,2 hPa 0,0 mm 1,5 km/h (1 Bft) NO 39 ° 0 min 0,000 mm 0,5 UV-I 62 W/m² 3,9 °C 6,1 °C 4,8 km/h (1 Bft)
11.04.2017 12:19 6,1 °C 6,1 °C 85 % 1022,2 hPa 0,0 mm 0,3 km/h (0 Bft) NO 39 ° 0 min 0,000 mm 0,6 UV-I 65 W/m² 3,8 °C 6,1 °C 3,2 km/h (1 Bft)
11.04.2017 12:20 6,1 °C 6,1 °C 85 % 1022,2 hPa 0,0 mm 3,4 km/h (1 Bft) NO 49 ° 0 min 0,000 mm 0,6 UV-I 69 W/m² 3,8 °C 6,1 °C 6,4 km/h (2 Bft)
11.04.2017 12:21 6,1 °C 6,1 °C 85 % 1022,2 hPa 0,0 mm 1,8 km/h (1 Bft) NO 49 ° 0 min 0,000 mm 0,7 UV-I 76 W/m² 3,8 °C 6,1 °C 3,2 km/h (1 Bft)
11.04.2017 12:22 6,1 °C 6,1 °C 85 % 1022,2 hPa 0,0 mm 1,6 km/h (1 Bft) NO 49 ° 0 min 0,000 mm 0,7 UV-I 83 W/m² 3,8 °C 6,1 °C 4,8 km/h (1 Bft)
11.04.2017 12:23 6,1 °C 6,1 °C 85 % 1022,3 hPa 0,0 mm 3,0 km/h (1 Bft) NO 46 ° 0 min 0,000 mm 0,8 UV-I 90 W/m² 3,8 °C 6,1 °C 4,8 km/h (1 Bft)
11.04.2017 12:24 6,1 °C 6,1 °C 85 % 1022,3 hPa 0,0 mm 0,7 km/h (0 Bft) NO 46 ° 0 min 0,000 mm 0,8 UV-I 100 W/m² 3,8 °C 6,1 °C 3,2 km/h (1 Bft)
11.04.2017 12:25 6,1 °C 6,1 °C 85 % 1022,2 hPa 0,0 mm 1,0 km/h (0 Bft) NO 46 ° 0 min 0,000 mm 0,9 UV-I 107 W/m² 3,8 °C 6,1 °C 3,2 km/h (1 Bft)
11.04.2017 12:26 6,1 °C 6,1 °C 85 % 1022,2 hPa 0,0 mm 2,6 km/h (1 Bft) NO 45 ° 0 min 0,000 mm 1,1 UV-I 121 W/m² 3,8 °C 6,1 °C 4,8 km/h (1 Bft)
11.04.2017 12:27 6,1 °C 6,1 °C 85 % 1022,3 hPa 0,0 mm 2,6 km/h (1 Bft) NO 45 ° 0 min 0,000 mm 1,2 UV-I 139 W/m² 3,8 °C 6,1 °C 4,8 km/h (1 Bft)
11.04.2017 12:28 6,1 °C 6,1 °C 85 % 1022,2 hPa 0,0 mm 3,6 km/h (1 Bft) NO 45 ° 0 min 0,000 mm 1,3 UV-I 139 W/m² 3,8 °C 6,1 °C 4,8 km/h (1 Bft)
11.04.2017 12:29 6,1 °C 6,1 °C 85 % 1022,2 hPa 0,0 mm 1,2 km/h (1 Bft) NO 45 ° 0 min 0,000 mm 1,4 UV-I 169 W/m² 3,8 °C 6,1 °C 4,8 km/h (1 Bft)
11.04.2017 12:30 6,1 °C 6,2 °C 85 % 1022,3 hPa 0,0 mm 4,0 km/h (1 Bft) NO 45 ° 0 min 0,000 mm 1,4 UV-I 179 W/m² 3,8 °C 6,1 °C 6,4 km/h (2 Bft)
11.04.2017 12:31 6,1 °C 6,2 °C 84 % 1022,2 hPa 0,0 mm 4,7 km/h (1 Bft) NO 45 ° 0 min 0,000 mm 1,4 UV-I 178 W/m² 3,6 °C 5,4 °C 6,4 km/h (2 Bft)
11.04.2017 12:32 6,2 °C 6,2 °C 85 % 1022,2 hPa 0,0 mm 3,2 km/h (1 Bft) NO 45 ° 0 min 0,000 mm 1,3 UV-I 165 W/m² 3,9 °C 6,2 °C 4,8 km/h (1 Bft)
11.04.2017 12:33 6,2 °C 6,2 °C 85 % 1022,3 hPa 0,0 mm 3,3 km/h (1 Bft) NO 45 ° 0 min 0,000 mm 1,2 UV-I 148 W/m² 3,9 °C 6,2 °C 4,8 km/h (1 Bft)
11.04.2017 12:34 6,2 °C 6,2 °C 85 % 1022,2 hPa 0,0 mm 3,0 km/h (1 Bft) NO 45 ° 0 min 0,000 mm 1,1 UV-I 137 W/m² 3,9 °C 6,2 °C 4,8 km/h (1 Bft)
11.04.2017 12:35 6,3 °C 6,3 °C 85 % 1022,3 hPa 0,0 mm 1,9 km/h (1 Bft) NO 45 ° 0 min 0,000 mm 1,0 UV-I 128 W/m² 4,0 °C 6,3 °C 3,2 km/h (1 Bft)
11.04.2017 12:36 6,3 °C 6,3 °C 85 % 1022,3 hPa 0,0 mm 2,2 km/h (1 Bft) NO 45 ° 0 min 0,000 mm 1,0 UV-I 125 W/m² 4,0 °C 6,3 °C 3,2 km/h (1 Bft)
11.04.2017 12:37 6,3 °C 6,3 °C 85 % 1022,3 hPa 0,0 mm 1,6 km/h (1 Bft) NO 45 ° 0 min 0,000 mm 1,0 UV-I 123 W/m² 4,0 °C 6,3 °C 3,2 km/h (1 Bft)
11.04.2017 12:38 6,4 °C 6,4 °C 85 % 1022,2 hPa 0,0 mm 1,5 km/h (1 Bft) NO 45 ° 0 min 0,000 mm 1,0 UV-I 125 W/m² 4,1 °C 6,4 °C 3,2 km/h (1 Bft)
11.04.2017 12:39 6,4 °C 6,4 °C 84 % 1022,3 hPa 0,0 mm 4,8 km/h (1 Bft) N-NO 28 ° 0 min 0,000 mm 1,1 UV-I 132 W/m² 3,9 °C 5,7 °C 8,0 km/h (2 Bft)
11.04.2017 12:40 6,4 °C 6,4 °C 84 % 1022,3 hPa 0,0 mm 4,2 km/h (1 Bft) N-NO 28 ° 0 min 0,000 mm 1,2 UV-I 142 W/m² 3,9 °C 6,4 °C 6,4 km/h (2 Bft)
11.04.2017 12:41 6,3 °C 6,4 °C 84 % 1022,2 hPa 0,0 mm 4,0 km/h (1 Bft) N-NO 28 ° 0 min 0,000 mm 1,2 UV-I 151 W/m² 3,8 °C 6,3 °C 6,4 km/h (2 Bft)
11.04.2017 12:42 6,3 °C 6,3 °C 84 % 1022,2 hPa 0,0 mm 4,8 km/h (1 Bft) NO 36 ° 0 min 0,000 mm 1,3 UV-I 167 W/m² 3,8 °C 5,6 °C 6,4 km/h (2 Bft)
11.04.2017 12:43 6,4 °C 6,4 °C 85 % 1022,2 hPa 0,0 mm 2,2 km/h (1 Bft) NO 36 ° 0 min 0,000 mm 1,4 UV-I 179 W/m² 4,1 °C 6,4 °C 3,2 km/h (1 Bft)
11.04.2017 12:44 6,4 °C 6,4 °C 85 % 1022,3 hPa 0,0 mm 0,7 km/h (0 Bft) NO 36 ° 0 min 0,000 mm 1,5 UV-I 192 W/m² 4,1 °C 6,4 °C 3,2 km/h (1 Bft)
11.04.2017 12:45 6,4 °C 6,4 °C 85 % 1022,3 hPa 0,0 mm 0,2 km/h (0 Bft) NO 36 ° 0 min 0,000 mm 1,5 UV-I 199 W/m² 4,1 °C 6,4 °C 1,6 km/h (1 Bft)
11.04.2017 12:46 6,4 °C 6,5 °C 85 % 1022,3 hPa 0,0 mm 0,1 km/h (0 Bft) NO 36 ° 0 min 0,000 mm 1,4 UV-I 197 W/m² 4,1 °C 6,4 °C 1,6 km/h (1 Bft)
11.04.2017 12:47 6,6 °C 6,6 °C 86 % 1022,2 hPa 0,0 mm 0,0 km/h (0 Bft) NO 36 ° 0 min 0,000 mm 1,4 UV-I 186 W/m² 4,4 °C 6,6 °C 0,0 km/h (0 Bft)
11.04.2017 12:48 6,6 °C 6,6 °C 85 % 1022,3 hPa 0,0 mm 2,2 km/h (1 Bft) NO 36 ° 0 min 0,000 mm 1,3 UV-I 156 W/m² 4,3 °C 6,6 °C 3,2 km/h (1 Bft)
11.04.2017 12:49 6,6 °C 6,6 °C 84 % 1022,3 hPa 0,0 mm 2,7 km/h (1 Bft) NO 55 ° 0 min 0,000 mm 1,1 UV-I 139 W/m² 4,1 °C 6,6 °C 4,8 km/h (1 Bft)
11.04.2017 12:50 6,6 °C 6,6 °C 84 % 1022,3 hPa 0,0 mm 0,8 km/h (0 Bft) NO 55 ° 0 min 0,000 mm 1,0 UV-I 123 W/m² 4,1 °C 6,6 °C 3,2 km/h (1 Bft)
11.04.2017 12:51 6,6 °C 6,6 °C 84 % 1022,3 hPa 0,0 mm 2,4 km/h (1 Bft) W-NW 300 ° 0 min 0,000 mm 0,9 UV-I 114 W/m² 4,1 °C 6,6 °C 3,2 km/h (1 Bft)
11.04.2017 12:52 6,6 °C 6,6 °C 84 % 1022,3 hPa 0,0 mm 3,0 km/h (1 Bft) N-NW 341 ° 0 min 0,000 mm 0,9 UV-I 109 W/m² 4,1 °C 6,6 °C 4,8 km/h (1 Bft)
11.04.2017 12:53 6,6 °C 6,6 °C 84 % 1022,3 hPa 0,0 mm 3,0 km/h (1 Bft) N-NO 33 ° 0 min 0,000 mm 0,9 UV-I 109 W/m² 4,1 °C 6,6 °C 6,4 km/h (2 Bft)
11.04.2017 12:54 6,5 °C 6,6 °C 84 % 1022,3 hPa 0,0 mm 3,1 km/h (1 Bft) O-NO 78 ° 0 min 0,000 mm 0,9 UV-I 109 W/m² 4,0 °C 6,5 °C 4,8 km/h (1 Bft)
11.04.2017 12:55 6,4 °C 6,5 °C 84 % 1022,2 hPa 0,0 mm 3,3 km/h (1 Bft) NO 54 ° 0 min 0,000 mm 0,9 UV-I 107 W/m² 3,9 °C 6,4 °C 6,4 km/h (2 Bft)
11.04.2017 12:56 6,4 °C 6,4 °C 84 % 1022,3 hPa 0,0 mm 4,2 km/h (1 Bft) N-NO 26 ° 0 min 0,000 mm 0,9 UV-I 105 W/m² 3,9 °C 6,4 °C 4,8 km/h (1 Bft)
11.04.2017 12:57 6,4 °C 6,4 °C 84 % 1022,3 hPa 0,0 mm 4,8 km/h (1 Bft) NO 44 ° 0 min 0,000 mm 0,9 UV-I 104 W/m² 3,9 °C 5,7 °C 6,4 km/h (2 Bft)
11.04.2017 12:58 6,4 °C 6,4 °C 84 % 1022,2 hPa 0,0 mm 3,8 km/h (1 Bft) O-NO 62 ° 0 min 0,000 mm 0,9 UV-I 105 W/m² 3,9 °C 6,4 °C 6,4 km/h (2 Bft)
11.04.2017 12:59 6,3 °C 6,4 °C 84 % 1022,2 hPa 0,0 mm 2,0 km/h (1 Bft) O-NO 62 ° 0 min 0,000 mm 1,0 UV-I 111 W/m² 3,8 °C 6,3 °C 3,2 km/h (1 Bft)
11.04.2017 13:00 6,3 °C 6,3 °C 85 % 1022,2 hPa 0,0 mm 2,9 km/h (1 Bft) O-NO 62 ° 0 min 0,000 mm 1,0 UV-I 107 W/m² 4,0 °C 6,3 °C 4,8 km/h (1 Bft)
11.04.2017 13:01 6,3 °C 6,3 °C 84 % 1022,2 hPa 0,0 mm 2,5 km/h (1 Bft) O-NO 62 ° 0 min 0,051 mm 0,9 UV-I 100 W/m² 3,8 °C 6,3 °C 4,8 km/h (1 Bft)
11.04.2017 13:02 6,3 °C 6,4 °C 84 % 1022,2 hPa 0,0 mm 0,1 km/h (0 Bft) O-NO 62 ° 0 min 0,000 mm 0,9 UV-I 91 W/m² 3,8 °C 6,3 °C 1,6 km/h (1 Bft)
11.04.2017 13:03 6,4 °C 6,4 °C 84 % 1022,2 hPa 0,0 mm 2,6 km/h (1 Bft) O-NO 62 ° 0 min 0,000 mm 0,8 UV-I 83 W/m² 3,9 °C 6,4 °C 3,2 km/h (1 Bft)
11.04.2017 13:04 6,4 °C 6,4 °C 85 % 1022,2 hPa 0,0 mm 0,8 km/h (0 Bft) O-NO 62 ° 0 min 0,000 mm 0,8 UV-I 81 W/m² 4,1 °C 6,4 °C 3,2 km/h (1 Bft)
11.04.2017 13:05 6,4 °C 6,4 °C 84 % 1022,2 hPa 0,0 mm 3,7 km/h (1 Bft) NO 47 ° 0 min 0,000 mm 0,8 UV-I 97 W/m² 3,9 °C 6,4 °C 4,8 km/h (1 Bft)
11.04.2017 13:06 6,4 °C 6,4 °C 84 % 1022,2 hPa 0,0 mm 1,7 km/h (1 Bft) O-NO 66 ° 0 min 0,000 mm 1,0 UV-I 114 W/m² 3,9 °C 6,4 °C 3,2 km/h (1 Bft)
11.04.2017 13:07 6,4 °C 6,4 °C 84 % 1022,2 hPa 0,0 mm 1,4 km/h (1 Bft) O-NO 66 ° 0 min 0,000 mm 1,2 UV-I 139 W/m² 3,9 °C 6,4 °C 3,2 km/h (1 Bft)
11.04.2017 13:08 6,4 °C 6,4 °C 84 % 1022,2 hPa 0,0 mm 0,8 km/h (0 Bft) O-NO 66 ° 0 min 0,000 mm 1,3 UV-I 165 W/m² 3,9 °C 6,4 °C 1,6 km/h (1 Bft)
11.04.2017 13:09 6,4 °C 6,4 °C 84 % 1022,2 hPa 0,0 mm 1,5 km/h (1 Bft) O-NO 65 ° 0 min 0,000 mm 1,4 UV-I 181 W/m² 3,9 °C 6,4 °C 4,8 km/h (1 Bft)
11.04.2017 13:10 6,5 °C 6,5 °C 84 % 1022,2 hPa 0,0 mm 3,7 km/h (1 Bft) NO 46 ° 0 min 0,000 mm 1,4 UV-I 185 W/m² 4,0 °C 6,5 °C 4,8 km/h (1 Bft)
11.04.2017 13:11 6,5 °C 6,5 °C 84 % 1022,3 hPa 0,0 mm 1,9 km/h (1 Bft) NO 46 ° 0 min 0,000 mm 1,4 UV-I 179 W/m² 4,0 °C 6,5 °C 3,2 km/h (1 Bft)
11.04.2017 13:12 6,5 °C 6,5 °C 84 % 1022,2 hPa 0,0 mm 0,1 km/h (0 Bft) NO 46 ° 0 min 0,000 mm 1,4 UV-I 176 W/m² 4,0 °C 6,5 °C 1,6 km/h (1 Bft)
11.04.2017 13:13 6,5 °C 6,6 °C 84 % 1022,2 hPa 0,0 mm 2,6 km/h (1 Bft) NO 46 ° 0 min 0,000 mm 1,4 UV-I 174 W/m² 4,0 °C 6,5 °C 3,2 km/h (1 Bft)
11.04.2017 13:14 6,5 °C 6,5 °C 83 % 1022,2 hPa 0,0 mm 0,2 km/h (0 Bft) NO 46 ° 0 min 0,000 mm 1,4 UV-I 176 W/m² 3,8 °C 6,5 °C 1,6 km/h (1 Bft)
11.04.2017 13:15 6,5 °C 6,5 °C 83 % 1022,2 hPa 0,0 mm 0,3 km/h (0 Bft) NO 46 ° 0 min 0,000 mm 1,4 UV-I 174 W/m² 3,8 °C 6,5 °C 1,6 km/h (1 Bft)
11.04.2017 13:16 6,5 °C 6,5 °C 84 % 1022,2 hPa 0,0 mm 2,4 km/h (1 Bft) NO 46 ° 0 min 0,000 mm 1,3 UV-I 163 W/m² 4,0 °C 6,5 °C 3,2 km/h (1 Bft)
11.04.2017 13:17 6,6 °C 6,6 °C 84 % 1022,2 hPa 0,0 mm 1,1 km/h (1 Bft) NO 47 ° 0 min 0,000 mm 1,2 UV-I 127 W/m² 4,1 °C 6,6 °C 3,2 km/h (1 Bft)
11.04.2017 13:18 6,6 °C 6,6 °C 85 % 1022,2 hPa 0,0 mm 2,9 km/h (1 Bft) NO 47 ° 0 min 0,000 mm 1,0 UV-I 116 W/m² 4,3 °C 6,6 °C 4,8 km/h (1 Bft)
11.04.2017 13:19 6,6 °C 6,6 °C 84 % 1022,3 hPa 0,0 mm 2,9 km/h (1 Bft) NO 34 ° 0 min 0,000 mm 0,9 UV-I 111 W/m² 4,1 °C 6,6 °C 6,4 km/h (2 Bft)
11.04.2017 13:20 6,6 °C 6,6 °C 84 % 1022,3 hPa 0,0 mm 4,2 km/h (1 Bft) NO 39 ° 0 min 0,000 mm 0,9 UV-I 104 W/m² 4,1 °C 6,6 °C 6,4 km/h (2 Bft)
11.04.2017 13:21 6,6 °C 6,6 °C 84 % 1022,3 hPa 0,0 mm 1,3 km/h (1 Bft) NO 40 ° 0 min 0,000 mm 0,8 UV-I 97 W/m² 4,1 °C 6,6 °C 3,2 km/h (1 Bft)
11.04.2017 13:22 6,6 °C 6,6 °C 83 % 1022,3 hPa 0,0 mm 2,8 km/h (1 Bft) NO 53 ° 0 min 0,000 mm 0,8 UV-I 90 W/m² 3,9 °C 6,6 °C 4,8 km/h (1 Bft)
11.04.2017 13:23 6,4 °C 6,6 °C 83 % 1022,2 hPa 0,0 mm 1,0 km/h (0 Bft) NO 53 ° 0 min 0,000 mm 0,7 UV-I 83 W/m² 3,7 °C 6,4 °C 1,6 km/h (1 Bft)
11.04.2017 13:24 6,4 °C 6,4 °C 83 % 1022,2 hPa 0,0 mm 0,9 km/h (0 Bft) NO 53 ° 0 min 0,000 mm 0,8 UV-I 83 W/m² 3,7 °C 6,4 °C 3,2 km/h (1 Bft)
11.04.2017 13:25 6,4 °C 6,4 °C 84 % 1022,2 hPa 0,0 mm 0,6 km/h (0 Bft) NO 53 ° 0 min 0,000 mm 0,8 UV-I 84 W/m² 3,9 °C 6,4 °C 3,2 km/h (1 Bft)
11.04.2017 13:26 6,5 °C 6,5 °C 84 % 1022,2 hPa 0,0 mm 2,2 km/h (1 Bft) NO 53 ° 0 min 0,000 mm 0,8 UV-I 88 W/m² 4,0 °C 6,5 °C 4,8 km/h (1 Bft)
11.04.2017 13:27 6,5 °C 6,5 °C 84 % 1022,2 hPa 0,0 mm 3,5 km/h (1 Bft) NO 38 ° 0 min 0,000 mm 0,8 UV-I 90 W/m² 4,0 °C 6,5 °C 6,4 km/h (2 Bft)
11.04.2017 13:28 6,5 °C 6,5 °C 83 % 1022,1 hPa 0,0 mm 1,7 km/h (1 Bft) NO 38 ° 0 min 0,000 mm 0,8 UV-I 91 W/m² 3,8 °C 6,5 °C 3,2 km/h (1 Bft)
11.04.2017 13:29 6,5 °C 6,5 °C 83 % 1022,2 hPa 0,0 mm 0,0 km/h (0 Bft) NO 45 ° 0 min 0,000 mm 0,8 UV-I 98 W/m² 3,8 °C 6,5 °C 1,6 km/h (1 Bft)
11.04.2017 13:30 6,5 °C 6,5 °C 83 % 1022,1 hPa 0,0 mm 3,2 km/h (1 Bft) NO 45 ° 0 min 0,000 mm 0,9 UV-I 100 W/m² 3,8 °C 6,5 °C 6,4 km/h (2 Bft)
11.04.2017 13:32 6,6 °C 6,6 °C 84 % 1022,1 hPa 0,0 mm 2,7 km/h (1 Bft) N-NO 26 ° 0 min 0,000 mm 0,9 UV-I 97 W/m² 4,1 °C 6,6 °C 3,2 km/h (1 Bft)
11.04.2017 13:33 6,6 °C 6,6 °C 84 % 1022,1 hPa 0,0 mm 1,3 km/h (1 Bft) N-NO 26 ° 0 min 0,000 mm 0,9 UV-I 98 W/m² 4,1 °C 6,6 °C 3,2 km/h (1 Bft)
11.04.2017 13:34 6,7 °C 6,7 °C 83 % 1022,1 hPa 0,0 mm 2,7 km/h (1 Bft) N-NO 26 ° 0 min 0,000 mm 1,0 UV-I 121 W/m² 4,0 °C 6,7 °C 4,8 km/h (1 Bft)
11.04.2017 13:35 6,6 °C 6,7 °C 83 % 1022,1 hPa 0,0 mm 2,3 km/h (1 Bft) N-NO 26 ° 0 min 0,000 mm 1,1 UV-I 135 W/m² 3,9 °C 6,6 °C 3,2 km/h (1 Bft)
11.04.2017 13:36 6,6 °C 6,6 °C 83 % 1022,0 hPa 0,0 mm 2,4 km/h (1 Bft) N-NO 26 ° 0 min 0,000 mm 1,2 UV-I 148 W/m² 3,9 °C 6,6 °C 3,2 km/h (1 Bft)
11.04.2017 13:37 6,6 °C 6,6 °C 83 % 1022,1 hPa 0,0 mm 1,2 km/h (1 Bft) N-NO 26 ° 0 min 0,000 mm 1,3 UV-I 158 W/m² 3,9 °C 6,6 °C 3,2 km/h (1 Bft)
11.04.2017 13:38 6,6 °C 6,6 °C 84 % 1022,1 hPa 0,0 mm 2,8 km/h (1 Bft) N-NO 26 ° 0 min 0,000 mm 1,3 UV-I 162 W/m² 4,1 °C 6,6 °C 3,2 km/h (1 Bft)
11.04.2017 13:39 6,7 °C 6,7 °C 84 % 1022,1 hPa 0,0 mm 2,1 km/h (1 Bft) N-NO 26 ° 0 min 0,000 mm 1,3 UV-I 156 W/m² 4,2 °C 6,7 °C 3,2 km/h (1 Bft)
11.04.2017 13:40 6,7 °C 6,7 °C 84 % 1022,0 hPa 0,0 mm 0,3 km/h (0 Bft) N-NO 26 ° 0 min 0,000 mm 1,3 UV-I 149 W/m² 4,2 °C 6,7 °C 1,6 km/h (1 Bft)
11.04.2017 13:41 6,7 °C 6,7 °C 84 % 1022,1 hPa 0,0 mm 0,5 km/h (0 Bft) N-NO 26 ° 0 min 0,000 mm 1,4 UV-I 156 W/m² 4,2 °C 6,7 °C 3,2 km/h (1 Bft)
11.04.2017 13:42 6,7 °C 6,7 °C 83 % 1022,0 hPa 0,0 mm 0,1 km/h (0 Bft) N-NO 26 ° 0 min 0,000 mm 1,5 UV-I 169 W/m² 4,0 °C 6,7 °C 1,6 km/h (1 Bft)
11.04.2017 13:43 6,7 °C 6,7 °C 83 % 1022,0 hPa 0,0 mm 0,0 km/h (0 Bft) N-NO 22 ° 0 min 0,000 mm 1,7 UV-I 188 W/m² 4,0 °C 6,7 °C 1,6 km/h (1 Bft)
11.04.2017 13:44 6,7 °C 6,7 °C 83 % 1022,0 hPa 0,0 mm 3,2 km/h (1 Bft) N-NO 22 ° 0 min 0,000 mm 1,8 UV-I 206 W/m² 4,0 °C 6,7 °C 6,4 km/h (2 Bft)
11.04.2017 13:45 6,7 °C 6,7 °C 83 % 1021,9 hPa 0,0 mm 3,2 km/h (1 Bft) N-NO 22 ° 0 min 0,000 mm 1,9 UV-I 213 W/m² 4,0 °C 6,7 °C 4,8 km/h (1 Bft)
11.04.2017 13:46 6,7 °C 6,8 °C 83 % 1021,9 hPa 0,0 mm 3,2 km/h (1 Bft) N-NO 22 ° 0 min 0,000 mm 1,9 UV-I 214 W/m² 4,0 °C 6,7 °C 4,8 km/h (1 Bft)
11.04.2017 13:47 6,8 °C 6,8 °C 83 % 1022,0 hPa 0,0 mm 1,6 km/h (1 Bft) N-NO 22 ° 0 min 0,000 mm 1,9 UV-I 216 W/m² 4,1 °C 6,8 °C 3,2 km/h (1 Bft)
11.04.2017 13:48 6,7 °C 6,7 °C 83 % 1022,0 hPa 0,0 mm 1,6 km/h (1 Bft) O-NO 67 ° 0 min 0,000 mm 1,8 UV-I 214 W/m² 4,0 °C 6,7 °C 3,2 km/h (1 Bft)
11.04.2017 13:49 6,7 °C 6,7 °C 83 % 1022,0 hPa 0,0 mm 0,0 km/h (0 Bft) O-NO 67 ° 0 min 0,000 mm 1,7 UV-I 207 W/m² 4,0 °C 6,7 °C 3,2 km/h (1 Bft)
11.04.2017 13:50 6,7 °C 6,7 °C 83 % 1022,0 hPa 0,0 mm 1,6 km/h (1 Bft) O-NO 67 ° 0 min 0,000 mm 1,6 UV-I 200 W/m² 4,0 °C 6,7 °C 4,8 km/h (1 Bft)
11.04.2017 13:51 6,8 °C 6,8 °C 83 % 1022,0 hPa 0,0 mm 3,2 km/h (1 Bft) O-NO 67 ° 0 min 0,000 mm 1,5 UV-I 192 W/m² 4,1 °C 6,8 °C 4,8 km/h (1 Bft)
11.04.2017 13:52 6,8 °C 6,8 °C 83 % 1022,0 hPa 0,0 mm 3,2 km/h (1 Bft) O-NO 67 ° 0 min 0,000 mm 1,4 UV-I 186 W/m² 4,1 °C 6,8 °C 4,8 km/h (1 Bft)
11.04.2017 13:53 6,8 °C 6,8 °C 83 % 1022,0 hPa 0,0 mm 3,2 km/h (1 Bft) O-NO 67 ° 0 min 0,000 mm 1,3 UV-I 151 W/m² 4,1 °C 6,8 °C 3,2 km/h (1 Bft)
11.04.2017 13:54 6,9 °C 6,9 °C 83 % 1022,0 hPa 0,0 mm 1,6 km/h (1 Bft) O-NO 67 ° 0 min 0,000 mm 1,2 UV-I 137 W/m² 4,2 °C 6,9 °C 4,8 km/h (1 Bft)
11.04.2017 13:56 6,8 °C 6,9 °C 82 % 1022,0 hPa 0,0 mm 3,4 km/h (1 Bft) O-NO 68 ° 0 min 0,000 mm 1,2 UV-I 146 W/m² 3,9 °C 6,8 °C 4,8 km/h (1 Bft)
11.04.2017 13:57 6,8 °C 6,8 °C 82 % 1022,0 hPa 0,0 mm 2,3 km/h (1 Bft) O-NO 68 ° 0 min 0,000 mm 1,3 UV-I 156 W/m² 3,9 °C 6,8 °C 4,8 km/h (1 Bft)
11.04.2017 13:58 6,7 °C 6,8 °C 83 % 1022,0 hPa 0,0 mm 3,1 km/h (1 Bft) O-NO 68 ° 0 min 0,000 mm 1,3 UV-I 165 W/m² 4,0 °C 6,7 °C 4,8 km/h (1 Bft)
11.04.2017 13:59 6,7 °C 6,7 °C 83 % 1022,0 hPa 0,0 mm 2,9 km/h (1 Bft) O-NO 68 ° 0 min 0,000 mm 1,4 UV-I 174 W/m² 4,0 °C 6,7 °C 4,8 km/h (1 Bft)
11.04.2017 14:00 6,7 °C 6,7 °C 83 % 1022,0 hPa 0,0 mm 0,2 km/h (0 Bft) O-NO 68 ° 0 min 0,000 mm 1,5 UV-I 174 W/m² 4,0 °C 6,7 °C 1,6 km/h (1 Bft)
11.04.2017 14:01 6,7 °C 6,8 °C 82 % 1022,0 hPa 0,0 mm 0,0 km/h (0 Bft) O-NO 68 ° 0 min 0,051 mm 1,5 UV-I 197 W/m² 3,8 °C 6,7 °C 0,0 km/h (0 Bft)
11.04.2017 14:02 6,8 °C 6,8 °C 84 % 1022,0 hPa 0,0 mm 0,1 km/h (0 Bft) O-NO 68 ° 0 min 0,000 mm 1,6 UV-I 199 W/m² 4,3 °C 6,8 °C 1,6 km/h (1 Bft)
11.04.2017 14:03 6,8 °C 6,9 °C 83 % 1022,0 hPa 0,0 mm 3,4 km/h (1 Bft) O-NO 67 ° 0 min 0,000 mm 1,6 UV-I 200 W/m² 4,1 °C 6,8 °C 4,8 km/h (1 Bft)
11.04.2017 14:04 6,8 °C 6,9 °C 82 % 1022,0 hPa 0,0 mm 3,3 km/h (1 Bft) O-NO 66 ° 0 min 0,000 mm 1,6 UV-I 195 W/m² 3,9 °C 6,8 °C 4,8 km/h (1 Bft)
11.04.2017 14:05 6,8 °C 6,8 °C 82 % 1022,0 hPa 0,0 mm 1,7 km/h (1 Bft) O-NO 66 ° 0 min 0,000 mm 1,6 UV-I 204 W/m² 3,9 °C 6,8 °C 3,2 km/h (1 Bft)
11.04.2017 14:06 6,8 °C 6,8 °C 82 % 1022,0 hPa 0,0 mm 1,6 km/h (1 Bft) O-NO 67 ° 0 min 0,000 mm 1,8 UV-I 221 W/m² 3,9 °C 6,8 °C 3,2 km/h (1 Bft)
11.04.2017 14:07 6,8 °C 6,8 °C 82 % 1021,9 hPa 0,0 mm 1,6 km/h (1 Bft) O-NO 67 ° 0 min 0,000 mm 1,9 UV-I 236 W/m² 3,9 °C 6,8 °C 3,2 km/h (1 Bft)
11.04.2017 14:08 6,9 °C 6,9 °C 83 % 1021,9 hPa 0,0 mm 3,2 km/h (1 Bft) O-NO 67 ° 0 min 0,000 mm 1,9 UV-I 237 W/m² 4,2 °C 6,9 °C 4,8 km/h (1 Bft)
11.04.2017 14:09 6,9 °C 6,9 °C 83 % 1021,9 hPa 0,0 mm 1,6 km/h (1 Bft) NO 45 ° 0 min 0,000 mm 1,8 UV-I 225 W/m² 4,2 °C 6,9 °C 3,2 km/h (1 Bft)
11.04.2017 14:10 7,1 °C 7,1 °C 82 % 1022,0 hPa 0,0 mm 3,2 km/h (1 Bft) NO 45 ° 0 min 0,000 mm 1,7 UV-I 211 W/m² 4,2 °C 7,1 °C 4,8 km/h (1 Bft)
11.04.2017 14:11 7,1 °C 7,1 °C 82 % 1022,0 hPa 0,0 mm 3,2 km/h (1 Bft) N-NO 22 ° 0 min 0,000 mm 1,6 UV-I 185 W/m² 4,2 °C 7,1 °C 4,8 km/h (1 Bft)
11.04.2017 14:13 7,1 °C 7,1 °C 83 % 1022,0 hPa 0,0 mm 3,0 km/h (1 Bft) N-NO 15 ° 0 min 0,000 mm 1,6 UV-I 195 W/m² 4,4 °C 7,1 °C 3,2 km/h (1 Bft)
11.04.2017 14:14 7,0 °C 7,1 °C 82 % 1022,0 hPa 0,0 mm 2,1 km/h (1 Bft) N-NO 15 ° 0 min 0,000 mm 1,6 UV-I 202 W/m² 4,1 °C 7,0 °C 4,8 km/h (1 Bft)
11.04.2017 14:15 7,0 °C 7,0 °C 81 % 1022,0 hPa 0,0 mm 0,1 km/h (0 Bft) N-NO 15 ° 0 min 0,000 mm 1,6 UV-I 185 W/m² 4,0 °C 7,0 °C 1,6 km/h (1 Bft)
11.04.2017 14:16 7,1 °C 7,1 °C 83 % 1022,0 hPa 0,0 mm 0,0 km/h (0 Bft) N-NO 15 ° 0 min 0,000 mm 1,4 UV-I 167 W/m² 4,4 °C 7,1 °C 0,0 km/h (0 Bft)
11.04.2017 14:17 7,1 °C 7,1 °C 83 % 1021,9 hPa 0,0 mm 1,0 km/h (0 Bft) N-NW 330 ° 0 min 0,000 mm 1,3 UV-I 153 W/m² 4,4 °C 7,1 °C 3,2 km/h (1 Bft)
11.04.2017 14:18 7,2 °C 7,2 °C 83 % 1022,0 hPa 0,0 mm 1,9 km/h (1 Bft) N-NW 346 ° 0 min 0,000 mm 1,2 UV-I 148 W/m² 4,5 °C 7,2 °C 3,2 km/h (1 Bft)
11.04.2017 14:19 7,2 °C 7,2 °C 82 % 1022,0 hPa 0,0 mm 0,3 km/h (0 Bft) N-NW 346 ° 0 min 0,000 mm 1,2 UV-I 148 W/m² 4,3 °C 7,2 °C 1,6 km/h (1 Bft)
11.04.2017 14:20 7,1 °C 7,2 °C 82 % 1022,1 hPa 0,0 mm 1,9 km/h (1 Bft) N-NW 346 ° 0 min 0,000 mm 1,2 UV-I 146 W/m² 4,2 °C 7,1 °C 3,2 km/h (1 Bft)
11.04.2017 14:21 7,1 °C 7,1 °C 82 % 1022,0 hPa 0,0 mm 1,1 km/h (1 Bft) N-NW 346 ° 0 min 0,000 mm 1,2 UV-I 141 W/m² 4,2 °C 7,1 °C 3,2 km/h (1 Bft)
11.04.2017 14:22 7,1 °C 7,1 °C 81 % 1022,0 hPa 0,0 mm 1,0 km/h (0 Bft) N-NW 346 ° 0 min 0,000 mm 1,2 UV-I 146 W/m² 4,1 °C 7,1 °C 3,2 km/h (1 Bft)
11.04.2017 14:23 6,9 °C 7,1 °C 81 % 1022,0 hPa 0,0 mm 1,0 km/h (0 Bft) N-NW 346 ° 0 min 0,000 mm 1,2 UV-I 153 W/m² 3,9 °C 6,9 °C 1,6 km/h (1 Bft)
11.04.2017 14:24 6,9 °C 6,9 °C 81 % 1021,9 hPa 0,0 mm 0,0 km/h (0 Bft) N-NW 346 ° 0 min 0,000 mm 1,2 UV-I 160 W/m² 3,9 °C 6,9 °C 0,0 km/h (0 Bft)
11.04.2017 14:25 6,9 °C 6,9 °C 82 % 1022,0 hPa 0,0 mm 0,0 km/h (0 Bft) N-NW 346 ° 0 min 0,000 mm 1,3 UV-I 167 W/m² 4,0 °C 6,9 °C 0,0 km/h (0 Bft)
11.04.2017 14:26 6,8 °C 6,9 °C 82 % 1021,9 hPa 0,0 mm 0,0 km/h (0 Bft) N-NW 346 ° 0 min 0,000 mm 1,3 UV-I 174 W/m² 3,9 °C 6,8 °C 0,0 km/h (0 Bft)
11.04.2017 14:27 6,9 °C 6,9 °C 82 % 1021,9 hPa 0,0 mm 0,0 km/h (0 Bft) N-NW 346 ° 0 min 0,000 mm 1,4 UV-I 197 W/m² 4,0 °C 6,9 °C 0,0 km/h (0 Bft)
11.04.2017 14:28 6,9 °C 6,9 °C 83 % 1021,9 hPa 0,0 mm 0,0 km/h (0 Bft) N-NW 346 ° 0 min 0,000 mm 1,5 UV-I 202 W/m² 4,2 °C 6,9 °C 0,0 km/h (0 Bft)
11.04.2017 14:29 7,0 °C 7,0 °C 83 % 1021,9 hPa 0,0 mm 0,0 km/h (0 Bft) N-NW 346 ° 0 min 0,000 mm 1,5 UV-I 204 W/m² 4,3 °C 7,0 °C 0,0 km/h (0 Bft)
11.04.2017 14:30 7,1 °C 7,1 °C 83 % 1021,9 hPa 0,0 mm 0,2 km/h (0 Bft) N-NW 346 ° 0 min 0,000 mm 1,5 UV-I 204 W/m² 4,4 °C 7,1 °C 3,2 km/h (1 Bft)
11.04.2017 14:31 7,2 °C 7,2 °C 82 % 1021,8 hPa 0,0 mm 2,3 km/h (1 Bft) N-NW 346 ° 0 min 0,000 mm 1,4 UV-I 197 W/m² 4,3 °C 7,2 °C 3,2 km/h (1 Bft)
11.04.2017 14:32 7,2 °C 7,2 °C 82 % 1021,9 hPa 0,0 mm 0,6 km/h (0 Bft) N-NW 346 ° 0 min 0,000 mm 1,4 UV-I 192 W/m² 4,3 °C 7,2 °C 3,2 km/h (1 Bft)
11.04.2017 14:33 7,3 °C 7,3 °C 82 % 1021,9 hPa 0,0 mm 2,1 km/h (1 Bft) N-NW 346 ° 0 min 0,000 mm 1,4 UV-I 190 W/m² 4,4 °C 7,3 °C 3,2 km/h (1 Bft)
11.04.2017 14:34 7,3 °C 7,3 °C 81 % 1021,9 hPa 0,0 mm 3,1 km/h (1 Bft) N-NW 346 ° 0 min 0,000 mm 1,4 UV-I 186 W/m² 4,3 °C 7,3 °C 4,8 km/h (1 Bft)
11.04.2017 14:35 7,2 °C 7,3 °C 81 % 1021,9 hPa 0,0 mm 1,3 km/h (1 Bft) N-NW 346 ° 0 min 0,000 mm 1,4 UV-I 188 W/m² 4,2 °C 7,2 °C 3,2 km/h (1 Bft)
11.04.2017 14:36 7,3 °C 7,3 °C 81 % 1021,9 hPa 0,0 mm 2,1 km/h (1 Bft) N-NW 346 ° 0 min 0,000 mm 1,4 UV-I 185 W/m² 4,3 °C 7,3 °C 3,2 km/h (1 Bft)
11.04.2017 14:37 7,2 °C 7,3 °C 81 % 1021,9 hPa 0,0 mm 2,0 km/h (1 Bft) N-NW 346 ° 0 min 0,000 mm 1,4 UV-I 179 W/m² 4,2 °C 7,2 °C 3,2 km/h (1 Bft)
11.04.2017 14:38 7,2 °C 7,2 °C 81 % 1021,9 hPa 0,0 mm 0,7 km/h (0 Bft) N-NW 346 ° 0 min 0,000 mm 1,4 UV-I 181 W/m² 4,2 °C 7,2 °C 1,6 km/h (1 Bft)
11.04.2017 14:39 7,1 °C 7,2 °C 81 % 1021,8 hPa 0,0 mm 1,3 km/h (1 Bft) N-NW 346 ° 0 min 0,000 mm 1,4 UV-I 190 W/m² 4,1 °C 7,1 °C 3,2 km/h (1 Bft)
11.04.2017 14:40 7,1 °C 7,1 °C 81 % 1021,8 hPa 0,0 mm 2,0 km/h (1 Bft) N-NO 20 ° 0 min 0,000 mm 1,3 UV-I 172 W/m² 4,1 °C 7,1 °C 3,2 km/h (1 Bft)
11.04.2017 14:41 7,1 °C 7,2 °C 82 % 1021,9 hPa 0,0 mm 1,7 km/h (1 Bft) N-NO 20 ° 0 min 0,000 mm 1,3 UV-I 160 W/m² 4,2 °C 7,1 °C 3,2 km/h (1 Bft)
11.04.2017 14:42 7,2 °C 7,2 °C 82 % 1021,8 hPa 0,0 mm 1,8 km/h (1 Bft) NO 36 ° 0 min 0,000 mm 1,2 UV-I 148 W/m² 4,3 °C 7,2 °C 4,8 km/h (1 Bft)
11.04.2017 14:43 7,1 °C 7,2 °C 81 % 1021,9 hPa 0,0 mm 4,3 km/h (1 Bft) O-NO 62 ° 0 min 0,000 mm 1,1 UV-I 141 W/m² 4,1 °C 7,1 °C 6,4 km/h (2 Bft)
11.04.2017 14:44 7,1 °C 7,1 °C 81 % 1021,9 hPa 0,0 mm 3,9 km/h (1 Bft) O-NO 69 ° 0 min 0,000 mm 1,1 UV-I 144 W/m² 4,1 °C 7,1 °C 4,8 km/h (1 Bft)
11.04.2017 14:45 7,0 °C 7,1 °C 81 % 1021,9 hPa 0,0 mm 2,7 km/h (1 Bft) O-NO 69 ° 0 min 0,000 mm 1,2 UV-I 171 W/m² 4,0 °C 7,0 °C 3,2 km/h (1 Bft)
11.04.2017 14:46 7,1 °C 7,1 °C 82 % 1021,9 hPa 0,0 mm 1,0 km/h (0 Bft) O-NO 69 ° 0 min 0,000 mm 1,4 UV-I 188 W/m² 4,2 °C 7,1 °C 1,6 km/h (1 Bft)
11.04.2017 14:47 7,1 °C 7,1 °C 83 % 1021,9 hPa 0,0 mm 0,9 km/h (0 Bft) O-NO 69 ° 0 min 0,000 mm 1,5 UV-I 199 W/m² 4,4 °C 7,1 °C 1,6 km/h (1 Bft)
11.04.2017 14:48 7,2 °C 7,2 °C 81 % 1021,9 hPa 0,0 mm 0,1 km/h (0 Bft) O-NO 69 ° 0 min 0,000 mm 1,5 UV-I 193 W/m² 4,2 °C 7,2 °C 1,6 km/h (1 Bft)
11.04.2017 14:49 7,2 °C 7,2 °C 81 % 1021,9 hPa 0,0 mm 0,7 km/h (0 Bft) O-NO 69 ° 0 min 0,000 mm 1,5 UV-I 186 W/m² 4,2 °C 7,2 °C 1,6 km/h (1 Bft)
11.04.2017 14:50 7,2 °C 7,2 °C 81 % 1021,9 hPa 0,0 mm 0,3 km/h (0 Bft) O-NO 69 ° 0 min 0,000 mm 1,4 UV-I 195 W/m² 4,2 °C 7,2 °C 1,6 km/h (1 Bft)
11.04.2017 14:51 7,2 °C 7,2 °C 81 % 1021,9 hPa 0,0 mm 1,3 km/h (1 Bft) O-NO 69 ° 0 min 0,000 mm 1,5 UV-I 213 W/m² 4,2 °C 7,2 °C 3,2 km/h (1 Bft)
11.04.2017 14:52 7,2 °C 7,2 °C 81 % 1021,8 hPa 0,0 mm 0,3 km/h (0 Bft) O-NO 69 ° 0 min 0,000 mm 1,8 UV-I 239 W/m² 4,2 °C 7,2 °C 1,6 km/h (1 Bft)
11.04.2017 14:53 7,2 °C 7,2 °C 81 % 1021,8 hPa 0,0 mm 1,0 km/h (0 Bft) O-NO 69 ° 0 min 0,000 mm 2,1 UV-I 281 W/m² 4,2 °C 7,2 °C 1,6 km/h (1 Bft)
11.04.2017 14:54 7,2 °C 7,2 °C 81 % 1021,7 hPa 0,0 mm 0,7 km/h (0 Bft) O-NO 69 ° 1 min 0,000 mm 2,3 UV-I 320 W/m² 4,2 °C 7,2 °C 1,6 km/h (1 Bft)
11.04.2017 14:55 7,3 °C 7,3 °C 82 % 1021,8 hPa 0,0 mm 0,1 km/h (0 Bft) O-NO 69 ° 1 min 0,000 mm 2,4 UV-I 329 W/m² 4,4 °C 7,3 °C 1,6 km/h (1 Bft)
11.04.2017 14:56 7,3 °C 7,3 °C 81 % 1021,7 hPa 0,0 mm 0,0 km/h (0 Bft) O-NO 69 ° 1 min 0,000 mm 2,4 UV-I 329 W/m² 4,3 °C 7,3 °C 0,0 km/h (0 Bft)
11.04.2017 14:57 7,3 °C 7,3 °C 81 % 1021,8 hPa 0,0 mm 0,0 km/h (0 Bft) O-NO 69 ° 1 min 0,000 mm 2,4 UV-I 346 W/m² 4,3 °C 7,3 °C 0,0 km/h (0 Bft)
11.04.2017 14:58 7,4 °C 7,4 °C 80 % 1021,8 hPa 0,0 mm 0,0 km/h (0 Bft) O-NO 69 ° 1 min 0,000 mm 2,7 UV-I 373 W/m² 4,2 °C 7,4 °C 0,0 km/h (0 Bft)
11.04.2017 14:59 7,5 °C 7,5 °C 81 % 1021,8 hPa 0,0 mm 0,4 km/h (0 Bft) O-NO 69 ° 1 min 0,000 mm 2,8 UV-I 380 W/m² 4,5 °C 7,5 °C 3,2 km/h (1 Bft)
11.04.2017 15:00 7,6 °C 7,6 °C 82 % 1021,8 hPa 0,0 mm 3,1 km/h (1 Bft) O-NO 69 ° 1 min 0,101 mm 2,9 UV-I 390 W/m² 4,7 °C 7,6 °C 4,8 km/h (1 Bft)
11.04.2017 15:01 7,7 °C 7,7 °C 81 % 1021,8 hPa 0,0 mm 3,4 km/h (1 Bft) NO 53 ° 1 min 0,000 mm 3,3 UV-I 459 W/m² 4,7 °C 7,7 °C 4,8 km/h (1 Bft)
11.04.2017 15:02 7,6 °C 7,7 °C 80 % 1021,8 hPa 0,0 mm 2,3 km/h (1 Bft) NO 53 ° 1 min 0,000 mm 3,2 UV-I 413 W/m² 4,4 °C 7,6 °C 4,8 km/h (1 Bft)
11.04.2017 15:03 7,7 °C 7,7 °C 81 % 1021,7 hPa 0,0 mm 2,0 km/h (1 Bft) NO 53 ° 1 min 0,000 mm 3,0 UV-I 399 W/m² 4,7 °C 7,7 °C 4,8 km/h (1 Bft)
11.04.2017 15:04 7,7 °C 7,7 °C 80 % 1021,7 hPa 0,0 mm 1,4 km/h (1 Bft) NO 53 ° 1 min 0,000 mm 3,7 UV-I 399 W/m² 4,5 °C 7,7 °C 3,2 km/h (1 Bft)
11.04.2017 15:05 7,8 °C 7,8 °C 82 % 1021,7 hPa 0,0 mm 0,5 km/h (0 Bft) NO 53 ° 1 min 0,000 mm 4,1 UV-I 399 W/m² 4,9 °C 7,8 °C 1,6 km/h (1 Bft)
11.04.2017 15:06 7,9 °C 7,9 °C 82 % 1021,7 hPa 0,0 mm 0,5 km/h (0 Bft) NO 53 ° 1 min 0,000 mm 3,2 UV-I 399 W/m² 5,0 °C 7,9 °C 1,6 km/h (1 Bft)
11.04.2017 15:07 8,1 °C 8,1 °C 79 % 1021,7 hPa 0,0 mm 2,8 km/h (1 Bft) NO 51 ° 1 min 0,000 mm 3,2 UV-I 459 W/m² 4,7 °C 8,1 °C 4,8 km/h (1 Bft)
11.04.2017 15:08 8,2 °C 8,2 °C 79 % 1021,7 hPa 0,0 mm 4,1 km/h (1 Bft) NO 37 ° 1 min 0,000 mm 3,2 UV-I 459 W/m² 4,8 °C 8,2 °C 6,4 km/h (2 Bft)
11.04.2017 15:09 8,2 °C 8,2 °C 79 % 1021,8 hPa 0,0 mm 2,6 km/h (1 Bft) NO 37 ° 1 min 0,000 mm 2,9 UV-I 397 W/m² 4,8 °C 8,2 °C 4,8 km/h (1 Bft)
11.04.2017 15:10 8,0 °C 8,2 °C 78 % 1021,7 hPa 0,0 mm 1,6 km/h (1 Bft) NO 37 ° 1 min 0,000 mm 3,0 UV-I 424 W/m² 4,4 °C 8,0 °C 3,2 km/h (1 Bft)
11.04.2017 15:11 8,1 °C 8,1 °C 80 % 1021,7 hPa 0,0 mm 3,8 km/h (1 Bft) NO 53 ° 1 min 0,000 mm 3,1 UV-I 424 W/m² 4,9 °C 8,1 °C 6,4 km/h (2 Bft)
11.04.2017 15:12 8,1 °C 8,1 °C 79 % 1021,7 hPa 0,0 mm 3,5 km/h (1 Bft) O 91 ° 1 min 0,000 mm 3,3 UV-I 424 W/m² 4,7 °C 8,1 °C 4,8 km/h (1 Bft)
11.04.2017 15:13 8,1 °C 8,1 °C 79 % 1021,7 hPa 0,0 mm 3,2 km/h (1 Bft) O 90 ° 1 min 0,000 mm 3,2 UV-I 424 W/m² 4,7 °C 8,1 °C 4,8 km/h (1 Bft)
11.04.2017 15:14 8,1 °C 8,1 °C 78 % 1021,7 hPa 0,0 mm 2,5 km/h (1 Bft) O 90 ° 1 min 0,000 mm 3,3 UV-I 533 W/m² 4,5 °C 8,1 °C 3,2 km/h (1 Bft)
11.04.2017 15:15 8,2 °C 8,2 °C 79 % 1021,7 hPa 0,0 mm 4,4 km/h (1 Bft) O-NO 58 ° 1 min 0,000 mm 4,0 UV-I 533 W/m² 4,8 °C 8,2 °C 6,4 km/h (2 Bft)
11.04.2017 15:16 8,3 °C 8,3 °C 79 % 1021,6 hPa 0,0 mm 4,5 km/h (1 Bft) O-NO 65 ° 1 min 0,000 mm 4,0 UV-I 754 W/m² 4,9 °C 8,3 °C 6,4 km/h (2 Bft)
11.04.2017 15:17 8,4 °C 8,4 °C 76 % 1021,7 hPa 0,0 mm 7,2 km/h (2 Bft) N-NO 13 ° 1 min 0,000 mm 3,7 UV-I 754 W/m² 4,4 °C 7,3 °C 11,3 km/h (2 Bft)
11.04.2017 15:18 8,3 °C 8,4 °C 78 % 1021,7 hPa 0,0 mm 3,6 km/h (1 Bft) O-NO 63 ° 1 min 0,000 mm 3,8 UV-I 754 W/m² 4,7 °C 8,3 °C 8,0 km/h (2 Bft)
11.04.2017 15:19 8,3 °C 8,3 °C 79 % 1021,6 hPa 0,0 mm 3,8 km/h (1 Bft) O-NO 63 ° 1 min 0,000 mm 4,1 UV-I 754 W/m² 4,9 °C 8,3 °C 4,8 km/h (1 Bft)
11.04.2017 15:20 8,2 °C 8,3 °C 78 % 1021,7 hPa 0,0 mm 3,3 km/h (1 Bft) O-NO 77 ° 1 min 0,000 mm 4,0 UV-I 758 W/m² 4,6 °C 8,2 °C 4,8 km/h (1 Bft)
11.04.2017 15:21 8,2 °C 8,2 °C 78 % 1021,6 hPa 0,0 mm 3,2 km/h (1 Bft) O 86 ° 1 min 0,000 mm 4,0 UV-I 737 W/m² 4,6 °C 8,2 °C 4,8 km/h (1 Bft)
11.04.2017 15:22 8,4 °C 8,4 °C 80 % 1021,6 hPa 0,0 mm 2,0 km/h (1 Bft) O 86 ° 1 min 0,000 mm 3,2 UV-I 737 W/m² 5,2 °C 8,4 °C 3,2 km/h (1 Bft)
11.04.2017 15:23 8,6 °C 8,6 °C 80 % 1021,6 hPa 0,0 mm 5,0 km/h (1 Bft) O-NO 74 ° 1 min 0,000 mm 3,5 UV-I 619 W/m² 5,3 °C 8,2 °C 6,4 km/h (2 Bft)
11.04.2017 15:24 8,6 °C 8,7 °C 78 % 1021,6 hPa 0,0 mm 4,4 km/h (1 Bft) O 90 ° 1 min 0,000 mm 3,8 UV-I 657 W/m² 5,0 °C 8,6 °C 6,4 km/h (2 Bft)
11.04.2017 15:25 8,6 °C 8,6 °C 77 % 1021,6 hPa 0,0 mm 2,9 km/h (1 Bft) O-NO 60 ° 1 min 0,000 mm 3,7 UV-I 654 W/m² 4,8 °C 8,6 °C 4,8 km/h (1 Bft)
11.04.2017 15:26 8,7 °C 8,7 °C 78 % 1021,6 hPa 0,0 mm 2,3 km/h (1 Bft) O-NO 59 ° 1 min 0,000 mm 3,1 UV-I 654 W/m² 5,1 °C 8,7 °C 3,2 km/h (1 Bft)
11.04.2017 15:27 8,8 °C 8,8 °C 77 % 1021,6 hPa 0,0 mm 1,1 km/h (1 Bft) O-NO 59 ° 1 min 0,000 mm 3,4 UV-I 654 W/m² 5,0 °C 8,8 °C 3,2 km/h (1 Bft)
11.04.2017 15:28 8,9 °C 8,9 °C 78 % 1021,6 hPa 0,0 mm 1,9 km/h (1 Bft) N-NW 330 ° 1 min 0,000 mm 2,7 UV-I 654 W/m² 5,3 °C 8,9 °C 3,2 km/h (1 Bft)
11.04.2017 15:29 8,9 °C 8,9 °C 75 % 1021,6 hPa 0,0 mm 3,3 km/h (1 Bft) N-NO 13 ° 0 min 0,000 mm 2,6 UV-I 258 W/m² 4,7 °C 8,9 °C 6,4 km/h (2 Bft)
11.04.2017 15:30 8,8 °C 8,9 °C 75 % 1021,6 hPa 0,0 mm 1,4 km/h (1 Bft) N-NO 13 ° 0 min 0,000 mm 3,3 UV-I 258 W/m² 4,6 °C 8,8 °C 1,6 km/h (1 Bft)
11.04.2017 15:31 8,8 °C 8,8 °C 77 % 1021,6 hPa 0,0 mm 0,1 km/h (0 Bft) N-NO 13 ° 0 min 0,000 mm 2,6 UV-I 253 W/m² 5,0 °C 8,8 °C 1,6 km/h (1 Bft)
11.04.2017 15:32 8,9 °C 8,9 °C 77 % 1021,6 hPa 0,0 mm 0,9 km/h (0 Bft) N-NO 13 ° 0 min 0,000 mm 2,7 UV-I 232 W/m² 5,1 °C 8,9 °C 3,2 km/h (1 Bft)
11.04.2017 15:33 8,9 °C 8,9 °C 76 % 1021,5 hPa 0,0 mm 1,3 km/h (1 Bft) S-SW 204 ° 0 min 0,000 mm 2,3 UV-I 195 W/m² 4,9 °C 8,9 °C 6,4 km/h (2 Bft)
11.04.2017 15:34 8,8 °C 8,9 °C 76 % 1021,6 hPa 0,0 mm 4,9 km/h (1 Bft) S-SW 206 ° 0 min 0,000 mm 2,3 UV-I 186 W/m² 4,8 °C 8,4 °C 6,4 km/h (2 Bft)
11.04.2017 15:35 8,7 °C 8,8 °C 75 % 1021,6 hPa 0,0 mm 2,7 km/h (1 Bft) S-SW 206 ° 0 min 0,000 mm 2,1 UV-I 179 W/m² 4,5 °C 8,7 °C 4,8 km/h (1 Bft)
11.04.2017 15:36 8,6 °C 8,7 °C 75 % 1021,5 hPa 0,0 mm 3,6 km/h (1 Bft) S-SW 206 ° 0 min 0,000 mm 2,1 UV-I 178 W/m² 4,4 °C 8,6 °C 4,8 km/h (1 Bft)
11.04.2017 15:37 8,5 °C 8,6 °C 75 % 1021,6 hPa 0,0 mm 5,1 km/h (1 Bft) S-SW 207 ° 0 min 0,000 mm 2,0 UV-I 190 W/m² 4,3 °C 8,0 °C 6,4 km/h (2 Bft)
11.04.2017 15:38 8,4 °C 8,5 °C 75 % 1021,6 hPa 0,0 mm 5,4 km/h (1 Bft) S-SW 205 ° 0 min 0,000 mm 1,9 UV-I 199 W/m² 4,2 °C 7,8 °C 8,0 km/h (2 Bft)
11.04.2017 15:39 8,4 °C 8,4 °C 76 % 1021,6 hPa 0,0 mm 3,6 km/h (1 Bft) S-SW 205 ° 0 min 0,000 mm 1,9 UV-I 207 W/m² 4,4 °C 8,4 °C 4,8 km/h (1 Bft)
11.04.2017 15:40 8,4 °C 8,4 °C 76 % 1021,6 hPa 0,0 mm 1,9 km/h (1 Bft) S-SW 205 ° 0 min 0,000 mm 1,9 UV-I 221 W/m² 4,4 °C 8,4 °C 4,8 km/h (1 Bft)
11.04.2017 15:41 8,4 °C 8,4 °C 77 % 1021,6 hPa 0,0 mm 1,2 km/h (1 Bft) S-SW 205 ° 0 min 0,000 mm 1,9 UV-I 229 W/m² 4,6 °C 8,4 °C 3,2 km/h (1 Bft)
11.04.2017 15:42 8,5 °C 8,5 °C 77 % 1021,6 hPa 0,0 mm 1,0 km/h (0 Bft) S-SW 205 ° 0 min 0,000 mm 1,9 UV-I 216 W/m² 4,7 °C 8,5 °C 3,2 km/h (1 Bft)
11.04.2017 15:43 8,5 °C 8,5 °C 76 % 1021,6 hPa 0,0 mm 2,0 km/h (1 Bft) S-SW 205 ° 0 min 0,000 mm 1,7 UV-I 167 W/m² 4,5 °C 8,5 °C 3,2 km/h (1 Bft)
11.04.2017 15:44 8,4 °C 8,5 °C 76 % 1021,6 hPa 0,0 mm 0,0 km/h (0 Bft) S-SW 205 ° 0 min 0,000 mm 1,4 UV-I 158 W/m² 4,4 °C 8,4 °C 0,0 km/h (0 Bft)
11.04.2017 15:45 8,4 °C 8,4 °C 76 % 1021,6 hPa 0,0 mm 0,9 km/h (0 Bft) W 264 ° 0 min 0,000 mm 1,3 UV-I 155 W/m² 4,4 °C 8,4 °C 3,2 km/h (1 Bft)
11.04.2017 15:46 8,6 °C 8,6 °C 77 % 1021,6 hPa 0,0 mm 3,2 km/h (1 Bft) W-NW 285 ° 0 min 0,000 mm 1,3 UV-I 156 W/m² 4,8 °C 8,6 °C 4,8 km/h (1 Bft)
11.04.2017 15:47 8,6 °C 8,6 °C 77 % 1021,6 hPa 0,0 mm 3,2 km/h (1 Bft) W-NW 284 ° 0 min 0,000 mm 1,3 UV-I 163 W/m² 4,8 °C 8,6 °C 4,8 km/h (1 Bft)
11.04.2017 15:48 8,7 °C 8,7 °C 75 % 1021,6 hPa 0,0 mm 2,6 km/h (1 Bft) W-NW 284 ° 0 min 0,000 mm 1,3 UV-I 176 W/m² 4,5 °C 8,7 °C 4,8 km/h (1 Bft)
11.04.2017 15:49 8,7 °C 8,7 °C 76 % 1021,6 hPa 0,0 mm 1,6 km/h (1 Bft) W-NW 292 ° 0 min 0,000 mm 1,3 UV-I 179 W/m² 4,7 °C 8,7 °C 6,4 km/h (2 Bft)
11.04.2017 15:50 8,7 °C 8,7 °C 75 % 1021,5 hPa 0,0 mm 1,6 km/h (1 Bft) W 270 ° 0 min 0,000 mm 1,2 UV-I 149 W/m² 4,5 °C 8,7 °C 4,8 km/h (1 Bft)
11.04.2017 15:51 8,7 °C 8,7 °C 76 % 1021,6 hPa 0,0 mm 4,8 km/h (1 Bft) W 270 ° 0 min 0,000 mm 1,1 UV-I 139 W/m² 4,7 °C 8,3 °C 6,4 km/h (2 Bft)
11.04.2017 15:52 8,7 °C 8,7 °C 74 % 1021,6 hPa 0,0 mm 1,6 km/h (1 Bft) W 270 ° 0 min 0,000 mm 1,1 UV-I 142 W/m² 4,3 °C 8,7 °C 3,2 km/h (1 Bft)
11.04.2017 15:53 8,7 °C 8,7 °C 74 % 1021,6 hPa 0,0 mm 0,0 km/h (0 Bft) N 0 ° 0 min 0,000 mm 1,1 UV-I 151 W/m² 4,3 °C 8,7 °C 0,0 km/h (0 Bft)
11.04.2017 15:54 8,7 °C 8,7 °C 74 % 1021,6 hPa 0,0 mm 0,0 km/h (0 Bft) N 0 ° 0 min 0,000 mm 1,2 UV-I 160 W/m² 4,3 °C 8,7 °C 0,0 km/h (0 Bft)
11.04.2017 15:55 8,7 °C 8,7 °C 74 % 1021,6 hPa 0,0 mm 1,6 km/h (1 Bft) W 270 ° 0 min 0,000 mm 1,2 UV-I 171 W/m² 4,3 °C 8,7 °C 3,2 km/h (1 Bft)
11.04.2017 15:56 8,7 °C 8,7 °C 75 % 1021,6 hPa 0,0 mm 3,2 km/h (1 Bft) W 270 ° 0 min 0,000 mm 1,3 UV-I 178 W/m² 4,5 °C 8,7 °C 3,2 km/h (1 Bft)
11.04.2017 15:57 8,7 °C 8,7 °C 74 % 1021,6 hPa 0,0 mm 0,0 km/h (0 Bft) W 270 ° 0 min 0,000 mm 1,4 UV-I 192 W/m² 4,3 °C 8,7 °C 1,6 km/h (1 Bft)
11.04.2017 15:58 8,7 °C 8,7 °C 76 % 1021,6 hPa 0,0 mm 1,6 km/h (1 Bft) W 270 ° 0 min 0,000 mm 1,5 UV-I 214 W/m² 4,7 °C 8,7 °C 3,2 km/h (1 Bft)
11.04.2017 15:59 8,8 °C 8,8 °C 76 % 1021,6 hPa 0,0 mm 1,6 km/h (1 Bft) W 270 ° 0 min 0,000 mm 1,6 UV-I 229 W/m² 4,8 °C 8,8 °C 3,2 km/h (1 Bft)
11.04.2017 16:00 8,8 °C 8,8 °C 74 % 1021,6 hPa 0,0 mm 3,2 km/h (1 Bft) W 270 ° 0 min 0,152 mm 1,6 UV-I 229 W/m² 4,4 °C 8,8 °C 3,2 km/h (1 Bft)
11.04.2017 16:01 8,7 °C 8,8 °C 74 % 1021,6 hPa 0,0 mm 1,6 km/h (1 Bft) W 270 ° 0 min 0,000 mm 1,5 UV-I 218 W/m² 4,3 °C 8,7 °C 3,2 km/h (1 Bft)
11.04.2017 16:02 8,8 °C 8,8 °C 75 % 1021,6 hPa 0,0 mm 1,6 km/h (1 Bft) W 270 ° 0 min 0,000 mm 1,5 UV-I 204 W/m² 4,6 °C 8,8 °C 3,2 km/h (1 Bft)
11.04.2017 16:03 8,8 °C 8,8 °C 76 % 1021,6 hPa 0,0 mm 3,2 km/h (1 Bft) SW 225 ° 0 min 0,000 mm 1,5 UV-I 206 W/m² 4,8 °C 8,8 °C 6,4 km/h (2 Bft)
11.04.2017 16:04 8,8 °C 8,8 °C 74 % 1021,5 hPa 0,0 mm 4,8 km/h (1 Bft) SW 225 ° 0 min 0,000 mm 1,5 UV-I 211 W/m² 4,4 °C 8,5 °C 6,4 km/h (2 Bft)
11.04.2017 16:05 8,8 °C 8,8 °C 76 % 1021,5 hPa 0,0 mm 3,2 km/h (1 Bft) SW 225 ° 0 min 0,000 mm 1,5 UV-I 218 W/m² 4,8 °C 8,8 °C 3,2 km/h (1 Bft)
11.04.2017 16:06 8,8 °C 8,8 °C 74 % 1021,6 hPa 0,0 mm 1,6 km/h (1 Bft) SW 225 ° 0 min 0,000 mm 1,6 UV-I 227 W/m² 4,4 °C 8,8 °C 3,2 km/h (1 Bft)
11.04.2017 16:07 8,8 °C 8,8 °C 75 % 1021,6 hPa 0,0 mm 0,0 km/h (0 Bft) SW 225 ° 0 min 0,000 mm 1,6 UV-I 225 W/m² 4,6 °C 8,8 °C 1,6 km/h (1 Bft)
11.04.2017 16:08 8,8 °C 8,8 °C 74 % 1021,6 hPa 0,0 mm 0,0 km/h (0 Bft) SW 225 ° 0 min 0,000 mm 1,5 UV-I 202 W/m² 4,4 °C 8,8 °C 1,6 km/h (1 Bft)
11.04.2017 16:09 8,9 °C 8,9 °C 75 % 1021,6 hPa 0,0 mm 1,6 km/h (1 Bft) SW 225 ° 0 min 0,000 mm 1,3 UV-I 200 W/m² 4,7 °C 8,9 °C 3,2 km/h (1 Bft)
11.04.2017 16:10 9,1 °C 9,1 °C 74 % 1021,6 hPa 0,0 mm 1,6 km/h (1 Bft) W-NW 292 ° 0 min 0,000 mm 1,3 UV-I 192 W/m² 4,7 °C 9,1 °C 3,2 km/h (1 Bft)
11.04.2017 16:12 9,1 °C 9,2 °C 75 % 1021,7 hPa 0,0 mm 0,0 km/h (0 Bft) W-NW 288 ° 0 min 0,001 mm 1,3 UV-I 188 W/m² 4,9 °C 9,1 °C 0,0 km/h (0 Bft)
11.04.2017 16:13 9,2 °C 9,2 °C 76 % 1021,7 hPa 0,0 mm 0,9 km/h (0 Bft) W-NW 288 ° 0 min 0,000 mm 1,3 UV-I 193 W/m² 5,2 °C 9,2 °C 1,6 km/h (1 Bft)
11.04.2017 16:14 9,2 °C 9,2 °C 76 % 1021,7 hPa 0,0 mm 0,6 km/h (0 Bft) W-NW 288 ° 0 min 0,000 mm 1,3 UV-I 197 W/m² 5,2 °C 9,2 °C 1,6 km/h (1 Bft)
11.04.2017 16:15 9,2 °C 9,2 °C 73 % 1021,7 hPa 0,0 mm 3,0 km/h (1 Bft) NW 304 ° 0 min 0,000 mm 1,3 UV-I 190 W/m² 4,6 °C 9,2 °C 4,8 km/h (1 Bft)
11.04.2017 16:16 9,2 °C 9,2 °C 74 % 1021,7 hPa 0,0 mm 3,6 km/h (1 Bft) N 350 ° 0 min 0,000 mm 1,2 UV-I 181 W/m² 4,8 °C 9,2 °C 8,0 km/h (2 Bft)
11.04.2017 16:17 9,2 °C 9,2 °C 72 % 1021,6 hPa 0,0 mm 0,8 km/h (0 Bft) N 350 ° 0 min 0,000 mm 1,1 UV-I 169 W/m² 4,4 °C 9,2 °C 3,2 km/h (1 Bft)
11.04.2017 16:18 9,2 °C 9,2 °C 73 % 1021,7 hPa 0,0 mm 1,8 km/h (1 Bft) N-NW 348 ° 0 min 0,000 mm 1,1 UV-I 160 W/m² 4,6 °C 9,2 °C 4,8 km/h (1 Bft)
11.04.2017 16:19 9,3 °C 9,3 °C 73 % 1021,7 hPa 0,0 mm 2,1 km/h (1 Bft) N-NW 346 ° 0 min 0,000 mm 1,1 UV-I 148 W/m² 4,7 °C 9,3 °C 3,2 km/h (1 Bft)
11.04.2017 16:20 9,3 °C 9,3 °C 73 % 1021,7 hPa 0,0 mm 0,5 km/h (0 Bft) N-NW 346 ° 0 min 0,000 mm 1,0 UV-I 139 W/m² 4,7 °C 9,3 °C 1,6 km/h (1 Bft)
11.04.2017 16:21 9,3 °C 9,3 °C 73 % 1021,7 hPa 0,0 mm 0,9 km/h (0 Bft) N-NW 346 ° 0 min 0,000 mm 0,9 UV-I 130 W/m² 4,7 °C 9,3 °C 3,2 km/h (1 Bft)
11.04.2017 16:22 9,3 °C 9,3 °C 73 % 1021,7 hPa 0,0 mm 0,9 km/h (0 Bft) N 351 ° 0 min 0,000 mm 0,9 UV-I 130 W/m² 4,7 °C 9,3 °C 3,2 km/h (1 Bft)
11.04.2017 16:23 9,3 °C 9,3 °C 73 % 1021,7 hPa 0,0 mm 3,2 km/h (1 Bft) N-NW 340 ° 0 min 0,000 mm 0,9 UV-I 123 W/m² 4,7 °C 9,3 °C 6,4 km/h (2 Bft)
11.04.2017 16:24 9,3 °C 9,3 °C 73 % 1021,7 hPa 0,0 mm 2,9 km/h (1 Bft) NW 313 ° 0 min 0,000 mm 0,8 UV-I 121 W/m² 4,7 °C 9,3 °C 6,4 km/h (2 Bft)
11.04.2017 16:25 9,3 °C 9,4 °C 72 % 1021,7 hPa 0,0 mm 3,6 km/h (1 Bft) W-NW 302 ° 0 min 0,000 mm 0,8 UV-I 111 W/m² 4,5 °C 9,3 °C 8,0 km/h (2 Bft)
11.04.2017 16:26 9,3 °C 9,3 °C 72 % 1021,7 hPa 0,0 mm 1,6 km/h (1 Bft) W-NW 298 ° 0 min 0,000 mm 0,8 UV-I 104 W/m² 4,5 °C 9,3 °C 3,2 km/h (1 Bft)
11.04.2017 16:27 9,3 °C 9,3 °C 72 % 1021,6 hPa 0,0 mm 3,1 km/h (1 Bft) NW 304 ° 0 min 0,000 mm 0,6 UV-I 93 W/m² 4,5 °C 9,3 °C 6,4 km/h (2 Bft)
11.04.2017 16:28 9,3 °C 9,3 °C 72 % 1021,7 hPa 0,0 mm 3,0 km/h (1 Bft) N 355 ° 0 min 0,000 mm 0,6 UV-I 84 W/m² 4,5 °C 9,3 °C 4,8 km/h (1 Bft)
11.04.2017 16:29 9,3 °C 9,3 °C 73 % 1021,7 hPa 0,0 mm 2,9 km/h (1 Bft) N 5 ° 0 min 0,000 mm 0,5 UV-I 79 W/m² 4,7 °C 9,3 °C 4,8 km/h (1 Bft)
11.04.2017 16:30 9,3 °C 9,3 °C 72 % 1021,8 hPa 0,0 mm 1,9 km/h (1 Bft) N 360 ° 0 min 0,000 mm 0,5 UV-I 77 W/m² 4,5 °C 9,3 °C 3,2 km/h (1 Bft)
11.04.2017 16:31 9,3 °C 9,3 °C 73 % 1021,8 hPa 0,0 mm 1,0 km/h (0 Bft) N 360 ° 0 min 0,000 mm 0,5 UV-I 81 W/m² 4,7 °C 9,3 °C 3,2 km/h (1 Bft)
11.04.2017 16:32 9,3 °C 9,3 °C 74 % 1021,8 hPa 0,0 mm 2,2 km/h (1 Bft) W-NW 299 ° 0 min 0,000 mm 0,6 UV-I 84 W/m² 4,9 °C 9,3 °C 4,8 km/h (1 Bft)
11.04.2017 16:33 9,3 °C 9,3 °C 72 % 1021,8 hPa 0,0 mm 1,5 km/h (1 Bft) W-NW 299 ° 0 min 0,000 mm 0,6 UV-I 90 W/m² 4,5 °C 9,3 °C 3,2 km/h (1 Bft)
11.04.2017 16:34 9,3 °C 9,3 °C 74 % 1021,8 hPa 0,0 mm 1,9 km/h (1 Bft) W-NW 296 ° 0 min 0,000 mm 0,6 UV-I 93 W/m² 4,9 °C 9,3 °C 4,8 km/h (1 Bft)
11.04.2017 16:35 9,3 °C 9,3 °C 74 % 1021,7 hPa 0,0 mm 2,4 km/h (1 Bft) W-NW 296 ° 0 min 0,000 mm 0,6 UV-I 93 W/m² 4,9 °C 9,3 °C 3,2 km/h (1 Bft)
11.04.2017 16:36 9,3 °C 9,3 °C 73 % 1021,7 hPa 0,0 mm 1,8 km/h (1 Bft) W-NW 296 ° 0 min 0,000 mm 0,6 UV-I 90 W/m² 4,7 °C 9,3 °C 3,2 km/h (1 Bft)
11.04.2017 16:37 9,2 °C 9,3 °C 73 % 1021,8 hPa 0,0 mm 2,8 km/h (1 Bft) W-NW 303 ° 0 min 0,000 mm 0,6 UV-I 88 W/m² 4,6 °C 9,2 °C 4,8 km/h (1 Bft)
11.04.2017 16:38 9,2 °C 9,2 °C 72 % 1021,8 hPa 0,0 mm 4,4 km/h (1 Bft) NW 321 ° 0 min 0,000 mm 0,6 UV-I 90 W/m² 4,4 °C 9,2 °C 4,8 km/h (1 Bft)
11.04.2017 16:39 9,2 °C 9,2 °C 72 % 1021,8 hPa 0,0 mm 3,0 km/h (1 Bft) NW 310 ° 0 min 0,000 mm 0,6 UV-I 91 W/m² 4,4 °C 9,2 °C 4,8 km/h (1 Bft)
11.04.2017 16:40 9,2 °C 9,2 °C 73 % 1021,8 hPa 0,0 mm 2,1 km/h (1 Bft) NW 310 ° 0 min 0,000 mm 0,7 UV-I 97 W/m² 4,6 °C 9,2 °C 3,2 km/h (1 Bft)
11.04.2017 16:41 9,1 °C 9,2 °C 73 % 1021,8 hPa 0,0 mm 0,9 km/h (0 Bft) NW 310 ° 0 min 0,000 mm 0,7 UV-I 105 W/m² 4,5 °C 9,1 °C 1,6 km/h (1 Bft)
11.04.2017 16:42 9,1 °C 9,2 °C 73 % 1021,8 hPa 0,0 mm 0,8 km/h (0 Bft) NW 321 ° 0 min 0,000 mm 0,8 UV-I 121 W/m² 4,5 °C 9,1 °C 3,2 km/h (1 Bft)
11.04.2017 16:43 9,1 °C 9,1 °C 73 % 1021,7 hPa 0,0 mm 1,1 km/h (1 Bft) NW 321 ° 0 min 0,000 mm 0,9 UV-I 128 W/m² 4,5 °C 9,1 °C 3,2 km/h (1 Bft)
11.04.2017 16:44 9,1 °C 9,2 °C 74 % 1021,7 hPa 0,0 mm 1,9 km/h (1 Bft) W-NW 291 ° 0 min 0,000 mm 0,9 UV-I 134 W/m² 4,7 °C 9,1 °C 4,8 km/h (1 Bft)
11.04.2017 16:45 9,1 °C 9,2 °C 72 % 1021,7 hPa 0,0 mm 2,7 km/h (1 Bft) W-NW 290 ° 0 min 0,000 mm 1,0 UV-I 139 W/m² 4,3 °C 9,1 °C 4,8 km/h (1 Bft)
11.04.2017 16:46 9,1 °C 9,2 °C 73 % 1021,7 hPa 0,0 mm 2,9 km/h (1 Bft) W-NW 290 ° 0 min 0,000 mm 1,0 UV-I 142 W/m² 4,5 °C 9,1 °C 4,8 km/h (1 Bft)
11.04.2017 16:47 9,1 °C 9,2 °C 72 % 1021,6 hPa 0,0 mm 1,7 km/h (1 Bft) W-NW 290 ° 0 min 0,000 mm 1,0 UV-I 141 W/m² 4,3 °C 9,1 °C 4,8 km/h (1 Bft)
11.04.2017 16:48 9,2 °C 9,2 °C 73 % 1021,7 hPa 0,0 mm 1,8 km/h (1 Bft) W-NW 291 ° 0 min 0,000 mm 1,0 UV-I 137 W/m² 4,6 °C 9,2 °C 3,2 km/h (1 Bft)
11.04.2017 16:49 9,2 °C 9,2 °C 73 % 1021,7 hPa 0,0 mm 0,6 km/h (0 Bft) W-NW 291 ° 0 min 0,000 mm 0,9 UV-I 134 W/m² 4,6 °C 9,2 °C 1,6 km/h (1 Bft)
11.04.2017 16:50 9,3 °C 9,3 °C 74 % 1021,7 hPa 0,0 mm 0,0 km/h (0 Bft) W-NW 291 ° 0 min 0,000 mm 0,9 UV-I 132 W/m² 4,9 °C 9,3 °C 0,0 km/h (0 Bft)
11.04.2017 16:51 9,3 °C 9,3 °C 73 % 1021,7 hPa 0,0 mm 0,0 km/h (0 Bft) W-NW 291 ° 0 min 0,000 mm 0,9 UV-I 132 W/m² 4,7 °C 9,3 °C 0,0 km/h (0 Bft)
11.04.2017 16:52 9,3 °C 9,3 °C 72 % 1021,7 hPa 0,0 mm 2,3 km/h (1 Bft) W-NW 291 ° 0 min 0,000 mm 0,9 UV-I 134 W/m² 4,5 °C 9,3 °C 4,8 km/h (1 Bft)
11.04.2017 16:53 9,3 °C 9,4 °C 72 % 1021,7 hPa 0,0 mm 1,7 km/h (1 Bft) W-NW 291 ° 0 min 0,000 mm 0,9 UV-I 142 W/m² 4,5 °C 9,3 °C 3,2 km/h (1 Bft)
11.04.2017 16:54 9,3 °C 9,3 °C 71 % 1021,7 hPa 0,0 mm 1,4 km/h (1 Bft) W-NW 291 ° 0 min 0,000 mm 1,0 UV-I 163 W/m² 4,3 °C 9,3 °C 3,2 km/h (1 Bft)
11.04.2017 16:55 9,3 °C 9,3 °C 73 % 1021,7 hPa 0,0 mm 0,5 km/h (0 Bft) W-NW 291 ° 0 min 0,000 mm 1,1 UV-I 167 W/m² 4,7 °C 9,3 °C 1,6 km/h (1 Bft)
11.04.2017 16:56 9,3 °C 9,3 °C 72 % 1021,8 hPa 0,0 mm 1,7 km/h (1 Bft) W-NW 291 ° 0 min 0,000 mm 1,1 UV-I 167 W/m² 4,5 °C 9,3 °C 3,2 km/h (1 Bft)
11.04.2017 16:57 9,3 °C 9,3 °C 72 % 1021,7 hPa 0,0 mm 2,5 km/h (1 Bft) W-NW 291 ° 0 min 0,000 mm 1,1 UV-I 165 W/m² 4,5 °C 9,3 °C 4,8 km/h (1 Bft)
11.04.2017 16:58 9,3 °C 9,3 °C 73 % 1021,7 hPa 0,0 mm 1,3 km/h (1 Bft) W-NW 291 ° 0 min 0,000 mm 1,1 UV-I 163 W/m² 4,7 °C 9,3 °C 3,2 km/h (1 Bft)
11.04.2017 16:59 9,3 °C 9,3 °C 73 % 1021,8 hPa 0,0 mm 0,1 km/h (0 Bft) W-NW 291 ° 0 min 0,000 mm 1,1 UV-I 158 W/m² 4,7 °C 9,3 °C 1,6 km/h (1 Bft)
11.04.2017 17:00 9,4 °C 9,4 °C 73 % 1021,8 hPa 0,0 mm 0,0 km/h (0 Bft) W-NW 291 ° 0 min 0,000 mm 1,1 UV-I 153 W/m² 4,8 °C 9,4 °C 0,0 km/h (0 Bft)
11.04.2017 17:01 9,4 °C 9,4 °C 72 % 1021,8 hPa 0,0 mm 0,3 km/h (0 Bft) W-NW 291 ° 0 min 0,076 mm 1,1 UV-I 153 W/m² 4,6 °C 9,4 °C 1,6 km/h (1 Bft)
11.04.2017 17:02 9,4 °C 9,4 °C 72 % 1021,8 hPa 0,0 mm 0,0 km/h (0 Bft) W-NW 291 ° 0 min 0,000 mm 1,1 UV-I 153 W/m² 4,6 °C 9,4 °C 0,0 km/h (0 Bft)
11.04.2017 17:03 9,4 °C 9,4 °C 73 % 1021,7 hPa 0,0 mm 0,0 km/h (0 Bft) W-NW 291 ° 0 min 0,000 mm 1,1 UV-I 151 W/m² 4,8 °C 9,4 °C 0,0 km/h (0 Bft)
11.04.2017 17:04 9,4 °C 9,4 °C 72 % 1021,8 hPa 0,0 mm 0,9 km/h (0 Bft) W-NW 291 ° 0 min 0,000 mm 1,1 UV-I 151 W/m² 4,6 °C 9,4 °C 1,6 km/h (1 Bft)
11.04.2017 17:05 9,5 °C 9,5 °C 73 % 1021,7 hPa 0,0 mm 2,7 km/h (1 Bft) W-NW 291 ° 0 min 0,000 mm 1,1 UV-I 162 W/m² 4,9 °C 9,5 °C 4,8 km/h (1 Bft)
11.04.2017 17:06 9,5 °C 9,5 °C 71 % 1021,7 hPa 0,0 mm 1,9 km/h (1 Bft) W-NW 291 ° 0 min 0,000 mm 1,1 UV-I 162 W/m² 4,5 °C 9,5 °C 4,8 km/h (1 Bft)
11.04.2017 17:07 9,4 °C 9,5 °C 71 % 1021,7 hPa 0,0 mm 0,0 km/h (0 Bft) W-NW 291 ° 0 min 0,000 mm 1,1 UV-I 156 W/m² 4,4 °C 9,4 °C 0,0 km/h (0 Bft)
11.04.2017 17:08 9,4 °C 9,4 °C 72 % 1021,7 hPa 0,0 mm 0,0 km/h (0 Bft) W-NW 291 ° 0 min 0,000 mm 1,1 UV-I 149 W/m² 4,6 °C 9,4 °C 0,0 km/h (0 Bft)
11.04.2017 17:09 9,4 °C 9,4 °C 70 % 1021,7 hPa 0,0 mm 0,0 km/h (0 Bft) W-NW 291 ° 0 min 0,000 mm 1,0 UV-I 144 W/m² 4,2 °C 9,4 °C 0,0 km/h (0 Bft)
11.04.2017 17:10 9,3 °C 9,4 °C 71 % 1021,7 hPa 0,0 mm 0,7 km/h (0 Bft) W-NW 291 ° 0 min 0,000 mm 1,0 UV-I 144 W/m² 4,3 °C 9,3 °C 3,2 km/h (1 Bft)
11.04.2017 17:11 9,3 °C 9,3 °C 71 % 1021,7 hPa 0,0 mm 1,3 km/h (1 Bft) W-NW 291 ° 0 min 0,000 mm 1,0 UV-I 151 W/m² 4,3 °C 9,3 °C 3,2 km/h (1 Bft)
11.04.2017 17:12 9,3 °C 9,3 °C 72 % 1021,7 hPa 0,0 mm 3,2 km/h (1 Bft) NW 317 ° 0 min 0,000 mm 1,0 UV-I 141 W/m² 4,5 °C 9,3 °C 4,8 km/h (1 Bft)
11.04.2017 17:13 9,3 °C 9,4 °C 73 % 1021,7 hPa 0,0 mm 2,2 km/h (1 Bft) NW 319 ° 0 min 0,000 mm 0,9 UV-I 134 W/m² 4,7 °C 9,3 °C 4,8 km/h (1 Bft)
11.04.2017 17:14 9,4 °C 9,4 °C 71 % 1021,7 hPa 0,0 mm 1,3 km/h (1 Bft) NW 319 ° 0 min 0,000 mm 0,9 UV-I 130 W/m² 4,4 °C 9,4 °C 3,2 km/h (1 Bft)
11.04.2017 17:15 9,3 °C 9,4 °C 71 % 1021,7 hPa 0,0 mm 0,0 km/h (0 Bft) NW 319 ° 0 min 0,000 mm 0,9 UV-I 134 W/m² 4,3 °C 9,3 °C 0,0 km/h (0 Bft)
11.04.2017 17:16 9,4 °C 9,4 °C 71 % 1021,7 hPa 0,0 mm 0,2 km/h (0 Bft) NW 319 ° 0 min 0,000 mm 0,9 UV-I 135 W/m² 4,4 °C 9,4 °C 1,6 km/h (1 Bft)
11.04.2017 17:17 9,3 °C 9,4 °C 70 % 1021,7 hPa 0,0 mm 0,0 km/h (0 Bft) NW 319 ° 0 min 0,000 mm 0,9 UV-I 156 W/m² 4,1 °C 9,3 °C 0,0 km/h (0 Bft)
11.04.2017 17:18 9,3 °C 9,3 °C 72 % 1021,6 hPa 0,0 mm 0,0 km/h (0 Bft) NW 319 ° 0 min 0,000 mm 1,0 UV-I 169 W/m² 4,5 °C 9,3 °C 0,0 km/h (0 Bft)
11.04.2017 17:19 9,3 °C 9,3 °C 71 % 1021,7 hPa 0,0 mm 0,0 km/h (0 Bft) NW 319 ° 0 min 0,000 mm 1,1 UV-I 171 W/m² 4,3 °C 9,3 °C 0,0 km/h (0 Bft)
11.04.2017 17:20 9,3 °C 9,3 °C 71 % 1021,7 hPa 0,0 mm 0,1 km/h (0 Bft) NW 319 ° 0 min 0,000 mm 1,0 UV-I 163 W/m² 4,3 °C 9,3 °C 1,6 km/h (1 Bft)
11.04.2017 17:21 9,3 °C 9,3 °C 70 % 1021,6 hPa 0,0 mm 0,0 km/h (0 Bft) NW 319 ° 0 min 0,000 mm 1,0 UV-I 155 W/m² 4,1 °C 9,3 °C 0,0 km/h (0 Bft)
11.04.2017 17:22 9,3 °C 9,3 °C 71 % 1021,6 hPa 0,0 mm 0,0 km/h (0 Bft) NW 319 ° 0 min 0,000 mm 1,0 UV-I 144 W/m² 4,3 °C 9,3 °C 0,0 km/h (0 Bft)
11.04.2017 17:23 9,2 °C 9,3 °C 72 % 1021,6 hPa 0,0 mm 1,2 km/h (1 Bft) NW 319 ° 0 min 0,000 mm 1,0 UV-I 139 W/m² 4,4 °C 9,2 °C 1,6 km/h (1 Bft)
11.04.2017 17:24 9,2 °C 9,2 °C 72 % 1021,7 hPa 0,0 mm 0,1 km/h (0 Bft) NW 319 ° 0 min 0,000 mm 0,9 UV-I 139 W/m² 4,4 °C 9,2 °C 1,6 km/h (1 Bft)
11.04.2017 17:25 9,3 °C 9,3 °C 73 % 1021,7 hPa 0,0 mm 0,0 km/h (0 Bft) NW 319 ° 0 min 0,000 mm 0,9 UV-I 139 W/m² 4,7 °C 9,3 °C 0,0 km/h (0 Bft)
11.04.2017 17:26 9,3 °C 9,3 °C 73 % 1021,6 hPa 0,0 mm 2,2 km/h (1 Bft) NW 321 ° 0 min 0,000 mm 0,9 UV-I 141 W/m² 4,7 °C 9,3 °C 4,8 km/h (1 Bft)
11.04.2017 17:27 9,4 °C 9,4 °C 71 % 1021,7 hPa 0,0 mm 0,3 km/h (0 Bft) NW 321 ° 0 min 0,000 mm 0,9 UV-I 146 W/m² 4,4 °C 9,4 °C 1,6 km/h (1 Bft)
11.04.2017 17:28 9,4 °C 9,5 °C 71 % 1021,6 hPa 0,0 mm 1,3 km/h (1 Bft) NW 321 ° 0 min 0,000 mm 1,0 UV-I 158 W/m² 4,4 °C 9,4 °C 3,2 km/h (1 Bft)
11.04.2017 17:29 9,6 °C 9,6 °C 71 % 1021,6 hPa 0,0 mm 0,8 km/h (0 Bft) NW 321 ° 0 min 0,000 mm 1,0 UV-I 197 W/m² 4,6 °C 9,6 °C 1,6 km/h (1 Bft)
11.04.2017 17:30 9,6 °C 9,6 °C 71 % 1021,6 hPa 0,0 mm 2,7 km/h (1 Bft) NW 321 ° 0 min 0,000 mm 1,1 UV-I 209 W/m² 4,6 °C 9,6 °C 4,8 km/h (1 Bft)
11.04.2017 17:31 9,6 °C 9,6 °C 71 % 1021,7 hPa 0,0 mm 2,0 km/h (1 Bft) NW 321 ° 0 min 0,000 mm 1,2 UV-I 237 W/m² 4,6 °C 9,6 °C 3,2 km/h (1 Bft)
11.04.2017 17:32 9,7 °C 9,7 °C 73 % 1021,6 hPa 0,0 mm 2,2 km/h (1 Bft) NW 321 ° 0 min 0,000 mm 1,2 UV-I 234 W/m² 5,1 °C 9,7 °C 3,2 km/h (1 Bft)
11.04.2017 17:33 9,7 °C 9,7 °C 71 % 1021,6 hPa 0,0 mm 3,4 km/h (1 Bft) NW 319 ° 0 min 0,000 mm 1,1 UV-I 195 W/m² 4,7 °C 9,7 °C 6,4 km/h (2 Bft)
11.04.2017 17:34 9,7 °C 9,8 °C 72 % 1021,6 hPa 0,0 mm 2,9 km/h (1 Bft) NW 308 ° 0 min 0,000 mm 1,1 UV-I 188 W/m² 4,9 °C 9,7 °C 4,8 km/h (1 Bft)
11.04.2017 17:35 9,7 °C 9,8 °C 70 % 1021,7 hPa 0,0 mm 3,0 km/h (1 Bft) NW 308 ° 0 min 0,000 mm 1,1 UV-I 188 W/m² 4,5 °C 9,7 °C 3,2 km/h (1 Bft)
11.04.2017 17:36 9,7 °C 9,7 °C 70 % 1021,6 hPa 0,0 mm 0,7 km/h (0 Bft) NW 308 ° 0 min 0,000 mm 1,1 UV-I 186 W/m² 4,5 °C 9,7 °C 1,6 km/h (1 Bft)
11.04.2017 17:37 9,6 °C 9,7 °C 70 % 1021,6 hPa 0,0 mm 0,0 km/h (0 Bft) NW 308 ° 0 min 0,000 mm 1,1 UV-I 178 W/m² 4,4 °C 9,6 °C 0,0 km/h (0 Bft)
11.04.2017 17:38 9,6 °C 9,6 °C 70 % 1021,6 hPa 0,0 mm 0,7 km/h (0 Bft) NW 308 ° 0 min 0,000 mm 1,0 UV-I 169 W/m² 4,4 °C 9,6 °C 3,2 km/h (1 Bft)
11.04.2017 17:39 9,6 °C 9,6 °C 73 % 1021,6 hPa 0,0 mm 1,2 km/h (1 Bft) NW 308 ° 0 min 0,000 mm 1,0 UV-I 174 W/m² 5,0 °C 9,6 °C 3,2 km/h (1 Bft)
11.04.2017 17:40 9,6 °C 9,6 °C 71 % 1021,5 hPa 0,0 mm 0,0 km/h (0 Bft) NW 308 ° 0 min 0,000 mm 1,0 UV-I 179 W/m² 4,6 °C 9,6 °C 0,0 km/h (0 Bft)
11.04.2017 17:41 9,6 °C 9,6 °C 72 % 1021,6 hPa 0,0 mm 2,5 km/h (1 Bft) NW 308 ° 0 min 0,000 mm 1,0 UV-I 185 W/m² 4,8 °C 9,6 °C 4,8 km/h (1 Bft)
11.04.2017 17:42 9,7 °C 9,7 °C 70 % 1021,6 hPa 0,0 mm 3,9 km/h (1 Bft) W 274 ° 0 min 0,000 mm 1,1 UV-I 181 W/m² 4,5 °C 9,7 °C 6,4 km/h (2 Bft)
11.04.2017 17:43 9,7 °C 9,7 °C 70 % 1021,6 hPa 0,0 mm 3,8 km/h (1 Bft) W 274 ° 0 min 0,000 mm 1,1 UV-I 171 W/m² 4,5 °C 9,7 °C 4,8 km/h (1 Bft)
11.04.2017 17:44 9,7 °C 9,7 °C 71 % 1021,5 hPa 0,0 mm 3,3 km/h (1 Bft) W 274 ° 0 min 0,000 mm 1,0 UV-I 146 W/m² 4,7 °C 9,7 °C 4,8 km/h (1 Bft)
11.04.2017 17:45 9,7 °C 9,7 °C 70 % 1021,6 hPa 0,0 mm 5,2 km/h (1 Bft) NW 323 ° 0 min 0,000 mm 1,0 UV-I 134 W/m² 4,5 °C 9,4 °C 8,0 km/h (2 Bft)
11.04.2017 17:46 9,7 °C 9,7 °C 70 % 1021,6 hPa 0,0 mm 2,4 km/h (1 Bft) N-NW 328 ° 0 min 0,000 mm 1,0 UV-I 128 W/m² 4,5 °C 9,7 °C 4,8 km/h (1 Bft)
11.04.2017 17:47 9,6 °C 9,7 °C 72 % 1021,5 hPa 0,0 mm 4,1 km/h (1 Bft) N-NW 345 ° 0 min 0,000 mm 1,0 UV-I 127 W/m² 4,8 °C 9,6 °C 4,8 km/h (1 Bft)
11.04.2017 17:48 9,4 °C 9,6 °C 73 % 1021,6 hPa 0,0 mm 1,7 km/h (1 Bft) N-NW 345 ° 0 min 0,000 mm 1,0 UV-I 132 W/m² 4,8 °C 9,4 °C 3,2 km/h (1 Bft)
11.04.2017 17:49 9,2 °C 9,4 °C 74 % 1021,6 hPa 0,0 mm 1,7 km/h (1 Bft) N-NW 345 ° 0 min 0,000 mm 1,0 UV-I 142 W/m² 4,8 °C 9,2 °C 3,2 km/h (1 Bft)
11.04.2017 17:50 9,2 °C 9,2 °C 75 % 1021,6 hPa 0,0 mm 3,5 km/h (1 Bft) N 351 ° 0 min 0,000 mm 1,0 UV-I 151 W/m² 5,0 °C 9,2 °C 4,8 km/h (1 Bft)
11.04.2017 17:51 9,2 °C 9,2 °C 75 % 1021,6 hPa 0,0 mm 3,6 km/h (1 Bft) N-NO 22 ° 0 min 0,000 mm 1,0 UV-I 153 W/m² 5,0 °C 9,2 °C 6,4 km/h (2 Bft)
11.04.2017 17:52 9,2 °C 9,2 °C 76 % 1021,7 hPa 0,0 mm 4,5 km/h (1 Bft) N-NO 26 ° 0 min 0,000 mm 1,0 UV-I 142 W/m² 5,2 °C 9,2 °C 6,4 km/h (2 Bft)
11.04.2017 17:53 9,1 °C 9,2 °C 76 % 1021,6 hPa 0,0 mm 4,3 km/h (1 Bft) NO 40 ° 0 min 0,000 mm 1,0 UV-I 134 W/m² 5,1 °C 9,1 °C 6,4 km/h (2 Bft)
11.04.2017 17:54 9,2 °C 9,2 °C 77 % 1021,7 hPa 0,0 mm 6,4 km/h (2 Bft) NO 38 ° 0 min 0,000 mm 1,0 UV-I 127 W/m² 5,4 °C 8,4 °C 8,0 km/h (2 Bft)
11.04.2017 17:55 9,2 °C 9,2 °C 76 % 1021,7 hPa 0,0 mm 5,6 km/h (1 Bft) NO 44 ° 0 min 0,000 mm 0,9 UV-I 120 W/m² 5,2 °C 8,7 °C 8,0 km/h (2 Bft)
11.04.2017 17:56 9,1 °C 9,2 °C 76 % 1021,6 hPa 0,0 mm 6,5 km/h (2 Bft) NO 39 ° 0 min 0,000 mm 0,9 UV-I 113 W/m² 5,1 °C 8,3 °C 11,3 km/h (2 Bft)
11.04.2017 17:57 9,1 °C 9,1 °C 76 % 1021,7 hPa 0,0 mm 4,0 km/h (1 Bft) NO 39 ° 0 min 0,000 mm 0,9 UV-I 109 W/m² 5,1 °C 9,1 °C 4,8 km/h (1 Bft)
11.04.2017 17:58 9,1 °C 9,1 °C 75 % 1021,7 hPa 0,0 mm 2,7 km/h (1 Bft) NO 39 ° 0 min 0,000 mm 0,9 UV-I 118 W/m² 4,9 °C 9,1 °C 3,2 km/h (1 Bft)
11.04.2017 17:59 9,1 °C 9,1 °C 75 % 1021,7 hPa 0,0 mm 3,5 km/h (1 Bft) NO 39 ° 0 min 0,000 mm 0,9 UV-I 125 W/m² 4,9 °C 9,1 °C 4,8 km/h (1 Bft)
11.04.2017 18:00 9,1 °C 9,1 °C 75 % 1021,7 hPa 0,0 mm 2,7 km/h (1 Bft) NO 39 ° 0 min 0,076 mm 0,9 UV-I 137 W/m² 4,9 °C 9,1 °C 3,2 km/h (1 Bft)
11.04.2017 18:01 9,1 °C 9,1 °C 76 % 1021,7 hPa 0,0 mm 2,5 km/h (1 Bft) NO 39 ° 0 min 0,000 mm 0,8 UV-I 146 W/m² 5,1 °C 9,1 °C 4,8 km/h (1 Bft)
11.04.2017 18:02 9,1 °C 9,1 °C 76 % 1021,7 hPa 0,0 mm 3,1 km/h (1 Bft) NO 39 ° 0 min 0,000 mm 0,8 UV-I 123 W/m² 5,1 °C 9,1 °C 4,8 km/h (1 Bft)
11.04.2017 18:03 9,1 °C 9,1 °C 76 % 1021,7 hPa 0,0 mm 4,1 km/h (1 Bft) NO 39 ° 0 min 0,000 mm 0,8 UV-I 139 W/m² 5,1 °C 9,1 °C 4,8 km/h (1 Bft)
11.04.2017 18:04 9,1 °C 9,1 °C 76 % 1021,6 hPa 0,0 mm 3,7 km/h (1 Bft) NO 39 ° 0 min 0,000 mm 0,8 UV-I 134 W/m² 5,1 °C 9,1 °C 6,4 km/h (2 Bft)
11.04.2017 18:05 9,1 °C 9,1 °C 77 % 1021,7 hPa 0,0 mm 3,0 km/h (1 Bft) NO 39 ° 0 min 0,000 mm 0,8 UV-I 128 W/m² 5,3 °C 9,1 °C 4,8 km/h (1 Bft)
11.04.2017 18:06 9,1 °C 9,1 °C 76 % 1021,7 hPa 0,0 mm 4,0 km/h (1 Bft) NO 36 ° 0 min 0,000 mm 0,8 UV-I 123 W/m² 5,1 °C 9,1 °C 6,4 km/h (2 Bft)
11.04.2017 18:07 9,1 °C 9,1 °C 76 % 1021,7 hPa 0,0 mm 4,8 km/h (1 Bft) NO 42 ° 0 min 0,000 mm 0,7 UV-I 118 W/m² 5,1 °C 8,8 °C 8,0 km/h (2 Bft)
11.04.2017 18:08 9,1 °C 9,1 °C 76 % 1021,7 hPa 0,0 mm 2,7 km/h (1 Bft) NO 42 ° 0 min 0,000 mm 0,7 UV-I 111 W/m² 5,1 °C 9,1 °C 4,8 km/h (1 Bft)
11.04.2017 18:09 9,1 °C 9,2 °C 76 % 1021,7 hPa 0,0 mm 3,2 km/h (1 Bft) NO 41 ° 0 min 0,000 mm 0,7 UV-I 98 W/m² 5,1 °C 9,1 °C 4,8 km/h (1 Bft)
11.04.2017 18:10 9,1 °C 9,2 °C 75 % 1021,8 hPa 0,0 mm 3,6 km/h (1 Bft) NO 42 ° 0 min 0,000 mm 0,7 UV-I 77 W/m² 4,9 °C 9,1 °C 4,8 km/h (1 Bft)
11.04.2017 18:11 9,1 °C 9,2 °C 75 % 1021,8 hPa 0,0 mm 3,9 km/h (1 Bft) NO 42 ° 0 min 0,000 mm 0,6 UV-I 67 W/m² 4,9 °C 9,1 °C 4,8 km/h (1 Bft)
11.04.2017 18:12 9,1 °C 9,1 °C 75 % 1021,8 hPa 0,0 mm 1,5 km/h (1 Bft) NO 42 ° 0 min 0,000 mm 0,6 UV-I 60 W/m² 4,9 °C 9,1 °C 3,2 km/h (1 Bft)
11.04.2017 18:13 9,1 °C 9,1 °C 74 % 1021,8 hPa 0,0 mm 2,1 km/h (1 Bft) NO 42 ° 0 min 0,000 mm 0,6 UV-I 56 W/m² 4,7 °C 9,1 °C 3,2 km/h (1 Bft)
11.04.2017 18:14 9,0 °C 9,1 °C 75 % 1021,8 hPa 0,0 mm 0,1 km/h (0 Bft) NO 42 ° 0 min 0,000 mm 0,5 UV-I 56 W/m² 4,8 °C 9,0 °C 1,6 km/h (1 Bft)
11.04.2017 18:15 9,0 °C 9,0 °C 75 % 1021,9 hPa 0,0 mm 0,0 km/h (0 Bft) NO 42 ° 0 min 0,000 mm 0,5 UV-I 63 W/m² 4,8 °C 9,0 °C 0,0 km/h (0 Bft)
11.04.2017 18:16 8,9 °C 9,0 °C 76 % 1021,9 hPa 0,0 mm 0,0 km/h (0 Bft) NO 42 ° 0 min 0,000 mm 0,5 UV-I 72 W/m² 4,9 °C 8,9 °C 0,0 km/h (0 Bft)
11.04.2017 18:17 8,9 °C 9,0 °C 76 % 1021,9 hPa 0,0 mm 0,0 km/h (0 Bft) NO 42 ° 0 min 0,000 mm 0,5 UV-I 88 W/m² 4,9 °C 8,9 °C 0,0 km/h (0 Bft)
11.04.2017 18:18 9,0 °C 9,0 °C 77 % 1021,9 hPa 0,0 mm 0,0 km/h (0 Bft) NO 42 ° 0 min 0,000 mm 0,5 UV-I 91 W/m² 5,2 °C 9,0 °C 0,0 km/h (0 Bft)
11.04.2017 18:19 8,9 °C 9,0 °C 75 % 1021,9 hPa 0,0 mm 0,0 km/h (0 Bft) NO 42 ° 0 min 0,000 mm 0,6 UV-I 113 W/m² 4,7 °C 8,9 °C 0,0 km/h (0 Bft)
11.04.2017 18:20 8,9 °C 9,0 °C 76 % 1021,9 hPa 0,0 mm 0,0 km/h (0 Bft) NO 42 ° 0 min 0,000 mm 0,6 UV-I 125 W/m² 4,9 °C 8,9 °C 0,0 km/h (0 Bft)
11.04.2017 18:21 9,0 °C 9,0 °C 76 % 1021,9 hPa 0,0 mm 0,0 km/h (0 Bft) NO 42 ° 0 min 0,000 mm 0,6 UV-I 98 W/m² 5,0 °C 9,0 °C 0,0 km/h (0 Bft)
11.04.2017 18:22 9,0 °C 9,0 °C 77 % 1021,9 hPa 0,0 mm 0,5 km/h (0 Bft) NO 42 ° 0 min 0,000 mm 0,6 UV-I 100 W/m² 5,2 °C 9,0 °C 3,2 km/h (1 Bft)
11.04.2017 18:23 9,1 °C 9,1 °C 75 % 1021,9 hPa 0,0 mm 1,8 km/h (1 Bft) NO 42 ° 0 min 0,000 mm 0,6 UV-I 100 W/m² 4,9 °C 9,1 °C 3,2 km/h (1 Bft)
11.04.2017 18:24 9,1 °C 9,1 °C 73 % 1021,9 hPa 0,0 mm 0,3 km/h (0 Bft) NO 42 ° 0 min 0,000 mm 0,6 UV-I 105 W/m² 4,5 °C 9,1 °C 1,6 km/h (1 Bft)
11.04.2017 18:25 9,1 °C 9,1 °C 73 % 1021,9 hPa 0,0 mm 0,0 km/h (0 Bft) NO 42 ° 0 min 0,000 mm 0,6 UV-I 91 W/m² 4,5 °C 9,1 °C 0,0 km/h (0 Bft)
11.04.2017 18:26 9,1 °C 9,1 °C 73 % 1021,9 hPa 0,0 mm 0,0 km/h (0 Bft) NO 42 ° 0 min 0,000 mm 0,6 UV-I 84 W/m² 4,5 °C 9,1 °C 0,0 km/h (0 Bft)
11.04.2017 18:27 9,1 °C 9,1 °C 73 % 1021,9 hPa 0,0 mm 0,0 km/h (0 Bft) NO 42 ° 0 min 0,000 mm 0,6 UV-I 77 W/m² 4,5 °C 9,1 °C 0,0 km/h (0 Bft)
11.04.2017 18:28 9,1 °C 9,1 °C 73 % 1021,9 hPa 0,0 mm 0,0 km/h (0 Bft) NO 42 ° 0 min 0,000 mm 0,6 UV-I 77 W/m² 4,5 °C 9,1 °C 0,0 km/h (0 Bft)
11.04.2017 18:29 9,0 °C 9,1 °C 73 % 1021,9 hPa 0,0 mm 0,0 km/h (0 Bft) NO 42 ° 0 min 0,000 mm 0,6 UV-I 76 W/m² 4,4 °C 9,0 °C 0,0 km/h (0 Bft)
11.04.2017 18:30 9,1 °C 9,1 °C 73 % 1022,0 hPa 0,0 mm 0,0 km/h (0 Bft) NO 42 ° 0 min 0,000 mm 0,6 UV-I 76 W/m² 4,5 °C 9,1 °C 0,0 km/h (0 Bft)
11.04.2017 18:31 9,1 °C 9,1 °C 75 % 1021,9 hPa 0,0 mm 0,0 km/h (0 Bft) NO 42 ° 0 min 0,000 mm 0,6 UV-I 76 W/m² 4,9 °C 9,1 °C 0,0 km/h (0 Bft)
11.04.2017 18:32 9,0 °C 9,1 °C 75 % 1022,0 hPa 0,0 mm 0,7 km/h (0 Bft) NO 42 ° 0 min 0,000 mm 0,6 UV-I 70 W/m² 4,8 °C 9,0 °C 1,6 km/h (1 Bft)
11.04.2017 18:33 9,0 °C 9,0 °C 75 % 1022,0 hPa 0,0 mm 1,1 km/h (1 Bft) NO 42 ° 0 min 0,000 mm 0,5 UV-I 60 W/m² 4,8 °C 9,0 °C 3,2 km/h (1 Bft)
11.04.2017 18:34 9,0 °C 9,0 °C 75 % 1021,9 hPa 0,0 mm 1,7 km/h (1 Bft) NO 42 ° 0 min 0,000 mm 0,0 UV-I 54 W/m² 4,8 °C 9,0 °C 3,2 km/h (1 Bft)
11.04.2017 18:35 8,9 °C 9,0 °C 74 % 1021,9 hPa 0,0 mm 0,7 km/h (0 Bft) NO 42 ° 0 min 0,000 mm 0,0 UV-I 49 W/m² 4,5 °C 8,9 °C 1,6 km/h (1 Bft)
11.04.2017 18:36 8,9 °C 8,9 °C 76 % 1022,0 hPa 0,0 mm 0,8 km/h (0 Bft) NO 42 ° 0 min 0,000 mm 0,0 UV-I 47 W/m² 4,9 °C 8,9 °C 1,6 km/h (1 Bft)
11.04.2017 18:37 8,8 °C 8,9 °C 77 % 1022,0 hPa 0,0 mm 1,2 km/h (1 Bft) NO 42 ° 0 min 0,000 mm 0,0 UV-I 47 W/m² 5,0 °C 8,8 °C 1,6 km/h (1 Bft)
11.04.2017 18:38 8,8 °C 8,8 °C 76 % 1022,0 hPa 0,0 mm 0,0 km/h (0 Bft) NO 42 ° 0 min 0,000 mm 0,0 UV-I 46 W/m² 4,8 °C 8,8 °C 0,0 km/h (0 Bft)
11.04.2017 18:39 8,7 °C 8,8 °C 77 % 1021,9 hPa 0,0 mm 0,0 km/h (0 Bft) NO 42 ° 0 min 0,000 mm 0,0 UV-I 47 W/m² 4,9 °C 8,7 °C 0,0 km/h (0 Bft)
11.04.2017 18:40 8,7 °C 8,8 °C 77 % 1021,9 hPa 0,0 mm 0,0 km/h (0 Bft) NO 42 ° 0 min 0,000 mm 0,0 UV-I 49 W/m² 4,9 °C 8,7 °C 0,0 km/h (0 Bft)
11.04.2017 18:41 8,7 °C 8,7 °C 77 % 1022,0 hPa 0,0 mm 0,0 km/h (0 Bft) NO 42 ° 0 min 0,000 mm 0,0 UV-I 49 W/m² 4,9 °C 8,7 °C 0,0 km/h (0 Bft)
11.04.2017 18:42 8,7 °C 8,7 °C 77 % 1022,0 hPa 0,0 mm 0,0 km/h (0 Bft) NO 42 ° 0 min 0,000 mm 0,0 UV-I 49 W/m² 4,9 °C 8,7 °C 0,0 km/h (0 Bft)
11.04.2017 18:43 8,7 °C 8,7 °C 78 % 1022,0 hPa 0,0 mm 0,0 km/h (0 Bft) NO 42 ° 0 min 0,000 mm 0,0 UV-I 47 W/m² 5,1 °C 8,7 °C 0,0 km/h (0 Bft)
11.04.2017 18:44 8,7 °C 8,7 °C 78 % 1022,0 hPa 0,0 mm 0,0 km/h (0 Bft) NO 42 ° 0 min 0,000 mm 0,0 UV-I 46 W/m² 5,1 °C 8,7 °C 0,0 km/h (0 Bft)
11.04.2017 18:45 8,7 °C 8,7 °C 79 % 1022,0 hPa 0,0 mm 0,0 km/h (0 Bft) NO 42 ° 0 min 0,000 mm 0,0 UV-I 47 W/m² 5,3 °C 8,7 °C 0,0 km/h (0 Bft)
11.04.2017 18:46 8,7 °C 8,7 °C 79 % 1022,0 hPa 0,0 mm 0,0 km/h (0 Bft) NO 42 ° 0 min 0,000 mm 0,0 UV-I 53 W/m² 5,3 °C 8,7 °C 0,0 km/h (0 Bft)
11.04.2017 18:47 8,7 °C 8,7 °C 80 % 1022,0 hPa 0,0 mm 0,4 km/h (0 Bft) NO 42 ° 0 min 0,000 mm 0,0 UV-I 53 W/m² 5,4 °C 8,7 °C 1,6 km/h (1 Bft)
11.04.2017 18:48 8,7 °C 8,7 °C 78 % 1022,0 hPa 0,0 mm 1,4 km/h (1 Bft) NO 42 ° 0 min 0,000 mm 0,0 UV-I 51 W/m² 5,1 °C 8,7 °C 3,2 km/h (1 Bft)
11.04.2017 18:49 8,7 °C 8,7 °C 78 % 1022,0 hPa 0,0 mm 0,0 km/h (0 Bft) NO 42 ° 0 min 0,000 mm 0,0 UV-I 47 W/m² 5,1 °C 8,7 °C 0,0 km/h (0 Bft)
11.04.2017 18:50 8,7 °C 8,7 °C 78 % 1022,0 hPa 0,0 mm 0,1 km/h (0 Bft) NO 42 ° 0 min 0,000 mm 0,0 UV-I 44 W/m² 5,1 °C 8,7 °C 1,6 km/h (1 Bft)
11.04.2017 18:51 8,7 °C 8,7 °C 78 % 1022,0 hPa 0,0 mm 0,0 km/h (0 Bft) NO 42 ° 0 min 0,000 mm 0,0 UV-I 39 W/m² 5,1 °C 8,7 °C 0,0 km/h (0 Bft)
11.04.2017 18:52 8,7 °C 8,8 °C 78 % 1022,0 hPa 0,0 mm 0,0 km/h (0 Bft) NO 42 ° 0 min 0,000 mm 0,0 UV-I 37 W/m² 5,1 °C 8,7 °C 0,0 km/h (0 Bft)
11.04.2017 18:53 8,7 °C 8,7 °C 78 % 1022,0 hPa 0,0 mm 0,0 km/h (0 Bft) NO 42 ° 0 min 0,000 mm 0,0 UV-I 35 W/m² 5,1 °C 8,7 °C 0,0 km/h (0 Bft)
11.04.2017 18:54 8,7 °C 8,7 °C 79 % 1022,0 hPa 0,0 mm 0,0 km/h (0 Bft) NO 42 ° 0 min 0,000 mm 0,0 UV-I 35 W/m² 5,3 °C 8,7 °C 0,0 km/h (0 Bft)
11.04.2017 18:55 8,7 °C 8,7 °C 79 % 1022,0 hPa 0,0 mm 0,0 km/h (0 Bft) NO 42 ° 0 min 0,000 mm 0,0 UV-I 33 W/m² 5,3 °C 8,7 °C 0,0 km/h (0 Bft)
11.04.2017 18:56 8,7 °C 8,7 °C 79 % 1022,0 hPa 0,0 mm 0,0 km/h (0 Bft) NO 42 ° 0 min 0,000 mm 0,0 UV-I 33 W/m² 5,3 °C 8,7 °C 0,0 km/h (0 Bft)
11.04.2017 18:57 8,7 °C 8,7 °C 79 % 1022,0 hPa 0,0 mm 0,0 km/h (0 Bft) NO 42 ° 0 min 0,000 mm 0,0 UV-I 33 W/m² 5,3 °C 8,7 °C 0,0 km/h (0 Bft)
11.04.2017 18:58 8,6 °C 8,7 °C 79 % 1022,0 hPa 0,0 mm 0,0 km/h (0 Bft) NO 42 ° 0 min 0,000 mm 0,0 UV-I 37 W/m² 5,2 °C 8,6 °C 0,0 km/h (0 Bft)
11.04.2017 18:59 8,6 °C 8,6 °C 79 % 1022,0 hPa 0,0 mm 0,0 km/h (0 Bft) NO 42 ° 0 min 0,000 mm 0,0 UV-I 37 W/m² 5,2 °C 8,6 °C 0,0 km/h (0 Bft)
11.04.2017 19:00 8,6 °C 8,6 °C 80 % 1022,0 hPa 0,0 mm 0,0 km/h (0 Bft) NO 42 ° 0 min 0,025 mm 0,0 UV-I 39 W/m² 5,3 °C 8,6 °C 0,0 km/h (0 Bft)
11.04.2017 19:01 8,6 °C 8,6 °C 80 % 1022,0 hPa 0,0 mm 0,0 km/h (0 Bft) NO 42 ° 0 min 0,000 mm 0,0 UV-I 39 W/m² 5,3 °C 8,6 °C 0,0 km/h (0 Bft)
11.04.2017 19:02 8,6 °C 8,6 °C 80 % 1022,0 hPa 0,0 mm 0,1 km/h (0 Bft) NO 42 ° 0 min 0,000 mm 0,0 UV-I 37 W/m² 5,3 °C 8,6 °C 1,6 km/h (1 Bft)
11.04.2017 19:03 8,6 °C 8,6 °C 80 % 1022,0 hPa 0,0 mm 0,0 km/h (0 Bft) NO 42 ° 0 min 0,000 mm 0,0 UV-I 33 W/m² 5,3 °C 8,6 °C 0,0 km/h (0 Bft)
11.04.2017 19:04 8,6 °C 8,6 °C 80 % 1022,1 hPa 0,0 mm 0,0 km/h (0 Bft) NO 42 ° 0 min 0,000 mm 0,0 UV-I 32 W/m² 5,3 °C 8,6 °C 0,0 km/h (0 Bft)
11.04.2017 19:05 8,6 °C 8,6 °C 80 % 1022,1 hPa 0,0 mm 0,0 km/h (0 Bft) NO 42 ° 0 min 0,000 mm 0,0 UV-I 30 W/m² 5,3 °C 8,6 °C 0,0 km/h (0 Bft)
11.04.2017 19:06 8,5 °C 8,6 °C 80 % 1022,1 hPa 0,0 mm 0,0 km/h (0 Bft) NO 42 ° 0 min 0,000 mm 0,0 UV-I 30 W/m² 5,3 °C 8,5 °C 0,0 km/h (0 Bft)
11.04.2017 19:07 8,4 °C 8,5 °C 80 % 1022,0 hPa 0,0 mm 0,0 km/h (0 Bft) NO 42 ° 0 min 0,000 mm 0,0 UV-I 30 W/m² 5,2 °C 8,4 °C 0,0 km/h (0 Bft)
11.04.2017 19:08 8,4 °C 8,5 °C 80 % 1022,0 hPa 0,0 mm 0,0 km/h (0 Bft) NO 42 ° 0 min 0,000 mm 0,0 UV-I 30 W/m² 5,2 °C 8,4 °C 0,0 km/h (0 Bft)
11.04.2017 19:09 8,4 °C 8,4 °C 80 % 1022,1 hPa 0,0 mm 0,0 km/h (0 Bft) NO 42 ° 0 min 0,000 mm 0,0 UV-I 32 W/m² 5,2 °C 8,4 °C 0,0 km/h (0 Bft)
11.04.2017 19:10 8,4 °C 8,4 °C 80 % 1022,1 hPa 0,0 mm 0,0 km/h (0 Bft) NO 42 ° 0 min 0,000 mm 0,0 UV-I 32 W/m² 5,2 °C 8,4 °C 0,0 km/h (0 Bft)
11.04.2017 19:11 8,4 °C 8,4 °C 80 % 1022,0 hPa 0,0 mm 0,0 km/h (0 Bft) NO 42 ° 0 min 0,000 mm 0,0 UV-I 33 W/m² 5,2 °C 8,4 °C 0,0 km/h (0 Bft)
11.04.2017 19:12 8,4 °C 8,4 °C 81 % 1022,0 hPa 0,0 mm 0,0 km/h (0 Bft) NO 42 ° 0 min 0,000 mm 0,0 UV-I 32 W/m² 5,3 °C 8,4 °C 0,0 km/h (0 Bft)
11.04.2017 19:13 8,3 °C 8,4 °C 81 % 1022,0 hPa 0,0 mm 0,0 km/h (0 Bft) NO 42 ° 0 min 0,000 mm 0,0 UV-I 32 W/m² 5,2 °C 8,3 °C 0,0 km/h (0 Bft)
11.04.2017 19:14 8,3 °C 8,3 °C 81 % 1022,0 hPa 0,0 mm 0,0 km/h (0 Bft) NO 42 ° 0 min 0,000 mm 0,0 UV-I 30 W/m² 5,2 °C 8,3 °C 0,0 km/h (0 Bft)
11.04.2017 19:15 8,3 °C 8,3 °C 81 % 1022,0 hPa 0,0 mm 0,0 km/h (0 Bft) NO 42 ° 0 min 0,000 mm 0,0 UV-I 28 W/m² 5,2 °C 8,3 °C 0,0 km/h (0 Bft)
11.04.2017 19:16 8,3 °C 8,3 °C 81 % 1022,0 hPa 0,0 mm 0,0 km/h (0 Bft) NO 42 ° 0 min 0,000 mm 0,0 UV-I 25 W/m² 5,2 °C 8,3 °C 0,0 km/h (0 Bft)
11.04.2017 19:17 8,3 °C 8,3 °C 81 % 1022,0 hPa 0,0 mm 0,0 km/h (0 Bft) NO 42 ° 0 min 0,000 mm 0,0 UV-I 25 W/m² 5,2 °C 8,3 °C 0,0 km/h (0 Bft)
11.04.2017 19:18 8,3 °C 8,3 °C 81 % 1022,0 hPa 0,0 mm 0,0 km/h (0 Bft) NO 42 ° 0 min 0,000 mm 0,0 UV-I 25 W/m² 5,2 °C 8,3 °C 0,0 km/h (0 Bft)
11.04.2017 19:19 8,2 °C 8,3 °C 81 % 1022,1 hPa 0,0 mm 0,0 km/h (0 Bft) NO 42 ° 0 min 0,000 mm 0,0 UV-I 25 W/m² 5,1 °C 8,2 °C 0,0 km/h (0 Bft)
11.04.2017 19:20 8,2 °C 8,3 °C 81 % 1022,1 hPa 0,0 mm 0,0 km/h (0 Bft) NO 42 ° 0 min 0,000 mm 0,0 UV-I 26 W/m² 5,1 °C 8,2 °C 0,0 km/h (0 Bft)
11.04.2017 19:21 8,2 °C 8,2 °C 81 % 1022,2 hPa 0,0 mm 0,0 km/h (0 Bft) NO 42 ° 0 min 0,000 mm 0,0 UV-I 25 W/m² 5,1 °C 8,2 °C 0,0 km/h (0 Bft)
11.04.2017 19:22 8,2 °C 8,2 °C 81 % 1022,2 hPa 0,0 mm 0,0 km/h (0 Bft) NO 42 ° 0 min 0,000 mm 0,0 UV-I 25 W/m² 5,1 °C 8,2 °C 0,0 km/h (0 Bft)
11.04.2017 19:23 8,2 °C 8,2 °C 81 % 1022,2 hPa 0,0 mm 0,0 km/h (0 Bft) NO 42 ° 0 min 0,000 mm 0,0 UV-I 25 W/m² 5,1 °C 8,2 °C 0,0 km/h (0 Bft)
11.04.2017 19:24 8,2 °C 8,2 °C 82 % 1022,1 hPa 0,0 mm 0,0 km/h (0 Bft) NO 42 ° 0 min 0,000 mm 0,0 UV-I 25 W/m² 5,3 °C 8,2 °C 0,0 km/h (0 Bft)
11.04.2017 19:25 8,1 °C 8,2 °C 82 % 1022,1 hPa 0,0 mm 0,0 km/h (0 Bft) NO 42 ° 0 min 0,000 mm 0,0 UV-I 26 W/m² 5,2 °C 8,1 °C 0,0 km/h (0 Bft)
11.04.2017 19:26 8,1 °C 8,1 °C 83 % 1022,1 hPa 0,0 mm 0,0 km/h (0 Bft) NO 42 ° 0 min 0,000 mm 0,0 UV-I 25 W/m² 5,4 °C 8,1 °C 0,0 km/h (0 Bft)
11.04.2017 19:27 8,1 °C 8,1 °C 83 % 1022,1 hPa 0,0 mm 0,0 km/h (0 Bft) NO 42 ° 0 min 0,000 mm 0,0 UV-I 25 W/m² 5,4 °C 8,1 °C 0,0 km/h (0 Bft)
11.04.2017 19:28 8,0 °C 8,1 °C 83 % 1022,1 hPa 0,0 mm 0,0 km/h (0 Bft) NO 42 ° 0 min 0,000 mm 0,0 UV-I 25 W/m² 5,3 °C 8,0 °C 0,0 km/h (0 Bft)
11.04.2017 19:29 8,0 °C 8,1 °C 83 % 1022,1 hPa 0,0 mm 0,0 km/h (0 Bft) NO 42 ° 0 min 0,000 mm 0,0 UV-I 25 W/m² 5,3 °C 8,0 °C 0,0 km/h (0 Bft)
11.04.2017 19:30 8,0 °C 8,0 °C 83 % 1022,1 hPa 0,0 mm 0,0 km/h (0 Bft) NO 42 ° 0 min 0,000 mm 0,0 UV-I 25 W/m² 5,3 °C 8,0 °C 0,0 km/h (0 Bft)
11.04.2017 19:31 8,0 °C 8,0 °C 83 % 1022,1 hPa 0,0 mm 0,0 km/h (0 Bft) NO 42 ° 0 min 0,000 mm 0,0 UV-I 25 W/m² 5,3 °C 8,0 °C 0,0 km/h (0 Bft)
11.04.2017 19:32 7,9 °C 8,0 °C 83 % 1022,1 hPa 0,0 mm 0,8 km/h (0 Bft) NO 42 ° 0 min 0,000 mm 0,0 UV-I 26 W/m² 5,2 °C 7,9 °C 1,6 km/h (1 Bft)
11.04.2017 19:33 8,0 °C 8,0 °C 81 % 1022,1 hPa 0,0 mm 1,1 km/h (1 Bft) NO 42 ° 0 min 0,000 mm 0,0 UV-I 26 W/m² 4,9 °C 8,0 °C 1,6 km/h (1 Bft)
11.04.2017 19:34 7,9 °C 8,0 °C 81 % 1022,1 hPa 0,0 mm 1,1 km/h (1 Bft) NO 42 ° 0 min 0,000 mm 0,0 UV-I 28 W/m² 4,8 °C 7,9 °C 1,6 km/h (1 Bft)
11.04.2017 19:35 8,0 °C 8,0 °C 82 % 1022,1 hPa 0,0 mm 1,0 km/h (0 Bft) NO 42 ° 0 min 0,000 mm 0,0 UV-I 30 W/m² 5,1 °C 8,0 °C 1,6 km/h (1 Bft)
11.04.2017 19:36 8,0 °C 8,0 °C 82 % 1022,2 hPa 0,0 mm 1,1 km/h (1 Bft) NO 42 ° 0 min 0,000 mm 0,0 UV-I 28 W/m² 5,1 °C 8,0 °C 1,6 km/h (1 Bft)
11.04.2017 19:37 8,0 °C 8,0 °C 82 % 1022,2 hPa 0,0 mm 1,1 km/h (1 Bft) NO 42 ° 0 min 0,000 mm 0,0 UV-I 26 W/m² 5,1 °C 8,0 °C 1,6 km/h (1 Bft)
11.04.2017 19:38 7,9 °C 8,0 °C 83 % 1022,2 hPa 0,0 mm 0,5 km/h (0 Bft) NO 42 ° 0 min 0,000 mm 0,0 UV-I 25 W/m² 5,2 °C 7,9 °C 1,6 km/h (1 Bft)
11.04.2017 19:39 7,9 °C 7,9 °C 82 % 1022,2 hPa 0,0 mm 0,3 km/h (0 Bft) NO 42 ° 0 min 0,000 mm 0,0 UV-I 23 W/m² 5,0 °C 7,9 °C 1,6 km/h (1 Bft)
11.04.2017 19:40 7,8 °C 7,9 °C 83 % 1022,2 hPa 0,0 mm 0,0 km/h (0 Bft) NO 42 ° 0 min 0,000 mm 0,0 UV-I 21 W/m² 5,1 °C 7,8 °C 0,0 km/h (0 Bft)
11.04.2017 19:41 7,8 °C 7,9 °C 83 % 1022,2 hPa 0,0 mm 0,0 km/h (0 Bft) NO 42 ° 0 min 0,000 mm 0,0 UV-I 19 W/m² 5,1 °C 7,8 °C 0,0 km/h (0 Bft)
11.04.2017 19:42 7,8 °C 7,8 °C 83 % 1022,3 hPa 0,0 mm 0,0 km/h (0 Bft) NO 42 ° 0 min 0,000 mm 0,0 UV-I 19 W/m² 5,1 °C 7,8 °C 0,0 km/h (0 Bft)
11.04.2017 19:43 7,8 °C 7,8 °C 83 % 1022,2 hPa 0,0 mm 0,0 km/h (0 Bft) NO 42 ° 0 min 0,000 mm 0,0 UV-I 18 W/m² 5,1 °C 7,8 °C 0,0 km/h (0 Bft)
11.04.2017 19:44 7,8 °C 7,8 °C 83 % 1022,2 hPa 0,0 mm 0,0 km/h (0 Bft) NO 42 ° 0 min 0,000 mm 0,0 UV-I 14 W/m² 5,1 °C 7,8 °C 0,0 km/h (0 Bft)
11.04.2017 19:45 7,7 °C 7,8 °C 82 % 1022,2 hPa 0,0 mm 0,6 km/h (0 Bft) NO 42 ° 0 min 0,000 mm 0,0 UV-I 12 W/m² 4,8 °C 7,7 °C 1,6 km/h (1 Bft)
11.04.2017 19:46 7,7 °C 7,8 °C 82 % 1022,2 hPa 0,0 mm 1,3 km/h (1 Bft) NO 42 ° 0 min 0,000 mm 0,0 UV-I 12 W/m² 4,8 °C 7,7 °C 1,6 km/h (1 Bft)
11.04.2017 19:47 7,7 °C 7,7 °C 81 % 1022,2 hPa 0,0 mm 1,7 km/h (1 Bft) NO 42 ° 0 min 0,000 mm 0,0 UV-I 11 W/m² 4,7 °C 7,7 °C 3,2 km/h (1 Bft)
11.04.2017 19:48 7,7 °C 7,7 °C 81 % 1022,2 hPa 0,0 mm 1,5 km/h (1 Bft) NO 42 ° 0 min 0,000 mm 0,0 UV-I 11 W/m² 4,7 °C 7,7 °C 3,2 km/h (1 Bft)
11.04.2017 19:49 7,6 °C 7,7 °C 82 % 1022,2 hPa 0,0 mm 2,0 km/h (1 Bft) NO 42 ° 0 min 0,000 mm 0,0 UV-I 9 W/m² 4,7 °C 7,6 °C 3,2 km/h (1 Bft)
11.04.2017 19:50 7,6 °C 7,7 °C 82 % 1022,2 hPa 0,0 mm 1,3 km/h (1 Bft) NO 42 ° 0 min 0,000 mm 0,0 UV-I 7 W/m² 4,7 °C 7,6 °C 1,6 km/h (1 Bft)
11.04.2017 19:51 7,6 °C 7,6 °C 82 % 1022,2 hPa 0,0 mm 1,5 km/h (1 Bft) NO 42 ° 0 min 0,000 mm 0,0 UV-I 7 W/m² 4,7 °C 7,6 °C 1,6 km/h (1 Bft)
11.04.2017 19:52 7,5 °C 7,6 °C 82 % 1022,2 hPa 0,0 mm 1,7 km/h (1 Bft) NO 42 ° 0 min 0,000 mm 0,0 UV-I 5 W/m² 4,6 °C 7,5 °C 3,2 km/h (1 Bft)
11.04.2017 19:53 7,4 °C 7,5 °C 82 % 1022,2 hPa 0,0 mm 2,3 km/h (1 Bft) NO 42 ° 0 min 0,000 mm 0,0 UV-I 5 W/m² 4,5 °C 7,4 °C 3,2 km/h (1 Bft)
11.04.2017 19:54 7,4 °C 7,4 °C 83 % 1022,3 hPa 0,0 mm 2,3 km/h (1 Bft) NO 42 ° 0 min 0,000 mm 0,0 UV-I 5 W/m² 4,7 °C 7,4 °C 3,2 km/h (1 Bft)
11.04.2017 19:55 7,3 °C 7,4 °C 83 % 1022,3 hPa 0,0 mm 2,4 km/h (1 Bft) NO 42 ° 0 min 0,000 mm 0,0 UV-I 0 W/m² 4,6 °C 7,3 °C 3,2 km/h (1 Bft)
11.04.2017 19:56 7,3 °C 7,3 °C 83 % 1022,3 hPa 0,0 mm 3,0 km/h (1 Bft) NO 42 ° 0 min 0,000 mm 0,0 UV-I 0 W/m² 4,6 °C 7,3 °C 3,2 km/h (1 Bft)
11.04.2017 19:57 7,3 °C 7,3 °C 83 % 1022,3 hPa 0,0 mm 2,4 km/h (1 Bft) NO 42 ° 0 min 0,000 mm 0,0 UV-I 0 W/m² 4,6 °C 7,3 °C 3,2 km/h (1 Bft)
11.04.2017 19:58 7,3 °C 7,3 °C 84 % 1022,3 hPa 0,0 mm 1,9 km/h (1 Bft) NO 42 ° 0 min 0,000 mm 0,0 UV-I 0 W/m² 4,8 °C 7,3 °C 3,2 km/h (1 Bft)
11.04.2017 19:59 7,3 °C 7,3 °C 84 % 1022,3 hPa 0,0 mm 2,5 km/h (1 Bft) NO 42 ° 0 min 0,000 mm 0,0 UV-I 0 W/m² 4,8 °C 7,3 °C 3,2 km/h (1 Bft)
11.04.2017 20:00 7,3 °C 7,3 °C 84 % 1022,3 hPa 0,0 mm 2,7 km/h (1 Bft) NO 42 ° 0 min 0,000 mm 0,0 UV-I 0 W/m² 4,8 °C 7,3 °C 3,2 km/h (1 Bft)
11.04.2017 20:01 7,2 °C 7,3 °C 84 % 1022,3 hPa 0,0 mm 2,7 km/h (1 Bft) NO 42 ° 0 min 0,026 mm 0,0 UV-I 0 W/m² 4,7 °C 7,2 °C 3,2 km/h (1 Bft)
11.04.2017 20:02 7,1 °C 7,2 °C 85 % 1022,3 hPa 0,0 mm 1,7 km/h (1 Bft) NO 42 ° 0 min 0,000 mm 0,0 UV-I 0 W/m² 4,8 °C 7,1 °C 3,2 km/h (1 Bft)
11.04.2017 20:03 7,1 °C 7,1 °C 85 % 1022,3 hPa 0,0 mm 1,5 km/h (1 Bft) NO 42 ° 0 min 0,000 mm 0,0 UV-I 0 W/m² 4,8 °C 7,1 °C 1,6 km/h (1 Bft)
11.04.2017 20:04 7,1 °C 7,1 °C 85 % 1022,3 hPa 0,0 mm 1,2 km/h (1 Bft) NO 42 ° 0 min 0,000 mm 0,0 UV-I 0 W/m² 4,8 °C 7,1 °C 1,6 km/h (1 Bft)
11.04.2017 20:05 6,9 °C 7,1 °C 85 % 1022,4 hPa 0,0 mm 1,6 km/h (1 Bft) NO 42 ° 0 min 0,000 mm 0,0 UV-I 0 W/m² 4,6 °C 6,9 °C 1,6 km/h (1 Bft)
11.04.2017 20:06 6,9 °C 6,9 °C 85 % 1022,4 hPa 0,0 mm 1,6 km/h (1 Bft) NO 42 ° 0 min 0,000 mm 0,0 UV-I 0 W/m² 4,6 °C 6,9 °C 1,6 km/h (1 Bft)
11.04.2017 20:07 6,8 °C 6,9 °C 85 % 1022,4 hPa 0,0 mm 1,5 km/h (1 Bft) NO 42 ° 0 min 0,000 mm 0,0 UV-I 0 W/m² 4,5 °C 6,8 °C 1,6 km/h (1 Bft)
11.04.2017 20:08 6,8 °C 6,9 °C 85 % 1022,3 hPa 0,0 mm 1,9 km/h (1 Bft) NO 42 ° 0 min 0,000 mm 0,0 UV-I 0 W/m² 4,5 °C 6,8 °C 3,2 km/h (1 Bft)
11.04.2017 20:09 6,8 °C 6,8 °C 85 % 1022,4 hPa 0,0 mm 1,2 km/h (1 Bft) NO 42 ° 0 min 0,000 mm 0,0 UV-I 0 W/m² 4,5 °C 6,8 °C 1,6 km/h (1 Bft)
11.04.2017 20:10 6,8 °C 6,8 °C 85 % 1022,4 hPa 0,0 mm 1,7 km/h (1 Bft) NO 42 ° 0 min 0,000 mm 0,0 UV-I 0 W/m² 4,5 °C 6,8 °C 3,2 km/h (1 Bft)
11.04.2017 20:11 6,8 °C 6,8 °C 85 % 1022,4 hPa 0,0 mm 2,1 km/h (1 Bft) NO 42 ° 0 min 0,000 mm 0,0 UV-I 0 W/m² 4,5 °C 6,8 °C 3,2 km/h (1 Bft)
11.04.2017 20:12 6,7 °C 6,8 °C 86 % 1022,4 hPa 0,0 mm 2,7 km/h (1 Bft) NO 42 ° 0 min 0,000 mm 0,0 UV-I 0 W/m² 4,5 °C 6,7 °C 3,2 km/h (1 Bft)
11.04.2017 20:13 6,7 °C 6,7 °C 86 % 1022,4 hPa 0,0 mm 2,1 km/h (1 Bft) NO 42 ° 0 min 0,000 mm 0,0 UV-I 0 W/m² 4,5 °C 6,7 °C 3,2 km/h (1 Bft)
11.04.2017 20:14 6,7 °C 6,7 °C 86 % 1022,5 hPa 0,0 mm 2,1 km/h (1 Bft) NO 42 ° 0 min 0,000 mm 0,0 UV-I 0 W/m² 4,5 °C 6,7 °C 3,2 km/h (1 Bft)
11.04.2017 20:15 6,7 °C 6,7 °C 86 % 1022,5 hPa 0,0 mm 2,2 km/h (1 Bft) NO 42 ° 0 min 0,000 mm 0,0 UV-I 0 W/m² 4,5 °C 6,7 °C 3,2 km/h (1 Bft)
11.04.2017 20:16 6,7 °C 6,7 °C 87 % 1022,5 hPa 0,0 mm 2,4 km/h (1 Bft) NO 42 ° 0 min 0,000 mm 0,0 UV-I 0 W/m² 4,7 °C 6,7 °C 3,2 km/h (1 Bft)
11.04.2017 20:17 6,7 °C 6,7 °C 86 % 1022,5 hPa 0,0 mm 2,1 km/h (1 Bft) NO 42 ° 0 min 0,000 mm 0,0 UV-I 0 W/m² 4,5 °C 6,7 °C 3,2 km/h (1 Bft)
11.04.2017 20:18 6,6 °C 6,7 °C 86 % 1022,5 hPa 0,0 mm 2,5 km/h (1 Bft) NO 44 ° 0 min 0,000 mm 0,0 UV-I 0 W/m² 4,4 °C 6,6 °C 3,2 km/h (1 Bft)
11.04.2017 20:19 6,6 °C 6,7 °C 86 % 1022,4 hPa 0,0 mm 2,3 km/h (1 Bft) NO 45 ° 0 min 0,000 mm 0,0 UV-I 0 W/m² 4,4 °C 6,6 °C 3,2 km/h (1 Bft)
11.04.2017 20:20 6,6 °C 6,6 °C 86 % 1022,4 hPa 0,0 mm 2,0 km/h (1 Bft) NO 45 ° 0 min 0,000 mm 0,0 UV-I 0 W/m² 4,4 °C 6,6 °C 3,2 km/h (1 Bft)
11.04.2017 20:21 6,6 °C 6,7 °C 86 % 1022,4 hPa 0,0 mm 1,2 km/h (1 Bft) NO 45 ° 0 min 0,000 mm 0,0 UV-I 0 W/m² 4,4 °C 6,6 °C 1,6 km/h (1 Bft)
11.04.2017 20:22 6,6 °C 6,7 °C 87 % 1022,4 hPa 0,0 mm 2,0 km/h (1 Bft) NO 45 ° 0 min 0,000 mm 0,0 UV-I 0 W/m² 4,6 °C 6,6 °C 3,2 km/h (1 Bft)
11.04.2017 20:23 6,7 °C 6,7 °C 86 % 1022,4 hPa 0,0 mm 1,3 km/h (1 Bft) NO 45 ° 0 min 0,000 mm 0,0 UV-I 0 W/m² 4,5 °C 6,7 °C 1,6 km/h (1 Bft)
11.04.2017 20:24 6,7 °C 6,7 °C 87 % 1022,3 hPa 0,0 mm 0,7 km/h (0 Bft) NO 45 ° 0 min 0,000 mm 0,0 UV-I 0 W/m² 4,7 °C 6,7 °C 1,6 km/h (1 Bft)
11.04.2017 20:25 6,7 °C 6,7 °C 87 % 1022,3 hPa 0,0 mm 1,1 km/h (1 Bft) NO 45 ° 0 min 0,000 mm 0,0 UV-I 0 W/m² 4,7 °C 6,7 °C 3,2 km/h (1 Bft)
11.04.2017 20:26 6,6 °C 6,7 °C 87 % 1022,4 hPa 0,0 mm 1,6 km/h (1 Bft) NO 45 ° 0 min 0,000 mm 0,0 UV-I 0 W/m² 4,6 °C 6,6 °C 3,2 km/h (1 Bft)
11.04.2017 20:27 6,6 °C 6,7 °C 86 % 1022,4 hPa 0,0 mm 0,1 km/h (0 Bft) NO 45 ° 0 min 0,000 mm 0,0 UV-I 0 W/m² 4,4 °C 6,6 °C 1,6 km/h (1 Bft)
11.04.2017 20:28 6,6 °C 6,6 °C 85 % 1022,5 hPa 0,0 mm 1,1 km/h (1 Bft) NO 45 ° 0 min 0,000 mm 0,0 UV-I 0 W/m² 4,3 °C 6,6 °C 1,6 km/h (1 Bft)
11.04.2017 20:29 6,4 °C 6,6 °C 86 % 1022,5 hPa 0,0 mm 1,7 km/h (1 Bft) NO 45 ° 0 min 0,000 mm 0,0 UV-I 0 W/m² 4,2 °C 6,4 °C 3,2 km/h (1 Bft)
11.04.2017 20:30 6,4 °C 6,4 °C 86 % 1022,6 hPa 0,0 mm 1,5 km/h (1 Bft) NO 45 ° 0 min 0,000 mm 0,0 UV-I 0 W/m² 4,2 °C 6,4 °C 1,6 km/h (1 Bft)
11.04.2017 20:31 6,4 °C 6,4 °C 86 % 1022,6 hPa 0,0 mm 1,5 km/h (1 Bft) NO 45 ° 0 min 0,000 mm 0,0 UV-I 0 W/m² 4,2 °C 6,4 °C 1,6 km/h (1 Bft)
11.04.2017 20:32 6,3 °C 6,4 °C 87 % 1022,6 hPa 0,0 mm 1,7 km/h (1 Bft) NO 45 ° 0 min 0,000 mm 0,0 UV-I 0 W/m² 4,3 °C 6,3 °C 3,2 km/h (1 Bft)
11.04.2017 20:33 6,3 °C 6,3 °C 87 % 1022,6 hPa 0,0 mm 1,5 km/h (1 Bft) NO 45 ° 0 min 0,000 mm 0,0 UV-I 0 W/m² 4,3 °C 6,3 °C 1,6 km/h (1 Bft)
11.04.2017 20:34 6,3 °C 6,3 °C 87 % 1022,6 hPa 0,0 mm 1,8 km/h (1 Bft) NO 45 ° 0 min 0,000 mm 0,0 UV-I 0 W/m² 4,3 °C 6,3 °C 3,2 km/h (1 Bft)
11.04.2017 20:35 6,2 °C 6,3 °C 87 % 1022,6 hPa 0,0 mm 1,5 km/h (1 Bft) NO 45 ° 0 min 0,000 mm 0,0 UV-I 0 W/m² 4,2 °C 6,2 °C 1,6 km/h (1 Bft)
11.04.2017 20:36 6,2 °C 6,2 °C 87 % 1022,6 hPa 0,0 mm 1,1 km/h (1 Bft) NO 45 ° 0 min 0,000 mm 0,0 UV-I 0 W/m² 4,2 °C 6,2 °C 1,6 km/h (1 Bft)
11.04.2017 20:37 6,0 °C 6,2 °C 86 % 1022,6 hPa 0,0 mm 1,1 km/h (1 Bft) NO 45 ° 0 min 0,000 mm 0,0 UV-I 0 W/m² 3,8 °C 6,0 °C 1,6 km/h (1 Bft)
11.04.2017 20:38 5,8 °C 6,0 °C 86 % 1022,7 hPa 0,0 mm 1,1 km/h (1 Bft) NO 45 ° 0 min 0,000 mm 0,0 UV-I 0 W/m² 3,6 °C 5,8 °C 3,2 km/h (1 Bft)
11.04.2017 20:39 5,8 °C 5,8 °C 87 % 1022,8 hPa 0,0 mm 0,8 km/h (0 Bft) NO 45 ° 0 min 0,000 mm 0,0 UV-I 0 W/m² 3,8 °C 5,8 °C 1,6 km/h (1 Bft)
11.04.2017 20:40 5,8 °C 5,8 °C 89 % 1022,8 hPa 0,0 mm 1,3 km/h (1 Bft) NO 45 ° 0 min 0,000 mm 0,0 UV-I 0 W/m² 4,1 °C 5,8 °C 1,6 km/h (1 Bft)
11.04.2017 20:41 5,9 °C 5,9 °C 89 % 1022,8 hPa 0,0 mm 1,1 km/h (1 Bft) NO 45 ° 0 min 0,000 mm 0,0 UV-I 0 W/m² 4,2 °C 5,9 °C 1,6 km/h (1 Bft)
11.04.2017 20:42 5,9 °C 5,9 °C 89 % 1022,8 hPa 0,0 mm 0,9 km/h (0 Bft) NO 45 ° 0 min 0,000 mm 0,0 UV-I 0 W/m² 4,2 °C 5,9 °C 1,6 km/h (1 Bft)
11.04.2017 20:43 6,1 °C 6,1 °C 89 % 1022,8 hPa 0,0 mm 0,3 km/h (0 Bft) NO 45 ° 0 min 0,000 mm 0,0 UV-I 0 W/m² 4,4 °C 6,1 °C 1,6 km/h (1 Bft)
11.04.2017 20:44 6,1 °C 6,1 °C 89 % 1022,8 hPa 0,0 mm 0,0 km/h (0 Bft) NO 45 ° 0 min 0,000 mm 0,0 UV-I 0 W/m² 4,4 °C 6,1 °C 0,0 km/h (0 Bft)
11.04.2017 20:45 6,1 °C 6,1 °C 88 % 1022,8 hPa 0,0 mm 0,0 km/h (0 Bft) NO 45 ° 0 min 0,000 mm 0,0 UV-I 0 W/m² 4,3 °C 6,1 °C 0,0 km/h (0 Bft)
11.04.2017 20:46 6,1 °C 6,1 °C 88 % 1022,9 hPa 0,0 mm 0,0 km/h (0 Bft) NO 45 ° 0 min 0,000 mm 0,0 UV-I 0 W/m² 4,3 °C 6,1 °C 0,0 km/h (0 Bft)
11.04.2017 20:47 6,1 °C 6,1 °C 88 % 1022,9 hPa 0,0 mm 0,0 km/h (0 Bft) NO 45 ° 0 min 0,000 mm 0,0 UV-I 0 W/m² 4,3 °C 6,1 °C 0,0 km/h (0 Bft)
11.04.2017 20:48 6,0 °C 6,1 °C 88 % 1022,9 hPa 0,0 mm 0,0 km/h (0 Bft) NO 45 ° 0 min 0,000 mm 0,0 UV-I 0 W/m² 4,2 °C 6,0 °C 0,0 km/h (0 Bft)
11.04.2017 20:49 5,9 °C 6,0 °C 89 % 1022,9 hPa 0,0 mm 0,0 km/h (0 Bft) NO 45 ° 0 min 0,000 mm 0,0 UV-I 0 W/m² 4,2 °C 5,9 °C 0,0 km/h (0 Bft)
11.04.2017 20:50 5,9 °C 5,9 °C 88 % 1023,0 hPa 0,0 mm 0,0 km/h (0 Bft) NO 44 ° 0 min 0,000 mm 0,0 UV-I 0 W/m² 4,1 °C 5,9 °C 0,0 km/h (0 Bft)
11.04.2017 20:51 5,9 °C 5,9 °C 89 % 1023,1 hPa 0,0 mm 0,0 km/h (0 Bft) NO 45 ° 0 min 0,000 mm 0,0 UV-I 0 W/m² 4,2 °C 5,9 °C 0,0 km/h (0 Bft)
11.04.2017 20:52 5,9 °C 5,9 °C 89 % 1023,1 hPa 0,0 mm 0,0 km/h (0 Bft) NO 45 ° 0 min 0,000 mm 0,0 UV-I 0 W/m² 4,2 °C 5,9 °C 0,0 km/h (0 Bft)
11.04.2017 20:53 5,9 °C 5,9 °C 89 % 1023,1 hPa 0,0 mm 0,0 km/h (0 Bft) NO 45 ° 0 min 0,000 mm 0,0 UV-I 0 W/m² 4,2 °C 5,9 °C 0,0 km/h (0 Bft)
11.04.2017 20:54 5,9 °C 5,9 °C 89 % 1023,2 hPa 0,0 mm 0,0 km/h (0 Bft) NO 45 ° 0 min 0,000 mm 0,0 UV-I 0 W/m² 4,2 °C 5,9 °C 0,0 km/h (0 Bft)
11.04.2017 20:55 5,8 °C 5,9 °C 89 % 1023,2 hPa 0,0 mm 0,0 km/h (0 Bft) NO 45 ° 0 min 0,000 mm 0,0 UV-I 0 W/m² 4,1 °C 5,8 °C 0,0 km/h (0 Bft)
11.04.2017 20:56 5,8 °C 5,8 °C 89 % 1023,2 hPa 0,0 mm 0,0 km/h (0 Bft) NO 45 ° 0 min 0,000 mm 0,0 UV-I 0 W/m² 4,1 °C 5,8 °C 0,0 km/h (0 Bft)
11.04.2017 20:57 5,8 °C 5,8 °C 89 % 1023,2 hPa 0,0 mm 0,0 km/h (0 Bft) NO 45 ° 0 min 0,000 mm 0,0 UV-I 0 W/m² 4,1 °C 5,8 °C 0,0 km/h (0 Bft)
11.04.2017 20:58 5,7 °C 5,8 °C 89 % 1023,3 hPa 0,0 mm 0,0 km/h (0 Bft) NO 45 ° 0 min 0,000 mm 0,0 UV-I 0 W/m² 4,0 °C 5,7 °C 0,0 km/h (0 Bft)
11.04.2017 20:59 5,7 °C 5,7 °C 89 % 1023,3 hPa 0,0 mm 0,0 km/h (0 Bft) NO 45 ° 0 min 0,000 mm 0,0 UV-I 0 W/m² 4,0 °C 5,7 °C 0,0 km/h (0 Bft)
11.04.2017 21:00 5,7 °C 5,7 °C 88 % 1023,3 hPa 0,0 mm 0,0 km/h (0 Bft) NO 45 ° 0 min 0,000 mm 0,0 UV-I 0 W/m² 3,9 °C 5,7 °C 0,0 km/h (0 Bft)
11.04.2017 21:01 5,6 °C 5,7 °C 89 % 1023,3 hPa 0,0 mm 0,0 km/h (0 Bft) NO 45 ° 0 min 0,000 mm 0,0 UV-I 0 W/m² 3,9 °C 5,6 °C 0,0 km/h (0 Bft)
11.04.2017 21:02 5,6 °C 5,6 °C 89 % 1023,3 hPa 0,0 mm 0,0 km/h (0 Bft) NO 45 ° 0 min 0,000 mm 0,0 UV-I 0 W/m² 3,9 °C 5,6 °C 0,0 km/h (0 Bft)
11.04.2017 21:03 5,6 °C 5,6 °C 89 % 1023,3 hPa 0,0 mm 0,0 km/h (0 Bft) NO 44 ° 0 min 0,000 mm 0,0 UV-I 0 W/m² 3,9 °C 5,6 °C 0,0 km/h (0 Bft)
11.04.2017 21:04 5,7 °C 5,7 °C 89 % 1023,3 hPa 0,0 mm 0,0 km/h (0 Bft) NO 45 ° 0 min 0,000 mm 0,0 UV-I 0 W/m² 4,0 °C 5,7 °C 0,0 km/h (0 Bft)
11.04.2017 21:05 5,7 °C 5,7 °C 89 % 1023,3 hPa 0,0 mm 0,0 km/h (0 Bft) NO 45 ° 0 min 0,000 mm 0,0 UV-I 0 W/m² 4,0 °C 5,7 °C 0,0 km/h (0 Bft)
11.04.2017 21:06 5,7 °C 5,7 °C 89 % 1023,3 hPa 0,0 mm 0,0 km/h (0 Bft) NO 45 ° 0 min 0,000 mm 0,0 UV-I 0 W/m² 4,0 °C 5,7 °C 0,0 km/h (0 Bft)
11.04.2017 21:07 5,8 °C 5,8 °C 89 % 1023,2 hPa 0,0 mm 0,0 km/h (0 Bft) NO 45 ° 0 min 0,000 mm 0,0 UV-I 0 W/m² 4,1 °C 5,8 °C 0,0 km/h (0 Bft)
11.04.2017 21:08 5,8 °C 5,8 °C 90 % 1023,2 hPa 0,0 mm 0,0 km/h (0 Bft) NO 45 ° 0 min 0,000 mm 0,0 UV-I 0 W/m² 4,3 °C 5,8 °C 0,0 km/h (0 Bft)
11.04.2017 21:09 5,9 °C 5,9 °C 90 % 1023,2 hPa 0,0 mm 0,0 km/h (0 Bft) NO 44 ° 0 min 0,000 mm 0,0 UV-I 0 W/m² 4,4 °C 5,9 °C 0,0 km/h (0 Bft)
11.04.2017 21:10 5,9 °C 6,0 °C 90 % 1023,2 hPa 0,0 mm 0,0 km/h (0 Bft) NO 45 ° 0 min 0,000 mm 0,0 UV-I 0 W/m² 4,4 °C 5,9 °C 0,0 km/h (0 Bft)
11.04.2017 21:11 6,0 °C 6,1 °C 90 % 1023,1 hPa 0,0 mm 0,0 km/h (0 Bft) NO 45 ° 0 min 0,000 mm 0,0 UV-I 0 W/m² 4,5 °C 6,0 °C 0,0 km/h (0 Bft)
11.04.2017 21:12 6,1 °C 6,1 °C 90 % 1023,2 hPa 0,0 mm 0,0 km/h (0 Bft) NO 45 ° 0 min 0,000 mm 0,0 UV-I 0 W/m² 4,6 °C 6,1 °C 0,0 km/h (0 Bft)
11.04.2017 21:13 6,1 °C 6,1 °C 90 % 1023,2 hPa 0,0 mm 0,0 km/h (0 Bft) NO 45 ° 0 min 0,000 mm 0,0 UV-I 0 W/m² 4,6 °C 6,1 °C 0,0 km/h (0 Bft)
11.04.2017 21:14 6,1 °C 6,1 °C 90 % 1023,2 hPa 0,0 mm 0,0 km/h (0 Bft) NO 45 ° 0 min 0,000 mm 0,0 UV-I 0 W/m² 4,6 °C 6,1 °C 0,0 km/h (0 Bft)
11.04.2017 21:15 6,1 °C 6,1 °C 90 % 1023,2 hPa 0,0 mm 0,0 km/h (0 Bft) NO 45 ° 0 min 0,000 mm 0,0 UV-I 0 W/m² 4,6 °C 6,1 °C 0,0 km/h (0 Bft)
11.04.2017 21:16 6,1 °C 6,1 °C 89 % 1023,2 hPa 0,0 mm 0,0 km/h (0 Bft) NO 45 ° 0 min 0,000 mm 0,0 UV-I 0 W/m² 4,4 °C 6,1 °C 0,0 km/h (0 Bft)
11.04.2017 21:17 6,1 °C 6,1 °C 89 % 1023,2 hPa 0,0 mm 0,0 km/h (0 Bft) NO 45 ° 0 min 0,000 mm 0,0 UV-I 0 W/m² 4,4 °C 6,1 °C 0,0 km/h (0 Bft)
11.04.2017 21:18 6,0 °C 6,1 °C 89 % 1023,3 hPa 0,0 mm 0,0 km/h (0 Bft) NO 44 ° 0 min 0,000 mm 0,0 UV-I 0 W/m² 4,3 °C 6,0 °C 0,0 km/h (0 Bft)
11.04.2017 21:19 5,9 °C 6,0 °C 89 % 1023,2 hPa 0,0 mm 0,0 km/h (0 Bft) NO 45 ° 0 min 0,000 mm 0,0 UV-I 0 W/m² 4,2 °C 5,9 °C 0,0 km/h (0 Bft)
11.04.2017 21:20 5,9 °C 6,0 °C 89 % 1023,2 hPa 0,0 mm 0,0 km/h (0 Bft) NO 45 ° 0 min 0,000 mm 0,0 UV-I 0 W/m² 4,2 °C 5,9 °C 0,0 km/h (0 Bft)
11.04.2017 21:21 5,9 °C 5,9 °C 89 % 1023,2 hPa 0,0 mm 0,0 km/h (0 Bft) NO 45 ° 0 min 0,000 mm 0,0 UV-I 0 W/m² 4,2 °C 5,9 °C 0,0 km/h (0 Bft)
11.04.2017 21:22 5,9 °C 6,0 °C 90 % 1023,2 hPa 0,0 mm 0,0 km/h (0 Bft) NO 45 ° 0 min 0,000 mm 0,0 UV-I 0 W/m² 4,4 °C 5,9 °C 0,0 km/h (0 Bft)
11.04.2017 21:23 5,9 °C 5,9 °C 90 % 1023,2 hPa 0,0 mm 0,0 km/h (0 Bft) NO 45 ° 0 min 0,000 mm 0,0 UV-I 0 W/m² 4,4 °C 5,9 °C 0,0 km/h (0 Bft)
11.04.2017 21:24 5,9 °C 5,9 °C 89 % 1023,2 hPa 0,0 mm 0,0 km/h (0 Bft) NO 45 ° 0 min 0,000 mm 0,0 UV-I 0 W/m² 4,2 °C 5,9 °C 0,0 km/h (0 Bft)
11.04.2017 21:25 5,9 °C 5,9 °C 90 % 1023,3 hPa 0,0 mm 0,0 km/h (0 Bft) NO 44 ° 0 min 0,000 mm 0,0 UV-I 0 W/m² 4,4 °C 5,9 °C 0,0 km/h (0 Bft)
11.04.2017 21:26 5,9 °C 6,0 °C 90 % 1023,3 hPa 0,0 mm 0,0 km/h (0 Bft) NO 45 ° 0 min 0,000 mm 0,0 UV-I 0 W/m² 4,4 °C 5,9 °C 0,0 km/h (0 Bft)
11.04.2017 21:27 6,1 °C 6,1 °C 90 % 1023,3 hPa 0,0 mm 0,0 km/h (0 Bft) NO 45 ° 0 min 0,000 mm 0,0 UV-I 0 W/m² 4,6 °C 6,1 °C 0,0 km/h (0 Bft)
11.04.2017 21:28 6,1 °C 6,1 °C 89 % 1023,3 hPa 0,0 mm 0,0 km/h (0 Bft) NO 45 ° 0 min 0,000 mm 0,0 UV-I 0 W/m² 4,4 °C 6,1 °C 0,0 km/h (0 Bft)
11.04.2017 21:29 6,2 °C 6,2 °C 89 % 1023,3 hPa 0,0 mm 0,0 km/h (0 Bft) NO 45 ° 0 min 0,000 mm 0,0 UV-I 0 W/m² 4,5 °C 6,2 °C 0,0 km/h (0 Bft)
11.04.2017 21:30 6,2 °C 6,2 °C 89 % 1023,3 hPa 0,0 mm 0,0 km/h (0 Bft) NO 45 ° 0 min 0,000 mm 0,0 UV-I 0 W/m² 4,5 °C 6,2 °C 0,0 km/h (0 Bft)
11.04.2017 21:31 6,2 °C 6,2 °C 89 % 1023,4 hPa 0,0 mm 0,0 km/h (0 Bft) NO 45 ° 0 min 0,000 mm 0,0 UV-I 0 W/m² 4,5 °C 6,2 °C 0,0 km/h (0 Bft)
11.04.2017 21:32 6,2 °C 6,2 °C 89 % 1023,3 hPa 0,0 mm 0,0 km/h (0 Bft) NO 45 ° 0 min 0,000 mm 0,0 UV-I 0 W/m² 4,5 °C 6,2 °C 0,0 km/h (0 Bft)
11.04.2017 21:33 6,3 °C 6,3 °C 89 % 1023,2 hPa 0,0 mm 0,0 km/h (0 Bft) NO 45 ° 0 min 0,000 mm 0,0 UV-I 0 W/m² 4,6 °C 6,3 °C 0,0 km/h (0 Bft)
11.04.2017 21:34 6,3 °C 6,3 °C 89 % 1023,2 hPa 0,0 mm 0,0 km/h (0 Bft) NO 45 ° 0 min 0,000 mm 0,0 UV-I 0 W/m² 4,6 °C 6,3 °C 0,0 km/h (0 Bft)
11.04.2017 21:35 6,3 °C 6,3 °C 88 % 1023,2 hPa 0,0 mm 0,0 km/h (0 Bft) NO 45 ° 0 min 0,000 mm 0,0 UV-I 0 W/m² 4,5 °C 6,3 °C 0,0 km/h (0 Bft)
11.04.2017 21:36 6,2 °C 6,3 °C 89 % 1023,2 hPa 0,0 mm 0,0 km/h (0 Bft) NO 45 ° 0 min 0,000 mm 0,0 UV-I 0 W/m² 4,5 °C 6,2 °C 0,0 km/h (0 Bft)
11.04.2017 21:37 6,2 °C 6,2 °C 88 % 1023,2 hPa 0,0 mm 0,0 km/h (0 Bft) NO 45 ° 0 min 0,000 mm 0,0 UV-I 0 W/m² 4,4 °C 6,2 °C 0,0 km/h (0 Bft)
11.04.2017 21:38 6,2 °C 6,2 °C 88 % 1023,2 hPa 0,0 mm 0,0 km/h (0 Bft) NO 45 ° 0 min 0,000 mm 0,0 UV-I 0 W/m² 4,4 °C 6,2 °C 0,0 km/h (0 Bft)
11.04.2017 21:39 6,2 °C 6,2 °C 89 % 1023,3 hPa 0,0 mm 0,0 km/h (0 Bft) NO 44 ° 0 min 0,000 mm 0,0 UV-I 0 W/m² 4,5 °C 6,2 °C 0,0 km/h (0 Bft)
11.04.2017 21:40 6,1 °C 6,2 °C 88 % 1023,3 hPa 0,0 mm 0,0 km/h (0 Bft) NO 45 ° 0 min 0,000 mm 0,0 UV-I 0 W/m² 4,3 °C 6,1 °C 0,0 km/h (0 Bft)
11.04.2017 21:41 6,1 °C 6,2 °C 88 % 1023,3 hPa 0,0 mm 0,0 km/h (0 Bft) NO 44 ° 0 min 0,000 mm 0,0 UV-I 0 W/m² 4,3 °C 6,1 °C 0,0 km/h (0 Bft)
11.04.2017 21:42 6,1 °C 6,2 °C 88 % 1023,3 hPa 0,0 mm 0,0 km/h (0 Bft) NO 45 ° 0 min 0,000 mm 0,0 UV-I 0 W/m² 4,3 °C 6,1 °C 0,0 km/h (0 Bft)
11.04.2017 21:43 6,2 °C 6,2 °C 89 % 1023,3 hPa 0,0 mm 0,0 km/h (0 Bft) NO 45 ° 0 min 0,000 mm 0,0 UV-I 0 W/m² 4,5 °C 6,2 °C 0,0 km/h (0 Bft)
11.04.2017 21:44 6,1 °C 6,2 °C 89 % 1023,3 hPa 0,0 mm 0,0 km/h (0 Bft) NO 45 ° 0 min 0,000 mm 0,0 UV-I 0 W/m² 4,4 °C 6,1 °C 0,0 km/h (0 Bft)
11.04.2017 21:45 6,2 °C 6,2 °C 89 % 1023,4 hPa 0,0 mm 0,0 km/h (0 Bft) NO 45 ° 0 min 0,000 mm 0,0 UV-I 0 W/m² 4,5 °C 6,2 °C 0,0 km/h (0 Bft)
11.04.2017 21:46 6,2 °C 6,2 °C 89 % 1023,3 hPa 0,0 mm 0,0 km/h (0 Bft) NO 45 ° 0 min 0,000 mm 0,0 UV-I 0 W/m² 4,5 °C 6,2 °C 0,0 km/h (0 Bft)
11.04.2017 21:47 6,1 °C 6,2 °C 88 % 1023,3 hPa 0,0 mm 0,0 km/h (0 Bft) NO 45 ° 0 min 0,000 mm 0,0 UV-I 0 W/m² 4,3 °C 6,1 °C 0,0 km/h (0 Bft)
11.04.2017 21:48 5,9 °C 6,1 °C 87 % 1023,4 hPa 0,0 mm 0,0 km/h (0 Bft) NO 45 ° 0 min 0,000 mm 0,0 UV-I 0 W/m² 3,9 °C 5,9 °C 0,0 km/h (0 Bft)
11.04.2017 21:49 5,9 °C 5,9 °C 88 % 1023,3 hPa 0,0 mm 0,0 km/h (0 Bft) NO 45 ° 0 min 0,000 mm 0,0 UV-I 0 W/m² 4,1 °C 5,9 °C 0,0 km/h (0 Bft)
11.04.2017 21:50 5,9 °C 5,9 °C 89 % 1023,3 hPa 0,0 mm 0,0 km/h (0 Bft) NO 45 ° 0 min 0,000 mm 0,0 UV-I 0 W/m² 4,2 °C 5,9 °C 0,0 km/h (0 Bft)
11.04.2017 21:51 5,8 °C 5,9 °C 88 % 1023,4 hPa 0,0 mm 0,0 km/h (0 Bft) NO 45 ° 0 min 0,000 mm 0,0 UV-I 0 W/m² 4,0 °C 5,8 °C 0,0 km/h (0 Bft)
11.04.2017 21:52 5,8 °C 5,8 °C 89 % 1023,3 hPa 0,0 mm 0,0 km/h (0 Bft) NO 45 ° 0 min 0,000 mm 0,0 UV-I 0 W/m² 4,1 °C 5,8 °C 0,0 km/h (0 Bft)
11.04.2017 21:53 5,8 °C 5,8 °C 89 % 1023,3 hPa 0,0 mm 0,0 km/h (0 Bft) NO 45 ° 0 min 0,000 mm 0,0 UV-I 0 W/m² 4,1 °C 5,8 °C 0,0 km/h (0 Bft)
11.04.2017 21:54 5,8 °C 5,8 °C 89 % 1023,3 hPa 0,0 mm 0,0 km/h (0 Bft) NO 45 ° 0 min 0,000 mm 0,0 UV-I 0 W/m² 4,1 °C 5,8 °C 0,0 km/h (0 Bft)
11.04.2017 21:55 5,8 °C 5,8 °C 89 % 1023,3 hPa 0,0 mm 0,0 km/h (0 Bft) NO 45 ° 0 min 0,000 mm 0,0 UV-I 0 W/m² 4,1 °C 5,8 °C 0,0 km/h (0 Bft)
11.04.2017 21:56 5,8 °C 5,8 °C 90 % 1023,4 hPa 0,0 mm 0,0 km/h (0 Bft) NO 45 ° 0 min 0,000 mm 0,0 UV-I 0 W/m² 4,3 °C 5,8 °C 0,0 km/h (0 Bft)
11.04.2017 21:57 5,9 °C 5,9 °C 90 % 1023,4 hPa 0,0 mm 0,0 km/h (0 Bft) NO 45 ° 0 min 0,000 mm 0,0 UV-I 0 W/m² 4,4 °C 5,9 °C 0,0 km/h (0 Bft)
11.04.2017 21:58 5,9 °C 5,9 °C 90 % 1023,4 hPa 0,0 mm 0,0 km/h (0 Bft) NO 45 ° 0 min 0,000 mm 0,0 UV-I 0 W/m² 4,4 °C 5,9 °C 0,0 km/h (0 Bft)
11.04.2017 21:59 5,9 °C 5,9 °C 90 % 1023,4 hPa 0,0 mm 0,0 km/h (0 Bft) NO 45 ° 0 min 0,000 mm 0,0 UV-I 0 W/m² 4,4 °C 5,9 °C 0,0 km/h (0 Bft)
11.04.2017 22:00 6,0 °C 6,0 °C 89 % 1023,4 hPa 0,0 mm 0,0 km/h (0 Bft) NO 45 ° 0 min 0,000 mm 0,0 UV-I 0 W/m² 4,3 °C 6,0 °C 0,0 km/h (0 Bft)
11.04.2017 22:01 6,0 °C 6,0 °C 90 % 1023,4 hPa 0,0 mm 0,0 km/h (0 Bft) NO 45 ° 0 min 0,000 mm 0,0 UV-I 0 W/m² 4,5 °C 6,0 °C 0,0 km/h (0 Bft)
11.04.2017 22:02 6,0 °C 6,1 °C 89 % 1023,5 hPa 0,0 mm 0,0 km/h (0 Bft) NO 45 ° 0 min 0,000 mm 0,0 UV-I 0 W/m² 4,3 °C 6,0 °C 0,0 km/h (0 Bft)
11.04.2017 22:03 6,1 °C 6,1 °C 89 % 1023,4 hPa 0,0 mm 0,0 km/h (0 Bft) NO 45 ° 0 min 0,000 mm 0,0 UV-I 0 W/m² 4,4 °C 6,1 °C 0,0 km/h (0 Bft)
11.04.2017 22:04 6,1 °C 6,1 °C 89 % 1023,4 hPa 0,0 mm 0,0 km/h (0 Bft) NO 45 ° 0 min 0,000 mm 0,0 UV-I 0 W/m² 4,4 °C 6,1 °C 0,0 km/h (0 Bft)
11.04.2017 22:05 6,1 °C 6,1 °C 89 % 1023,4 hPa 0,0 mm 0,0 km/h (0 Bft) NO 45 ° 0 min 0,000 mm 0,0 UV-I 0 W/m² 4,4 °C 6,1 °C 0,0 km/h (0 Bft)
11.04.2017 22:06 6,1 °C 6,1 °C 89 % 1023,4 hPa 0,0 mm 0,0 km/h (0 Bft) NO 45 ° 0 min 0,000 mm 0,0 UV-I 0 W/m² 4,4 °C 6,1 °C 0,0 km/h (0 Bft)
11.04.2017 22:07 6,1 °C 6,1 °C 89 % 1023,3 hPa 0,0 mm 0,0 km/h (0 Bft) NO 45 ° 0 min 0,000 mm 0,0 UV-I 0 W/m² 4,4 °C 6,1 °C 0,0 km/h (0 Bft)
11.04.2017 22:08 6,1 °C 6,1 °C 89 % 1023,3 hPa 0,0 mm 0,0 km/h (0 Bft) NO 44 ° 0 min 0,000 mm 0,0 UV-I 0 W/m² 4,4 °C 6,1 °C 0,0 km/h (0 Bft)
11.04.2017 22:09 6,1 °C 6,1 °C 89 % 1023,3 hPa 0,0 mm 0,0 km/h (0 Bft) NO 45 ° 0 min 0,000 mm 0,0 UV-I 0 W/m² 4,4 °C 6,1 °C 0,0 km/h (0 Bft)
11.04.2017 22:10 6,1 °C 6,1 °C 89 % 1023,4 hPa 0,0 mm 0,0 km/h (0 Bft) NO 45 ° 0 min 0,000 mm 0,0 UV-I 0 W/m² 4,4 °C 6,1 °C 0,0 km/h (0 Bft)
11.04.2017 22:11 6,0 °C 6,1 °C 89 % 1023,3 hPa 0,0 mm 0,0 km/h (0 Bft) NO 45 ° 0 min 0,000 mm 0,0 UV-I 0 W/m² 4,3 °C 6,0 °C 0,0 km/h (0 Bft)
11.04.2017 22:12 5,9 °C 6,0 °C 88 % 1023,3 hPa 0,0 mm 0,0 km/h (0 Bft) NO 45 ° 0 min 0,000 mm 0,0 UV-I 0 W/m² 4,1 °C 5,9 °C 0,0 km/h (0 Bft)
11.04.2017 22:13 5,9 °C 5,9 °C 88 % 1023,3 hPa 0,0 mm 0,0 km/h (0 Bft) NO 45 ° 0 min 0,000 mm 0,0 UV-I 0 W/m² 4,1 °C 5,9 °C 0,0 km/h (0 Bft)
11.04.2017 22:14 5,8 °C 5,9 °C 88 % 1023,3 hPa 0,0 mm 0,0 km/h (0 Bft) NO 44 ° 0 min 0,000 mm 0,0 UV-I 0 W/m² 4,0 °C 5,8 °C 0,0 km/h (0 Bft)
11.04.2017 22:15 5,8 °C 5,8 °C 88 % 1023,4 hPa 0,0 mm 0,0 km/h (0 Bft) NO 45 ° 0 min 0,000 mm 0,0 UV-I 0 W/m² 4,0 °C 5,8 °C 0,0 km/h (0 Bft)
11.04.2017 22:16 5,8 °C 5,8 °C 89 % 1023,3 hPa 0,0 mm 0,0 km/h (0 Bft) NO 45 ° 0 min 0,000 mm 0,0 UV-I 0 W/m² 4,1 °C 5,8 °C 0,0 km/h (0 Bft)
11.04.2017 22:17 5,8 °C 5,8 °C 89 % 1023,3 hPa 0,0 mm 0,0 km/h (0 Bft) NO 45 ° 0 min 0,000 mm 0,0 UV-I 0 W/m² 4,1 °C 5,8 °C 0,0 km/h (0 Bft)
11.04.2017 22:18 5,8 °C 5,8 °C 89 % 1023,4 hPa 0,0 mm 0,0 km/h (0 Bft) NO 45 ° 0 min 0,000 mm 0,0 UV-I 0 W/m² 4,1 °C 5,8 °C 0,0 km/h (0 Bft)
11.04.2017 22:19 5,7 °C 5,8 °C 89 % 1023,4 hPa 0,0 mm 0,0 km/h (0 Bft) NO 45 ° 0 min 0,000 mm 0,0 UV-I 0 W/m² 4,0 °C 5,7 °C 0,0 km/h (0 Bft)
11.04.2017 22:20 5,6 °C 5,7 °C 89 % 1023,4 hPa 0,0 mm 0,0 km/h (0 Bft) NO 45 ° 0 min 0,000 mm 0,0 UV-I 0 W/m² 3,9 °C 5,6 °C 0,0 km/h (0 Bft)
11.04.2017 22:21 5,5 °C 5,6 °C 89 % 1023,4 hPa 0,0 mm 0,0 km/h (0 Bft) NO 45 ° 0 min 0,000 mm 0,0 UV-I 0 W/m² 3,8 °C 5,5 °C 0,0 km/h (0 Bft)
11.04.2017 22:22 5,4 °C 5,5 °C 89 % 1023,4 hPa 0,0 mm 0,0 km/h (0 Bft) NO 45 ° 0 min 0,000 mm 0,0 UV-I 0 W/m² 3,7 °C 5,4 °C 0,0 km/h (0 Bft)
11.04.2017 22:23 5,4 °C 5,4 °C 89 % 1023,5 hPa 0,0 mm 0,0 km/h (0 Bft) NO 45 ° 0 min 0,000 mm 0,0 UV-I 0 W/m² 3,7 °C 5,4 °C 0,0 km/h (0 Bft)
11.04.2017 22:24 5,4 °C 5,4 °C 90 % 1023,5 hPa 0,0 mm 0,0 km/h (0 Bft) NO 45 ° 0 min 0,000 mm 0,0 UV-I 0 W/m² 3,9 °C 5,4 °C 0,0 km/h (0 Bft)
11.04.2017 22:25 5,3 °C 5,4 °C 90 % 1023,5 hPa 0,0 mm 0,0 km/h (0 Bft) NO 45 ° 0 min 0,000 mm 0,0 UV-I 0 W/m² 3,8 °C 5,3 °C 0,0 km/h (0 Bft)
11.04.2017 22:26 5,3 °C 5,4 °C 90 % 1023,5 hPa 0,0 mm 0,0 km/h (0 Bft) NO 45 ° 0 min 0,000 mm 0,0 UV-I 0 W/m² 3,8 °C 5,3 °C 0,0 km/h (0 Bft)
11.04.2017 22:27 5,3 °C 5,3 °C 89 % 1023,5 hPa 0,0 mm 0,0 km/h (0 Bft) NO 45 ° 0 min 0,000 mm 0,0 UV-I 0 W/m² 3,6 °C 5,3 °C 0,0 km/h (0 Bft)
11.04.2017 22:28 5,3 °C 5,3 °C 90 % 1023,5 hPa 0,0 mm 0,0 km/h (0 Bft) NO 45 ° 0 min 0,000 mm 0,0 UV-I 0 W/m² 3,8 °C 5,3 °C 0,0 km/h (0 Bft)
11.04.2017 22:29 5,2 °C 5,3 °C 90 % 1023,5 hPa 0,0 mm 0,0 km/h (0 Bft) NO 45 ° 0 min 0,000 mm 0,0 UV-I 0 W/m² 3,7 °C 5,2 °C 0,0 km/h (0 Bft)
11.04.2017 22:30 5,2 °C 5,2 °C 90 % 1023,5 hPa 0,0 mm 0,0 km/h (0 Bft) NO 45 ° 0 min 0,000 mm 0,0 UV-I 0 W/m² 3,7 °C 5,2 °C 0,0 km/h (0 Bft)
11.04.2017 22:31 5,3 °C 5,3 °C 90 % 1023,5 hPa 0,0 mm 0,0 km/h (0 Bft) NO 44 ° 0 min 0,000 mm 0,0 UV-I 0 W/m² 3,8 °C 5,3 °C 0,0 km/h (0 Bft)
11.04.2017 22:32 5,3 °C 5,3 °C 90 % 1023,5 hPa 0,0 mm 0,0 km/h (0 Bft) NO 44 ° 0 min 0,000 mm 0,0 UV-I 0 W/m² 3,8 °C 5,3 °C 0,0 km/h (0 Bft)
11.04.2017 22:33 5,3 °C 5,3 °C 90 % 1023,6 hPa 0,0 mm 0,0 km/h (0 Bft) NO 45 ° 0 min 0,000 mm 0,0 UV-I 0 W/m² 3,8 °C 5,3 °C 0,0 km/h (0 Bft)
11.04.2017 22:34 5,3 °C 5,3 °C 90 % 1023,6 hPa 0,0 mm 0,0 km/h (0 Bft) NO 45 ° 0 min 0,000 mm 0,0 UV-I 0 W/m² 3,8 °C 5,3 °C 0,0 km/h (0 Bft)
11.04.2017 22:35 5,3 °C 5,3 °C 90 % 1023,5 hPa 0,0 mm 0,0 km/h (0 Bft) NO 45 ° 0 min 0,000 mm 0,0 UV-I 0 W/m² 3,8 °C 5,3 °C 0,0 km/h (0 Bft)
11.04.2017 22:36 5,3 °C 5,3 °C 90 % 1023,6 hPa 0,0 mm 0,0 km/h (0 Bft) NO 45 ° 0 min 0,000 mm 0,0 UV-I 0 W/m² 3,8 °C 5,3 °C 0,0 km/h (0 Bft)
11.04.2017 22:37 5,2 °C 5,3 °C 89 % 1023,5 hPa 0,0 mm 0,0 km/h (0 Bft) NO 45 ° 0 min 0,000 mm 0,0 UV-I 0 W/m² 3,5 °C 5,2 °C 0,0 km/h (0 Bft)
11.04.2017 22:38 5,2 °C 5,2 °C 89 % 1023,5 hPa 0,0 mm 0,0 km/h (0 Bft) NO 45 ° 0 min 0,000 mm 0,0 UV-I 0 W/m² 3,5 °C 5,2 °C 0,0 km/h (0 Bft)
11.04.2017 22:39 5,1 °C 5,2 °C 89 % 1023,5 hPa 0,0 mm 0,4 km/h (0 Bft) NO 45 ° 0 min 0,000 mm 0,0 UV-I 0 W/m² 3,4 °C 5,1 °C 1,6 km/h (1 Bft)
11.04.2017 22:40 5,0 °C 5,1 °C 88 % 1023,5 hPa 0,0 mm 2,6 km/h (1 Bft) NO 45 ° 0 min 0,000 mm 0,0 UV-I 0 W/m² 3,2 °C 5,0 °C 3,2 km/h (1 Bft)
11.04.2017 22:41 4,9 °C 5,0 °C 88 % 1023,5 hPa 0,0 mm 1,8 km/h (1 Bft) NO 45 ° 0 min 0,000 mm 0,0 UV-I 0 W/m² 3,1 °C 4,9 °C 3,2 km/h (1 Bft)
11.04.2017 22:42 4,9 °C 5,0 °C 89 % 1023,5 hPa 0,0 mm 1,5 km/h (1 Bft) NO 45 ° 0 min 0,000 mm 0,0 UV-I 0 W/m² 3,2 °C 4,9 °C 3,2 km/h (1 Bft)
11.04.2017 22:44 4,7 °C 4,9 °C 88 % 1023,4 hPa 0,0 mm 1,4 km/h (1 Bft) NO 45 ° 0 min 0,000 mm 0,0 UV-I 0 W/m² 2,9 °C 4,7 °C 3,2 km/h (1 Bft)
11.04.2017 22:45 4,7 °C 4,7 °C 89 % 1023,4 hPa 0,0 mm 0,0 km/h (0 Bft) NO 45 ° 0 min 0,000 mm 0,0 UV-I 0 W/m² 3,0 °C 4,7 °C 0,0 km/h (0 Bft)
11.04.2017 22:46 4,7 °C 4,7 °C 90 % 1023,4 hPa 0,0 mm 0,0 km/h (0 Bft) NO 45 ° 0 min 0,000 mm 0,0 UV-I 0 W/m² 3,2 °C 4,7 °C 0,0 km/h (0 Bft)
11.04.2017 22:47 4,7 °C 4,7 °C 90 % 1023,4 hPa 0,0 mm 0,0 km/h (0 Bft) NO 45 ° 0 min 0,000 mm 0,0 UV-I 0 W/m² 3,2 °C 4,7 °C 0,0 km/h (0 Bft)
11.04.2017 22:49 4,8 °C 4,8 °C 90 % 1023,4 hPa 0,0 mm 0,0 km/h (0 Bft) NO 45 ° 0 min 0,000 mm 0,0 UV-I 0 W/m² 3,3 °C 4,8 °C 0,0 km/h (0 Bft)
11.04.2017 22:50 4,7 °C 4,8 °C 90 % 1023,4 hPa 0,0 mm 0,0 km/h (0 Bft) NO 45 ° 0 min 0,000 mm 0,0 UV-I 0 W/m² 3,2 °C 4,7 °C 0,0 km/h (0 Bft)
11.04.2017 22:51 4,7 °C 4,7 °C 90 % 1023,4 hPa 0,0 mm 0,0 km/h (0 Bft) NO 45 ° 0 min 0,000 mm 0,0 UV-I 0 W/m² 3,2 °C 4,7 °C 0,0 km/h (0 Bft)
11.04.2017 22:52 4,6 °C 4,7 °C 89 % 1023,3 hPa 0,0 mm 0,0 km/h (0 Bft) NO 45 ° 0 min 0,000 mm 0,0 UV-I 0 W/m² 2,9 °C 4,6 °C 0,0 km/h (0 Bft)
11.04.2017 22:53 4,6 °C 4,6 °C 90 % 1023,4 hPa 0,0 mm 0,0 km/h (0 Bft) NO 45 ° 0 min 0,000 mm 0,0 UV-I 0 W/m² 3,1 °C 4,6 °C 0,0 km/h (0 Bft)
11.04.2017 22:54 4,5 °C 4,6 °C 90 % 1023,3 hPa 0,0 mm 0,0 km/h (0 Bft) NO 45 ° 0 min 0,000 mm 0,0 UV-I 0 W/m² 3,0 °C 4,5 °C 0,0 km/h (0 Bft)
11.04.2017 22:55 4,4 °C 4,5 °C 89 % 1023,4 hPa 0,0 mm 0,0 km/h (0 Bft) NO 45 ° 0 min 0,000 mm 0,0 UV-I 0 W/m² 2,7 °C 4,4 °C 0,0 km/h (0 Bft)
11.04.2017 22:56 4,3 °C 4,4 °C 89 % 1023,3 hPa 0,0 mm 0,0 km/h (0 Bft) NO 45 ° 0 min 0,000 mm 0,0 UV-I 0 W/m² 2,7 °C 4,3 °C 0,0 km/h (0 Bft)
11.04.2017 22:57 4,2 °C 4,3 °C 89 % 1023,3 hPa 0,0 mm 0,0 km/h (0 Bft) NO 45 ° 0 min 0,000 mm 0,0 UV-I 0 W/m² 2,6 °C 4,2 °C 0,0 km/h (0 Bft)
11.04.2017 22:58 4,1 °C 4,2 °C 90 % 1023,3 hPa 0,0 mm 0,0 km/h (0 Bft) NO 45 ° 0 min 0,000 mm 0,0 UV-I 0 W/m² 2,6 °C 4,1 °C 0,0 km/h (0 Bft)
11.04.2017 22:59 4,1 °C 4,1 °C 90 % 1023,4 hPa 0,0 mm 0,0 km/h (0 Bft) NO 45 ° 0 min 0,000 mm 0,0 UV-I 0 W/m² 2,6 °C 4,1 °C 0,0 km/h (0 Bft)
11.04.2017 23:00 4,0 °C 4,1 °C 90 % 1023,4 hPa 0,0 mm 0,0 km/h (0 Bft) NO 45 ° 0 min 0,000 mm 0,0 UV-I 0 W/m² 2,5 °C 4,0 °C 0,0 km/h (0 Bft)
11.04.2017 23:01 4,0 °C 4,0 °C 91 % 1023,4 hPa 0,0 mm 0,0 km/h (0 Bft) NO 45 ° 0 min 0,000 mm 0,0 UV-I 0 W/m² 2,7 °C 4,0 °C 0,0 km/h (0 Bft)
11.04.2017 23:02 3,9 °C 4,0 °C 91 % 1023,4 hPa 0,0 mm 0,0 km/h (0 Bft) NO 45 ° 0 min 0,000 mm 0,0 UV-I 0 W/m² 2,6 °C 3,9 °C 0,0 km/h (0 Bft)
11.04.2017 23:03 3,9 °C 3,9 °C 91 % 1023,4 hPa 0,0 mm 0,0 km/h (0 Bft) NO 45 ° 0 min 0,000 mm 0,0 UV-I 0 W/m² 2,6 °C 3,9 °C 0,0 km/h (0 Bft)
11.04.2017 23:04 3,9 °C 3,9 °C 91 % 1023,4 hPa 0,0 mm 0,0 km/h (0 Bft) NO 45 ° 0 min 0,000 mm 0,0 UV-I 0 W/m² 2,6 °C 3,9 °C 0,0 km/h (0 Bft)
11.04.2017 23:05 3,9 °C 3,9 °C 91 % 1023,4 hPa 0,0 mm 0,0 km/h (0 Bft) NO 45 ° 0 min 0,000 mm 0,0 UV-I 0 W/m² 2,6 °C 3,9 °C 0,0 km/h (0 Bft)
11.04.2017 23:06 3,9 °C 3,9 °C 91 % 1023,4 hPa 0,0 mm 0,0 km/h (0 Bft) NO 45 ° 0 min 0,000 mm 0,0 UV-I 0 W/m² 2,6 °C 3,9 °C 0,0 km/h (0 Bft)
11.04.2017 23:07 3,9 °C 3,9 °C 91 % 1023,4 hPa 0,0 mm 0,0 km/h (0 Bft) NO 45 ° 0 min 0,000 mm 0,0 UV-I 0 W/m² 2,6 °C 3,9 °C 0,0 km/h (0 Bft)
11.04.2017 23:08 3,8 °C 3,9 °C 91 % 1023,4 hPa 0,0 mm 0,0 km/h (0 Bft) NO 45 ° 0 min 0,000 mm 0,0 UV-I 0 W/m² 2,5 °C 3,8 °C 0,0 km/h (0 Bft)
11.04.2017 23:09 3,8 °C 3,8 °C 91 % 1023,4 hPa 0,0 mm 0,0 km/h (0 Bft) NO 45 ° 0 min 0,000 mm 0,0 UV-I 0 W/m² 2,5 °C 3,8 °C 0,0 km/h (0 Bft)
11.04.2017 23:10 3,7 °C 3,8 °C 91 % 1023,4 hPa 0,0 mm 0,0 km/h (0 Bft) NO 45 ° 0 min 0,000 mm 0,0 UV-I 0 W/m² 2,4 °C 3,7 °C 0,0 km/h (0 Bft)
11.04.2017 23:11 3,7 °C 3,7 °C 91 % 1023,4 hPa 0,0 mm 0,0 km/h (0 Bft) NO 45 ° 0 min 0,000 mm 0,0 UV-I 0 W/m² 2,4 °C 3,7 °C 0,0 km/h (0 Bft)
11.04.2017 23:12 3,8 °C 3,8 °C 92 % 1023,4 hPa 0,0 mm 0,0 km/h (0 Bft) NO 45 ° 0 min 0,000 mm 0,0 UV-I 0 W/m² 2,6 °C 3,8 °C 0,0 km/h (0 Bft)
11.04.2017 23:13 3,8 °C 3,8 °C 92 % 1023,3 hPa 0,0 mm 0,0 km/h (0 Bft) NO 45 ° 0 min 0,000 mm 0,0 UV-I 0 W/m² 2,6 °C 3,8 °C 0,0 km/h (0 Bft)
11.04.2017 23:14 3,8 °C 3,8 °C 92 % 1023,3 hPa 0,0 mm 0,1 km/h (0 Bft) NO 45 ° 0 min 0,000 mm 0,0 UV-I 0 W/m² 2,6 °C 3,8 °C 1,6 km/h (1 Bft)
11.04.2017 23:15 3,9 °C 3,9 °C 92 % 1023,3 hPa 0,0 mm 0,1 km/h (0 Bft) NO 45 ° 0 min 0,000 mm 0,0 UV-I 0 W/m² 2,7 °C 3,9 °C 1,6 km/h (1 Bft)
11.04.2017 23:16 3,9 °C 3,9 °C 92 % 1023,4 hPa 0,0 mm 1,2 km/h (1 Bft) NO 45 ° 0 min 0,000 mm 0,0 UV-I 0 W/m² 2,7 °C 3,9 °C 3,2 km/h (1 Bft)
11.04.2017 23:17 4,1 °C 4,1 °C 93 % 1023,4 hPa 0,0 mm 0,1 km/h (0 Bft) NO 45 ° 0 min 0,000 mm 0,0 UV-I 0 W/m² 3,1 °C 4,1 °C 1,6 km/h (1 Bft)
11.04.2017 23:18 4,1 °C 4,1 °C 93 % 1023,3 hPa 0,0 mm 0,9 km/h (0 Bft) NO 45 ° 0 min 0,000 mm 0,0 UV-I 0 W/m² 3,1 °C 4,1 °C 3,2 km/h (1 Bft)
11.04.2017 23:19 4,2 °C 4,2 °C 92 % 1023,4 hPa 0,0 mm 0,2 km/h (0 Bft) NO 45 ° 0 min 0,000 mm 0,0 UV-I 0 W/m² 3,0 °C 4,2 °C 1,6 km/h (1 Bft)
11.04.2017 23:20 4,3 °C 4,3 °C 93 % 1023,4 hPa 0,0 mm 0,0 km/h (0 Bft) NO 45 ° 0 min 0,000 mm 0,0 UV-I 0 W/m² 3,3 °C 4,3 °C 0,0 km/h (0 Bft)
11.04.2017 23:21 4,3 °C 4,3 °C 93 % 1023,4 hPa 0,0 mm 0,0 km/h (0 Bft) NO 45 ° 0 min 0,000 mm 0,0 UV-I 0 W/m² 3,3 °C 4,3 °C 0,0 km/h (0 Bft)
11.04.2017 23:22 4,3 °C 4,3 °C 93 % 1023,4 hPa 0,0 mm 0,3 km/h (0 Bft) NO 45 ° 0 min 0,000 mm 0,0 UV-I 0 W/m² 3,3 °C 4,3 °C 1,6 km/h (1 Bft)
11.04.2017 23:23 4,4 °C 4,4 °C 92 % 1023,4 hPa 0,0 mm 0,0 km/h (0 Bft) NO 45 ° 0 min 0,000 mm 0,0 UV-I 0 W/m² 3,2 °C 4,4 °C 0,0 km/h (0 Bft)
11.04.2017 23:24 4,3 °C 4,4 °C 92 % 1023,3 hPa 0,0 mm 0,4 km/h (0 Bft) NO 45 ° 0 min 0,000 mm 0,0 UV-I 0 W/m² 3,1 °C 4,3 °C 1,6 km/h (1 Bft)
11.04.2017 23:25 4,3 °C 4,4 °C 92 % 1023,3 hPa 0,0 mm 0,0 km/h (0 Bft) NO 45 ° 0 min 0,000 mm 0,0 UV-I 0 W/m² 3,1 °C 4,3 °C 0,0 km/h (0 Bft)
11.04.2017 23:26 4,4 °C 4,4 °C 92 % 1023,3 hPa 0,0 mm 0,0 km/h (0 Bft) NO 45 ° 0 min 0,000 mm 0,0 UV-I 0 W/m² 3,2 °C 4,4 °C 0,0 km/h (0 Bft)
11.04.2017 23:27 4,3 °C 4,4 °C 92 % 1023,3 hPa 0,0 mm 0,1 km/h (0 Bft) NO 45 ° 0 min 0,000 mm 0,0 UV-I 0 W/m² 3,1 °C 4,3 °C 1,6 km/h (1 Bft)
11.04.2017 23:28 4,3 °C 4,3 °C 92 % 1023,3 hPa 0,0 mm 0,6 km/h (0 Bft) NO 45 ° 0 min 0,000 mm 0,0 UV-I 0 W/m² 3,1 °C 4,3 °C 1,6 km/h (1 Bft)
11.04.2017 23:29 4,3 °C 4,3 °C 92 % 1023,3 hPa 0,0 mm 0,7 km/h (0 Bft) NO 45 ° 0 min 0,000 mm 0,0 UV-I 0 W/m² 3,1 °C 4,3 °C 1,6 km/h (1 Bft)
11.04.2017 23:30 4,4 °C 4,4 °C 92 % 1023,3 hPa 0,0 mm 0,0 km/h (0 Bft) NO 45 ° 0 min 0,000 mm 0,0 UV-I 0 W/m² 3,2 °C 4,4 °C 0,0 km/h (0 Bft)
11.04.2017 23:31 4,2 °C 4,4 °C 90 % 1023,3 hPa 0,0 mm 0,0 km/h (0 Bft) NO 45 ° 0 min 0,000 mm 0,0 UV-I 0 W/m² 2,7 °C 4,2 °C 0,0 km/h (0 Bft)
11.04.2017 23:32 4,1 °C 4,2 °C 90 % 1023,3 hPa 0,0 mm 0,0 km/h (0 Bft) NO 45 ° 0 min 0,000 mm 0,0 UV-I 0 W/m² 2,6 °C 4,1 °C 0,0 km/h (0 Bft)
11.04.2017 23:33 3,8 °C 4,1 °C 90 % 1023,2 hPa 0,0 mm 0,0 km/h (0 Bft) NO 45 ° 0 min 0,000 mm 0,0 UV-I 0 W/m² 2,3 °C 3,8 °C 0,0 km/h (0 Bft)
11.04.2017 23:34 3,7 °C 3,8 °C 90 % 1023,2 hPa 0,0 mm 0,0 km/h (0 Bft) NO 45 ° 0 min 0,000 mm 0,0 UV-I 0 W/m² 2,2 °C 3,7 °C 0,0 km/h (0 Bft)
11.04.2017 23:35 3,6 °C 3,7 °C 90 % 1023,2 hPa 0,0 mm 0,0 km/h (0 Bft) NO 45 ° 0 min 0,000 mm 0,0 UV-I 0 W/m² 2,1 °C 3,6 °C 0,0 km/h (0 Bft)
11.04.2017 23:36 3,5 °C 3,6 °C 91 % 1023,2 hPa 0,0 mm 0,0 km/h (0 Bft) NO 45 ° 0 min 0,000 mm 0,0 UV-I 0 W/m² 2,2 °C 3,5 °C 0,0 km/h (0 Bft)
11.04.2017 23:37 3,4 °C 3,5 °C 91 % 1023,2 hPa 0,0 mm 0,0 km/h (0 Bft) NO 45 ° 0 min 0,000 mm 0,0 UV-I 0 W/m² 2,1 °C 3,4 °C 0,0 km/h (0 Bft)
11.04.2017 23:38 3,5 °C 3,5 °C 92 % 1023,2 hPa 0,0 mm 0,0 km/h (0 Bft) NO 45 ° 0 min 0,000 mm 0,0 UV-I 0 W/m² 2,3 °C 3,5 °C 0,0 km/h (0 Bft)
11.04.2017 23:39 3,6 °C 3,6 °C 92 % 1023,3 hPa 0,0 mm 0,0 km/h (0 Bft) NO 45 ° 0 min 0,000 mm 0,0 UV-I 0 W/m² 2,4 °C 3,6 °C 0,0 km/h (0 Bft)
11.04.2017 23:40 3,7 °C 3,7 °C 92 % 1023,2 hPa 0,0 mm 0,0 km/h (0 Bft) NO 45 ° 0 min 0,000 mm 0,0 UV-I 0 W/m² 2,5 °C 3,7 °C 0,0 km/h (0 Bft)
11.04.2017 23:41 3,7 °C 3,7 °C 92 % 1023,3 hPa 0,0 mm 0,0 km/h (0 Bft) NO 45 ° 0 min 0,000 mm 0,0 UV-I 0 W/m² 2,5 °C 3,7 °C 0,0 km/h (0 Bft)
11.04.2017 23:42 3,7 °C 3,7 °C 91 % 1023,2 hPa 0,0 mm 0,0 km/h (0 Bft) NO 45 ° 0 min 0,000 mm 0,0 UV-I 0 W/m² 2,4 °C 3,7 °C 0,0 km/h (0 Bft)
11.04.2017 23:43 3,6 °C 3,7 °C 91 % 1023,2 hPa 0,0 mm 0,0 km/h (0 Bft) NO 45 ° 0 min 0,000 mm 0,0 UV-I 0 W/m² 2,3 °C 3,6 °C 0,0 km/h (0 Bft)
11.04.2017 23:44 3,5 °C 3,6 °C 91 % 1023,2 hPa 0,0 mm 0,0 km/h (0 Bft) NO 45 ° 0 min 0,000 mm 0,0 UV-I 0 W/m² 2,2 °C 3,5 °C 0,0 km/h (0 Bft)
11.04.2017 23:45 3,5 °C 3,5 °C 92 % 1023,2 hPa 0,0 mm 0,0 km/h (0 Bft) NO 45 ° 0 min 0,000 mm 0,0 UV-I 0 W/m² 2,3 °C 3,5 °C 0,0 km/h (0 Bft)
11.04.2017 23:46 3,6 °C 3,6 °C 92 % 1023,2 hPa 0,0 mm 0,0 km/h (0 Bft) NO 45 ° 0 min 0,000 mm 0,0 UV-I 0 W/m² 2,4 °C 3,6 °C 0,0 km/h (0 Bft)
11.04.2017 23:47 3,6 °C 3,6 °C 92 % 1023,2 hPa 0,0 mm 0,0 km/h (0 Bft) NO 45 ° 0 min 0,000 mm 0,0 UV-I 0 W/m² 2,4 °C 3,6 °C 0,0 km/h (0 Bft)
11.04.2017 23:48 3,6 °C 3,6 °C 92 % 1023,2 hPa 0,0 mm 0,0 km/h (0 Bft) NO 45 ° 0 min 0,000 mm 0,0 UV-I 0 W/m² 2,4 °C 3,6 °C 0,0 km/h (0 Bft)
11.04.2017 23:49 3,6 °C 3,6 °C 92 % 1023,3 hPa 0,0 mm 0,0 km/h (0 Bft) NO 45 ° 0 min 0,000 mm 0,0 UV-I 0 W/m² 2,4 °C 3,6 °C 0,0 km/h (0 Bft)
11.04.2017 23:50 3,6 °C 3,6 °C 92 % 1023,3 hPa 0,0 mm 0,0 km/h (0 Bft) NO 45 ° 0 min 0,000 mm 0,0 UV-I 0 W/m² 2,4 °C 3,6 °C 0,0 km/h (0 Bft)
11.04.2017 23:51 3,6 °C 3,6 °C 92 % 1023,3 hPa 0,0 mm 0,0 km/h (0 Bft) NO 45 ° 0 min 0,000 mm 0,0 UV-I 0 W/m² 2,4 °C 3,6 °C 0,0 km/h (0 Bft)
11.04.2017 23:52 3,7 °C 3,7 °C 92 % 1023,3 hPa 0,0 mm 0,0 km/h (0 Bft) NO 45 ° 0 min 0,000 mm 0,0 UV-I 0 W/m² 2,5 °C 3,7 °C 0,0 km/h (0 Bft)
11.04.2017 23:53 3,7 °C 3,7 °C 92 % 1023,3 hPa 0,0 mm 0,0 km/h (0 Bft) NO 45 ° 0 min 0,000 mm 0,0 UV-I 0 W/m² 2,5 °C 3,7 °C 0,0 km/h (0 Bft)
11.04.2017 23:54 3,7 °C 3,7 °C 92 % 1023,3 hPa 0,0 mm 1,0 km/h (0 Bft) NO 45 ° 0 min 0,000 mm 0,0 UV-I 0 W/m² 2,5 °C 3,7 °C 1,6 km/h (1 Bft)
11.04.2017 23:55 3,7 °C 3,7 °C 92 % 1023,3 hPa 0,0 mm 1,3 km/h (1 Bft) NO 45 ° 0 min 0,000 mm 0,0 UV-I 0 W/m² 2,5 °C 3,7 °C 3,2 km/h (1 Bft)
11.04.2017 23:56 3,8 °C 3,8 °C 92 % 1023,3 hPa 0,0 mm 2,3 km/h (1 Bft) NO 45 ° 0 min 0,000 mm 0,0 UV-I 0 W/m² 2,6 °C 3,8 °C 3,2 km/h (1 Bft)
11.04.2017 23:57 3,7 °C 3,8 °C 92 % 1023,3 hPa 0,0 mm 1,7 km/h (1 Bft) NO 45 ° 0 min 0,000 mm 0,0 UV-I 0 W/m² 2,5 °C 3,7 °C 3,2 km/h (1 Bft)
11.04.2017 23:58 3,7 °C 3,7 °C 92 % 1023,3 hPa 0,0 mm 2,1 km/h (1 Bft) NO 45 ° 0 min 0,000 mm 0,0 UV-I 0 W/m² 2,5 °C 3,7 °C 3,2 km/h (1 Bft)
11.04.2017 23:59 3,7 °C 3,7 °C 91 % 1023,3 hPa 0,0 mm 1,9 km/h (1 Bft) NO 45 ° 0 min 0,000 mm 0,0 UV-I 0 W/m² 2,4 °C 3,7 °C 3,2 km/h (1 Bft)
_ Min-Zeit 23:37 23:45 17:46 00:14 - 23:53 - - - - - - 23:37 23:37 23:53
Minimum _ 3,4 °C 3,5 °C 70 % 1016,4 hPa - 0,0 km/h (0 Bft) - - - - - - 2,1 °C 3,4 °C 0,0 km/h (0 Bft)
_ Max-Zeit 00:00 00:00 23:22 22:36 05:07 00:51 - - 15:28 16:00 15:19 15:20 01:51 00:03 00:51
Maximum _ 12,3 °C 12,3 °C 93 % 1023,6 hPa 0,2 mm 12,2 km/h
W-SW (2 Bft)
- - 1 min 0,152 mm 4,1 UV-I 758 W/m² 7,3 °C 12,2 °C 16,1 km/h
SW (3 Bft)
Durchschnitt _ 7,5 °C 7,6 °C 83 % 1020,7 hPa #0,2 mm 1,7 km/h (1 Bft) W - #35 min. #0,813 mm 1,2 UV-I 59 W/m² 4,8 °C 7,5 °C 3,1 km/h (1 Bft)